<?xml version="1.0" encoding="UTF-8" standalone="no" ?>
<gpx xmlns="http://www.topografix.com/GPX/1/1" xmlns:xsi="http://www.w3.org/2001/XMLSchema-instance" xsi:schemaLocation="http://www.topografix.com/GPX/1/1 http://www.topografix.com/GPX/1/1/gpx.xsd" version="1.1" creator="VisuGPX - https://www.visugpx.com">
  <metadata>
    <name>Hardangervidda 2019</name>
  </metadata>
  <trk>
    <name><![CDATA[2019-04-02]]></name>
    <trkseg>
      <trkpt lat="60.46154" lon="7.81791">
        <ele>1114.79</ele>
        <time>2019-04-02T08:08:00Z</time>
      </trkpt>
      <trkpt lat="60.46154" lon="7.81791">
        <ele>1114.79</ele>
        <time>2019-04-02T08:08:01Z</time>
      </trkpt>
      <trkpt lat="60.46154" lon="7.8179">
        <ele>1152.76</ele>
        <time>2019-04-02T08:08:05Z</time>
      </trkpt>
      <trkpt lat="60.46154" lon="7.8179">
        <ele>1152.76</ele>
        <time>2019-04-02T08:08:06Z</time>
      </trkpt>
      <trkpt lat="60.46154" lon="7.8179">
        <ele>1149.87</ele>
        <time>2019-04-02T08:08:12Z</time>
      </trkpt>
      <trkpt lat="60.46154" lon="7.81791">
        <ele>1148.91</ele>
        <time>2019-04-02T08:08:19Z</time>
      </trkpt>
      <trkpt lat="60.46155" lon="7.8179">
        <ele>1147.47</ele>
        <time>2019-04-02T08:08:39Z</time>
      </trkpt>
      <trkpt lat="60.46154" lon="7.81789">
        <ele>1147.47</ele>
        <time>2019-04-02T08:09:05Z</time>
      </trkpt>
      <trkpt lat="60.46154" lon="7.81792">
        <ele>1147.95</ele>
        <time>2019-04-02T08:09:45Z</time>
      </trkpt>
      <trkpt lat="60.46156" lon="7.81793">
        <ele>1149.87</ele>
        <time>2019-04-02T08:10:03Z</time>
      </trkpt>
      <trkpt lat="60.46156" lon="7.8179">
        <ele>1149.87</ele>
        <time>2019-04-02T08:10:15Z</time>
      </trkpt>
      <trkpt lat="60.46155" lon="7.81793">
        <ele>1149.87</ele>
        <time>2019-04-02T08:10:31Z</time>
      </trkpt>
      <trkpt lat="60.46155" lon="7.81794">
        <ele>1149.87</ele>
        <time>2019-04-02T08:10:41Z</time>
      </trkpt>
      <trkpt lat="60.46154" lon="7.81796">
        <ele>1149.87</ele>
        <time>2019-04-02T08:10:56Z</time>
      </trkpt>
      <trkpt lat="60.46157" lon="7.81805">
        <ele>1150.35</ele>
        <time>2019-04-02T08:11:08Z</time>
      </trkpt>
      <trkpt lat="60.46157" lon="7.81809">
        <ele>1150.35</ele>
        <time>2019-04-02T08:11:16Z</time>
      </trkpt>
      <trkpt lat="60.46155" lon="7.8184">
        <ele>1150.35</ele>
        <time>2019-04-02T08:11:30Z</time>
      </trkpt>
      <trkpt lat="60.46153" lon="7.8185">
        <ele>1150.35</ele>
        <time>2019-04-02T08:11:39Z</time>
      </trkpt>
      <trkpt lat="60.46152" lon="7.81858">
        <ele>1150.35</ele>
        <time>2019-04-02T08:11:43Z</time>
      </trkpt>
      <trkpt lat="60.46142" lon="7.81888">
        <ele>1150.84</ele>
        <time>2019-04-02T08:12:00Z</time>
      </trkpt>
      <trkpt lat="60.46138" lon="7.81903">
        <ele>1150.84</ele>
        <time>2019-04-02T08:12:10Z</time>
      </trkpt>
      <trkpt lat="60.46125" lon="7.81922">
        <ele>1150.84</ele>
        <time>2019-04-02T08:12:26Z</time>
      </trkpt>
      <trkpt lat="60.46124" lon="7.81923">
        <ele>1149.87</ele>
        <time>2019-04-02T08:12:31Z</time>
      </trkpt>
      <trkpt lat="60.46122" lon="7.8192">
        <ele>1149.39</ele>
        <time>2019-04-02T08:12:50Z</time>
      </trkpt>
      <trkpt lat="60.46122" lon="7.81921">
        <ele>1148.91</ele>
        <time>2019-04-02T08:12:59Z</time>
      </trkpt>
      <trkpt lat="60.46123" lon="7.81919">
        <ele>1148.91</ele>
        <time>2019-04-02T08:13:10Z</time>
      </trkpt>
      <trkpt lat="60.4612" lon="7.81923">
        <ele>1148.43</ele>
        <time>2019-04-02T08:13:19Z</time>
      </trkpt>
      <trkpt lat="60.46121" lon="7.81923">
        <ele>1148.43</ele>
        <time>2019-04-02T08:13:21Z</time>
      </trkpt>
      <trkpt lat="60.46122" lon="7.81925">
        <ele>1146.99</ele>
        <time>2019-04-02T08:13:32Z</time>
      </trkpt>
      <trkpt lat="60.4612" lon="7.81927">
        <ele>1146.99</ele>
        <time>2019-04-02T08:14:21Z</time>
      </trkpt>
      <trkpt lat="60.46119" lon="7.81926">
        <ele>1146.99</ele>
        <time>2019-04-02T08:15:12Z</time>
      </trkpt>
      <trkpt lat="60.46119" lon="7.81928">
        <ele>1147.47</ele>
        <time>2019-04-02T08:15:55Z</time>
      </trkpt>
      <trkpt lat="60.46119" lon="7.81928">
        <ele>1147.47</ele>
        <time>2019-04-02T08:16:38Z</time>
      </trkpt>
      <trkpt lat="60.46119" lon="7.81928">
        <ele>1147.47</ele>
        <time>2019-04-02T08:17:26Z</time>
      </trkpt>
      <trkpt lat="60.4612" lon="7.81928">
        <ele>1147.47</ele>
        <time>2019-04-02T08:18:20Z</time>
      </trkpt>
      <trkpt lat="60.46119" lon="7.81929">
        <ele>1147.47</ele>
        <time>2019-04-02T08:19:14Z</time>
      </trkpt>
      <trkpt lat="60.46119" lon="7.8193">
        <ele>1147.47</ele>
        <time>2019-04-02T08:20:03Z</time>
      </trkpt>
      <trkpt lat="60.46121" lon="7.81929">
        <ele>1147.47</ele>
        <time>2019-04-02T08:20:53Z</time>
      </trkpt>
      <trkpt lat="60.46119" lon="7.81928">
        <ele>1149.39</ele>
        <time>2019-04-02T08:21:32Z</time>
      </trkpt>
      <trkpt lat="60.46117" lon="7.81932">
        <ele>1149.39</ele>
        <time>2019-04-02T08:21:40Z</time>
      </trkpt>
      <trkpt lat="60.4611" lon="7.81941">
        <ele>1149.39</ele>
        <time>2019-04-02T08:21:47Z</time>
      </trkpt>
      <trkpt lat="60.46112" lon="7.81941">
        <ele>1149.87</ele>
        <time>2019-04-02T08:21:58Z</time>
      </trkpt>
      <trkpt lat="60.46112" lon="7.81944">
        <ele>1149.87</ele>
        <time>2019-04-02T08:22:02Z</time>
      </trkpt>
      <trkpt lat="60.46113" lon="7.81988">
        <ele>1152.76</ele>
        <time>2019-04-02T08:22:08Z</time>
      </trkpt>
      <trkpt lat="60.46112" lon="7.81998">
        <ele>1152.76</ele>
        <time>2019-04-02T08:22:09Z</time>
      </trkpt>
      <trkpt lat="60.46112" lon="7.82018">
        <ele>1154.2</ele>
        <time>2019-04-02T08:22:11Z</time>
      </trkpt>
      <trkpt lat="60.46112" lon="7.82026">
        <ele>1154.2</ele>
        <time>2019-04-02T08:22:12Z</time>
      </trkpt>
      <trkpt lat="60.46113" lon="7.82031">
        <ele>1154.2</ele>
        <time>2019-04-02T08:22:13Z</time>
      </trkpt>
      <trkpt lat="60.46114" lon="7.82033">
        <ele>1152.76</ele>
        <time>2019-04-02T08:22:14Z</time>
      </trkpt>
      <trkpt lat="60.46115" lon="7.82034">
        <ele>1152.76</ele>
        <time>2019-04-02T08:22:15Z</time>
      </trkpt>
      <trkpt lat="60.46116" lon="7.82034">
        <ele>1152.28</ele>
        <time>2019-04-02T08:22:17Z</time>
      </trkpt>
      <trkpt lat="60.46119" lon="7.82025">
        <ele>1151.8</ele>
        <time>2019-04-02T08:22:24Z</time>
      </trkpt>
      <trkpt lat="60.46132" lon="7.82036">
        <ele>1154.68</ele>
        <time>2019-04-02T08:22:28Z</time>
      </trkpt>
      <trkpt lat="60.46142" lon="7.82068">
        <ele>1156.6</ele>
        <time>2019-04-02T08:22:31Z</time>
      </trkpt>
      <trkpt lat="60.46147" lon="7.82123">
        <ele>1159.01</ele>
        <time>2019-04-02T08:22:35Z</time>
      </trkpt>
      <trkpt lat="60.46146" lon="7.8217">
        <ele>1159.97</ele>
        <time>2019-04-02T08:22:40Z</time>
      </trkpt>
      <trkpt lat="60.46146" lon="7.82174">
        <ele>1159.49</ele>
        <time>2019-04-02T08:22:56Z</time>
      </trkpt>
      <trkpt lat="60.46147" lon="7.82178">
        <ele>1159.49</ele>
        <time>2019-04-02T08:23:20Z</time>
      </trkpt>
      <trkpt lat="60.46149" lon="7.82178">
        <ele>1159.49</ele>
        <time>2019-04-02T08:23:36Z</time>
      </trkpt>
      <trkpt lat="60.4615" lon="7.82176">
        <ele>1160.45</ele>
        <time>2019-04-02T08:24:03Z</time>
      </trkpt>
      <trkpt lat="60.4615" lon="7.82176">
        <ele>1160.45</ele>
        <time>2019-04-02T08:24:06Z</time>
      </trkpt>
      <trkpt lat="60.4615" lon="7.82171">
        <ele>1157.56</ele>
        <time>2019-04-02T08:24:09Z</time>
      </trkpt>
      <trkpt lat="60.46148" lon="7.82168">
        <ele>1159.01</ele>
        <time>2019-04-02T08:24:15Z</time>
      </trkpt>
      <trkpt lat="60.46148" lon="7.82169">
        <ele>1157.56</ele>
        <time>2019-04-02T08:24:17Z</time>
      </trkpt>
      <trkpt lat="60.46135" lon="7.82156">
        <ele>1156.12</ele>
        <time>2019-04-02T08:24:27Z</time>
      </trkpt>
      <trkpt lat="60.46136" lon="7.82153">
        <ele>1157.56</ele>
        <time>2019-04-02T08:24:30Z</time>
      </trkpt>
      <trkpt lat="60.46139" lon="7.82147">
        <ele>1158.05</ele>
        <time>2019-04-02T08:24:40Z</time>
      </trkpt>
      <trkpt lat="60.46146" lon="7.82131">
        <ele>1158.05</ele>
        <time>2019-04-02T08:24:50Z</time>
      </trkpt>
      <trkpt lat="60.46144" lon="7.8213">
        <ele>1158.05</ele>
        <time>2019-04-02T08:25:05Z</time>
      </trkpt>
      <trkpt lat="60.46164" lon="7.82145">
        <ele>1159.01</ele>
        <time>2019-04-02T08:25:12Z</time>
      </trkpt>
      <trkpt lat="60.46168" lon="7.82156">
        <ele>1159.97</ele>
        <time>2019-04-02T08:25:13Z</time>
      </trkpt>
      <trkpt lat="60.46194" lon="7.82211">
        <ele>1164.29</ele>
        <time>2019-04-02T08:25:18Z</time>
      </trkpt>
      <trkpt lat="60.46204" lon="7.8224">
        <ele>1166.22</ele>
        <time>2019-04-02T08:25:20Z</time>
      </trkpt>
      <trkpt lat="60.46219" lon="7.82285">
        <ele>1171.5</ele>
        <time>2019-04-02T08:25:23Z</time>
      </trkpt>
      <trkpt lat="60.46236" lon="7.82334">
        <ele>1175.35</ele>
        <time>2019-04-02T08:25:26Z</time>
      </trkpt>
      <trkpt lat="60.46253" lon="7.82377">
        <ele>1178.71</ele>
        <time>2019-04-02T08:25:29Z</time>
      </trkpt>
      <trkpt lat="60.46268" lon="7.8241">
        <ele>1182.56</ele>
        <time>2019-04-02T08:25:32Z</time>
      </trkpt>
      <trkpt lat="60.46277" lon="7.8243">
        <ele>1188.81</ele>
        <time>2019-04-02T08:25:35Z</time>
      </trkpt>
      <trkpt lat="60.46279" lon="7.82433">
        <ele>1189.77</ele>
        <time>2019-04-02T08:25:36Z</time>
      </trkpt>
      <trkpt lat="60.46297" lon="7.82467">
        <ele>1192.17</ele>
        <time>2019-04-02T08:25:43Z</time>
      </trkpt>
      <trkpt lat="60.46307" lon="7.82494">
        <ele>1195.54</ele>
        <time>2019-04-02T08:25:47Z</time>
      </trkpt>
      <trkpt lat="60.46309" lon="7.8248">
        <ele>1195.06</ele>
        <time>2019-04-02T08:25:50Z</time>
      </trkpt>
      <trkpt lat="60.46303" lon="7.82461">
        <ele>1189.77</ele>
        <time>2019-04-02T08:25:52Z</time>
      </trkpt>
      <trkpt lat="60.46291" lon="7.82436">
        <ele>1184.96</ele>
        <time>2019-04-02T08:25:55Z</time>
      </trkpt>
      <trkpt lat="60.46288" lon="7.82428">
        <ele>1184.96</ele>
        <time>2019-04-02T08:25:56Z</time>
      </trkpt>
      <trkpt lat="60.46284" lon="7.8242">
        <ele>1183.04</ele>
        <time>2019-04-02T08:25:57Z</time>
      </trkpt>
      <trkpt lat="60.4627" lon="7.82375">
        <ele>1177.75</ele>
        <time>2019-04-02T08:26:01Z</time>
      </trkpt>
      <trkpt lat="60.46265" lon="7.82363">
        <ele>1173.91</ele>
        <time>2019-04-02T08:26:02Z</time>
      </trkpt>
      <trkpt lat="60.46256" lon="7.82341">
        <ele>1173.43</ele>
        <time>2019-04-02T08:26:04Z</time>
      </trkpt>
      <trkpt lat="60.46243" lon="7.82307">
        <ele>1168.14</ele>
        <time>2019-04-02T08:26:07Z</time>
      </trkpt>
      <trkpt lat="60.46232" lon="7.8228">
        <ele>1164.77</ele>
        <time>2019-04-02T08:26:09Z</time>
      </trkpt>
      <trkpt lat="60.46214" lon="7.82244">
        <ele>1159.97</ele>
        <time>2019-04-02T08:26:12Z</time>
      </trkpt>
      <trkpt lat="60.46199" lon="7.82222">
        <ele>1159.01</ele>
        <time>2019-04-02T08:26:14Z</time>
      </trkpt>
      <trkpt lat="60.46177" lon="7.82191">
        <ele>1155.16</ele>
        <time>2019-04-02T08:26:17Z</time>
      </trkpt>
      <trkpt lat="60.46169" lon="7.82181">
        <ele>1155.16</ele>
        <time>2019-04-02T08:26:18Z</time>
      </trkpt>
      <trkpt lat="60.4613" lon="7.82126">
        <ele>1152.76</ele>
        <time>2019-04-02T08:26:25Z</time>
      </trkpt>
      <trkpt lat="60.46133" lon="7.82109">
        <ele>1156.12</ele>
        <time>2019-04-02T08:26:28Z</time>
      </trkpt>
      <trkpt lat="60.46134" lon="7.82109">
        <ele>1156.6</ele>
        <time>2019-04-02T08:26:29Z</time>
      </trkpt>
      <trkpt lat="60.46135" lon="7.82114">
        <ele>1157.56</ele>
        <time>2019-04-02T08:26:51Z</time>
      </trkpt>
      <trkpt lat="60.46135" lon="7.82112">
        <ele>1157.56</ele>
        <time>2019-04-02T08:26:58Z</time>
      </trkpt>
      <trkpt lat="60.4613" lon="7.82104">
        <ele>1155.64</ele>
        <time>2019-04-02T08:27:02Z</time>
      </trkpt>
      <trkpt lat="60.46113" lon="7.82092">
        <ele>1153.72</ele>
        <time>2019-04-02T08:27:16Z</time>
      </trkpt>
      <trkpt lat="60.46101" lon="7.82056">
        <ele>1151.32</ele>
        <time>2019-04-02T08:27:22Z</time>
      </trkpt>
      <trkpt lat="60.4609" lon="7.82024">
        <ele>1152.28</ele>
        <time>2019-04-02T08:27:30Z</time>
      </trkpt>
      <trkpt lat="60.46088" lon="7.82019">
        <ele>1152.28</ele>
        <time>2019-04-02T08:27:31Z</time>
      </trkpt>
      <trkpt lat="60.46088" lon="7.82013">
        <ele>1152.28</ele>
        <time>2019-04-02T08:27:32Z</time>
      </trkpt>
      <trkpt lat="60.46087" lon="7.82008">
        <ele>1153.24</ele>
        <time>2019-04-02T08:27:44Z</time>
      </trkpt>
      <trkpt lat="60.46086" lon="7.82009">
        <ele>1153.24</ele>
        <time>2019-04-02T08:27:54Z</time>
      </trkpt>
      <trkpt lat="60.46085" lon="7.82004">
        <ele>1153.24</ele>
        <time>2019-04-02T08:27:56Z</time>
      </trkpt>
      <trkpt lat="60.46083" lon="7.82001">
        <ele>1151.32</ele>
        <time>2019-04-02T08:27:57Z</time>
      </trkpt>
      <trkpt lat="60.46081" lon="7.81998">
        <ele>1151.32</ele>
        <time>2019-04-02T08:27:58Z</time>
      </trkpt>
      <trkpt lat="60.46082" lon="7.81991">
        <ele>1152.76</ele>
        <time>2019-04-02T08:28:06Z</time>
      </trkpt>
      <trkpt lat="60.46082" lon="7.81991">
        <ele>1152.76</ele>
        <time>2019-04-02T08:28:07Z</time>
      </trkpt>
      <trkpt lat="60.4608" lon="7.81993">
        <ele>1152.76</ele>
        <time>2019-04-02T08:28:11Z</time>
      </trkpt>
      <trkpt lat="60.46077" lon="7.81996">
        <ele>1151.32</ele>
        <time>2019-04-02T08:28:14Z</time>
      </trkpt>
      <trkpt lat="60.46074" lon="7.81995">
        <ele>1150.84</ele>
        <time>2019-04-02T08:28:30Z</time>
      </trkpt>
      <trkpt lat="60.46073" lon="7.81997">
        <ele>1150.35</ele>
        <time>2019-04-02T08:28:45Z</time>
      </trkpt>
      <trkpt lat="60.46074" lon="7.82001">
        <ele>1150.35</ele>
        <time>2019-04-02T08:28:51Z</time>
      </trkpt>
      <trkpt lat="60.4608" lon="7.82012">
        <ele>1150.35</ele>
        <time>2019-04-02T08:28:55Z</time>
      </trkpt>
      <trkpt lat="60.46083" lon="7.82023">
        <ele>1152.28</ele>
        <time>2019-04-02T08:28:57Z</time>
      </trkpt>
      <trkpt lat="60.46092" lon="7.82049">
        <ele>1154.2</ele>
        <time>2019-04-02T08:29:01Z</time>
      </trkpt>
      <trkpt lat="60.46094" lon="7.8206">
        <ele>1154.2</ele>
        <time>2019-04-02T08:29:02Z</time>
      </trkpt>
      <trkpt lat="60.46096" lon="7.82072">
        <ele>1154.68</ele>
        <time>2019-04-02T08:29:03Z</time>
      </trkpt>
      <trkpt lat="60.46098" lon="7.82084">
        <ele>1154.68</ele>
        <time>2019-04-02T08:29:04Z</time>
      </trkpt>
      <trkpt lat="60.461" lon="7.82097">
        <ele>1155.64</ele>
        <time>2019-04-02T08:29:05Z</time>
      </trkpt>
      <trkpt lat="60.46102" lon="7.82111">
        <ele>1156.6</ele>
        <time>2019-04-02T08:29:06Z</time>
      </trkpt>
      <trkpt lat="60.46118" lon="7.82199">
        <ele>1159.97</ele>
        <time>2019-04-02T08:29:13Z</time>
      </trkpt>
      <trkpt lat="60.46123" lon="7.82236">
        <ele>1162.85</ele>
        <time>2019-04-02T08:29:16Z</time>
      </trkpt>
      <trkpt lat="60.46127" lon="7.82259">
        <ele>1163.81</ele>
        <time>2019-04-02T08:29:18Z</time>
      </trkpt>
      <trkpt lat="60.46129" lon="7.82282">
        <ele>1165.26</ele>
        <time>2019-04-02T08:29:20Z</time>
      </trkpt>
      <trkpt lat="60.46129" lon="7.82305">
        <ele>1167.66</ele>
        <time>2019-04-02T08:29:22Z</time>
      </trkpt>
      <trkpt lat="60.46124" lon="7.82355">
        <ele>1168.14</ele>
        <time>2019-04-02T08:29:26Z</time>
      </trkpt>
      <trkpt lat="60.46106" lon="7.82435">
        <ele>1169.58</ele>
        <time>2019-04-02T08:29:33Z</time>
      </trkpt>
      <trkpt lat="60.46079" lon="7.82524">
        <ele>1169.58</ele>
        <time>2019-04-02T08:29:42Z</time>
      </trkpt>
      <trkpt lat="60.46073" lon="7.82542">
        <ele>1169.58</ele>
        <time>2019-04-02T08:29:44Z</time>
      </trkpt>
      <trkpt lat="60.46049" lon="7.82618">
        <ele>1169.58</ele>
        <time>2019-04-02T08:29:53Z</time>
      </trkpt>
      <trkpt lat="60.46034" lon="7.82667">
        <ele>1169.58</ele>
        <time>2019-04-02T08:29:59Z</time>
      </trkpt>
      <trkpt lat="60.46027" lon="7.82689">
        <ele>1169.58</ele>
        <time>2019-04-02T08:30:02Z</time>
      </trkpt>
      <trkpt lat="60.46017" lon="7.82713">
        <ele>1170.06</ele>
        <time>2019-04-02T08:30:05Z</time>
      </trkpt>
      <trkpt lat="60.46013" lon="7.8272">
        <ele>1170.06</ele>
        <time>2019-04-02T08:30:06Z</time>
      </trkpt>
      <trkpt lat="60.4601" lon="7.82727">
        <ele>1170.06</ele>
        <time>2019-04-02T08:30:07Z</time>
      </trkpt>
      <trkpt lat="60.46008" lon="7.82733">
        <ele>1170.06</ele>
        <time>2019-04-02T08:30:08Z</time>
      </trkpt>
      <trkpt lat="60.46006" lon="7.82739">
        <ele>1169.1</ele>
        <time>2019-04-02T08:30:09Z</time>
      </trkpt>
      <trkpt lat="60.46007" lon="7.82741">
        <ele>1168.14</ele>
        <time>2019-04-02T08:30:11Z</time>
      </trkpt>
      <trkpt lat="60.46001" lon="7.82731">
        <ele>1163.81</ele>
        <time>2019-04-02T08:30:14Z</time>
      </trkpt>
      <trkpt lat="60.45996" lon="7.82727">
        <ele>1162.37</ele>
        <time>2019-04-02T08:30:15Z</time>
      </trkpt>
      <trkpt lat="60.4599" lon="7.82723">
        <ele>1160.45</ele>
        <time>2019-04-02T08:30:16Z</time>
      </trkpt>
      <trkpt lat="60.45972" lon="7.82709">
        <ele>1157.56</ele>
        <time>2019-04-02T08:30:19Z</time>
      </trkpt>
      <trkpt lat="60.45966" lon="7.82705">
        <ele>1157.08</ele>
        <time>2019-04-02T08:30:20Z</time>
      </trkpt>
      <trkpt lat="60.4594" lon="7.82684">
        <ele>1153.24</ele>
        <time>2019-04-02T08:30:24Z</time>
      </trkpt>
      <trkpt lat="60.45905" lon="7.82661">
        <ele>1151.8</ele>
        <time>2019-04-02T08:30:30Z</time>
      </trkpt>
      <trkpt lat="60.45889" lon="7.82648">
        <ele>1151.8</ele>
        <time>2019-04-02T08:30:33Z</time>
      </trkpt>
      <trkpt lat="60.45843" lon="7.82596">
        <ele>1150.35</ele>
        <time>2019-04-02T08:30:42Z</time>
      </trkpt>
      <trkpt lat="60.45816" lon="7.82575">
        <ele>1148.91</ele>
        <time>2019-04-02T08:30:47Z</time>
      </trkpt>
      <trkpt lat="60.45772" lon="7.82532">
        <ele>1145.07</ele>
        <time>2019-04-02T08:30:55Z</time>
      </trkpt>
      <trkpt lat="60.4575" lon="7.82508">
        <ele>1143.14</ele>
        <time>2019-04-02T08:30:59Z</time>
      </trkpt>
      <trkpt lat="60.45745" lon="7.82502">
        <ele>1143.14</ele>
        <time>2019-04-02T08:31:00Z</time>
      </trkpt>
      <trkpt lat="60.45729" lon="7.82487">
        <ele>1143.14</ele>
        <time>2019-04-02T08:31:03Z</time>
      </trkpt>
      <trkpt lat="60.45692" lon="7.82449">
        <ele>1140.74</ele>
        <time>2019-04-02T08:31:10Z</time>
      </trkpt>
      <trkpt lat="60.45675" lon="7.82433">
        <ele>1140.74</ele>
        <time>2019-04-02T08:31:14Z</time>
      </trkpt>
      <trkpt lat="60.45635" lon="7.82385">
        <ele>1141.22</ele>
        <time>2019-04-02T08:31:27Z</time>
      </trkpt>
      <trkpt lat="60.45614" lon="7.82348">
        <ele>1140.74</ele>
        <time>2019-04-02T08:31:38Z</time>
      </trkpt>
      <trkpt lat="60.45596" lon="7.82318">
        <ele>1140.74</ele>
        <time>2019-04-02T08:31:50Z</time>
      </trkpt>
      <trkpt lat="60.45595" lon="7.82316">
        <ele>1140.74</ele>
        <time>2019-04-02T08:31:51Z</time>
      </trkpt>
      <trkpt lat="60.45591" lon="7.82334">
        <ele>1140.74</ele>
        <time>2019-04-02T08:32:00Z</time>
      </trkpt>
      <trkpt lat="60.45592" lon="7.82336">
        <ele>1140.74</ele>
        <time>2019-04-02T08:32:02Z</time>
      </trkpt>
      <trkpt lat="60.45593" lon="7.82331">
        <ele>1140.74</ele>
        <time>2019-04-02T08:32:04Z</time>
      </trkpt>
      <trkpt lat="60.45592" lon="7.823">
        <ele>1140.74</ele>
        <time>2019-04-02T08:32:08Z</time>
      </trkpt>
      <trkpt lat="60.45588" lon="7.82282">
        <ele>1140.74</ele>
        <time>2019-04-02T08:32:10Z</time>
      </trkpt>
      <trkpt lat="60.4558" lon="7.82252">
        <ele>1140.26</ele>
        <time>2019-04-02T08:32:13Z</time>
      </trkpt>
      <trkpt lat="60.45571" lon="7.82224">
        <ele>1139.78</ele>
        <time>2019-04-02T08:32:16Z</time>
      </trkpt>
      <trkpt lat="60.45529" lon="7.82126">
        <ele>1140.26</ele>
        <time>2019-04-02T08:32:28Z</time>
      </trkpt>
      <trkpt lat="60.45517" lon="7.82104">
        <ele>1141.22</ele>
        <time>2019-04-02T08:32:32Z</time>
      </trkpt>
      <trkpt lat="60.45501" lon="7.82075">
        <ele>1141.22</ele>
        <time>2019-04-02T08:32:38Z</time>
      </trkpt>
      <trkpt lat="60.45489" lon="7.8205">
        <ele>1141.22</ele>
        <time>2019-04-02T08:32:42Z</time>
      </trkpt>
      <trkpt lat="60.45478" lon="7.82033">
        <ele>1141.22</ele>
        <time>2019-04-02T08:32:45Z</time>
      </trkpt>
      <trkpt lat="60.45471" lon="7.82017">
        <ele>1141.7</ele>
        <time>2019-04-02T08:32:49Z</time>
      </trkpt>
      <trkpt lat="60.45462" lon="7.82047">
        <ele>1142.66</ele>
        <time>2019-04-02T08:32:57Z</time>
      </trkpt>
      <trkpt lat="60.45447" lon="7.82106">
        <ele>1142.66</ele>
        <time>2019-04-02T08:33:08Z</time>
      </trkpt>
      <trkpt lat="60.4544" lon="7.82122">
        <ele>1142.66</ele>
        <time>2019-04-02T08:33:15Z</time>
      </trkpt>
      <trkpt lat="60.4545" lon="7.82152">
        <ele>1142.66</ele>
        <time>2019-04-02T08:33:24Z</time>
      </trkpt>
      <trkpt lat="60.45453" lon="7.82162">
        <ele>1142.66</ele>
        <time>2019-04-02T08:33:26Z</time>
      </trkpt>
      <trkpt lat="60.45454" lon="7.82195">
        <ele>1144.11</ele>
        <time>2019-04-02T08:33:35Z</time>
      </trkpt>
      <trkpt lat="60.45454" lon="7.82195">
        <ele>1144.59</ele>
        <time>2019-04-02T08:33:39Z</time>
      </trkpt>
      <trkpt lat="60.45453" lon="7.82176">
        <ele>1142.66</ele>
        <time>2019-04-02T08:33:43Z</time>
      </trkpt>
      <trkpt lat="60.4545" lon="7.82167">
        <ele>1142.18</ele>
        <time>2019-04-02T08:33:44Z</time>
      </trkpt>
      <trkpt lat="60.45429" lon="7.82082">
        <ele>1141.22</ele>
        <time>2019-04-02T08:33:56Z</time>
      </trkpt>
      <trkpt lat="60.4542" lon="7.82045">
        <ele>1141.22</ele>
        <time>2019-04-02T08:34:01Z</time>
      </trkpt>
      <trkpt lat="60.45417" lon="7.8203">
        <ele>1141.22</ele>
        <time>2019-04-02T08:34:03Z</time>
      </trkpt>
      <trkpt lat="60.45412" lon="7.82016">
        <ele>1142.66</ele>
        <time>2019-04-02T08:34:05Z</time>
      </trkpt>
      <trkpt lat="60.45391" lon="7.81974">
        <ele>1144.11</ele>
        <time>2019-04-02T08:34:14Z</time>
      </trkpt>
      <trkpt lat="60.45376" lon="7.81952">
        <ele>1144.11</ele>
        <time>2019-04-02T08:34:23Z</time>
      </trkpt>
      <trkpt lat="60.45377" lon="7.81954">
        <ele>1144.11</ele>
        <time>2019-04-02T08:34:27Z</time>
      </trkpt>
      <trkpt lat="60.45377" lon="7.81973">
        <ele>1144.11</ele>
        <time>2019-04-02T08:34:31Z</time>
      </trkpt>
      <trkpt lat="60.45366" lon="7.82033">
        <ele>1143.63</ele>
        <time>2019-04-02T08:34:40Z</time>
      </trkpt>
      <trkpt lat="60.45363" lon="7.82073">
        <ele>1142.18</ele>
        <time>2019-04-02T08:34:51Z</time>
      </trkpt>
      <trkpt lat="60.45363" lon="7.82076">
        <ele>1142.18</ele>
        <time>2019-04-02T08:35:00Z</time>
      </trkpt>
      <trkpt lat="60.45361" lon="7.8211">
        <ele>1142.18</ele>
        <time>2019-04-02T08:35:06Z</time>
      </trkpt>
      <trkpt lat="60.45357" lon="7.82133">
        <ele>1142.18</ele>
        <time>2019-04-02T08:35:15Z</time>
      </trkpt>
      <trkpt lat="60.45359" lon="7.82145">
        <ele>1142.18</ele>
        <time>2019-04-02T08:35:21Z</time>
      </trkpt>
      <trkpt lat="60.4536" lon="7.82149">
        <ele>1142.18</ele>
        <time>2019-04-02T08:35:25Z</time>
      </trkpt>
      <trkpt lat="60.4536" lon="7.82161">
        <ele>1143.63</ele>
        <time>2019-04-02T08:35:28Z</time>
      </trkpt>
      <trkpt lat="60.4536" lon="7.82157">
        <ele>1143.63</ele>
        <time>2019-04-02T08:35:35Z</time>
      </trkpt>
      <trkpt lat="60.45352" lon="7.82141">
        <ele>1142.18</ele>
        <time>2019-04-02T08:35:43Z</time>
      </trkpt>
      <trkpt lat="60.45353" lon="7.82142">
        <ele>1142.18</ele>
        <time>2019-04-02T08:35:48Z</time>
      </trkpt>
      <trkpt lat="60.45359" lon="7.82143">
        <ele>1142.18</ele>
        <time>2019-04-02T08:35:52Z</time>
      </trkpt>
      <trkpt lat="60.45361" lon="7.82146">
        <ele>1142.18</ele>
        <time>2019-04-02T08:35:55Z</time>
      </trkpt>
      <trkpt lat="60.45368" lon="7.82153">
        <ele>1142.18</ele>
        <time>2019-04-02T08:36:00Z</time>
      </trkpt>
      <trkpt lat="60.45375" lon="7.82165">
        <ele>1143.63</ele>
        <time>2019-04-02T08:36:03Z</time>
      </trkpt>
      <trkpt lat="60.45387" lon="7.82242">
        <ele>1145.07</ele>
        <time>2019-04-02T08:36:16Z</time>
      </trkpt>
      <trkpt lat="60.45384" lon="7.82284">
        <ele>1145.55</ele>
        <time>2019-04-02T08:36:22Z</time>
      </trkpt>
      <trkpt lat="60.45375" lon="7.82327">
        <ele>1145.55</ele>
        <time>2019-04-02T08:36:27Z</time>
      </trkpt>
      <trkpt lat="60.45365" lon="7.82356">
        <ele>1145.55</ele>
        <time>2019-04-02T08:36:31Z</time>
      </trkpt>
      <trkpt lat="60.45354" lon="7.82397">
        <ele>1143.14</ele>
        <time>2019-04-02T08:36:36Z</time>
      </trkpt>
      <trkpt lat="60.45346" lon="7.82433">
        <ele>1143.14</ele>
        <time>2019-04-02T08:36:40Z</time>
      </trkpt>
      <trkpt lat="60.45341" lon="7.82449">
        <ele>1143.14</ele>
        <time>2019-04-02T08:36:42Z</time>
      </trkpt>
      <trkpt lat="60.45333" lon="7.8248">
        <ele>1143.14</ele>
        <time>2019-04-02T08:36:46Z</time>
      </trkpt>
      <trkpt lat="60.45324" lon="7.82505">
        <ele>1142.66</ele>
        <time>2019-04-02T08:36:50Z</time>
      </trkpt>
      <trkpt lat="60.45311" lon="7.82555">
        <ele>1142.18</ele>
        <time>2019-04-02T08:37:02Z</time>
      </trkpt>
      <trkpt lat="60.45311" lon="7.82556">
        <ele>1142.18</ele>
        <time>2019-04-02T08:37:06Z</time>
      </trkpt>
      <trkpt lat="60.453" lon="7.8253">
        <ele>1140.26</ele>
        <time>2019-04-02T08:37:12Z</time>
      </trkpt>
      <trkpt lat="60.45288" lon="7.82516">
        <ele>1141.7</ele>
        <time>2019-04-02T08:37:16Z</time>
      </trkpt>
      <trkpt lat="60.45256" lon="7.82487">
        <ele>1141.22</ele>
        <time>2019-04-02T08:37:26Z</time>
      </trkpt>
      <trkpt lat="60.4524" lon="7.82471">
        <ele>1141.7</ele>
        <time>2019-04-02T08:37:33Z</time>
      </trkpt>
      <trkpt lat="60.4524" lon="7.82468">
        <ele>1142.18</ele>
        <time>2019-04-02T08:37:35Z</time>
      </trkpt>
      <trkpt lat="60.45244" lon="7.8249">
        <ele>1142.66</ele>
        <time>2019-04-02T08:37:42Z</time>
      </trkpt>
      <trkpt lat="60.45246" lon="7.82536">
        <ele>1142.66</ele>
        <time>2019-04-02T08:37:53Z</time>
      </trkpt>
      <trkpt lat="60.45237" lon="7.82608">
        <ele>1142.66</ele>
        <time>2019-04-02T08:38:03Z</time>
      </trkpt>
      <trkpt lat="60.45231" lon="7.82661">
        <ele>1143.63</ele>
        <time>2019-04-02T08:38:09Z</time>
      </trkpt>
      <trkpt lat="60.45224" lon="7.82707">
        <ele>1144.11</ele>
        <time>2019-04-02T08:38:14Z</time>
      </trkpt>
      <trkpt lat="60.45206" lon="7.82827">
        <ele>1143.14</ele>
        <time>2019-04-02T08:38:25Z</time>
      </trkpt>
      <trkpt lat="60.45204" lon="7.82847">
        <ele>1143.14</ele>
        <time>2019-04-02T08:38:27Z</time>
      </trkpt>
      <trkpt lat="60.45201" lon="7.82867">
        <ele>1143.14</ele>
        <time>2019-04-02T08:38:29Z</time>
      </trkpt>
      <trkpt lat="60.45197" lon="7.82894">
        <ele>1143.14</ele>
        <time>2019-04-02T08:38:32Z</time>
      </trkpt>
      <trkpt lat="60.4519" lon="7.82943">
        <ele>1144.11</ele>
        <time>2019-04-02T08:38:37Z</time>
      </trkpt>
      <trkpt lat="60.45185" lon="7.82978">
        <ele>1144.11</ele>
        <time>2019-04-02T08:38:40Z</time>
      </trkpt>
      <trkpt lat="60.45178" lon="7.83037">
        <ele>1144.11</ele>
        <time>2019-04-02T08:38:45Z</time>
      </trkpt>
      <trkpt lat="60.45168" lon="7.83148">
        <ele>1144.11</ele>
        <time>2019-04-02T08:38:53Z</time>
      </trkpt>
      <trkpt lat="60.45164" lon="7.83247">
        <ele>1144.11</ele>
        <time>2019-04-02T08:39:00Z</time>
      </trkpt>
      <trkpt lat="60.45162" lon="7.83271">
        <ele>1144.11</ele>
        <time>2019-04-02T08:39:02Z</time>
      </trkpt>
      <trkpt lat="60.45158" lon="7.83295">
        <ele>1141.7</ele>
        <time>2019-04-02T08:39:05Z</time>
      </trkpt>
      <trkpt lat="60.45157" lon="7.83266">
        <ele>1139.78</ele>
        <time>2019-04-02T08:39:10Z</time>
      </trkpt>
      <trkpt lat="60.45154" lon="7.83257">
        <ele>1139.78</ele>
        <time>2019-04-02T08:39:11Z</time>
      </trkpt>
      <trkpt lat="60.4512" lon="7.83212">
        <ele>1140.74</ele>
        <time>2019-04-02T08:39:18Z</time>
      </trkpt>
      <trkpt lat="60.45115" lon="7.83207">
        <ele>1140.74</ele>
        <time>2019-04-02T08:39:19Z</time>
      </trkpt>
      <trkpt lat="60.45064" lon="7.83153">
        <ele>1139.3</ele>
        <time>2019-04-02T08:39:29Z</time>
      </trkpt>
      <trkpt lat="60.45" lon="7.83096">
        <ele>1138.82</ele>
        <time>2019-04-02T08:39:43Z</time>
      </trkpt>
      <trkpt lat="60.44983" lon="7.83078">
        <ele>1140.26</ele>
        <time>2019-04-02T08:39:47Z</time>
      </trkpt>
      <trkpt lat="60.44952" lon="7.8305">
        <ele>1140.74</ele>
        <time>2019-04-02T08:39:54Z</time>
      </trkpt>
      <trkpt lat="60.44943" lon="7.83042">
        <ele>1141.22</ele>
        <time>2019-04-02T08:40:01Z</time>
      </trkpt>
      <trkpt lat="60.44942" lon="7.83061">
        <ele>1142.66</ele>
        <time>2019-04-02T08:40:03Z</time>
      </trkpt>
      <trkpt lat="60.4494" lon="7.83082">
        <ele>1142.66</ele>
        <time>2019-04-02T08:40:05Z</time>
      </trkpt>
      <trkpt lat="60.44932" lon="7.8312">
        <ele>1143.14</ele>
        <time>2019-04-02T08:40:09Z</time>
      </trkpt>
      <trkpt lat="60.44922" lon="7.83198">
        <ele>1143.14</ele>
        <time>2019-04-02T08:40:17Z</time>
      </trkpt>
      <trkpt lat="60.44911" lon="7.8328">
        <ele>1143.14</ele>
        <time>2019-04-02T08:40:25Z</time>
      </trkpt>
      <trkpt lat="60.44908" lon="7.8331">
        <ele>1143.14</ele>
        <time>2019-04-02T08:40:28Z</time>
      </trkpt>
      <trkpt lat="60.44892" lon="7.83453">
        <ele>1143.14</ele>
        <time>2019-04-02T08:40:41Z</time>
      </trkpt>
      <trkpt lat="60.44888" lon="7.83499">
        <ele>1143.14</ele>
        <time>2019-04-02T08:40:45Z</time>
      </trkpt>
      <trkpt lat="60.44873" lon="7.8357">
        <ele>1143.63</ele>
        <time>2019-04-02T08:40:52Z</time>
      </trkpt>
      <trkpt lat="60.44872" lon="7.83579">
        <ele>1142.18</ele>
        <time>2019-04-02T08:40:54Z</time>
      </trkpt>
      <trkpt lat="60.44875" lon="7.83572">
        <ele>1140.74</ele>
        <time>2019-04-02T08:40:56Z</time>
      </trkpt>
      <trkpt lat="60.44855" lon="7.83527">
        <ele>1140.26</ele>
        <time>2019-04-02T08:41:02Z</time>
      </trkpt>
      <trkpt lat="60.44851" lon="7.83522">
        <ele>1140.26</ele>
        <time>2019-04-02T08:41:03Z</time>
      </trkpt>
      <trkpt lat="60.44837" lon="7.83505">
        <ele>1140.26</ele>
        <time>2019-04-02T08:41:06Z</time>
      </trkpt>
      <trkpt lat="60.44823" lon="7.8349">
        <ele>1140.26</ele>
        <time>2019-04-02T08:41:09Z</time>
      </trkpt>
      <trkpt lat="60.44761" lon="7.83401">
        <ele>1140.26</ele>
        <time>2019-04-02T08:41:22Z</time>
      </trkpt>
      <trkpt lat="60.4474" lon="7.83376">
        <ele>1140.26</ele>
        <time>2019-04-02T08:41:26Z</time>
      </trkpt>
      <trkpt lat="60.44724" lon="7.8336">
        <ele>1140.26</ele>
        <time>2019-04-02T08:41:29Z</time>
      </trkpt>
      <trkpt lat="60.44707" lon="7.83336">
        <ele>1140.26</ele>
        <time>2019-04-02T08:41:33Z</time>
      </trkpt>
      <trkpt lat="60.44689" lon="7.83301">
        <ele>1140.26</ele>
        <time>2019-04-02T08:41:38Z</time>
      </trkpt>
      <trkpt lat="60.4468" lon="7.83288">
        <ele>1140.26</ele>
        <time>2019-04-02T08:41:40Z</time>
      </trkpt>
      <trkpt lat="60.4466" lon="7.83244">
        <ele>1140.26</ele>
        <time>2019-04-02T08:41:46Z</time>
      </trkpt>
      <trkpt lat="60.44653" lon="7.83229">
        <ele>1141.7</ele>
        <time>2019-04-02T08:41:48Z</time>
      </trkpt>
      <trkpt lat="60.44647" lon="7.83217">
        <ele>1142.66</ele>
        <time>2019-04-02T08:41:50Z</time>
      </trkpt>
      <trkpt lat="60.44641" lon="7.8321">
        <ele>1156.6</ele>
        <time>2019-04-02T08:41:52Z</time>
      </trkpt>
      <trkpt lat="60.44639" lon="7.83206">
        <ele>1142.18</ele>
        <time>2019-04-02T08:41:53Z</time>
      </trkpt>
      <trkpt lat="60.44641" lon="7.83205">
        <ele>1141.7</ele>
        <time>2019-04-02T08:42:07Z</time>
      </trkpt>
      <trkpt lat="60.44641" lon="7.83205">
        <ele>1141.7</ele>
        <time>2019-04-02T08:42:08Z</time>
      </trkpt>
      <trkpt lat="60.44641" lon="7.83207">
        <ele>1143.14</ele>
        <time>2019-04-02T08:42:13Z</time>
      </trkpt>
      <trkpt lat="60.44641" lon="7.83207">
        <ele>1139.78</ele>
        <time>2019-04-02T08:42:14Z</time>
      </trkpt>
      <trkpt lat="60.44641" lon="7.83206">
        <ele>1145.07</ele>
        <time>2019-04-02T08:42:15Z</time>
      </trkpt>
      <trkpt lat="60.44641" lon="7.83206">
        <ele>1141.7</ele>
        <time>2019-04-02T08:42:26Z</time>
      </trkpt>
      <trkpt lat="60.44643" lon="7.83205">
        <ele>1146.03</ele>
        <time>2019-04-02T08:42:30Z</time>
      </trkpt>
      <trkpt lat="60.44643" lon="7.83205">
        <ele>1138.82</ele>
        <time>2019-04-02T08:42:31Z</time>
      </trkpt>
      <trkpt lat="60.44643" lon="7.83205">
        <ele>1145.07</ele>
        <time>2019-04-02T08:42:32Z</time>
      </trkpt>
      <trkpt lat="60.44643" lon="7.83205">
        <ele>1141.7</ele>
        <time>2019-04-02T08:42:33Z</time>
      </trkpt>
      <trkpt lat="60.44641" lon="7.83196">
        <ele>1143.14</ele>
        <time>2019-04-02T08:42:50Z</time>
      </trkpt>
      <trkpt lat="60.4464" lon="7.83185">
        <ele>1141.7</ele>
        <time>2019-04-02T08:43:03Z</time>
      </trkpt>
      <trkpt lat="60.44642" lon="7.83185">
        <ele>1141.7</ele>
        <time>2019-04-02T08:43:18Z</time>
      </trkpt>
      <trkpt lat="60.44638" lon="7.83181">
        <ele>1141.7</ele>
        <time>2019-04-02T08:43:32Z</time>
      </trkpt>
      <trkpt lat="60.44634" lon="7.83176">
        <ele>1141.7</ele>
        <time>2019-04-02T08:43:44Z</time>
      </trkpt>
      <trkpt lat="60.44631" lon="7.83172">
        <ele>1141.7</ele>
        <time>2019-04-02T08:43:57Z</time>
      </trkpt>
      <trkpt lat="60.44628" lon="7.83166">
        <ele>1142.18</ele>
        <time>2019-04-02T08:44:12Z</time>
      </trkpt>
      <trkpt lat="60.44627" lon="7.83164">
        <ele>1142.18</ele>
        <time>2019-04-02T08:44:17Z</time>
      </trkpt>
      <trkpt lat="60.44622" lon="7.83136">
        <ele>1142.18</ele>
        <time>2019-04-02T08:44:25Z</time>
      </trkpt>
      <trkpt lat="60.44599" lon="7.83083">
        <ele>1142.18</ele>
        <time>2019-04-02T08:44:32Z</time>
      </trkpt>
      <trkpt lat="60.44564" lon="7.83008">
        <ele>1142.18</ele>
        <time>2019-04-02T08:44:41Z</time>
      </trkpt>
      <trkpt lat="60.44555" lon="7.8299">
        <ele>1140.74</ele>
        <time>2019-04-02T08:44:43Z</time>
      </trkpt>
      <trkpt lat="60.44535" lon="7.8295">
        <ele>1142.18</ele>
        <time>2019-04-02T08:44:48Z</time>
      </trkpt>
      <trkpt lat="60.445" lon="7.82898">
        <ele>1142.66</ele>
        <time>2019-04-02T08:44:55Z</time>
      </trkpt>
      <trkpt lat="60.44495" lon="7.82892">
        <ele>1142.66</ele>
        <time>2019-04-02T08:44:56Z</time>
      </trkpt>
      <trkpt lat="60.44444" lon="7.82809">
        <ele>1146.03</ele>
        <time>2019-04-02T08:45:08Z</time>
      </trkpt>
      <trkpt lat="60.44415" lon="7.82772">
        <ele>1148.43</ele>
        <time>2019-04-02T08:45:15Z</time>
      </trkpt>
      <trkpt lat="60.44397" lon="7.82748">
        <ele>1150.35</ele>
        <time>2019-04-02T08:45:20Z</time>
      </trkpt>
      <trkpt lat="60.4435" lon="7.82698">
        <ele>1153.24</ele>
        <time>2019-04-02T08:45:33Z</time>
      </trkpt>
      <trkpt lat="60.44318" lon="7.82649">
        <ele>1153.72</ele>
        <time>2019-04-02T08:45:42Z</time>
      </trkpt>
      <trkpt lat="60.44291" lon="7.82615">
        <ele>1153.72</ele>
        <time>2019-04-02T08:45:48Z</time>
      </trkpt>
      <trkpt lat="60.44273" lon="7.82588">
        <ele>1153.72</ele>
        <time>2019-04-02T08:45:52Z</time>
      </trkpt>
      <trkpt lat="60.44258" lon="7.82566">
        <ele>1153.72</ele>
        <time>2019-04-02T08:45:55Z</time>
      </trkpt>
      <trkpt lat="60.44232" lon="7.82521">
        <ele>1154.68</ele>
        <time>2019-04-02T08:46:01Z</time>
      </trkpt>
      <trkpt lat="60.44187" lon="7.82442">
        <ele>1158.53</ele>
        <time>2019-04-02T08:46:16Z</time>
      </trkpt>
      <trkpt lat="60.4416" lon="7.82407">
        <ele>1158.53</ele>
        <time>2019-04-02T08:46:22Z</time>
      </trkpt>
      <trkpt lat="60.44146" lon="7.82388">
        <ele>1157.08</ele>
        <time>2019-04-02T08:46:26Z</time>
      </trkpt>
      <trkpt lat="60.44139" lon="7.82379">
        <ele>1156.6</ele>
        <time>2019-04-02T08:46:28Z</time>
      </trkpt>
      <trkpt lat="60.44137" lon="7.82368">
        <ele>1156.6</ele>
        <time>2019-04-02T08:46:30Z</time>
      </trkpt>
      <trkpt lat="60.44137" lon="7.82402">
        <ele>1158.53</ele>
        <time>2019-04-02T08:46:36Z</time>
      </trkpt>
      <trkpt lat="60.44135" lon="7.82436">
        <ele>1159.01</ele>
        <time>2019-04-02T08:46:40Z</time>
      </trkpt>
      <trkpt lat="60.44129" lon="7.82519">
        <ele>1159.49</ele>
        <time>2019-04-02T08:46:48Z</time>
      </trkpt>
      <trkpt lat="60.44124" lon="7.82585">
        <ele>1160.45</ele>
        <time>2019-04-02T08:46:54Z</time>
      </trkpt>
      <trkpt lat="60.44122" lon="7.82616">
        <ele>1160.93</ele>
        <time>2019-04-02T08:46:57Z</time>
      </trkpt>
      <trkpt lat="60.44115" lon="7.82695">
        <ele>1160.93</ele>
        <time>2019-04-02T08:47:05Z</time>
      </trkpt>
      <trkpt lat="60.44113" lon="7.82725">
        <ele>1160.93</ele>
        <time>2019-04-02T08:47:08Z</time>
      </trkpt>
      <trkpt lat="60.44106" lon="7.82751">
        <ele>1160.93</ele>
        <time>2019-04-02T08:47:11Z</time>
      </trkpt>
      <trkpt lat="60.44099" lon="7.82791">
        <ele>1161.89</ele>
        <time>2019-04-02T08:47:16Z</time>
      </trkpt>
      <trkpt lat="60.4409" lon="7.82859">
        <ele>1162.85</ele>
        <time>2019-04-02T08:47:24Z</time>
      </trkpt>
      <trkpt lat="60.44085" lon="7.82888">
        <ele>1164.77</ele>
        <time>2019-04-02T08:47:27Z</time>
      </trkpt>
      <trkpt lat="60.44071" lon="7.82941">
        <ele>1164.77</ele>
        <time>2019-04-02T08:47:36Z</time>
      </trkpt>
      <trkpt lat="60.44072" lon="7.82942">
        <ele>1163.33</ele>
        <time>2019-04-02T08:47:50Z</time>
      </trkpt>
      <trkpt lat="60.44072" lon="7.82942">
        <ele>1163.33</ele>
        <time>2019-04-02T08:48:07Z</time>
      </trkpt>
      <trkpt lat="60.44067" lon="7.82888">
        <ele>1163.33</ele>
        <time>2019-04-02T08:48:15Z</time>
      </trkpt>
      <trkpt lat="60.44048" lon="7.82833">
        <ele>1164.77</ele>
        <time>2019-04-02T08:48:20Z</time>
      </trkpt>
      <trkpt lat="60.44012" lon="7.82759">
        <ele>1163.33</ele>
        <time>2019-04-02T08:48:28Z</time>
      </trkpt>
      <trkpt lat="60.43978" lon="7.82662">
        <ele>1163.33</ele>
        <time>2019-04-02T08:48:38Z</time>
      </trkpt>
      <trkpt lat="60.43971" lon="7.82643">
        <ele>1163.33</ele>
        <time>2019-04-02T08:48:40Z</time>
      </trkpt>
      <trkpt lat="60.43964" lon="7.82622">
        <ele>1163.33</ele>
        <time>2019-04-02T08:48:42Z</time>
      </trkpt>
      <trkpt lat="60.43957" lon="7.82602">
        <ele>1163.33</ele>
        <time>2019-04-02T08:48:44Z</time>
      </trkpt>
      <trkpt lat="60.43941" lon="7.82547">
        <ele>1161.89</ele>
        <time>2019-04-02T08:48:49Z</time>
      </trkpt>
      <trkpt lat="60.43928" lon="7.82496">
        <ele>1164.29</ele>
        <time>2019-04-02T08:48:53Z</time>
      </trkpt>
      <trkpt lat="60.43916" lon="7.82447">
        <ele>1164.77</ele>
        <time>2019-04-02T08:48:57Z</time>
      </trkpt>
      <trkpt lat="60.4388" lon="7.8233">
        <ele>1166.7</ele>
        <time>2019-04-02T08:49:07Z</time>
      </trkpt>
      <trkpt lat="60.43864" lon="7.82273">
        <ele>1167.18</ele>
        <time>2019-04-02T08:49:12Z</time>
      </trkpt>
      <trkpt lat="60.4386" lon="7.82251">
        <ele>1167.18</ele>
        <time>2019-04-02T08:49:14Z</time>
      </trkpt>
      <trkpt lat="60.43854" lon="7.82203">
        <ele>1168.62</ele>
        <time>2019-04-02T08:49:18Z</time>
      </trkpt>
      <trkpt lat="60.4385" lon="7.82169">
        <ele>1169.1</ele>
        <time>2019-04-02T08:49:21Z</time>
      </trkpt>
      <trkpt lat="60.43845" lon="7.82116">
        <ele>1171.5</ele>
        <time>2019-04-02T08:49:27Z</time>
      </trkpt>
      <trkpt lat="60.43844" lon="7.82103">
        <ele>1171.98</ele>
        <time>2019-04-02T08:49:29Z</time>
      </trkpt>
      <trkpt lat="60.43843" lon="7.82065">
        <ele>1174.87</ele>
        <time>2019-04-02T08:49:39Z</time>
      </trkpt>
      <trkpt lat="60.43846" lon="7.82047">
        <ele>1175.83</ele>
        <time>2019-04-02T08:49:42Z</time>
      </trkpt>
      <trkpt lat="60.43846" lon="7.82003">
        <ele>1178.71</ele>
        <time>2019-04-02T08:49:47Z</time>
      </trkpt>
      <trkpt lat="60.43845" lon="7.81968">
        <ele>1181.12</ele>
        <time>2019-04-02T08:49:52Z</time>
      </trkpt>
      <trkpt lat="60.43846" lon="7.81928">
        <ele>1184</ele>
        <time>2019-04-02T08:49:58Z</time>
      </trkpt>
      <trkpt lat="60.43847" lon="7.81893">
        <ele>1184.96</ele>
        <time>2019-04-02T08:50:02Z</time>
      </trkpt>
      <trkpt lat="60.43846" lon="7.81882">
        <ele>1185.92</ele>
        <time>2019-04-02T08:50:03Z</time>
      </trkpt>
      <trkpt lat="60.43838" lon="7.81831">
        <ele>1184.96</ele>
        <time>2019-04-02T08:50:08Z</time>
      </trkpt>
      <trkpt lat="60.43829" lon="7.81802">
        <ele>1183.52</ele>
        <time>2019-04-02T08:50:11Z</time>
      </trkpt>
      <trkpt lat="60.43819" lon="7.8178">
        <ele>1182.08</ele>
        <time>2019-04-02T08:50:14Z</time>
      </trkpt>
      <trkpt lat="60.43819" lon="7.81778">
        <ele>1184</ele>
        <time>2019-04-02T08:50:15Z</time>
      </trkpt>
      <trkpt lat="60.43823" lon="7.81778">
        <ele>1184.48</ele>
        <time>2019-04-02T08:50:22Z</time>
      </trkpt>
      <trkpt lat="60.43824" lon="7.81778">
        <ele>1184.48</ele>
        <time>2019-04-02T08:50:44Z</time>
      </trkpt>
      <trkpt lat="60.43817" lon="7.81759">
        <ele>1182.08</ele>
        <time>2019-04-02T08:50:48Z</time>
      </trkpt>
      <trkpt lat="60.43809" lon="7.81748">
        <ele>1181.6</ele>
        <time>2019-04-02T08:50:50Z</time>
      </trkpt>
      <trkpt lat="60.43805" lon="7.81743">
        <ele>1180.64</ele>
        <time>2019-04-02T08:50:51Z</time>
      </trkpt>
      <trkpt lat="60.43797" lon="7.81733">
        <ele>1179.67</ele>
        <time>2019-04-02T08:50:53Z</time>
      </trkpt>
      <trkpt lat="60.43771" lon="7.81691">
        <ele>1174.87</ele>
        <time>2019-04-02T08:50:59Z</time>
      </trkpt>
      <trkpt lat="60.43724" lon="7.81635">
        <ele>1174.39</ele>
        <time>2019-04-02T08:51:11Z</time>
      </trkpt>
      <trkpt lat="60.43713" lon="7.81617">
        <ele>1173.91</ele>
        <time>2019-04-02T08:51:15Z</time>
      </trkpt>
      <trkpt lat="60.43712" lon="7.8161">
        <ele>1172.95</ele>
        <time>2019-04-02T08:51:18Z</time>
      </trkpt>
      <trkpt lat="60.43714" lon="7.81623">
        <ele>1172.95</ele>
        <time>2019-04-02T08:51:24Z</time>
      </trkpt>
      <trkpt lat="60.43719" lon="7.81644">
        <ele>1174.87</ele>
        <time>2019-04-02T08:51:29Z</time>
      </trkpt>
      <trkpt lat="60.43719" lon="7.81656">
        <ele>1175.83</ele>
        <time>2019-04-02T08:51:31Z</time>
      </trkpt>
      <trkpt lat="60.43722" lon="7.81681">
        <ele>1178.23</ele>
        <time>2019-04-02T08:51:38Z</time>
      </trkpt>
      <trkpt lat="60.43725" lon="7.81687">
        <ele>1178.23</ele>
        <time>2019-04-02T08:51:41Z</time>
      </trkpt>
      <trkpt lat="60.43729" lon="7.81719">
        <ele>1181.6</ele>
        <time>2019-04-02T08:51:46Z</time>
      </trkpt>
      <trkpt lat="60.4373" lon="7.81727">
        <ele>1181.6</ele>
        <time>2019-04-02T08:51:47Z</time>
      </trkpt>
      <trkpt lat="60.43731" lon="7.81736">
        <ele>1182.56</ele>
        <time>2019-04-02T08:51:48Z</time>
      </trkpt>
      <trkpt lat="60.43731" lon="7.81746">
        <ele>1183.52</ele>
        <time>2019-04-02T08:51:49Z</time>
      </trkpt>
      <trkpt lat="60.43731" lon="7.81756">
        <ele>1184.48</ele>
        <time>2019-04-02T08:51:50Z</time>
      </trkpt>
      <trkpt lat="60.43731" lon="7.81766">
        <ele>1184.96</ele>
        <time>2019-04-02T08:51:51Z</time>
      </trkpt>
      <trkpt lat="60.4373" lon="7.81773">
        <ele>1185.44</ele>
        <time>2019-04-02T08:51:52Z</time>
      </trkpt>
      <trkpt lat="60.4373" lon="7.81784">
        <ele>1185.92</ele>
        <time>2019-04-02T08:51:53Z</time>
      </trkpt>
      <trkpt lat="60.4373" lon="7.81792">
        <ele>1186.4</ele>
        <time>2019-04-02T08:51:54Z</time>
      </trkpt>
      <trkpt lat="60.4373" lon="7.818">
        <ele>1186.4</ele>
        <time>2019-04-02T08:51:55Z</time>
      </trkpt>
      <trkpt lat="60.43729" lon="7.8181">
        <ele>1186.88</ele>
        <time>2019-04-02T08:51:56Z</time>
      </trkpt>
      <trkpt lat="60.43728" lon="7.8182">
        <ele>1186.88</ele>
        <time>2019-04-02T08:51:57Z</time>
      </trkpt>
      <trkpt lat="60.43726" lon="7.81828">
        <ele>1187.85</ele>
        <time>2019-04-02T08:51:58Z</time>
      </trkpt>
      <trkpt lat="60.43724" lon="7.81837">
        <ele>1188.81</ele>
        <time>2019-04-02T08:51:59Z</time>
      </trkpt>
      <trkpt lat="60.43723" lon="7.81845">
        <ele>1188.81</ele>
        <time>2019-04-02T08:52:00Z</time>
      </trkpt>
      <trkpt lat="60.43722" lon="7.81852">
        <ele>1188.81</ele>
        <time>2019-04-02T08:52:01Z</time>
      </trkpt>
      <trkpt lat="60.4372" lon="7.8186">
        <ele>1189.29</ele>
        <time>2019-04-02T08:52:02Z</time>
      </trkpt>
      <trkpt lat="60.43718" lon="7.81867">
        <ele>1189.77</ele>
        <time>2019-04-02T08:52:03Z</time>
      </trkpt>
      <trkpt lat="60.43715" lon="7.81883">
        <ele>1190.25</ele>
        <time>2019-04-02T08:52:10Z</time>
      </trkpt>
      <trkpt lat="60.43715" lon="7.81888">
        <ele>1191.21</ele>
        <time>2019-04-02T08:52:11Z</time>
      </trkpt>
      <trkpt lat="60.43714" lon="7.81891">
        <ele>1191.21</ele>
        <time>2019-04-02T08:52:12Z</time>
      </trkpt>
      <trkpt lat="60.43715" lon="7.81895">
        <ele>1191.21</ele>
        <time>2019-04-02T08:52:17Z</time>
      </trkpt>
      <trkpt lat="60.43722" lon="7.81915">
        <ele>1192.17</ele>
        <time>2019-04-02T08:52:22Z</time>
      </trkpt>
      <trkpt lat="60.43728" lon="7.81941">
        <ele>1193.13</ele>
        <time>2019-04-02T08:52:33Z</time>
      </trkpt>
      <trkpt lat="60.43728" lon="7.81939">
        <ele>1193.13</ele>
        <time>2019-04-02T08:52:39Z</time>
      </trkpt>
      <trkpt lat="60.43722" lon="7.81926">
        <ele>1191.69</ele>
        <time>2019-04-02T08:52:44Z</time>
      </trkpt>
      <trkpt lat="60.43695" lon="7.81881">
        <ele>1189.77</ele>
        <time>2019-04-02T08:52:56Z</time>
      </trkpt>
      <trkpt lat="60.43687" lon="7.81872">
        <ele>1187.85</ele>
        <time>2019-04-02T08:52:58Z</time>
      </trkpt>
      <trkpt lat="60.43666" lon="7.81855">
        <ele>1189.77</ele>
        <time>2019-04-02T08:53:03Z</time>
      </trkpt>
      <trkpt lat="60.43655" lon="7.81845">
        <ele>1187.85</ele>
        <time>2019-04-02T08:53:06Z</time>
      </trkpt>
      <trkpt lat="60.43648" lon="7.81838">
        <ele>1187.85</ele>
        <time>2019-04-02T08:53:08Z</time>
      </trkpt>
      <trkpt lat="60.43636" lon="7.8182">
        <ele>1186.88</ele>
        <time>2019-04-02T08:53:11Z</time>
      </trkpt>
      <trkpt lat="60.43626" lon="7.81809">
        <ele>1184</ele>
        <time>2019-04-02T08:53:13Z</time>
      </trkpt>
      <trkpt lat="60.43599" lon="7.81769">
        <ele>1184.96</ele>
        <time>2019-04-02T08:53:21Z</time>
      </trkpt>
      <trkpt lat="60.43584" lon="7.8175">
        <ele>1184</ele>
        <time>2019-04-02T08:53:25Z</time>
      </trkpt>
      <trkpt lat="60.43572" lon="7.81739">
        <ele>1184</ele>
        <time>2019-04-02T08:53:28Z</time>
      </trkpt>
      <trkpt lat="60.43555" lon="7.81725">
        <ele>1181.12</ele>
        <time>2019-04-02T08:53:32Z</time>
      </trkpt>
      <trkpt lat="60.43553" lon="7.81718">
        <ele>1181.12</ele>
        <time>2019-04-02T08:53:37Z</time>
      </trkpt>
      <trkpt lat="60.43555" lon="7.81724">
        <ele>1182.56</ele>
        <time>2019-04-02T08:53:47Z</time>
      </trkpt>
      <trkpt lat="60.43563" lon="7.81765">
        <ele>1185.44</ele>
        <time>2019-04-02T08:53:54Z</time>
      </trkpt>
      <trkpt lat="60.43564" lon="7.8177">
        <ele>1185.44</ele>
        <time>2019-04-02T08:53:55Z</time>
      </trkpt>
      <trkpt lat="60.43567" lon="7.81814">
        <ele>1188.33</ele>
        <time>2019-04-02T08:54:02Z</time>
      </trkpt>
      <trkpt lat="60.43568" lon="7.81818">
        <ele>1188.33</ele>
        <time>2019-04-02T08:54:03Z</time>
      </trkpt>
      <trkpt lat="60.43571" lon="7.81841">
        <ele>1190.25</ele>
        <time>2019-04-02T08:54:08Z</time>
      </trkpt>
      <trkpt lat="60.43578" lon="7.81872">
        <ele>1191.69</ele>
        <time>2019-04-02T08:54:15Z</time>
      </trkpt>
      <trkpt lat="60.43581" lon="7.81886">
        <ele>1192.65</ele>
        <time>2019-04-02T08:54:17Z</time>
      </trkpt>
      <trkpt lat="60.43585" lon="7.81917">
        <ele>1194.09</ele>
        <time>2019-04-02T08:54:21Z</time>
      </trkpt>
      <trkpt lat="60.43586" lon="7.81924">
        <ele>1195.06</ele>
        <time>2019-04-02T08:54:22Z</time>
      </trkpt>
      <trkpt lat="60.43589" lon="7.81958">
        <ele>1196.5</ele>
        <time>2019-04-02T08:54:26Z</time>
      </trkpt>
      <trkpt lat="60.43595" lon="7.82011">
        <ele>1198.42</ele>
        <time>2019-04-02T08:54:34Z</time>
      </trkpt>
      <trkpt lat="60.43605" lon="7.82043">
        <ele>1200.34</ele>
        <time>2019-04-02T08:54:41Z</time>
      </trkpt>
      <trkpt lat="60.43608" lon="7.82073">
        <ele>1203.71</ele>
        <time>2019-04-02T08:54:45Z</time>
      </trkpt>
      <trkpt lat="60.43605" lon="7.82111">
        <ele>1205.15</ele>
        <time>2019-04-02T08:54:54Z</time>
      </trkpt>
      <trkpt lat="60.43605" lon="7.82116">
        <ele>1205.15</ele>
        <time>2019-04-02T08:55:09Z</time>
      </trkpt>
      <trkpt lat="60.43607" lon="7.82104">
        <ele>1205.63</ele>
        <time>2019-04-02T08:55:34Z</time>
      </trkpt>
      <trkpt lat="60.43606" lon="7.82098">
        <ele>1203.23</ele>
        <time>2019-04-02T08:55:35Z</time>
      </trkpt>
      <trkpt lat="60.436" lon="7.82084">
        <ele>1201.79</ele>
        <time>2019-04-02T08:55:37Z</time>
      </trkpt>
      <trkpt lat="60.4359" lon="7.8207">
        <ele>1201.79</ele>
        <time>2019-04-02T08:55:39Z</time>
      </trkpt>
      <trkpt lat="60.43527" lon="7.81959">
        <ele>1197.94</ele>
        <time>2019-04-02T08:55:51Z</time>
      </trkpt>
      <trkpt lat="60.4348" lon="7.81875">
        <ele>1193.13</ele>
        <time>2019-04-02T08:55:59Z</time>
      </trkpt>
      <trkpt lat="60.43467" lon="7.81853">
        <ele>1192.17</ele>
        <time>2019-04-02T08:56:01Z</time>
      </trkpt>
      <trkpt lat="60.43447" lon="7.81818">
        <ele>1190.73</ele>
        <time>2019-04-02T08:56:04Z</time>
      </trkpt>
      <trkpt lat="60.43421" lon="7.81763">
        <ele>1195.54</ele>
        <time>2019-04-02T08:56:09Z</time>
      </trkpt>
      <trkpt lat="60.43416" lon="7.81753">
        <ele>1193.61</ele>
        <time>2019-04-02T08:56:10Z</time>
      </trkpt>
      <trkpt lat="60.43408" lon="7.81733">
        <ele>1193.13</ele>
        <time>2019-04-02T08:56:12Z</time>
      </trkpt>
      <trkpt lat="60.43398" lon="7.81713">
        <ele>1192.17</ele>
        <time>2019-04-02T08:56:14Z</time>
      </trkpt>
      <trkpt lat="60.4338" lon="7.81679">
        <ele>1192.65</ele>
        <time>2019-04-02T08:56:18Z</time>
      </trkpt>
      <trkpt lat="60.43375" lon="7.81672">
        <ele>1192.65</ele>
        <time>2019-04-02T08:56:19Z</time>
      </trkpt>
      <trkpt lat="60.43365" lon="7.81654">
        <ele>1191.21</ele>
        <time>2019-04-02T08:56:21Z</time>
      </trkpt>
      <trkpt lat="60.43357" lon="7.81637">
        <ele>1189.77</ele>
        <time>2019-04-02T08:56:23Z</time>
      </trkpt>
      <trkpt lat="60.43349" lon="7.81625">
        <ele>1190.25</ele>
        <time>2019-04-02T08:56:25Z</time>
      </trkpt>
      <trkpt lat="60.43325" lon="7.81589">
        <ele>1190.73</ele>
        <time>2019-04-02T08:56:31Z</time>
      </trkpt>
      <trkpt lat="60.43317" lon="7.81572">
        <ele>1188.33</ele>
        <time>2019-04-02T08:56:33Z</time>
      </trkpt>
      <trkpt lat="60.43307" lon="7.81558">
        <ele>1187.37</ele>
        <time>2019-04-02T08:56:35Z</time>
      </trkpt>
      <trkpt lat="60.43282" lon="7.81517">
        <ele>1184.96</ele>
        <time>2019-04-02T08:56:40Z</time>
      </trkpt>
      <trkpt lat="60.43263" lon="7.81486">
        <ele>1184.96</ele>
        <time>2019-04-02T08:56:44Z</time>
      </trkpt>
      <trkpt lat="60.43239" lon="7.81436">
        <ele>1181.6</ele>
        <time>2019-04-02T08:56:49Z</time>
      </trkpt>
      <trkpt lat="60.4323" lon="7.8141">
        <ele>1180.64</ele>
        <time>2019-04-02T08:56:51Z</time>
      </trkpt>
      <trkpt lat="60.43217" lon="7.81377">
        <ele>1184.96</ele>
        <time>2019-04-02T08:56:54Z</time>
      </trkpt>
      <trkpt lat="60.43174" lon="7.81301">
        <ele>1181.12</ele>
        <time>2019-04-02T08:57:04Z</time>
      </trkpt>
      <trkpt lat="60.43169" lon="7.81294">
        <ele>1181.12</ele>
        <time>2019-04-02T08:57:05Z</time>
      </trkpt>
      <trkpt lat="60.43149" lon="7.81265">
        <ele>1179.19</ele>
        <time>2019-04-02T08:57:09Z</time>
      </trkpt>
      <trkpt lat="60.43141" lon="7.81255">
        <ele>1181.12</ele>
        <time>2019-04-02T08:57:11Z</time>
      </trkpt>
      <trkpt lat="60.43127" lon="7.81242">
        <ele>1182.56</ele>
        <time>2019-04-02T08:57:15Z</time>
      </trkpt>
      <trkpt lat="60.43125" lon="7.81234">
        <ele>1183.52</ele>
        <time>2019-04-02T08:57:18Z</time>
      </trkpt>
      <trkpt lat="60.43129" lon="7.81249">
        <ele>1184.96</ele>
        <time>2019-04-02T08:57:21Z</time>
      </trkpt>
      <trkpt lat="60.43131" lon="7.81264">
        <ele>1185.44</ele>
        <time>2019-04-02T08:57:23Z</time>
      </trkpt>
      <trkpt lat="60.43137" lon="7.81337">
        <ele>1189.77</ele>
        <time>2019-04-02T08:57:29Z</time>
      </trkpt>
      <trkpt lat="60.43139" lon="7.81375">
        <ele>1191.21</ele>
        <time>2019-04-02T08:57:32Z</time>
      </trkpt>
      <trkpt lat="60.4314" lon="7.81435">
        <ele>1194.09</ele>
        <time>2019-04-02T08:57:37Z</time>
      </trkpt>
      <trkpt lat="60.43139" lon="7.81495">
        <ele>1198.42</ele>
        <time>2019-04-02T08:57:42Z</time>
      </trkpt>
      <trkpt lat="60.43139" lon="7.81508">
        <ele>1199.38</ele>
        <time>2019-04-02T08:57:43Z</time>
      </trkpt>
      <trkpt lat="60.43141" lon="7.81559">
        <ele>1201.3</ele>
        <time>2019-04-02T08:57:47Z</time>
      </trkpt>
      <trkpt lat="60.43146" lon="7.81614">
        <ele>1204.67</ele>
        <time>2019-04-02T08:57:51Z</time>
      </trkpt>
      <trkpt lat="60.43147" lon="7.81629">
        <ele>1204.67</ele>
        <time>2019-04-02T08:57:52Z</time>
      </trkpt>
      <trkpt lat="60.43148" lon="7.81645">
        <ele>1205.15</ele>
        <time>2019-04-02T08:57:53Z</time>
      </trkpt>
      <trkpt lat="60.4315" lon="7.81672">
        <ele>1206.11</ele>
        <time>2019-04-02T08:57:55Z</time>
      </trkpt>
      <trkpt lat="60.43152" lon="7.81733">
        <ele>1209.96</ele>
        <time>2019-04-02T08:57:59Z</time>
      </trkpt>
      <trkpt lat="60.43152" lon="7.8176">
        <ele>1211.4</ele>
        <time>2019-04-02T08:58:01Z</time>
      </trkpt>
      <trkpt lat="60.43156" lon="7.81813">
        <ele>1213.32</ele>
        <time>2019-04-02T08:58:06Z</time>
      </trkpt>
      <trkpt lat="60.43157" lon="7.81838">
        <ele>1216.21</ele>
        <time>2019-04-02T08:58:08Z</time>
      </trkpt>
      <trkpt lat="60.43159" lon="7.81908">
        <ele>1221.01</ele>
        <time>2019-04-02T08:58:13Z</time>
      </trkpt>
      <trkpt lat="60.43162" lon="7.8195">
        <ele>1223.9</ele>
        <time>2019-04-02T08:58:16Z</time>
      </trkpt>
      <trkpt lat="60.43163" lon="7.82003">
        <ele>1227.26</ele>
        <time>2019-04-02T08:58:20Z</time>
      </trkpt>
      <trkpt lat="60.43166" lon="7.82071">
        <ele>1230.62</ele>
        <time>2019-04-02T08:58:25Z</time>
      </trkpt>
      <trkpt lat="60.43167" lon="7.82085">
        <ele>1230.62</ele>
        <time>2019-04-02T08:58:26Z</time>
      </trkpt>
      <trkpt lat="60.43166" lon="7.82153">
        <ele>1233.03</ele>
        <time>2019-04-02T08:58:31Z</time>
      </trkpt>
      <trkpt lat="60.43177" lon="7.82221">
        <ele>1233.03</ele>
        <time>2019-04-02T08:58:36Z</time>
      </trkpt>
      <trkpt lat="60.43189" lon="7.82258">
        <ele>1233.99</ele>
        <time>2019-04-02T08:58:40Z</time>
      </trkpt>
      <trkpt lat="60.43202" lon="7.82299">
        <ele>1238.8</ele>
        <time>2019-04-02T08:58:46Z</time>
      </trkpt>
      <trkpt lat="60.43221" lon="7.8233">
        <ele>1238.8</ele>
        <time>2019-04-02T08:58:56Z</time>
      </trkpt>
      <trkpt lat="60.43266" lon="7.82409">
        <ele>1235.43</ele>
        <time>2019-04-02T08:59:04Z</time>
      </trkpt>
      <trkpt lat="60.43283" lon="7.82438">
        <ele>1233.03</ele>
        <time>2019-04-02T08:59:06Z</time>
      </trkpt>
      <trkpt lat="60.433" lon="7.82462">
        <ele>1231.59</ele>
        <time>2019-04-02T08:59:08Z</time>
      </trkpt>
      <trkpt lat="60.43327" lon="7.82515">
        <ele>1233.51</ele>
        <time>2019-04-02T08:59:14Z</time>
      </trkpt>
      <trkpt lat="60.43333" lon="7.82525">
        <ele>1236.39</ele>
        <time>2019-04-02T08:59:19Z</time>
      </trkpt>
      <trkpt lat="60.43336" lon="7.82529">
        <ele>1236.39</ele>
        <time>2019-04-02T08:59:23Z</time>
      </trkpt>
      <trkpt lat="60.43346" lon="7.82537">
        <ele>1236.87</ele>
        <time>2019-04-02T08:59:36Z</time>
      </trkpt>
      <trkpt lat="60.43346" lon="7.82538">
        <ele>1235.91</ele>
        <time>2019-04-02T08:59:53Z</time>
      </trkpt>
      <trkpt lat="60.43349" lon="7.82538">
        <ele>1235.91</ele>
        <time>2019-04-02T09:00:02Z</time>
      </trkpt>
      <trkpt lat="60.43349" lon="7.82523">
        <ele>1232.07</ele>
        <time>2019-04-02T09:00:08Z</time>
      </trkpt>
      <trkpt lat="60.43349" lon="7.82519">
        <ele>1232.07</ele>
        <time>2019-04-02T09:00:09Z</time>
      </trkpt>
      <trkpt lat="60.43336" lon="7.82484">
        <ele>1228.22</ele>
        <time>2019-04-02T09:00:15Z</time>
      </trkpt>
      <trkpt lat="60.43333" lon="7.82476">
        <ele>1228.22</ele>
        <time>2019-04-02T09:00:16Z</time>
      </trkpt>
      <trkpt lat="60.43323" lon="7.82448">
        <ele>1227.74</ele>
        <time>2019-04-02T09:00:19Z</time>
      </trkpt>
      <trkpt lat="60.43316" lon="7.82422">
        <ele>1226.3</ele>
        <time>2019-04-02T09:00:21Z</time>
      </trkpt>
      <trkpt lat="60.43299" lon="7.82368">
        <ele>1226.3</ele>
        <time>2019-04-02T09:00:26Z</time>
      </trkpt>
      <trkpt lat="60.43281" lon="7.82333">
        <ele>1230.62</ele>
        <time>2019-04-02T09:00:30Z</time>
      </trkpt>
      <trkpt lat="60.43278" lon="7.82328">
        <ele>1230.62</ele>
        <time>2019-04-02T09:00:31Z</time>
      </trkpt>
      <trkpt lat="60.43267" lon="7.82311">
        <ele>1233.03</ele>
        <time>2019-04-02T09:00:35Z</time>
      </trkpt>
      <trkpt lat="60.43264" lon="7.82306">
        <ele>1235.91</ele>
        <time>2019-04-02T09:00:39Z</time>
      </trkpt>
      <trkpt lat="60.4326" lon="7.82294">
        <ele>1236.87</ele>
        <time>2019-04-02T09:00:53Z</time>
      </trkpt>
      <trkpt lat="60.43261" lon="7.82288">
        <ele>1237.83</ele>
        <time>2019-04-02T09:01:06Z</time>
      </trkpt>
      <trkpt lat="60.43266" lon="7.82277">
        <ele>1237.83</ele>
        <time>2019-04-02T09:01:11Z</time>
      </trkpt>
      <trkpt lat="60.43286" lon="7.82298">
        <ele>1234.47</ele>
        <time>2019-04-02T09:01:17Z</time>
      </trkpt>
      <trkpt lat="60.43298" lon="7.82288">
        <ele>1231.59</ele>
        <time>2019-04-02T09:01:20Z</time>
      </trkpt>
      <trkpt lat="60.43313" lon="7.82254">
        <ele>1230.62</ele>
        <time>2019-04-02T09:01:24Z</time>
      </trkpt>
      <trkpt lat="60.43324" lon="7.82229">
        <ele>1229.66</ele>
        <time>2019-04-02T09:01:30Z</time>
      </trkpt>
      <trkpt lat="60.43323" lon="7.82219">
        <ele>1229.66</ele>
        <time>2019-04-02T09:01:39Z</time>
      </trkpt>
      <trkpt lat="60.43319" lon="7.82192">
        <ele>1230.62</ele>
        <time>2019-04-02T09:01:53Z</time>
      </trkpt>
      <trkpt lat="60.43319" lon="7.82189">
        <ele>1229.66</ele>
        <time>2019-04-02T09:02:05Z</time>
      </trkpt>
      <trkpt lat="60.43317" lon="7.82183">
        <ele>1230.62</ele>
        <time>2019-04-02T09:02:11Z</time>
      </trkpt>
      <trkpt lat="60.43318" lon="7.82181">
        <ele>1230.62</ele>
        <time>2019-04-02T09:02:14Z</time>
      </trkpt>
      <trkpt lat="60.43314" lon="7.82165">
        <ele>1230.62</ele>
        <time>2019-04-02T09:02:18Z</time>
      </trkpt>
      <trkpt lat="60.43309" lon="7.8215">
        <ele>1229.66</ele>
        <time>2019-04-02T09:02:20Z</time>
      </trkpt>
      <trkpt lat="60.43302" lon="7.82131">
        <ele>1225.82</ele>
        <time>2019-04-02T09:02:22Z</time>
      </trkpt>
      <trkpt lat="60.43294" lon="7.82111">
        <ele>1223.42</ele>
        <time>2019-04-02T09:02:24Z</time>
      </trkpt>
      <trkpt lat="60.43284" lon="7.82079">
        <ele>1221.01</ele>
        <time>2019-04-02T09:02:27Z</time>
      </trkpt>
      <trkpt lat="60.43276" lon="7.82061">
        <ele>1222.93</ele>
        <time>2019-04-02T09:02:29Z</time>
      </trkpt>
      <trkpt lat="60.43272" lon="7.82053">
        <ele>1222.93</ele>
        <time>2019-04-02T09:02:30Z</time>
      </trkpt>
      <trkpt lat="60.43261" lon="7.82024">
        <ele>1218.13</ele>
        <time>2019-04-02T09:02:33Z</time>
      </trkpt>
      <trkpt lat="60.43239" lon="7.81967">
        <ele>1217.17</ele>
        <time>2019-04-02T09:02:39Z</time>
      </trkpt>
      <trkpt lat="60.43226" lon="7.81936">
        <ele>1216.21</ele>
        <time>2019-04-02T09:02:42Z</time>
      </trkpt>
      <trkpt lat="60.43219" lon="7.81921">
        <ele>1218.13</ele>
        <time>2019-04-02T09:02:44Z</time>
      </trkpt>
      <trkpt lat="60.432" lon="7.81892">
        <ele>1213.8</ele>
        <time>2019-04-02T09:02:49Z</time>
      </trkpt>
      <trkpt lat="60.4319" lon="7.8188">
        <ele>1212.36</ele>
        <time>2019-04-02T09:02:51Z</time>
      </trkpt>
      <trkpt lat="60.43154" lon="7.81834">
        <ele>1209.96</ele>
        <time>2019-04-02T09:02:58Z</time>
      </trkpt>
      <trkpt lat="60.43141" lon="7.81814">
        <ele>1213.32</ele>
        <time>2019-04-02T09:03:01Z</time>
      </trkpt>
      <trkpt lat="60.43137" lon="7.81807">
        <ele>1213.32</ele>
        <time>2019-04-02T09:03:02Z</time>
      </trkpt>
      <trkpt lat="60.43133" lon="7.81799">
        <ele>1213.32</ele>
        <time>2019-04-02T09:03:03Z</time>
      </trkpt>
      <trkpt lat="60.431" lon="7.81759">
        <ele>1209.48</ele>
        <time>2019-04-02T09:03:11Z</time>
      </trkpt>
      <trkpt lat="60.43091" lon="7.81747">
        <ele>1208.03</ele>
        <time>2019-04-02T09:03:13Z</time>
      </trkpt>
      <trkpt lat="60.43081" lon="7.81735">
        <ele>1207.55</ele>
        <time>2019-04-02T09:03:15Z</time>
      </trkpt>
      <trkpt lat="60.4306" lon="7.81702">
        <ele>1205.15</ele>
        <time>2019-04-02T09:03:20Z</time>
      </trkpt>
      <trkpt lat="60.43044" lon="7.81664">
        <ele>1202.75</ele>
        <time>2019-04-02T09:03:24Z</time>
      </trkpt>
      <trkpt lat="60.43037" lon="7.81642">
        <ele>1199.86</ele>
        <time>2019-04-02T09:03:26Z</time>
      </trkpt>
      <trkpt lat="60.43034" lon="7.81632">
        <ele>1202.27</ele>
        <time>2019-04-02T09:03:27Z</time>
      </trkpt>
      <trkpt lat="60.4303" lon="7.81612">
        <ele>1203.23</ele>
        <time>2019-04-02T09:03:29Z</time>
      </trkpt>
      <trkpt lat="60.43025" lon="7.81592">
        <ele>1204.19</ele>
        <time>2019-04-02T09:03:31Z</time>
      </trkpt>
      <trkpt lat="60.43012" lon="7.81561">
        <ele>1202.27</ele>
        <time>2019-04-02T09:03:35Z</time>
      </trkpt>
      <trkpt lat="60.43008" lon="7.81554">
        <ele>1201.3</ele>
        <time>2019-04-02T09:03:36Z</time>
      </trkpt>
      <trkpt lat="60.42995" lon="7.81525">
        <ele>1195.54</ele>
        <time>2019-04-02T09:03:39Z</time>
      </trkpt>
      <trkpt lat="60.42963" lon="7.81451">
        <ele>1197.46</ele>
        <time>2019-04-02T09:03:47Z</time>
      </trkpt>
      <trkpt lat="60.42954" lon="7.81433">
        <ele>1195.54</ele>
        <time>2019-04-02T09:03:49Z</time>
      </trkpt>
      <trkpt lat="60.42936" lon="7.81408">
        <ele>1192.17</ele>
        <time>2019-04-02T09:03:53Z</time>
      </trkpt>
      <trkpt lat="60.42932" lon="7.81401">
        <ele>1192.17</ele>
        <time>2019-04-02T09:03:54Z</time>
      </trkpt>
      <trkpt lat="60.42918" lon="7.81377">
        <ele>1193.61</ele>
        <time>2019-04-02T09:03:58Z</time>
      </trkpt>
      <trkpt lat="60.42904" lon="7.81346">
        <ele>1191.21</ele>
        <time>2019-04-02T09:04:04Z</time>
      </trkpt>
      <trkpt lat="60.42894" lon="7.81318">
        <ele>1186.4</ele>
        <time>2019-04-02T09:04:07Z</time>
      </trkpt>
      <trkpt lat="60.42877" lon="7.81264">
        <ele>1182.08</ele>
        <time>2019-04-02T09:04:11Z</time>
      </trkpt>
      <trkpt lat="60.42872" lon="7.81247">
        <ele>1182.08</ele>
        <time>2019-04-02T09:04:12Z</time>
      </trkpt>
      <trkpt lat="60.42862" lon="7.81212">
        <ele>1180.64</ele>
        <time>2019-04-02T09:04:14Z</time>
      </trkpt>
      <trkpt lat="60.4285" lon="7.81159">
        <ele>1175.83</ele>
        <time>2019-04-02T09:04:17Z</time>
      </trkpt>
      <trkpt lat="60.42835" lon="7.81081">
        <ele>1179.19</ele>
        <time>2019-04-02T09:04:22Z</time>
      </trkpt>
      <trkpt lat="60.42828" lon="7.81049">
        <ele>1181.12</ele>
        <time>2019-04-02T09:04:25Z</time>
      </trkpt>
      <trkpt lat="60.4282" lon="7.81017">
        <ele>1183.52</ele>
        <time>2019-04-02T09:04:29Z</time>
      </trkpt>
      <trkpt lat="60.42813" lon="7.80999">
        <ele>1184.96</ele>
        <time>2019-04-02T09:04:32Z</time>
      </trkpt>
      <trkpt lat="60.42805" lon="7.80982">
        <ele>1184</ele>
        <time>2019-04-02T09:04:35Z</time>
      </trkpt>
      <trkpt lat="60.4279" lon="7.80954">
        <ele>1182.56</ele>
        <time>2019-04-02T09:04:40Z</time>
      </trkpt>
      <trkpt lat="60.42779" lon="7.8092">
        <ele>1178.71</ele>
        <time>2019-04-02T09:04:44Z</time>
      </trkpt>
      <trkpt lat="60.42776" lon="7.80912">
        <ele>1180.64</ele>
        <time>2019-04-02T09:04:45Z</time>
      </trkpt>
      <trkpt lat="60.4277" lon="7.80892">
        <ele>1177.75</ele>
        <time>2019-04-02T09:04:47Z</time>
      </trkpt>
      <trkpt lat="60.42763" lon="7.80869">
        <ele>1176.31</ele>
        <time>2019-04-02T09:04:49Z</time>
      </trkpt>
      <trkpt lat="60.4275" lon="7.80811">
        <ele>1171.5</ele>
        <time>2019-04-02T09:04:53Z</time>
      </trkpt>
      <trkpt lat="60.42748" lon="7.80795">
        <ele>1171.5</ele>
        <time>2019-04-02T09:04:54Z</time>
      </trkpt>
      <trkpt lat="60.42733" lon="7.80715">
        <ele>1167.18</ele>
        <time>2019-04-02T09:04:59Z</time>
      </trkpt>
      <trkpt lat="60.42727" lon="7.80682">
        <ele>1166.22</ele>
        <time>2019-04-02T09:05:01Z</time>
      </trkpt>
      <trkpt lat="60.42723" lon="7.80646">
        <ele>1165.26</ele>
        <time>2019-04-02T09:05:03Z</time>
      </trkpt>
      <trkpt lat="60.42714" lon="7.80593">
        <ele>1163.33</ele>
        <time>2019-04-02T09:05:06Z</time>
      </trkpt>
      <trkpt lat="60.42705" lon="7.80546">
        <ele>1161.89</ele>
        <time>2019-04-02T09:05:09Z</time>
      </trkpt>
      <trkpt lat="60.42689" lon="7.80482">
        <ele>1160.93</ele>
        <time>2019-04-02T09:05:14Z</time>
      </trkpt>
      <trkpt lat="60.42684" lon="7.80456">
        <ele>1162.85</ele>
        <time>2019-04-02T09:05:16Z</time>
      </trkpt>
      <trkpt lat="60.42679" lon="7.80432">
        <ele>1163.81</ele>
        <time>2019-04-02T09:05:18Z</time>
      </trkpt>
      <trkpt lat="60.42671" lon="7.80386">
        <ele>1163.33</ele>
        <time>2019-04-02T09:05:22Z</time>
      </trkpt>
      <trkpt lat="60.42666" lon="7.80367">
        <ele>1165.74</ele>
        <time>2019-04-02T09:05:24Z</time>
      </trkpt>
      <trkpt lat="60.42656" lon="7.80346">
        <ele>1165.74</ele>
        <time>2019-04-02T09:05:27Z</time>
      </trkpt>
      <trkpt lat="60.42647" lon="7.80336">
        <ele>1162.85</ele>
        <time>2019-04-02T09:05:29Z</time>
      </trkpt>
      <trkpt lat="60.4263" lon="7.8031">
        <ele>1158.53</ele>
        <time>2019-04-02T09:05:33Z</time>
      </trkpt>
      <trkpt lat="60.42626" lon="7.80302">
        <ele>1158.53</ele>
        <time>2019-04-02T09:05:34Z</time>
      </trkpt>
      <trkpt lat="60.42612" lon="7.8027">
        <ele>1159.97</ele>
        <time>2019-04-02T09:05:38Z</time>
      </trkpt>
      <trkpt lat="60.42609" lon="7.80262">
        <ele>1159.97</ele>
        <time>2019-04-02T09:05:39Z</time>
      </trkpt>
      <trkpt lat="60.42598" lon="7.80238">
        <ele>1158.53</ele>
        <time>2019-04-02T09:05:42Z</time>
      </trkpt>
      <trkpt lat="60.42582" lon="7.80202">
        <ele>1156.6</ele>
        <time>2019-04-02T09:05:46Z</time>
      </trkpt>
      <trkpt lat="60.42573" lon="7.80185">
        <ele>1153.24</ele>
        <time>2019-04-02T09:05:48Z</time>
      </trkpt>
      <trkpt lat="60.42557" lon="7.80149">
        <ele>1153.72</ele>
        <time>2019-04-02T09:05:53Z</time>
      </trkpt>
      <trkpt lat="60.42557" lon="7.80134">
        <ele>1156.12</ele>
        <time>2019-04-02T09:05:56Z</time>
      </trkpt>
      <trkpt lat="60.42559" lon="7.8012">
        <ele>1155.16</ele>
        <time>2019-04-02T09:06:00Z</time>
      </trkpt>
      <trkpt lat="60.42556" lon="7.8007">
        <ele>1151.32</ele>
        <time>2019-04-02T09:06:10Z</time>
      </trkpt>
      <trkpt lat="60.42555" lon="7.80033">
        <ele>1151.8</ele>
        <time>2019-04-02T09:06:14Z</time>
      </trkpt>
      <trkpt lat="60.42555" lon="7.80024">
        <ele>1151.32</ele>
        <time>2019-04-02T09:06:15Z</time>
      </trkpt>
      <trkpt lat="60.42557" lon="7.80002">
        <ele>1150.35</ele>
        <time>2019-04-02T09:06:17Z</time>
      </trkpt>
      <trkpt lat="60.42554" lon="7.79966">
        <ele>1149.39</ele>
        <time>2019-04-02T09:06:21Z</time>
      </trkpt>
      <trkpt lat="60.42551" lon="7.79955">
        <ele>1150.35</ele>
        <time>2019-04-02T09:06:23Z</time>
      </trkpt>
      <trkpt lat="60.42549" lon="7.79948">
        <ele>1150.84</ele>
        <time>2019-04-02T09:06:24Z</time>
      </trkpt>
      <trkpt lat="60.42545" lon="7.79927">
        <ele>1148.91</ele>
        <time>2019-04-02T09:06:27Z</time>
      </trkpt>
      <trkpt lat="60.42541" lon="7.79889">
        <ele>1148.91</ele>
        <time>2019-04-02T09:06:32Z</time>
      </trkpt>
      <trkpt lat="60.42524" lon="7.79824">
        <ele>1146.51</ele>
        <time>2019-04-02T09:06:39Z</time>
      </trkpt>
      <trkpt lat="60.42507" lon="7.79782">
        <ele>1145.55</ele>
        <time>2019-04-02T09:06:46Z</time>
      </trkpt>
      <trkpt lat="60.42507" lon="7.79779">
        <ele>1146.99</ele>
        <time>2019-04-02T09:06:48Z</time>
      </trkpt>
      <trkpt lat="60.42505" lon="7.79776">
        <ele>1147.47</ele>
        <time>2019-04-02T09:06:58Z</time>
      </trkpt>
      <trkpt lat="60.42504" lon="7.79767">
        <ele>1146.03</ele>
        <time>2019-04-02T09:07:01Z</time>
      </trkpt>
      <trkpt lat="60.42501" lon="7.79747">
        <ele>1146.03</ele>
        <time>2019-04-02T09:07:12Z</time>
      </trkpt>
      <trkpt lat="60.425" lon="7.79744">
        <ele>1147.47</ele>
        <time>2019-04-02T09:07:25Z</time>
      </trkpt>
      <trkpt lat="60.425" lon="7.79743">
        <ele>1147.47</ele>
        <time>2019-04-02T09:07:28Z</time>
      </trkpt>
      <trkpt lat="60.42502" lon="7.79734">
        <ele>1147.47</ele>
        <time>2019-04-02T09:07:32Z</time>
      </trkpt>
      <trkpt lat="60.42521" lon="7.79713">
        <ele>1147.47</ele>
        <time>2019-04-02T09:07:45Z</time>
      </trkpt>
      <trkpt lat="60.42522" lon="7.7971">
        <ele>1147.47</ele>
        <time>2019-04-02T09:07:53Z</time>
      </trkpt>
      <trkpt lat="60.42525" lon="7.79704">
        <ele>1147.47</ele>
        <time>2019-04-02T09:07:57Z</time>
      </trkpt>
      <trkpt lat="60.42529" lon="7.79689">
        <ele>1146.03</ele>
        <time>2019-04-02T09:08:04Z</time>
      </trkpt>
      <trkpt lat="60.42533" lon="7.79651">
        <ele>1145.55</ele>
        <time>2019-04-02T09:08:12Z</time>
      </trkpt>
      <trkpt lat="60.42532" lon="7.79645">
        <ele>1146.03</ele>
        <time>2019-04-02T09:08:24Z</time>
      </trkpt>
      <trkpt lat="60.42531" lon="7.79645">
        <ele>1144.11</ele>
        <time>2019-04-02T09:08:26Z</time>
      </trkpt>
      <trkpt lat="60.42533" lon="7.79639">
        <ele>1145.07</ele>
        <time>2019-04-02T09:08:29Z</time>
      </trkpt>
      <trkpt lat="60.42534" lon="7.79638">
        <ele>1145.55</ele>
        <time>2019-04-02T09:08:37Z</time>
      </trkpt>
      <trkpt lat="60.42535" lon="7.79636">
        <ele>1143.63</ele>
        <time>2019-04-02T09:08:40Z</time>
      </trkpt>
      <trkpt lat="60.42536" lon="7.79636">
        <ele>1144.59</ele>
        <time>2019-04-02T09:08:44Z</time>
      </trkpt>
      <trkpt lat="60.42541" lon="7.79627">
        <ele>1143.63</ele>
        <time>2019-04-02T09:08:51Z</time>
      </trkpt>
      <trkpt lat="60.4254" lon="7.79625">
        <ele>1143.63</ele>
        <time>2019-04-02T09:08:55Z</time>
      </trkpt>
      <trkpt lat="60.42539" lon="7.79621">
        <ele>1143.63</ele>
        <time>2019-04-02T09:08:57Z</time>
      </trkpt>
      <trkpt lat="60.42535" lon="7.79611">
        <ele>1144.59</ele>
        <time>2019-04-02T09:09:01Z</time>
      </trkpt>
      <trkpt lat="60.42534" lon="7.79609">
        <ele>1144.59</ele>
        <time>2019-04-02T09:09:02Z</time>
      </trkpt>
      <trkpt lat="60.42532" lon="7.79606">
        <ele>1142.18</ele>
        <time>2019-04-02T09:09:06Z</time>
      </trkpt>
      <trkpt lat="60.42532" lon="7.79606">
        <ele>1142.18</ele>
        <time>2019-04-02T09:09:07Z</time>
      </trkpt>
      <trkpt lat="60.42533" lon="7.79606">
        <ele>1145.55</ele>
        <time>2019-04-02T09:09:10Z</time>
      </trkpt>
      <trkpt lat="60.42532" lon="7.79607">
        <ele>1145.55</ele>
        <time>2019-04-02T09:09:11Z</time>
      </trkpt>
      <trkpt lat="60.42532" lon="7.79604">
        <ele>1145.55</ele>
        <time>2019-04-02T09:09:13Z</time>
      </trkpt>
      <trkpt lat="60.42536" lon="7.79599">
        <ele>1144.11</ele>
        <time>2019-04-02T09:09:17Z</time>
      </trkpt>
      <trkpt lat="60.42534" lon="7.79614">
        <ele>1143.14</ele>
        <time>2019-04-02T09:09:24Z</time>
      </trkpt>
      <trkpt lat="60.42535" lon="7.79614">
        <ele>1143.14</ele>
        <time>2019-04-02T09:09:39Z</time>
      </trkpt>
      <trkpt lat="60.42536" lon="7.79614">
        <ele>1143.14</ele>
        <time>2019-04-02T09:10:01Z</time>
      </trkpt>
      <trkpt lat="60.42535" lon="7.79616">
        <ele>1145.07</ele>
        <time>2019-04-02T09:10:07Z</time>
      </trkpt>
      <trkpt lat="60.42535" lon="7.79619">
        <ele>1143.63</ele>
        <time>2019-04-02T09:10:18Z</time>
      </trkpt>
      <trkpt lat="60.42534" lon="7.79619">
        <ele>1143.63</ele>
        <time>2019-04-02T09:10:30Z</time>
      </trkpt>
      <trkpt lat="60.42529" lon="7.79622">
        <ele>1145.07</ele>
        <time>2019-04-02T09:10:33Z</time>
      </trkpt>
      <trkpt lat="60.42521" lon="7.79625">
        <ele>1146.03</ele>
        <time>2019-04-02T09:10:39Z</time>
      </trkpt>
      <trkpt lat="60.42522" lon="7.7963">
        <ele>1144.59</ele>
        <time>2019-04-02T09:10:42Z</time>
      </trkpt>
      <trkpt lat="60.42525" lon="7.79637">
        <ele>1143.63</ele>
        <time>2019-04-02T09:10:52Z</time>
      </trkpt>
      <trkpt lat="60.42526" lon="7.79636">
        <ele>1143.14</ele>
        <time>2019-04-02T09:11:05Z</time>
      </trkpt>
      <trkpt lat="60.42527" lon="7.79636">
        <ele>1143.14</ele>
        <time>2019-04-02T09:11:23Z</time>
      </trkpt>
      <trkpt lat="60.42526" lon="7.79636">
        <ele>1143.14</ele>
        <time>2019-04-02T09:11:52Z</time>
      </trkpt>
      <trkpt lat="60.42525" lon="7.79635">
        <ele>1143.14</ele>
        <time>2019-04-02T09:12:26Z</time>
      </trkpt>
      <trkpt lat="60.42526" lon="7.79636">
        <ele>1143.14</ele>
        <time>2019-04-02T09:12:56Z</time>
      </trkpt>
      <trkpt lat="60.42528" lon="7.79636">
        <ele>1143.14</ele>
        <time>2019-04-02T09:13:32Z</time>
      </trkpt>
      <trkpt lat="60.42526" lon="7.79634">
        <ele>1143.14</ele>
        <time>2019-04-02T09:14:06Z</time>
      </trkpt>
      <trkpt lat="60.42525" lon="7.79634">
        <ele>1143.14</ele>
        <time>2019-04-02T09:14:34Z</time>
      </trkpt>
      <trkpt lat="60.42524" lon="7.79632">
        <ele>1143.14</ele>
        <time>2019-04-02T09:15:03Z</time>
      </trkpt>
      <trkpt lat="60.42523" lon="7.79632">
        <ele>1143.14</ele>
        <time>2019-04-02T09:15:37Z</time>
      </trkpt>
      <trkpt lat="60.42524" lon="7.79633">
        <ele>1143.14</ele>
        <time>2019-04-02T09:16:11Z</time>
      </trkpt>
      <trkpt lat="60.42524" lon="7.79632">
        <ele>1143.14</ele>
        <time>2019-04-02T09:16:45Z</time>
      </trkpt>
      <trkpt lat="60.42526" lon="7.79632">
        <ele>1143.14</ele>
        <time>2019-04-02T09:17:30Z</time>
      </trkpt>
      <trkpt lat="60.42526" lon="7.79633">
        <ele>1143.63</ele>
        <time>2019-04-02T09:18:04Z</time>
      </trkpt>
      <trkpt lat="60.42526" lon="7.79633">
        <ele>1142.18</ele>
        <time>2019-04-02T09:18:36Z</time>
      </trkpt>
      <trkpt lat="60.42525" lon="7.79633">
        <ele>1142.18</ele>
        <time>2019-04-02T09:19:07Z</time>
      </trkpt>
      <trkpt lat="60.42525" lon="7.79634">
        <ele>1142.18</ele>
        <time>2019-04-02T09:19:45Z</time>
      </trkpt>
      <trkpt lat="60.42525" lon="7.79634">
        <ele>1142.66</ele>
        <time>2019-04-02T09:20:19Z</time>
      </trkpt>
      <trkpt lat="60.42526" lon="7.79633">
        <ele>1142.66</ele>
        <time>2019-04-02T09:21:03Z</time>
      </trkpt>
      <trkpt lat="60.42524" lon="7.79634">
        <ele>1142.66</ele>
        <time>2019-04-02T09:21:49Z</time>
      </trkpt>
      <trkpt lat="60.42524" lon="7.79634">
        <ele>1142.66</ele>
        <time>2019-04-02T09:22:22Z</time>
      </trkpt>
      <trkpt lat="60.42524" lon="7.79634">
        <ele>1142.66</ele>
        <time>2019-04-02T09:22:51Z</time>
      </trkpt>
      <trkpt lat="60.42527" lon="7.79633">
        <ele>1145.07</ele>
        <time>2019-04-02T09:22:54Z</time>
      </trkpt>
      <trkpt lat="60.42527" lon="7.79631">
        <ele>1143.63</ele>
        <time>2019-04-02T09:22:57Z</time>
      </trkpt>
      <trkpt lat="60.42527" lon="7.79634">
        <ele>1150.84</ele>
        <time>2019-04-02T09:23:01Z</time>
      </trkpt>
      <trkpt lat="60.42523" lon="7.79644">
        <ele>1144.11</ele>
        <time>2019-04-02T09:23:15Z</time>
      </trkpt>
      <trkpt lat="60.42523" lon="7.79645">
        <ele>1144.11</ele>
        <time>2019-04-02T09:23:21Z</time>
      </trkpt>
      <trkpt lat="60.42526" lon="7.79642">
        <ele>1144.11</ele>
        <time>2019-04-02T09:23:26Z</time>
      </trkpt>
      <trkpt lat="60.4253" lon="7.79654">
        <ele>1144.11</ele>
        <time>2019-04-02T09:23:30Z</time>
      </trkpt>
      <trkpt lat="60.42532" lon="7.79662">
        <ele>1144.11</ele>
        <time>2019-04-02T09:23:38Z</time>
      </trkpt>
      <trkpt lat="60.42545" lon="7.79695">
        <ele>1144.11</ele>
        <time>2019-04-02T09:23:48Z</time>
      </trkpt>
      <trkpt lat="60.42547" lon="7.79701">
        <ele>1144.11</ele>
        <time>2019-04-02T09:23:49Z</time>
      </trkpt>
      <trkpt lat="60.42549" lon="7.79703">
        <ele>1144.11</ele>
        <time>2019-04-02T09:23:54Z</time>
      </trkpt>
      <trkpt lat="60.42548" lon="7.79695">
        <ele>1143.63</ele>
        <time>2019-04-02T09:24:00Z</time>
      </trkpt>
      <trkpt lat="60.42549" lon="7.79665">
        <ele>1143.63</ele>
        <time>2019-04-02T09:24:09Z</time>
      </trkpt>
      <trkpt lat="60.42549" lon="7.79658">
        <ele>1143.63</ele>
        <time>2019-04-02T09:24:11Z</time>
      </trkpt>
      <trkpt lat="60.42546" lon="7.79624">
        <ele>1143.14</ele>
        <time>2019-04-02T09:24:22Z</time>
      </trkpt>
      <trkpt lat="60.42546" lon="7.79624">
        <ele>1143.14</ele>
        <time>2019-04-02T09:24:23Z</time>
      </trkpt>
      <trkpt lat="60.42544" lon="7.79599">
        <ele>1143.14</ele>
        <time>2019-04-02T09:24:27Z</time>
      </trkpt>
      <trkpt lat="60.42532" lon="7.79545">
        <ele>1143.14</ele>
        <time>2019-04-02T09:24:37Z</time>
      </trkpt>
      <trkpt lat="60.42522" lon="7.79499">
        <ele>1143.14</ele>
        <time>2019-04-02T09:24:46Z</time>
      </trkpt>
      <trkpt lat="60.42509" lon="7.79448">
        <ele>1143.14</ele>
        <time>2019-04-02T09:24:55Z</time>
      </trkpt>
      <trkpt lat="60.42506" lon="7.79435">
        <ele>1143.14</ele>
        <time>2019-04-02T09:25:00Z</time>
      </trkpt>
      <trkpt lat="60.42506" lon="7.79407">
        <ele>1143.14</ele>
        <time>2019-04-02T09:25:11Z</time>
      </trkpt>
      <trkpt lat="60.42505" lon="7.79405">
        <ele>1143.14</ele>
        <time>2019-04-02T09:25:18Z</time>
      </trkpt>
      <trkpt lat="60.42503" lon="7.79389">
        <ele>1143.14</ele>
        <time>2019-04-02T09:25:30Z</time>
      </trkpt>
      <trkpt lat="60.42501" lon="7.79357">
        <ele>1143.14</ele>
        <time>2019-04-02T09:25:40Z</time>
      </trkpt>
      <trkpt lat="60.42498" lon="7.7932">
        <ele>1143.14</ele>
        <time>2019-04-02T09:25:49Z</time>
      </trkpt>
      <trkpt lat="60.42498" lon="7.79317">
        <ele>1143.14</ele>
        <time>2019-04-02T09:25:58Z</time>
      </trkpt>
      <trkpt lat="60.42486" lon="7.79276">
        <ele>1143.14</ele>
        <time>2019-04-02T09:26:07Z</time>
      </trkpt>
      <trkpt lat="60.42486" lon="7.79275">
        <ele>1143.14</ele>
        <time>2019-04-02T09:26:08Z</time>
      </trkpt>
      <trkpt lat="60.42477" lon="7.79235">
        <ele>1143.14</ele>
        <time>2019-04-02T09:26:14Z</time>
      </trkpt>
      <trkpt lat="60.42469" lon="7.79207">
        <ele>1143.14</ele>
        <time>2019-04-02T09:26:17Z</time>
      </trkpt>
      <trkpt lat="60.42456" lon="7.79161">
        <ele>1143.14</ele>
        <time>2019-04-02T09:26:26Z</time>
      </trkpt>
      <trkpt lat="60.4245" lon="7.79138">
        <ele>1143.14</ele>
        <time>2019-04-02T09:26:30Z</time>
      </trkpt>
      <trkpt lat="60.4244" lon="7.79108">
        <ele>1143.14</ele>
        <time>2019-04-02T09:26:34Z</time>
      </trkpt>
      <trkpt lat="60.42423" lon="7.79054">
        <ele>1144.11</ele>
        <time>2019-04-02T09:26:40Z</time>
      </trkpt>
      <trkpt lat="60.42415" lon="7.79037">
        <ele>1142.66</ele>
        <time>2019-04-02T09:26:42Z</time>
      </trkpt>
      <trkpt lat="60.42405" lon="7.79024">
        <ele>1144.11</ele>
        <time>2019-04-02T09:26:44Z</time>
      </trkpt>
      <trkpt lat="60.42389" lon="7.78994">
        <ele>1142.66</ele>
        <time>2019-04-02T09:26:48Z</time>
      </trkpt>
      <trkpt lat="60.42376" lon="7.78942">
        <ele>1144.11</ele>
        <time>2019-04-02T09:26:59Z</time>
      </trkpt>
      <trkpt lat="60.42375" lon="7.78936">
        <ele>1144.11</ele>
        <time>2019-04-02T09:27:00Z</time>
      </trkpt>
      <trkpt lat="60.42372" lon="7.78922">
        <ele>1143.63</ele>
        <time>2019-04-02T09:27:06Z</time>
      </trkpt>
      <trkpt lat="60.42372" lon="7.78905">
        <ele>1143.63</ele>
        <time>2019-04-02T09:27:15Z</time>
      </trkpt>
      <trkpt lat="60.42358" lon="7.78867">
        <ele>1144.11</ele>
        <time>2019-04-02T09:27:20Z</time>
      </trkpt>
      <trkpt lat="60.42352" lon="7.78843">
        <ele>1144.11</ele>
        <time>2019-04-02T09:27:23Z</time>
      </trkpt>
      <trkpt lat="60.42336" lon="7.78804">
        <ele>1144.11</ele>
        <time>2019-04-02T09:27:28Z</time>
      </trkpt>
      <trkpt lat="60.42331" lon="7.78786">
        <ele>1144.11</ele>
        <time>2019-04-02T09:27:30Z</time>
      </trkpt>
      <trkpt lat="60.42312" lon="7.78722">
        <ele>1144.11</ele>
        <time>2019-04-02T09:27:36Z</time>
      </trkpt>
      <trkpt lat="60.42304" lon="7.787">
        <ele>1144.11</ele>
        <time>2019-04-02T09:27:38Z</time>
      </trkpt>
      <trkpt lat="60.42294" lon="7.78658">
        <ele>1144.11</ele>
        <time>2019-04-02T09:27:42Z</time>
      </trkpt>
      <trkpt lat="60.42281" lon="7.78607">
        <ele>1143.14</ele>
        <time>2019-04-02T09:27:47Z</time>
      </trkpt>
      <trkpt lat="60.42277" lon="7.78586">
        <ele>1143.14</ele>
        <time>2019-04-02T09:27:49Z</time>
      </trkpt>
      <trkpt lat="60.42267" lon="7.78559">
        <ele>1143.14</ele>
        <time>2019-04-02T09:27:52Z</time>
      </trkpt>
      <trkpt lat="60.42258" lon="7.78507">
        <ele>1143.14</ele>
        <time>2019-04-02T09:27:59Z</time>
      </trkpt>
      <trkpt lat="60.42257" lon="7.78497">
        <ele>1143.14</ele>
        <time>2019-04-02T09:28:07Z</time>
      </trkpt>
      <trkpt lat="60.4227" lon="7.78496">
        <ele>1143.14</ele>
        <time>2019-04-02T09:28:16Z</time>
      </trkpt>
      <trkpt lat="60.42274" lon="7.78494">
        <ele>1143.14</ele>
        <time>2019-04-02T09:28:18Z</time>
      </trkpt>
      <trkpt lat="60.42286" lon="7.78492">
        <ele>1143.14</ele>
        <time>2019-04-02T09:28:21Z</time>
      </trkpt>
      <trkpt lat="60.42302" lon="7.78486">
        <ele>1143.14</ele>
        <time>2019-04-02T09:28:25Z</time>
      </trkpt>
      <trkpt lat="60.4232" lon="7.78487">
        <ele>1144.11</ele>
        <time>2019-04-02T09:28:29Z</time>
      </trkpt>
      <trkpt lat="60.42357" lon="7.78464">
        <ele>1144.11</ele>
        <time>2019-04-02T09:28:36Z</time>
      </trkpt>
      <trkpt lat="60.42376" lon="7.78457">
        <ele>1144.11</ele>
        <time>2019-04-02T09:28:40Z</time>
      </trkpt>
      <trkpt lat="60.42415" lon="7.78438">
        <ele>1144.11</ele>
        <time>2019-04-02T09:28:48Z</time>
      </trkpt>
      <trkpt lat="60.42424" lon="7.78429">
        <ele>1144.11</ele>
        <time>2019-04-02T09:28:50Z</time>
      </trkpt>
      <trkpt lat="60.42436" lon="7.78422">
        <ele>1144.11</ele>
        <time>2019-04-02T09:28:53Z</time>
      </trkpt>
      <trkpt lat="60.42462" lon="7.78402">
        <ele>1144.11</ele>
        <time>2019-04-02T09:28:59Z</time>
      </trkpt>
      <trkpt lat="60.42483" lon="7.78375">
        <ele>1144.11</ele>
        <time>2019-04-02T09:29:04Z</time>
      </trkpt>
      <trkpt lat="60.42496" lon="7.78357">
        <ele>1144.11</ele>
        <time>2019-04-02T09:29:07Z</time>
      </trkpt>
      <trkpt lat="60.42527" lon="7.78335">
        <ele>1144.11</ele>
        <time>2019-04-02T09:29:13Z</time>
      </trkpt>
      <trkpt lat="60.42542" lon="7.78325">
        <ele>1144.11</ele>
        <time>2019-04-02T09:29:20Z</time>
      </trkpt>
      <trkpt lat="60.42541" lon="7.78306">
        <ele>1143.14</ele>
        <time>2019-04-02T09:29:24Z</time>
      </trkpt>
      <trkpt lat="60.42532" lon="7.78236">
        <ele>1143.14</ele>
        <time>2019-04-02T09:29:31Z</time>
      </trkpt>
      <trkpt lat="60.42521" lon="7.78189">
        <ele>1143.14</ele>
        <time>2019-04-02T09:29:35Z</time>
      </trkpt>
      <trkpt lat="60.42514" lon="7.78117">
        <ele>1145.55</ele>
        <time>2019-04-02T09:29:43Z</time>
      </trkpt>
      <trkpt lat="60.42513" lon="7.78085">
        <ele>1148.43</ele>
        <time>2019-04-02T09:29:49Z</time>
      </trkpt>
      <trkpt lat="60.42513" lon="7.78082">
        <ele>1148.43</ele>
        <time>2019-04-02T09:29:50Z</time>
      </trkpt>
      <trkpt lat="60.42512" lon="7.78068">
        <ele>1149.87</ele>
        <time>2019-04-02T09:29:53Z</time>
      </trkpt>
      <trkpt lat="60.42512" lon="7.78059">
        <ele>1150.84</ele>
        <time>2019-04-02T09:29:56Z</time>
      </trkpt>
      <trkpt lat="60.42499" lon="7.78009">
        <ele>1155.16</ele>
        <time>2019-04-02T09:30:05Z</time>
      </trkpt>
      <trkpt lat="60.4249" lon="7.77979">
        <ele>1157.56</ele>
        <time>2019-04-02T09:30:11Z</time>
      </trkpt>
      <trkpt lat="60.42489" lon="7.77975">
        <ele>1157.56</ele>
        <time>2019-04-02T09:30:12Z</time>
      </trkpt>
      <trkpt lat="60.42481" lon="7.77953">
        <ele>1159.49</ele>
        <time>2019-04-02T09:30:16Z</time>
      </trkpt>
      <trkpt lat="60.42474" lon="7.77918">
        <ele>1161.41</ele>
        <time>2019-04-02T09:30:23Z</time>
      </trkpt>
      <trkpt lat="60.42463" lon="7.77882">
        <ele>1162.37</ele>
        <time>2019-04-02T09:30:33Z</time>
      </trkpt>
      <trkpt lat="60.42459" lon="7.77862">
        <ele>1163.33</ele>
        <time>2019-04-02T09:30:40Z</time>
      </trkpt>
      <trkpt lat="60.42444" lon="7.77819">
        <ele>1165.26</ele>
        <time>2019-04-02T09:30:50Z</time>
      </trkpt>
      <trkpt lat="60.42442" lon="7.778">
        <ele>1165.26</ele>
        <time>2019-04-02T09:30:59Z</time>
      </trkpt>
      <trkpt lat="60.42438" lon="7.77762">
        <ele>1166.22</ele>
        <time>2019-04-02T09:31:10Z</time>
      </trkpt>
      <trkpt lat="60.42429" lon="7.77728">
        <ele>1167.18</ele>
        <time>2019-04-02T09:31:19Z</time>
      </trkpt>
      <trkpt lat="60.4242" lon="7.77709">
        <ele>1167.66</ele>
        <time>2019-04-02T09:31:31Z</time>
      </trkpt>
      <trkpt lat="60.42414" lon="7.77685">
        <ele>1168.14</ele>
        <time>2019-04-02T09:31:40Z</time>
      </trkpt>
      <trkpt lat="60.42406" lon="7.77665">
        <ele>1169.1</ele>
        <time>2019-04-02T09:31:45Z</time>
      </trkpt>
      <trkpt lat="60.42399" lon="7.77631">
        <ele>1169.58</ele>
        <time>2019-04-02T09:31:57Z</time>
      </trkpt>
      <trkpt lat="60.42397" lon="7.7762">
        <ele>1169.58</ele>
        <time>2019-04-02T09:32:02Z</time>
      </trkpt>
      <trkpt lat="60.42398" lon="7.77611">
        <ele>1170.06</ele>
        <time>2019-04-02T09:32:07Z</time>
      </trkpt>
      <trkpt lat="60.42396" lon="7.776">
        <ele>1170.54</ele>
        <time>2019-04-02T09:32:12Z</time>
      </trkpt>
      <trkpt lat="60.42392" lon="7.77583">
        <ele>1171.5</ele>
        <time>2019-04-02T09:32:18Z</time>
      </trkpt>
      <trkpt lat="60.42392" lon="7.77573">
        <ele>1171.98</ele>
        <time>2019-04-02T09:32:22Z</time>
      </trkpt>
      <trkpt lat="60.42388" lon="7.77557">
        <ele>1172.95</ele>
        <time>2019-04-02T09:32:28Z</time>
      </trkpt>
      <trkpt lat="60.42386" lon="7.77532">
        <ele>1173.91</ele>
        <time>2019-04-02T09:32:37Z</time>
      </trkpt>
      <trkpt lat="60.42387" lon="7.7751">
        <ele>1174.39</ele>
        <time>2019-04-02T09:32:43Z</time>
      </trkpt>
      <trkpt lat="60.42378" lon="7.77489">
        <ele>1175.83</ele>
        <time>2019-04-02T09:32:47Z</time>
      </trkpt>
      <trkpt lat="60.42375" lon="7.77474">
        <ele>1175.83</ele>
        <time>2019-04-02T09:32:50Z</time>
      </trkpt>
      <trkpt lat="60.42366" lon="7.77446">
        <ele>1177.27</ele>
        <time>2019-04-02T09:32:54Z</time>
      </trkpt>
      <trkpt lat="60.42364" lon="7.77432">
        <ele>1177.27</ele>
        <time>2019-04-02T09:32:56Z</time>
      </trkpt>
      <trkpt lat="60.42355" lon="7.77405">
        <ele>1179.19</ele>
        <time>2019-04-02T09:33:00Z</time>
      </trkpt>
      <trkpt lat="60.42351" lon="7.77378">
        <ele>1179.67</ele>
        <time>2019-04-02T09:33:04Z</time>
      </trkpt>
      <trkpt lat="60.42346" lon="7.77364">
        <ele>1180.64</ele>
        <time>2019-04-02T09:33:06Z</time>
      </trkpt>
      <trkpt lat="60.42339" lon="7.7734">
        <ele>1181.6</ele>
        <time>2019-04-02T09:33:09Z</time>
      </trkpt>
      <trkpt lat="60.42326" lon="7.77306">
        <ele>1183.04</ele>
        <time>2019-04-02T09:33:13Z</time>
      </trkpt>
      <trkpt lat="60.4232" lon="7.77287">
        <ele>1183.04</ele>
        <time>2019-04-02T09:33:15Z</time>
      </trkpt>
      <trkpt lat="60.42306" lon="7.77252">
        <ele>1184</ele>
        <time>2019-04-02T09:33:19Z</time>
      </trkpt>
      <trkpt lat="60.42285" lon="7.77187">
        <ele>1186.4</ele>
        <time>2019-04-02T09:33:28Z</time>
      </trkpt>
      <trkpt lat="60.4227" lon="7.77117">
        <ele>1188.81</ele>
        <time>2019-04-02T09:33:35Z</time>
      </trkpt>
      <trkpt lat="60.42266" lon="7.77083">
        <ele>1189.29</ele>
        <time>2019-04-02T09:33:38Z</time>
      </trkpt>
      <trkpt lat="60.42261" lon="7.77039">
        <ele>1191.69</ele>
        <time>2019-04-02T09:33:42Z</time>
      </trkpt>
      <trkpt lat="60.42259" lon="7.7701">
        <ele>1193.13</ele>
        <time>2019-04-02T09:33:45Z</time>
      </trkpt>
      <trkpt lat="60.42254" lon="7.76972">
        <ele>1194.09</ele>
        <time>2019-04-02T09:33:49Z</time>
      </trkpt>
      <trkpt lat="60.42252" lon="7.76947">
        <ele>1195.06</ele>
        <time>2019-04-02T09:33:52Z</time>
      </trkpt>
      <trkpt lat="60.42245" lon="7.76911">
        <ele>1195.54</ele>
        <time>2019-04-02T09:33:56Z</time>
      </trkpt>
      <trkpt lat="60.42238" lon="7.76834">
        <ele>1197.94</ele>
        <time>2019-04-02T09:34:03Z</time>
      </trkpt>
      <trkpt lat="60.42219" lon="7.76707">
        <ele>1201.79</ele>
        <time>2019-04-02T09:34:13Z</time>
      </trkpt>
      <trkpt lat="60.42215" lon="7.76681">
        <ele>1202.27</ele>
        <time>2019-04-02T09:34:15Z</time>
      </trkpt>
      <trkpt lat="60.42204" lon="7.76615">
        <ele>1204.19</ele>
        <time>2019-04-02T09:34:20Z</time>
      </trkpt>
      <trkpt lat="60.42176" lon="7.76515">
        <ele>1206.59</ele>
        <time>2019-04-02T09:34:28Z</time>
      </trkpt>
      <trkpt lat="60.42147" lon="7.76432">
        <ele>1205.15</ele>
        <time>2019-04-02T09:34:35Z</time>
      </trkpt>
      <trkpt lat="60.42127" lon="7.76376">
        <ele>1201.79</ele>
        <time>2019-04-02T09:34:39Z</time>
      </trkpt>
      <trkpt lat="60.42122" lon="7.76361">
        <ele>1201.79</ele>
        <time>2019-04-02T09:34:40Z</time>
      </trkpt>
      <trkpt lat="60.42101" lon="7.76305">
        <ele>1201.79</ele>
        <time>2019-04-02T09:34:44Z</time>
      </trkpt>
      <trkpt lat="60.42077" lon="7.76236">
        <ele>1202.27</ele>
        <time>2019-04-02T09:34:49Z</time>
      </trkpt>
      <trkpt lat="60.42061" lon="7.76175">
        <ele>1202.27</ele>
        <time>2019-04-02T09:34:53Z</time>
      </trkpt>
      <trkpt lat="60.42054" lon="7.76113">
        <ele>1202.75</ele>
        <time>2019-04-02T09:34:57Z</time>
      </trkpt>
      <trkpt lat="60.42049" lon="7.76063">
        <ele>1204.67</ele>
        <time>2019-04-02T09:35:00Z</time>
      </trkpt>
      <trkpt lat="60.42048" lon="7.75998">
        <ele>1208.51</ele>
        <time>2019-04-02T09:35:05Z</time>
      </trkpt>
      <trkpt lat="60.42053" lon="7.75978">
        <ele>1209.48</ele>
        <time>2019-04-02T09:35:07Z</time>
      </trkpt>
      <trkpt lat="60.42058" lon="7.75962">
        <ele>1210.92</ele>
        <time>2019-04-02T09:35:09Z</time>
      </trkpt>
      <trkpt lat="60.42066" lon="7.75921">
        <ele>1214.28</ele>
        <time>2019-04-02T09:35:13Z</time>
      </trkpt>
      <trkpt lat="60.42068" lon="7.75911">
        <ele>1214.28</ele>
        <time>2019-04-02T09:35:14Z</time>
      </trkpt>
      <trkpt lat="60.42069" lon="7.75873">
        <ele>1217.65</ele>
        <time>2019-04-02T09:35:17Z</time>
      </trkpt>
      <trkpt lat="60.42068" lon="7.75849">
        <ele>1218.13</ele>
        <time>2019-04-02T09:35:19Z</time>
      </trkpt>
      <trkpt lat="60.42068" lon="7.75826">
        <ele>1219.57</ele>
        <time>2019-04-02T09:35:26Z</time>
      </trkpt>
      <trkpt lat="60.42066" lon="7.75824">
        <ele>1220.05</ele>
        <time>2019-04-02T09:35:46Z</time>
      </trkpt>
      <trkpt lat="60.42069" lon="7.75822">
        <ele>1220.05</ele>
        <time>2019-04-02T09:36:03Z</time>
      </trkpt>
      <trkpt lat="60.42068" lon="7.75818">
        <ele>1220.05</ele>
        <time>2019-04-02T09:36:04Z</time>
      </trkpt>
      <trkpt lat="60.42032" lon="7.75774">
        <ele>1221.49</ele>
        <time>2019-04-02T09:36:17Z</time>
      </trkpt>
      <trkpt lat="60.42024" lon="7.7577">
        <ele>1221.49</ele>
        <time>2019-04-02T09:36:19Z</time>
      </trkpt>
      <trkpt lat="60.42005" lon="7.75767">
        <ele>1218.61</ele>
        <time>2019-04-02T09:36:23Z</time>
      </trkpt>
      <trkpt lat="60.41977" lon="7.75758">
        <ele>1215.24</ele>
        <time>2019-04-02T09:36:28Z</time>
      </trkpt>
      <trkpt lat="60.41971" lon="7.75756">
        <ele>1215.24</ele>
        <time>2019-04-02T09:36:29Z</time>
      </trkpt>
      <trkpt lat="60.41965" lon="7.75754">
        <ele>1216.21</ele>
        <time>2019-04-02T09:36:30Z</time>
      </trkpt>
      <trkpt lat="60.41942" lon="7.75739">
        <ele>1213.32</ele>
        <time>2019-04-02T09:36:34Z</time>
      </trkpt>
      <trkpt lat="60.41945" lon="7.7573">
        <ele>1214.76</ele>
        <time>2019-04-02T09:36:40Z</time>
      </trkpt>
      <trkpt lat="60.4196" lon="7.75758">
        <ele>1213.8</ele>
        <time>2019-04-02T09:36:44Z</time>
      </trkpt>
      <trkpt lat="60.41966" lon="7.75766">
        <ele>1213.8</ele>
        <time>2019-04-02T09:36:46Z</time>
      </trkpt>
      <trkpt lat="60.41969" lon="7.75799">
        <ele>1215.24</ele>
        <time>2019-04-02T09:36:50Z</time>
      </trkpt>
      <trkpt lat="60.41964" lon="7.75842">
        <ele>1214.28</ele>
        <time>2019-04-02T09:36:54Z</time>
      </trkpt>
      <trkpt lat="60.41959" lon="7.75876">
        <ele>1212.36</ele>
        <time>2019-04-02T09:36:57Z</time>
      </trkpt>
      <trkpt lat="60.41954" lon="7.75914">
        <ele>1210.44</ele>
        <time>2019-04-02T09:37:01Z</time>
      </trkpt>
      <trkpt lat="60.41943" lon="7.75987">
        <ele>1209</ele>
        <time>2019-04-02T09:37:13Z</time>
      </trkpt>
      <trkpt lat="60.41944" lon="7.75986">
        <ele>1209</ele>
        <time>2019-04-02T09:37:15Z</time>
      </trkpt>
      <trkpt lat="60.41947" lon="7.7594">
        <ele>1208.51</ele>
        <time>2019-04-02T09:37:24Z</time>
      </trkpt>
      <trkpt lat="60.41949" lon="7.75906">
        <ele>1209.96</ele>
        <time>2019-04-02T09:37:29Z</time>
      </trkpt>
      <trkpt lat="60.41946" lon="7.75853">
        <ele>1210.92</ele>
        <time>2019-04-02T09:37:34Z</time>
      </trkpt>
      <trkpt lat="60.41945" lon="7.75833">
        <ele>1210.92</ele>
        <time>2019-04-02T09:37:36Z</time>
      </trkpt>
      <trkpt lat="60.41938" lon="7.7577">
        <ele>1213.32</ele>
        <time>2019-04-02T09:37:42Z</time>
      </trkpt>
      <trkpt lat="60.41939" lon="7.75696">
        <ele>1216.21</ele>
        <time>2019-04-02T09:37:50Z</time>
      </trkpt>
      <trkpt lat="60.41942" lon="7.75682">
        <ele>1217.17</ele>
        <time>2019-04-02T09:38:00Z</time>
      </trkpt>
      <trkpt lat="60.41942" lon="7.75684">
        <ele>1217.17</ele>
        <time>2019-04-02T09:38:29Z</time>
      </trkpt>
      <trkpt lat="60.41942" lon="7.75685">
        <ele>1217.17</ele>
        <time>2019-04-02T09:38:40Z</time>
      </trkpt>
      <trkpt lat="60.41947" lon="7.75672">
        <ele>1217.17</ele>
        <time>2019-04-02T09:38:45Z</time>
      </trkpt>
      <trkpt lat="60.41952" lon="7.75661">
        <ele>1218.13</ele>
        <time>2019-04-02T09:38:50Z</time>
      </trkpt>
      <trkpt lat="60.41956" lon="7.75651">
        <ele>1218.61</ele>
        <time>2019-04-02T09:38:54Z</time>
      </trkpt>
      <trkpt lat="60.41955" lon="7.75637">
        <ele>1219.57</ele>
        <time>2019-04-02T09:38:59Z</time>
      </trkpt>
      <trkpt lat="60.41956" lon="7.75617">
        <ele>1220.53</ele>
        <time>2019-04-02T09:39:03Z</time>
      </trkpt>
      <trkpt lat="60.41957" lon="7.7561">
        <ele>1221.01</ele>
        <time>2019-04-02T09:39:11Z</time>
      </trkpt>
      <trkpt lat="60.41963" lon="7.75587">
        <ele>1221.97</ele>
        <time>2019-04-02T09:39:15Z</time>
      </trkpt>
      <trkpt lat="60.41965" lon="7.75577">
        <ele>1222.45</ele>
        <time>2019-04-02T09:39:17Z</time>
      </trkpt>
      <trkpt lat="60.41956" lon="7.75517">
        <ele>1225.82</ele>
        <time>2019-04-02T09:39:25Z</time>
      </trkpt>
      <trkpt lat="60.41954" lon="7.75513">
        <ele>1225.82</ele>
        <time>2019-04-02T09:39:26Z</time>
      </trkpt>
      <trkpt lat="60.41953" lon="7.75506">
        <ele>1226.3</ele>
        <time>2019-04-02T09:39:40Z</time>
      </trkpt>
      <trkpt lat="60.41951" lon="7.75496">
        <ele>1226.3</ele>
        <time>2019-04-02T09:39:53Z</time>
      </trkpt>
      <trkpt lat="60.41952" lon="7.7549">
        <ele>1226.3</ele>
        <time>2019-04-02T09:40:08Z</time>
      </trkpt>
      <trkpt lat="60.41956" lon="7.75503">
        <ele>1226.3</ele>
        <time>2019-04-02T09:40:13Z</time>
      </trkpt>
      <trkpt lat="60.41957" lon="7.75559">
        <ele>1223.9</ele>
        <time>2019-04-02T09:40:26Z</time>
      </trkpt>
      <trkpt lat="60.41956" lon="7.75558">
        <ele>1223.9</ele>
        <time>2019-04-02T09:40:41Z</time>
      </trkpt>
      <trkpt lat="60.41958" lon="7.75559">
        <ele>1223.42</ele>
        <time>2019-04-02T09:41:00Z</time>
      </trkpt>
      <trkpt lat="60.41958" lon="7.75558">
        <ele>1223.42</ele>
        <time>2019-04-02T09:41:20Z</time>
      </trkpt>
      <trkpt lat="60.41962" lon="7.75559">
        <ele>1223.42</ele>
        <time>2019-04-02T09:41:28Z</time>
      </trkpt>
      <trkpt lat="60.41961" lon="7.75579">
        <ele>1222.45</ele>
        <time>2019-04-02T09:41:42Z</time>
      </trkpt>
      <trkpt lat="60.41961" lon="7.75576">
        <ele>1222.45</ele>
        <time>2019-04-02T09:42:07Z</time>
      </trkpt>
      <trkpt lat="60.41961" lon="7.75578">
        <ele>1221.97</ele>
        <time>2019-04-02T09:42:45Z</time>
      </trkpt>
      <trkpt lat="60.41963" lon="7.75579">
        <ele>1221.97</ele>
        <time>2019-04-02T09:43:12Z</time>
      </trkpt>
      <trkpt lat="60.41962" lon="7.75578">
        <ele>1221.97</ele>
        <time>2019-04-02T09:43:48Z</time>
      </trkpt>
      <trkpt lat="60.41963" lon="7.75578">
        <ele>1221.97</ele>
        <time>2019-04-02T09:44:22Z</time>
      </trkpt>
      <trkpt lat="60.41961" lon="7.75579">
        <ele>1221.49</ele>
        <time>2019-04-02T09:44:44Z</time>
      </trkpt>
      <trkpt lat="60.4196" lon="7.75578">
        <ele>1221.49</ele>
        <time>2019-04-02T09:45:15Z</time>
      </trkpt>
      <trkpt lat="60.41961" lon="7.7558">
        <ele>1221.49</ele>
        <time>2019-04-02T09:45:38Z</time>
      </trkpt>
      <trkpt lat="60.41961" lon="7.75578">
        <ele>1221.49</ele>
        <time>2019-04-02T09:46:04Z</time>
      </trkpt>
      <trkpt lat="60.41962" lon="7.75579">
        <ele>1221.49</ele>
        <time>2019-04-02T09:46:25Z</time>
      </trkpt>
      <trkpt lat="60.41962" lon="7.75578">
        <ele>1221.49</ele>
        <time>2019-04-02T09:46:48Z</time>
      </trkpt>
      <trkpt lat="60.41962" lon="7.75579">
        <ele>1221.49</ele>
        <time>2019-04-02T09:47:13Z</time>
      </trkpt>
      <trkpt lat="60.41962" lon="7.75578">
        <ele>1221.49</ele>
        <time>2019-04-02T09:47:29Z</time>
      </trkpt>
      <trkpt lat="60.4196" lon="7.7558">
        <ele>1221.49</ele>
        <time>2019-04-02T09:47:49Z</time>
      </trkpt>
      <trkpt lat="60.4196" lon="7.75578">
        <ele>1221.01</ele>
        <time>2019-04-02T09:47:59Z</time>
      </trkpt>
      <trkpt lat="60.41961" lon="7.75578">
        <ele>1221.01</ele>
        <time>2019-04-02T09:48:34Z</time>
      </trkpt>
      <trkpt lat="60.41959" lon="7.75577">
        <ele>1221.01</ele>
        <time>2019-04-02T09:49:10Z</time>
      </trkpt>
      <trkpt lat="60.41961" lon="7.75578">
        <ele>1221.01</ele>
        <time>2019-04-02T09:49:45Z</time>
      </trkpt>
      <trkpt lat="60.41963" lon="7.75579">
        <ele>1221.01</ele>
        <time>2019-04-02T09:50:16Z</time>
      </trkpt>
      <trkpt lat="60.41962" lon="7.75581">
        <ele>1221.01</ele>
        <time>2019-04-02T09:50:55Z</time>
      </trkpt>
      <trkpt lat="60.41962" lon="7.7558">
        <ele>1221.01</ele>
        <time>2019-04-02T09:51:38Z</time>
      </trkpt>
      <trkpt lat="60.41961" lon="7.7558">
        <ele>1221.01</ele>
        <time>2019-04-02T09:52:05Z</time>
      </trkpt>
      <trkpt lat="60.41962" lon="7.75583">
        <ele>1221.01</ele>
        <time>2019-04-02T09:52:41Z</time>
      </trkpt>
      <trkpt lat="60.41962" lon="7.75581">
        <ele>1221.01</ele>
        <time>2019-04-02T09:53:14Z</time>
      </trkpt>
      <trkpt lat="60.41963" lon="7.75581">
        <ele>1221.01</ele>
        <time>2019-04-02T09:53:50Z</time>
      </trkpt>
      <trkpt lat="60.41964" lon="7.75583">
        <ele>1221.01</ele>
        <time>2019-04-02T09:54:23Z</time>
      </trkpt>
      <trkpt lat="60.41964" lon="7.75583">
        <ele>1221.01</ele>
        <time>2019-04-02T09:54:54Z</time>
      </trkpt>
      <trkpt lat="60.41964" lon="7.75582">
        <ele>1221.01</ele>
        <time>2019-04-02T09:55:26Z</time>
      </trkpt>
      <trkpt lat="60.41964" lon="7.75581">
        <ele>1221.49</ele>
        <time>2019-04-02T09:55:59Z</time>
      </trkpt>
      <trkpt lat="60.41964" lon="7.75581">
        <ele>1221.49</ele>
        <time>2019-04-02T09:56:33Z</time>
      </trkpt>
      <trkpt lat="60.41963" lon="7.75582">
        <ele>1222.45</ele>
        <time>2019-04-02T09:57:14Z</time>
      </trkpt>
      <trkpt lat="60.41963" lon="7.7558">
        <ele>1222.93</ele>
        <time>2019-04-02T09:57:49Z</time>
      </trkpt>
      <trkpt lat="60.41963" lon="7.75581">
        <ele>1222.93</ele>
        <time>2019-04-02T09:58:26Z</time>
      </trkpt>
      <trkpt lat="60.41963" lon="7.7558">
        <ele>1222.93</ele>
        <time>2019-04-02T09:58:59Z</time>
      </trkpt>
      <trkpt lat="60.41962" lon="7.75581">
        <ele>1223.42</ele>
        <time>2019-04-02T09:59:32Z</time>
      </trkpt>
      <trkpt lat="60.41961" lon="7.75581">
        <ele>1223.42</ele>
        <time>2019-04-02T10:00:03Z</time>
      </trkpt>
      <trkpt lat="60.41961" lon="7.7558">
        <ele>1223.42</ele>
        <time>2019-04-02T10:00:39Z</time>
      </trkpt>
      <trkpt lat="60.41961" lon="7.7558">
        <ele>1223.42</ele>
        <time>2019-04-02T10:01:15Z</time>
      </trkpt>
      <trkpt lat="60.41961" lon="7.75579">
        <ele>1223.42</ele>
        <time>2019-04-02T10:01:50Z</time>
      </trkpt>
      <trkpt lat="60.41961" lon="7.75581">
        <ele>1223.9</ele>
        <time>2019-04-02T10:02:24Z</time>
      </trkpt>
      <trkpt lat="60.41959" lon="7.75578">
        <ele>1224.86</ele>
        <time>2019-04-02T10:02:36Z</time>
      </trkpt>
      <trkpt lat="60.4196" lon="7.75574">
        <ele>1226.3</ele>
        <time>2019-04-02T10:02:52Z</time>
      </trkpt>
      <trkpt lat="60.41961" lon="7.75574">
        <ele>1224.86</ele>
        <time>2019-04-02T10:02:56Z</time>
      </trkpt>
      <trkpt lat="60.4196" lon="7.75577">
        <ele>1224.38</ele>
        <time>2019-04-02T10:03:15Z</time>
      </trkpt>
      <trkpt lat="60.41958" lon="7.75578">
        <ele>1222.93</ele>
        <time>2019-04-02T10:03:28Z</time>
      </trkpt>
      <trkpt lat="60.41959" lon="7.75577">
        <ele>1224.86</ele>
        <time>2019-04-02T10:03:34Z</time>
      </trkpt>
      <trkpt lat="60.41959" lon="7.75577">
        <ele>1221.49</ele>
        <time>2019-04-02T10:03:35Z</time>
      </trkpt>
      <trkpt lat="60.41959" lon="7.75577">
        <ele>1223.42</ele>
        <time>2019-04-02T10:03:36Z</time>
      </trkpt>
      <trkpt lat="60.41959" lon="7.75577">
        <ele>1228.7</ele>
        <time>2019-04-02T10:03:37Z</time>
      </trkpt>
      <trkpt lat="60.41959" lon="7.75577">
        <ele>1223.9</ele>
        <time>2019-04-02T10:03:38Z</time>
      </trkpt>
      <trkpt lat="60.41959" lon="7.75577">
        <ele>1220.05</ele>
        <time>2019-04-02T10:03:39Z</time>
      </trkpt>
      <trkpt lat="60.41959" lon="7.75577">
        <ele>1220.05</ele>
        <time>2019-04-02T10:03:40Z</time>
      </trkpt>
      <trkpt lat="60.41959" lon="7.75576">
        <ele>1227.26</ele>
        <time>2019-04-02T10:03:41Z</time>
      </trkpt>
      <trkpt lat="60.41959" lon="7.75577">
        <ele>1225.34</ele>
        <time>2019-04-02T10:03:42Z</time>
      </trkpt>
      <trkpt lat="60.4196" lon="7.75576">
        <ele>1223.9</ele>
        <time>2019-04-02T10:04:08Z</time>
      </trkpt>
      <trkpt lat="60.4196" lon="7.75575">
        <ele>1225.82</ele>
        <time>2019-04-02T10:04:18Z</time>
      </trkpt>
      <trkpt lat="60.4196" lon="7.75575">
        <ele>1224.38</ele>
        <time>2019-04-02T10:04:20Z</time>
      </trkpt>
      <trkpt lat="60.4196" lon="7.75575">
        <ele>1218.13</ele>
        <time>2019-04-02T10:04:36Z</time>
      </trkpt>
      <trkpt lat="60.41959" lon="7.75574">
        <ele>1229.18</ele>
        <time>2019-04-02T10:04:37Z</time>
      </trkpt>
      <trkpt lat="60.4196" lon="7.75575">
        <ele>1225.34</ele>
        <time>2019-04-02T10:04:38Z</time>
      </trkpt>
      <trkpt lat="60.41956" lon="7.75571">
        <ele>1220.53</ele>
        <time>2019-04-02T10:04:47Z</time>
      </trkpt>
      <trkpt lat="60.41957" lon="7.75574">
        <ele>1224.38</ele>
        <time>2019-04-02T10:04:54Z</time>
      </trkpt>
      <trkpt lat="60.41958" lon="7.75578">
        <ele>1222.93</ele>
        <time>2019-04-02T10:04:56Z</time>
      </trkpt>
      <trkpt lat="60.4196" lon="7.75577">
        <ele>1225.82</ele>
        <time>2019-04-02T10:05:01Z</time>
      </trkpt>
      <trkpt lat="60.41962" lon="7.75579">
        <ele>1225.82</ele>
        <time>2019-04-02T10:05:04Z</time>
      </trkpt>
      <trkpt lat="60.41963" lon="7.75584">
        <ele>1225.82</ele>
        <time>2019-04-02T10:05:06Z</time>
      </trkpt>
      <trkpt lat="60.41964" lon="7.75602">
        <ele>1224.38</ele>
        <time>2019-04-02T10:05:17Z</time>
      </trkpt>
      <trkpt lat="60.41969" lon="7.75597">
        <ele>1223.42</ele>
        <time>2019-04-02T10:05:24Z</time>
      </trkpt>
      <trkpt lat="60.41971" lon="7.75596">
        <ele>1223.42</ele>
        <time>2019-04-02T10:05:27Z</time>
      </trkpt>
      <trkpt lat="60.41974" lon="7.75617">
        <ele>1225.82</ele>
        <time>2019-04-02T10:05:31Z</time>
      </trkpt>
      <trkpt lat="60.41966" lon="7.75649">
        <ele>1222.93</ele>
        <time>2019-04-02T10:05:35Z</time>
      </trkpt>
      <trkpt lat="60.41965" lon="7.75661">
        <ele>1220.05</ele>
        <time>2019-04-02T10:05:38Z</time>
      </trkpt>
      <trkpt lat="60.41965" lon="7.75646">
        <ele>1221.49</ele>
        <time>2019-04-02T10:05:48Z</time>
      </trkpt>
      <trkpt lat="60.41964" lon="7.75644">
        <ele>1221.97</ele>
        <time>2019-04-02T10:05:58Z</time>
      </trkpt>
      <trkpt lat="60.41959" lon="7.75641">
        <ele>1221.01</ele>
        <time>2019-04-02T10:06:06Z</time>
      </trkpt>
      <trkpt lat="60.41959" lon="7.75639">
        <ele>1219.57</ele>
        <time>2019-04-02T10:06:08Z</time>
      </trkpt>
      <trkpt lat="60.41957" lon="7.75636">
        <ele>1221.49</ele>
        <time>2019-04-02T10:06:11Z</time>
      </trkpt>
      <trkpt lat="60.41956" lon="7.75634">
        <ele>1222.93</ele>
        <time>2019-04-02T10:06:28Z</time>
      </trkpt>
      <trkpt lat="60.41953" lon="7.75622">
        <ele>1223.42</ele>
        <time>2019-04-02T10:06:47Z</time>
      </trkpt>
      <trkpt lat="60.41949" lon="7.75608">
        <ele>1223.9</ele>
        <time>2019-04-02T10:06:50Z</time>
      </trkpt>
      <trkpt lat="60.41946" lon="7.75591">
        <ele>1224.86</ele>
        <time>2019-04-02T10:06:52Z</time>
      </trkpt>
      <trkpt lat="60.41948" lon="7.75551">
        <ele>1226.3</ele>
        <time>2019-04-02T10:06:56Z</time>
      </trkpt>
      <trkpt lat="60.41952" lon="7.75525">
        <ele>1227.26</ele>
        <time>2019-04-02T10:06:59Z</time>
      </trkpt>
      <trkpt lat="60.41941" lon="7.75435">
        <ele>1229.66</ele>
        <time>2019-04-02T10:07:07Z</time>
      </trkpt>
      <trkpt lat="60.41923" lon="7.75354">
        <ele>1225.82</ele>
        <time>2019-04-02T10:07:12Z</time>
      </trkpt>
      <trkpt lat="60.41916" lon="7.75316">
        <ele>1221.01</ele>
        <time>2019-04-02T10:07:14Z</time>
      </trkpt>
      <trkpt lat="60.41912" lon="7.75296">
        <ele>1221.01</ele>
        <time>2019-04-02T10:07:15Z</time>
      </trkpt>
      <trkpt lat="60.41908" lon="7.75276">
        <ele>1221.01</ele>
        <time>2019-04-02T10:07:16Z</time>
      </trkpt>
      <trkpt lat="60.41899" lon="7.75214">
        <ele>1216.69</ele>
        <time>2019-04-02T10:07:19Z</time>
      </trkpt>
      <trkpt lat="60.41894" lon="7.75194">
        <ele>1220.53</ele>
        <time>2019-04-02T10:07:20Z</time>
      </trkpt>
      <trkpt lat="60.4189" lon="7.75175">
        <ele>1220.53</ele>
        <time>2019-04-02T10:07:21Z</time>
      </trkpt>
      <trkpt lat="60.41882" lon="7.75135">
        <ele>1217.65</ele>
        <time>2019-04-02T10:07:23Z</time>
      </trkpt>
      <trkpt lat="60.41874" lon="7.75071">
        <ele>1213.8</ele>
        <time>2019-04-02T10:07:26Z</time>
      </trkpt>
      <trkpt lat="60.41872" lon="7.75052">
        <ele>1213.8</ele>
        <time>2019-04-02T10:07:27Z</time>
      </trkpt>
      <trkpt lat="60.41866" lon="7.75016">
        <ele>1214.76</ele>
        <time>2019-04-02T10:07:29Z</time>
      </trkpt>
      <trkpt lat="60.41851" lon="7.74935">
        <ele>1216.21</ele>
        <time>2019-04-02T10:07:34Z</time>
      </trkpt>
      <trkpt lat="60.41821" lon="7.74826">
        <ele>1220.53</ele>
        <time>2019-04-02T10:07:41Z</time>
      </trkpt>
      <trkpt lat="60.41816" lon="7.74811">
        <ele>1220.53</ele>
        <time>2019-04-02T10:07:42Z</time>
      </trkpt>
      <trkpt lat="60.41767" lon="7.74624">
        <ele>1222.93</ele>
        <time>2019-04-02T10:07:53Z</time>
      </trkpt>
      <trkpt lat="60.41761" lon="7.74589">
        <ele>1224.38</ele>
        <time>2019-04-02T10:07:55Z</time>
      </trkpt>
      <trkpt lat="60.41754" lon="7.74551">
        <ele>1227.74</ele>
        <time>2019-04-02T10:07:57Z</time>
      </trkpt>
      <trkpt lat="60.41739" lon="7.74477">
        <ele>1227.74</ele>
        <time>2019-04-02T10:08:01Z</time>
      </trkpt>
      <trkpt lat="60.41715" lon="7.74357">
        <ele>1226.3</ele>
        <time>2019-04-02T10:08:07Z</time>
      </trkpt>
      <trkpt lat="60.41706" lon="7.74319">
        <ele>1228.7</ele>
        <time>2019-04-02T10:08:09Z</time>
      </trkpt>
      <trkpt lat="60.41696" lon="7.74283">
        <ele>1226.3</ele>
        <time>2019-04-02T10:08:11Z</time>
      </trkpt>
      <trkpt lat="60.41686" lon="7.74249">
        <ele>1230.14</ele>
        <time>2019-04-02T10:08:13Z</time>
      </trkpt>
      <trkpt lat="60.41682" lon="7.74232">
        <ele>1229.66</ele>
        <time>2019-04-02T10:08:14Z</time>
      </trkpt>
      <trkpt lat="60.41672" lon="7.742">
        <ele>1228.22</ele>
        <time>2019-04-02T10:08:16Z</time>
      </trkpt>
      <trkpt lat="60.41656" lon="7.7415">
        <ele>1226.3</ele>
        <time>2019-04-02T10:08:19Z</time>
      </trkpt>
      <trkpt lat="60.41633" lon="7.74086">
        <ele>1225.82</ele>
        <time>2019-04-02T10:08:23Z</time>
      </trkpt>
      <trkpt lat="60.4162" lon="7.74043">
        <ele>1228.22</ele>
        <time>2019-04-02T10:08:26Z</time>
      </trkpt>
      <trkpt lat="60.41612" lon="7.74019">
        <ele>1229.18</ele>
        <time>2019-04-02T10:08:28Z</time>
      </trkpt>
      <trkpt lat="60.41602" lon="7.73993">
        <ele>1232.55</ele>
        <time>2019-04-02T10:08:31Z</time>
      </trkpt>
      <trkpt lat="60.41596" lon="7.73978">
        <ele>1233.03</ele>
        <time>2019-04-02T10:08:33Z</time>
      </trkpt>
      <trkpt lat="60.41582" lon="7.73942">
        <ele>1236.39</ele>
        <time>2019-04-02T10:08:39Z</time>
      </trkpt>
      <trkpt lat="60.41575" lon="7.73913">
        <ele>1234.95</ele>
        <time>2019-04-02T10:08:43Z</time>
      </trkpt>
      <trkpt lat="60.41572" lon="7.73904">
        <ele>1236.87</ele>
        <time>2019-04-02T10:08:44Z</time>
      </trkpt>
      <trkpt lat="60.41562" lon="7.73866">
        <ele>1233.99</ele>
        <time>2019-04-02T10:08:48Z</time>
      </trkpt>
      <trkpt lat="60.41553" lon="7.73806">
        <ele>1235.43</ele>
        <time>2019-04-02T10:08:52Z</time>
      </trkpt>
      <trkpt lat="60.41544" lon="7.73752">
        <ele>1232.07</ele>
        <time>2019-04-02T10:08:55Z</time>
      </trkpt>
      <trkpt lat="60.41541" lon="7.73734">
        <ele>1232.07</ele>
        <time>2019-04-02T10:08:56Z</time>
      </trkpt>
      <trkpt lat="60.41529" lon="7.73652">
        <ele>1229.18</ele>
        <time>2019-04-02T10:09:00Z</time>
      </trkpt>
      <trkpt lat="60.41521" lon="7.73574">
        <ele>1231.11</ele>
        <time>2019-04-02T10:09:04Z</time>
      </trkpt>
      <trkpt lat="60.41516" lon="7.73539">
        <ele>1235.43</ele>
        <time>2019-04-02T10:09:06Z</time>
      </trkpt>
      <trkpt lat="60.41513" lon="7.73524">
        <ele>1235.43</ele>
        <time>2019-04-02T10:09:07Z</time>
      </trkpt>
      <trkpt lat="60.41503" lon="7.73477">
        <ele>1238.32</ele>
        <time>2019-04-02T10:09:10Z</time>
      </trkpt>
      <trkpt lat="60.41468" lon="7.7327">
        <ele>1238.8</ele>
        <time>2019-04-02T10:09:23Z</time>
      </trkpt>
      <trkpt lat="60.41465" lon="7.73256">
        <ele>1238.8</ele>
        <time>2019-04-02T10:09:24Z</time>
      </trkpt>
      <trkpt lat="60.41437" lon="7.73127">
        <ele>1234.95</ele>
        <time>2019-04-02T10:09:33Z</time>
      </trkpt>
      <trkpt lat="60.41431" lon="7.73078">
        <ele>1232.07</ele>
        <time>2019-04-02T10:09:36Z</time>
      </trkpt>
      <trkpt lat="60.41428" lon="7.73062">
        <ele>1231.11</ele>
        <time>2019-04-02T10:09:37Z</time>
      </trkpt>
      <trkpt lat="60.41413" lon="7.72991">
        <ele>1228.22</ele>
        <time>2019-04-02T10:09:41Z</time>
      </trkpt>
      <trkpt lat="60.41401" lon="7.72938">
        <ele>1225.34</ele>
        <time>2019-04-02T10:09:44Z</time>
      </trkpt>
      <trkpt lat="60.41391" lon="7.7286">
        <ele>1220.53</ele>
        <time>2019-04-02T10:09:48Z</time>
      </trkpt>
      <trkpt lat="60.41388" lon="7.72841">
        <ele>1220.53</ele>
        <time>2019-04-02T10:09:49Z</time>
      </trkpt>
      <trkpt lat="60.41378" lon="7.72772">
        <ele>1222.45</ele>
        <time>2019-04-02T10:09:53Z</time>
      </trkpt>
      <trkpt lat="60.41373" lon="7.72721">
        <ele>1217.65</ele>
        <time>2019-04-02T10:09:56Z</time>
      </trkpt>
      <trkpt lat="60.41371" lon="7.72703">
        <ele>1217.65</ele>
        <time>2019-04-02T10:09:57Z</time>
      </trkpt>
      <trkpt lat="60.4136" lon="7.7256">
        <ele>1213.8</ele>
        <time>2019-04-02T10:10:05Z</time>
      </trkpt>
      <trkpt lat="60.41359" lon="7.72541">
        <ele>1213.8</ele>
        <time>2019-04-02T10:10:06Z</time>
      </trkpt>
      <trkpt lat="60.41358" lon="7.72462">
        <ele>1212.84</ele>
        <time>2019-04-02T10:10:10Z</time>
      </trkpt>
      <trkpt lat="60.41356" lon="7.72414">
        <ele>1215.24</ele>
        <time>2019-04-02T10:10:13Z</time>
      </trkpt>
      <trkpt lat="60.41353" lon="7.72367">
        <ele>1211.88</ele>
        <time>2019-04-02T10:10:16Z</time>
      </trkpt>
      <trkpt lat="60.41351" lon="7.7235">
        <ele>1211.88</ele>
        <time>2019-04-02T10:10:17Z</time>
      </trkpt>
      <trkpt lat="60.4135" lon="7.72333">
        <ele>1211.4</ele>
        <time>2019-04-02T10:10:18Z</time>
      </trkpt>
      <trkpt lat="60.41349" lon="7.72301">
        <ele>1210.44</ele>
        <time>2019-04-02T10:10:20Z</time>
      </trkpt>
      <trkpt lat="60.41344" lon="7.72242">
        <ele>1206.59</ele>
        <time>2019-04-02T10:10:23Z</time>
      </trkpt>
      <trkpt lat="60.41336" lon="7.72127">
        <ele>1204.67</ele>
        <time>2019-04-02T10:10:29Z</time>
      </trkpt>
      <trkpt lat="60.41319" lon="7.72036">
        <ele>1201.3</ele>
        <time>2019-04-02T10:10:35Z</time>
      </trkpt>
      <trkpt lat="60.41313" lon="7.72015">
        <ele>1199.86</ele>
        <time>2019-04-02T10:10:37Z</time>
      </trkpt>
      <trkpt lat="60.41306" lon="7.71994">
        <ele>1199.38</ele>
        <time>2019-04-02T10:10:39Z</time>
      </trkpt>
      <trkpt lat="60.41298" lon="7.71977">
        <ele>1196.98</ele>
        <time>2019-04-02T10:10:41Z</time>
      </trkpt>
      <trkpt lat="60.41299" lon="7.71962">
        <ele>1199.38</ele>
        <time>2019-04-02T10:10:43Z</time>
      </trkpt>
      <trkpt lat="60.41302" lon="7.71943">
        <ele>1199.38</ele>
        <time>2019-04-02T10:10:46Z</time>
      </trkpt>
      <trkpt lat="60.413" lon="7.71905">
        <ele>1196.02</ele>
        <time>2019-04-02T10:10:50Z</time>
      </trkpt>
      <trkpt lat="60.41295" lon="7.7188">
        <ele>1192.17</ele>
        <time>2019-04-02T10:10:52Z</time>
      </trkpt>
      <trkpt lat="60.41285" lon="7.71834">
        <ele>1186.4</ele>
        <time>2019-04-02T10:10:55Z</time>
      </trkpt>
      <trkpt lat="60.41281" lon="7.71822">
        <ele>1186.4</ele>
        <time>2019-04-02T10:10:56Z</time>
      </trkpt>
      <trkpt lat="60.41269" lon="7.71769">
        <ele>1182.56</ele>
        <time>2019-04-02T10:11:00Z</time>
      </trkpt>
      <trkpt lat="60.41267" lon="7.71758">
        <ele>1182.56</ele>
        <time>2019-04-02T10:11:01Z</time>
      </trkpt>
      <trkpt lat="60.41266" lon="7.71737">
        <ele>1184.48</ele>
        <time>2019-04-02T10:11:03Z</time>
      </trkpt>
      <trkpt lat="60.41261" lon="7.717">
        <ele>1179.19</ele>
        <time>2019-04-02T10:11:06Z</time>
      </trkpt>
      <trkpt lat="60.41254" lon="7.71673">
        <ele>1175.83</ele>
        <time>2019-04-02T10:11:08Z</time>
      </trkpt>
      <trkpt lat="60.4125" lon="7.71661">
        <ele>1175.35</ele>
        <time>2019-04-02T10:11:09Z</time>
      </trkpt>
      <trkpt lat="60.41235" lon="7.71609">
        <ele>1172.95</ele>
        <time>2019-04-02T10:11:14Z</time>
      </trkpt>
      <trkpt lat="60.41232" lon="7.71589">
        <ele>1170.54</ele>
        <time>2019-04-02T10:11:16Z</time>
      </trkpt>
      <trkpt lat="60.41228" lon="7.7156">
        <ele>1168.14</ele>
        <time>2019-04-02T10:11:19Z</time>
      </trkpt>
      <trkpt lat="60.41219" lon="7.71524">
        <ele>1163.33</ele>
        <time>2019-04-02T10:11:22Z</time>
      </trkpt>
      <trkpt lat="60.41208" lon="7.71458">
        <ele>1159.49</ele>
        <time>2019-04-02T10:11:27Z</time>
      </trkpt>
      <trkpt lat="60.41205" lon="7.71445">
        <ele>1156.12</ele>
        <time>2019-04-02T10:11:28Z</time>
      </trkpt>
      <trkpt lat="60.41201" lon="7.71432">
        <ele>1155.16</ele>
        <time>2019-04-02T10:11:29Z</time>
      </trkpt>
      <trkpt lat="60.41193" lon="7.71398">
        <ele>1149.87</ele>
        <time>2019-04-02T10:11:31Z</time>
      </trkpt>
      <trkpt lat="60.41183" lon="7.71336">
        <ele>1146.51</ele>
        <time>2019-04-02T10:11:34Z</time>
      </trkpt>
      <trkpt lat="60.41177" lon="7.71296">
        <ele>1143.63</ele>
        <time>2019-04-02T10:11:36Z</time>
      </trkpt>
      <trkpt lat="60.41173" lon="7.71277">
        <ele>1143.63</ele>
        <time>2019-04-02T10:11:37Z</time>
      </trkpt>
      <trkpt lat="60.41152" lon="7.71204">
        <ele>1139.78</ele>
        <time>2019-04-02T10:11:42Z</time>
      </trkpt>
      <trkpt lat="60.41143" lon="7.7117">
        <ele>1136.9</ele>
        <time>2019-04-02T10:11:44Z</time>
      </trkpt>
      <trkpt lat="60.41134" lon="7.71138">
        <ele>1134.97</ele>
        <time>2019-04-02T10:11:46Z</time>
      </trkpt>
      <trkpt lat="60.41121" lon="7.71093">
        <ele>1132.09</ele>
        <time>2019-04-02T10:11:49Z</time>
      </trkpt>
      <trkpt lat="60.41115" lon="7.71043">
        <ele>1129.21</ele>
        <time>2019-04-02T10:11:52Z</time>
      </trkpt>
      <trkpt lat="60.41113" lon="7.71025">
        <ele>1129.21</ele>
        <time>2019-04-02T10:11:53Z</time>
      </trkpt>
      <trkpt lat="60.41109" lon="7.7099">
        <ele>1128.24</ele>
        <time>2019-04-02T10:11:55Z</time>
      </trkpt>
      <trkpt lat="60.41106" lon="7.70951">
        <ele>1123.92</ele>
        <time>2019-04-02T10:11:57Z</time>
      </trkpt>
      <trkpt lat="60.41105" lon="7.70932">
        <ele>1123.92</ele>
        <time>2019-04-02T10:11:58Z</time>
      </trkpt>
      <trkpt lat="60.41105" lon="7.70877">
        <ele>1123.44</ele>
        <time>2019-04-02T10:12:01Z</time>
      </trkpt>
      <trkpt lat="60.41104" lon="7.7083">
        <ele>1122.48</ele>
        <time>2019-04-02T10:12:04Z</time>
      </trkpt>
      <trkpt lat="60.4111" lon="7.70732">
        <ele>1122</ele>
        <time>2019-04-02T10:12:09Z</time>
      </trkpt>
      <trkpt lat="60.41115" lon="7.70652">
        <ele>1120.07</ele>
        <time>2019-04-02T10:12:13Z</time>
      </trkpt>
      <trkpt lat="60.41118" lon="7.70609">
        <ele>1121.52</ele>
        <time>2019-04-02T10:12:15Z</time>
      </trkpt>
      <trkpt lat="60.4114" lon="7.70403">
        <ele>1122</ele>
        <time>2019-04-02T10:12:25Z</time>
      </trkpt>
      <trkpt lat="60.41144" lon="7.70341">
        <ele>1120.55</ele>
        <time>2019-04-02T10:12:28Z</time>
      </trkpt>
      <trkpt lat="60.41154" lon="7.70174">
        <ele>1122.48</ele>
        <time>2019-04-02T10:12:37Z</time>
      </trkpt>
      <trkpt lat="60.41159" lon="7.70097">
        <ele>1122.48</ele>
        <time>2019-04-02T10:12:41Z</time>
      </trkpt>
      <trkpt lat="60.41164" lon="7.70018">
        <ele>1122.48</ele>
        <time>2019-04-02T10:12:45Z</time>
      </trkpt>
      <trkpt lat="60.41172" lon="7.69863">
        <ele>1121.52</ele>
        <time>2019-04-02T10:12:53Z</time>
      </trkpt>
      <trkpt lat="60.41179" lon="7.69734">
        <ele>1122</ele>
        <time>2019-04-02T10:13:00Z</time>
      </trkpt>
      <trkpt lat="60.41181" lon="7.69697">
        <ele>1121.03</ele>
        <time>2019-04-02T10:13:02Z</time>
      </trkpt>
      <trkpt lat="60.41179" lon="7.69662">
        <ele>1123.92</ele>
        <time>2019-04-02T10:13:04Z</time>
      </trkpt>
      <trkpt lat="60.41179" lon="7.69548">
        <ele>1120.55</ele>
        <time>2019-04-02T10:13:10Z</time>
      </trkpt>
      <trkpt lat="60.41178" lon="7.69478">
        <ele>1124.88</ele>
        <time>2019-04-02T10:13:14Z</time>
      </trkpt>
      <trkpt lat="60.41177" lon="7.69443">
        <ele>1125.84</ele>
        <time>2019-04-02T10:13:16Z</time>
      </trkpt>
      <trkpt lat="60.41176" lon="7.69387">
        <ele>1127.28</ele>
        <time>2019-04-02T10:13:19Z</time>
      </trkpt>
      <trkpt lat="60.41179" lon="7.69349">
        <ele>1127.28</ele>
        <time>2019-04-02T10:13:21Z</time>
      </trkpt>
      <trkpt lat="60.41185" lon="7.6928">
        <ele>1129.69</ele>
        <time>2019-04-02T10:13:25Z</time>
      </trkpt>
      <trkpt lat="60.41192" lon="7.69166">
        <ele>1133.53</ele>
        <time>2019-04-02T10:13:33Z</time>
      </trkpt>
      <trkpt lat="60.41195" lon="7.69117">
        <ele>1134.01</ele>
        <time>2019-04-02T10:13:38Z</time>
      </trkpt>
      <trkpt lat="60.41198" lon="7.69074">
        <ele>1134.49</ele>
        <time>2019-04-02T10:13:43Z</time>
      </trkpt>
      <trkpt lat="60.412" lon="7.69056">
        <ele>1134.49</ele>
        <time>2019-04-02T10:13:45Z</time>
      </trkpt>
      <trkpt lat="60.41207" lon="7.69019">
        <ele>1134.97</ele>
        <time>2019-04-02T10:13:48Z</time>
      </trkpt>
      <trkpt lat="60.41213" lon="7.68995">
        <ele>1134.97</ele>
        <time>2019-04-02T10:13:50Z</time>
      </trkpt>
      <trkpt lat="60.41222" lon="7.68943">
        <ele>1134.97</ele>
        <time>2019-04-02T10:13:54Z</time>
      </trkpt>
      <trkpt lat="60.41233" lon="7.68879">
        <ele>1135.94</ele>
        <time>2019-04-02T10:14:03Z</time>
      </trkpt>
      <trkpt lat="60.41237" lon="7.68844">
        <ele>1137.86</ele>
        <time>2019-04-02T10:14:16Z</time>
      </trkpt>
      <trkpt lat="60.41234" lon="7.68824">
        <ele>1138.34</ele>
        <time>2019-04-02T10:14:19Z</time>
      </trkpt>
      <trkpt lat="60.41213" lon="7.68752">
        <ele>1140.74</ele>
        <time>2019-04-02T10:14:27Z</time>
      </trkpt>
      <trkpt lat="60.41209" lon="7.68732">
        <ele>1141.7</ele>
        <time>2019-04-02T10:14:29Z</time>
      </trkpt>
      <trkpt lat="60.41201" lon="7.68693">
        <ele>1142.66</ele>
        <time>2019-04-02T10:14:33Z</time>
      </trkpt>
      <trkpt lat="60.41193" lon="7.68653">
        <ele>1144.59</ele>
        <time>2019-04-02T10:14:37Z</time>
      </trkpt>
      <trkpt lat="60.41208" lon="7.68598">
        <ele>1145.07</ele>
        <time>2019-04-02T10:14:45Z</time>
      </trkpt>
      <trkpt lat="60.41241" lon="7.68592">
        <ele>1145.07</ele>
        <time>2019-04-02T10:14:50Z</time>
      </trkpt>
      <trkpt lat="60.41282" lon="7.686">
        <ele>1142.66</ele>
        <time>2019-04-02T10:14:55Z</time>
      </trkpt>
      <trkpt lat="60.41337" lon="7.68635">
        <ele>1137.86</ele>
        <time>2019-04-02T10:15:01Z</time>
      </trkpt>
      <trkpt lat="60.41385" lon="7.68659">
        <ele>1134.97</ele>
        <time>2019-04-02T10:15:06Z</time>
      </trkpt>
      <trkpt lat="60.41416" lon="7.68673">
        <ele>1131.61</ele>
        <time>2019-04-02T10:15:09Z</time>
      </trkpt>
      <trkpt lat="60.41449" lon="7.68683">
        <ele>1128.73</ele>
        <time>2019-04-02T10:15:12Z</time>
      </trkpt>
      <trkpt lat="60.41482" lon="7.68696">
        <ele>1125.84</ele>
        <time>2019-04-02T10:15:15Z</time>
      </trkpt>
      <trkpt lat="60.41575" lon="7.68739">
        <ele>1125.36</ele>
        <time>2019-04-02T10:15:26Z</time>
      </trkpt>
      <trkpt lat="60.41601" lon="7.68759">
        <ele>1125.36</ele>
        <time>2019-04-02T10:15:30Z</time>
      </trkpt>
      <trkpt lat="60.41617" lon="7.68788">
        <ele>1124.88</ele>
        <time>2019-04-02T10:15:38Z</time>
      </trkpt>
      <trkpt lat="60.41616" lon="7.68787">
        <ele>1124.88</ele>
        <time>2019-04-02T10:16:02Z</time>
      </trkpt>
      <trkpt lat="60.41617" lon="7.68786">
        <ele>1124.88</ele>
        <time>2019-04-02T10:16:26Z</time>
      </trkpt>
      <trkpt lat="60.41615" lon="7.68782">
        <ele>1124.4</ele>
        <time>2019-04-02T10:16:44Z</time>
      </trkpt>
      <trkpt lat="60.41613" lon="7.68777">
        <ele>1124.4</ele>
        <time>2019-04-02T10:17:04Z</time>
      </trkpt>
      <trkpt lat="60.41611" lon="7.68769">
        <ele>1124.4</ele>
        <time>2019-04-02T10:17:17Z</time>
      </trkpt>
      <trkpt lat="60.4161" lon="7.68767">
        <ele>1124.4</ele>
        <time>2019-04-02T10:17:30Z</time>
      </trkpt>
      <trkpt lat="60.4161" lon="7.68757">
        <ele>1124.4</ele>
        <time>2019-04-02T10:17:43Z</time>
      </trkpt>
      <trkpt lat="60.41609" lon="7.68751">
        <ele>1124.4</ele>
        <time>2019-04-02T10:17:45Z</time>
      </trkpt>
      <trkpt lat="60.41597" lon="7.68729">
        <ele>1123.92</ele>
        <time>2019-04-02T10:17:48Z</time>
      </trkpt>
      <trkpt lat="60.41559" lon="7.68646">
        <ele>1123.44</ele>
        <time>2019-04-02T10:17:57Z</time>
      </trkpt>
      <trkpt lat="60.41542" lon="7.68609">
        <ele>1125.84</ele>
        <time>2019-04-02T10:18:00Z</time>
      </trkpt>
      <trkpt lat="60.41535" lon="7.68597">
        <ele>1126.32</ele>
        <time>2019-04-02T10:18:01Z</time>
      </trkpt>
      <trkpt lat="60.41524" lon="7.6857">
        <ele>1124.4</ele>
        <time>2019-04-02T10:18:03Z</time>
      </trkpt>
      <trkpt lat="60.41512" lon="7.68545">
        <ele>1126.32</ele>
        <time>2019-04-02T10:18:05Z</time>
      </trkpt>
      <trkpt lat="60.41499" lon="7.68522">
        <ele>1124.88</ele>
        <time>2019-04-02T10:18:07Z</time>
      </trkpt>
      <trkpt lat="60.41493" lon="7.68512">
        <ele>1124.88</ele>
        <time>2019-04-02T10:18:08Z</time>
      </trkpt>
      <trkpt lat="60.41482" lon="7.68489">
        <ele>1126.8</ele>
        <time>2019-04-02T10:18:10Z</time>
      </trkpt>
      <trkpt lat="60.41459" lon="7.6843">
        <ele>1127.28</ele>
        <time>2019-04-02T10:18:15Z</time>
      </trkpt>
      <trkpt lat="60.4145" lon="7.68403">
        <ele>1128.24</ele>
        <time>2019-04-02T10:18:17Z</time>
      </trkpt>
      <trkpt lat="60.41436" lon="7.68364">
        <ele>1129.69</ele>
        <time>2019-04-02T10:18:20Z</time>
      </trkpt>
      <trkpt lat="60.41427" lon="7.68338">
        <ele>1127.76</ele>
        <time>2019-04-02T10:18:22Z</time>
      </trkpt>
      <trkpt lat="60.41412" lon="7.68298">
        <ele>1129.69</ele>
        <time>2019-04-02T10:18:25Z</time>
      </trkpt>
      <trkpt lat="60.41402" lon="7.68274">
        <ele>1130.17</ele>
        <time>2019-04-02T10:18:27Z</time>
      </trkpt>
      <trkpt lat="60.41384" lon="7.68222">
        <ele>1133.05</ele>
        <time>2019-04-02T10:18:31Z</time>
      </trkpt>
      <trkpt lat="60.41375" lon="7.68197">
        <ele>1134.01</ele>
        <time>2019-04-02T10:18:33Z</time>
      </trkpt>
      <trkpt lat="60.41334" lon="7.68078">
        <ele>1137.86</ele>
        <time>2019-04-02T10:18:42Z</time>
      </trkpt>
      <trkpt lat="60.41319" lon="7.68019">
        <ele>1140.74</ele>
        <time>2019-04-02T10:18:46Z</time>
      </trkpt>
      <trkpt lat="60.41308" lon="7.67972">
        <ele>1143.14</ele>
        <time>2019-04-02T10:18:49Z</time>
      </trkpt>
      <trkpt lat="60.41288" lon="7.67852">
        <ele>1142.18</ele>
        <time>2019-04-02T10:18:56Z</time>
      </trkpt>
      <trkpt lat="60.41276" lon="7.67789">
        <ele>1146.03</ele>
        <time>2019-04-02T10:19:00Z</time>
      </trkpt>
      <trkpt lat="60.41272" lon="7.67758">
        <ele>1146.99</ele>
        <time>2019-04-02T10:19:02Z</time>
      </trkpt>
      <trkpt lat="60.41269" lon="7.67711">
        <ele>1147.95</ele>
        <time>2019-04-02T10:19:05Z</time>
      </trkpt>
      <trkpt lat="60.4126" lon="7.67627">
        <ele>1146.03</ele>
        <time>2019-04-02T10:19:10Z</time>
      </trkpt>
      <trkpt lat="60.41255" lon="7.67594">
        <ele>1149.39</ele>
        <time>2019-04-02T10:19:12Z</time>
      </trkpt>
      <trkpt lat="60.41243" lon="7.67517">
        <ele>1152.76</ele>
        <time>2019-04-02T10:19:17Z</time>
      </trkpt>
      <trkpt lat="60.41237" lon="7.67487">
        <ele>1155.64</ele>
        <time>2019-04-02T10:19:19Z</time>
      </trkpt>
      <trkpt lat="60.41235" lon="7.67472">
        <ele>1156.12</ele>
        <time>2019-04-02T10:19:20Z</time>
      </trkpt>
      <trkpt lat="60.41231" lon="7.67443">
        <ele>1159.49</ele>
        <time>2019-04-02T10:19:22Z</time>
      </trkpt>
      <trkpt lat="60.41225" lon="7.67413">
        <ele>1159.97</ele>
        <time>2019-04-02T10:19:24Z</time>
      </trkpt>
      <trkpt lat="60.41221" lon="7.67399">
        <ele>1162.37</ele>
        <time>2019-04-02T10:19:25Z</time>
      </trkpt>
      <trkpt lat="60.41218" lon="7.67317">
        <ele>1167.18</ele>
        <time>2019-04-02T10:19:30Z</time>
      </trkpt>
      <trkpt lat="60.41218" lon="7.67247">
        <ele>1170.54</ele>
        <time>2019-04-02T10:19:34Z</time>
      </trkpt>
      <trkpt lat="60.41217" lon="7.67228">
        <ele>1168.62</ele>
        <time>2019-04-02T10:19:35Z</time>
      </trkpt>
      <trkpt lat="60.41205" lon="7.67164">
        <ele>1173.91</ele>
        <time>2019-04-02T10:19:39Z</time>
      </trkpt>
      <trkpt lat="60.4118" lon="7.67108">
        <ele>1176.31</ele>
        <time>2019-04-02T10:19:44Z</time>
      </trkpt>
      <trkpt lat="60.41167" lon="7.67086">
        <ele>1177.75</ele>
        <time>2019-04-02T10:19:47Z</time>
      </trkpt>
      <trkpt lat="60.4116" lon="7.6707">
        <ele>1179.67</ele>
        <time>2019-04-02T10:19:50Z</time>
      </trkpt>
      <trkpt lat="60.41149" lon="7.67035">
        <ele>1180.64</ele>
        <time>2019-04-02T10:19:59Z</time>
      </trkpt>
      <trkpt lat="60.41142" lon="7.67022">
        <ele>1182.56</ele>
        <time>2019-04-02T10:20:05Z</time>
      </trkpt>
      <trkpt lat="60.41148" lon="7.67018">
        <ele>1182.56</ele>
        <time>2019-04-02T10:20:17Z</time>
      </trkpt>
      <trkpt lat="60.41148" lon="7.67017">
        <ele>1182.56</ele>
        <time>2019-04-02T10:20:36Z</time>
      </trkpt>
      <trkpt lat="60.41147" lon="7.67017">
        <ele>1181.12</ele>
        <time>2019-04-02T10:20:53Z</time>
      </trkpt>
      <trkpt lat="60.41148" lon="7.67018">
        <ele>1182.56</ele>
        <time>2019-04-02T10:21:01Z</time>
      </trkpt>
      <trkpt lat="60.4115" lon="7.67018">
        <ele>1182.56</ele>
        <time>2019-04-02T10:21:18Z</time>
      </trkpt>
      <trkpt lat="60.41138" lon="7.66997">
        <ele>1181.12</ele>
        <time>2019-04-02T10:21:23Z</time>
      </trkpt>
      <trkpt lat="60.41111" lon="7.66969">
        <ele>1184.48</ele>
        <time>2019-04-02T10:21:28Z</time>
      </trkpt>
      <trkpt lat="60.41067" lon="7.66912">
        <ele>1185.92</ele>
        <time>2019-04-02T10:21:37Z</time>
      </trkpt>
      <trkpt lat="60.4104" lon="7.66858">
        <ele>1180.64</ele>
        <time>2019-04-02T10:21:42Z</time>
      </trkpt>
      <trkpt lat="60.40983" lon="7.66755">
        <ele>1184</ele>
        <time>2019-04-02T10:21:53Z</time>
      </trkpt>
      <trkpt lat="60.40978" lon="7.66745">
        <ele>1184</ele>
        <time>2019-04-02T10:21:54Z</time>
      </trkpt>
      <trkpt lat="60.40948" lon="7.66692">
        <ele>1183.04</ele>
        <time>2019-04-02T10:22:00Z</time>
      </trkpt>
      <trkpt lat="60.40942" lon="7.66683">
        <ele>1183.04</ele>
        <time>2019-04-02T10:22:01Z</time>
      </trkpt>
      <trkpt lat="60.40912" lon="7.66633">
        <ele>1181.6</ele>
        <time>2019-04-02T10:22:06Z</time>
      </trkpt>
      <trkpt lat="60.40877" lon="7.66577">
        <ele>1181.6</ele>
        <time>2019-04-02T10:22:12Z</time>
      </trkpt>
      <trkpt lat="60.40847" lon="7.6654">
        <ele>1181.12</ele>
        <time>2019-04-02T10:22:17Z</time>
      </trkpt>
      <trkpt lat="60.40828" lon="7.66523">
        <ele>1177.27</ele>
        <time>2019-04-02T10:22:20Z</time>
      </trkpt>
      <trkpt lat="60.40822" lon="7.66518">
        <ele>1177.27</ele>
        <time>2019-04-02T10:22:21Z</time>
      </trkpt>
      <trkpt lat="60.40816" lon="7.66513">
        <ele>1177.27</ele>
        <time>2019-04-02T10:22:22Z</time>
      </trkpt>
      <trkpt lat="60.40792" lon="7.66492">
        <ele>1172.47</ele>
        <time>2019-04-02T10:22:26Z</time>
      </trkpt>
      <trkpt lat="60.4078" lon="7.66478">
        <ele>1171.98</ele>
        <time>2019-04-02T10:22:28Z</time>
      </trkpt>
      <trkpt lat="60.40774" lon="7.6647">
        <ele>1173.43</ele>
        <time>2019-04-02T10:22:29Z</time>
      </trkpt>
      <trkpt lat="60.40767" lon="7.66462">
        <ele>1173.43</ele>
        <time>2019-04-02T10:22:30Z</time>
      </trkpt>
      <trkpt lat="60.40734" lon="7.6642">
        <ele>1172.47</ele>
        <time>2019-04-02T10:22:35Z</time>
      </trkpt>
      <trkpt lat="60.40721" lon="7.66405">
        <ele>1175.83</ele>
        <time>2019-04-02T10:22:37Z</time>
      </trkpt>
      <trkpt lat="60.40717" lon="7.664">
        <ele>1175.83</ele>
        <time>2019-04-02T10:22:38Z</time>
      </trkpt>
      <trkpt lat="60.40703" lon="7.66383">
        <ele>1176.31</ele>
        <time>2019-04-02T10:22:41Z</time>
      </trkpt>
      <trkpt lat="60.40685" lon="7.66346">
        <ele>1178.71</ele>
        <time>2019-04-02T10:22:46Z</time>
      </trkpt>
      <trkpt lat="60.40677" lon="7.66322">
        <ele>1179.19</ele>
        <time>2019-04-02T10:22:48Z</time>
      </trkpt>
      <trkpt lat="60.40667" lon="7.66294">
        <ele>1177.75</ele>
        <time>2019-04-02T10:22:50Z</time>
      </trkpt>
      <trkpt lat="60.40646" lon="7.66251">
        <ele>1171.98</ele>
        <time>2019-04-02T10:22:53Z</time>
      </trkpt>
      <trkpt lat="60.40606" lon="7.66188">
        <ele>1175.83</ele>
        <time>2019-04-02T10:22:58Z</time>
      </trkpt>
      <trkpt lat="60.40599" lon="7.66176">
        <ele>1176.31</ele>
        <time>2019-04-02T10:22:59Z</time>
      </trkpt>
      <trkpt lat="60.40586" lon="7.66154">
        <ele>1181.12</ele>
        <time>2019-04-02T10:23:01Z</time>
      </trkpt>
      <trkpt lat="60.40576" lon="7.6613">
        <ele>1184.48</ele>
        <time>2019-04-02T10:23:03Z</time>
      </trkpt>
      <trkpt lat="60.40556" lon="7.66087">
        <ele>1189.29</ele>
        <time>2019-04-02T10:23:07Z</time>
      </trkpt>
      <trkpt lat="60.40545" lon="7.66066">
        <ele>1193.13</ele>
        <time>2019-04-02T10:23:09Z</time>
      </trkpt>
      <trkpt lat="60.40528" lon="7.66045">
        <ele>1198.42</ele>
        <time>2019-04-02T10:23:12Z</time>
      </trkpt>
      <trkpt lat="60.40522" lon="7.66038">
        <ele>1197.46</ele>
        <time>2019-04-02T10:23:13Z</time>
      </trkpt>
      <trkpt lat="60.405" lon="7.66006">
        <ele>1201.79</ele>
        <time>2019-04-02T10:23:17Z</time>
      </trkpt>
      <trkpt lat="60.40478" lon="7.65974">
        <ele>1204.67</ele>
        <time>2019-04-02T10:23:21Z</time>
      </trkpt>
      <trkpt lat="60.40459" lon="7.65955">
        <ele>1207.55</ele>
        <time>2019-04-02T10:23:24Z</time>
      </trkpt>
      <trkpt lat="60.40443" lon="7.6593">
        <ele>1209.96</ele>
        <time>2019-04-02T10:23:27Z</time>
      </trkpt>
      <trkpt lat="60.40423" lon="7.65888">
        <ele>1215.72</ele>
        <time>2019-04-02T10:23:31Z</time>
      </trkpt>
      <trkpt lat="60.40415" lon="7.65867">
        <ele>1216.69</ele>
        <time>2019-04-02T10:23:33Z</time>
      </trkpt>
      <trkpt lat="60.40405" lon="7.65836">
        <ele>1219.09</ele>
        <time>2019-04-02T10:23:36Z</time>
      </trkpt>
      <trkpt lat="60.40388" lon="7.65785">
        <ele>1223.42</ele>
        <time>2019-04-02T10:23:41Z</time>
      </trkpt>
      <trkpt lat="60.40376" lon="7.65757">
        <ele>1224.86</ele>
        <time>2019-04-02T10:23:44Z</time>
      </trkpt>
      <trkpt lat="60.40365" lon="7.65727">
        <ele>1226.3</ele>
        <time>2019-04-02T10:23:47Z</time>
      </trkpt>
      <trkpt lat="60.40354" lon="7.65697">
        <ele>1224.86</ele>
        <time>2019-04-02T10:23:50Z</time>
      </trkpt>
      <trkpt lat="60.40341" lon="7.65666">
        <ele>1226.78</ele>
        <time>2019-04-02T10:23:53Z</time>
      </trkpt>
      <trkpt lat="60.40295" lon="7.65561">
        <ele>1229.66</ele>
        <time>2019-04-02T10:24:02Z</time>
      </trkpt>
      <trkpt lat="60.40292" lon="7.6555">
        <ele>1229.66</ele>
        <time>2019-04-02T10:24:03Z</time>
      </trkpt>
      <trkpt lat="60.4028" lon="7.65511">
        <ele>1232.07</ele>
        <time>2019-04-02T10:24:07Z</time>
      </trkpt>
      <trkpt lat="60.40262" lon="7.65476">
        <ele>1232.55</ele>
        <time>2019-04-02T10:24:11Z</time>
      </trkpt>
      <trkpt lat="60.4024" lon="7.65451">
        <ele>1230.62</ele>
        <time>2019-04-02T10:24:15Z</time>
      </trkpt>
      <trkpt lat="60.40229" lon="7.65436">
        <ele>1232.07</ele>
        <time>2019-04-02T10:24:17Z</time>
      </trkpt>
      <trkpt lat="60.40221" lon="7.65418">
        <ele>1228.7</ele>
        <time>2019-04-02T10:24:19Z</time>
      </trkpt>
      <trkpt lat="60.40216" lon="7.6541">
        <ele>1228.7</ele>
        <time>2019-04-02T10:24:20Z</time>
      </trkpt>
      <trkpt lat="60.40204" lon="7.65381">
        <ele>1229.18</ele>
        <time>2019-04-02T10:24:25Z</time>
      </trkpt>
      <trkpt lat="60.40204" lon="7.6537">
        <ele>1230.62</ele>
        <time>2019-04-02T10:24:30Z</time>
      </trkpt>
      <trkpt lat="60.40204" lon="7.65369">
        <ele>1230.14</ele>
        <time>2019-04-02T10:24:31Z</time>
      </trkpt>
      <trkpt lat="60.40195" lon="7.6534">
        <ele>1230.14</ele>
        <time>2019-04-02T10:24:37Z</time>
      </trkpt>
      <trkpt lat="60.40184" lon="7.65304">
        <ele>1227.26</ele>
        <time>2019-04-02T10:24:41Z</time>
      </trkpt>
      <trkpt lat="60.40176" lon="7.65289">
        <ele>1226.78</ele>
        <time>2019-04-02T10:24:43Z</time>
      </trkpt>
      <trkpt lat="60.40165" lon="7.65276">
        <ele>1225.34</ele>
        <time>2019-04-02T10:24:45Z</time>
      </trkpt>
      <trkpt lat="60.40161" lon="7.65266">
        <ele>1223.42</ele>
        <time>2019-04-02T10:24:46Z</time>
      </trkpt>
      <trkpt lat="60.40141" lon="7.65228">
        <ele>1218.61</ele>
        <time>2019-04-02T10:24:50Z</time>
      </trkpt>
      <trkpt lat="60.40129" lon="7.65212">
        <ele>1214.28</ele>
        <time>2019-04-02T10:24:52Z</time>
      </trkpt>
      <trkpt lat="60.40115" lon="7.6519">
        <ele>1209.48</ele>
        <time>2019-04-02T10:24:54Z</time>
      </trkpt>
      <trkpt lat="60.40101" lon="7.65159">
        <ele>1204.19</ele>
        <time>2019-04-02T10:24:56Z</time>
      </trkpt>
      <trkpt lat="60.40087" lon="7.65136">
        <ele>1201.79</ele>
        <time>2019-04-02T10:24:58Z</time>
      </trkpt>
      <trkpt lat="60.40063" lon="7.65097">
        <ele>1199.38</ele>
        <time>2019-04-02T10:25:02Z</time>
      </trkpt>
      <trkpt lat="60.40049" lon="7.65071">
        <ele>1201.3</ele>
        <time>2019-04-02T10:25:05Z</time>
      </trkpt>
      <trkpt lat="60.40031" lon="7.6504">
        <ele>1197.46</ele>
        <time>2019-04-02T10:25:08Z</time>
      </trkpt>
      <trkpt lat="60.40025" lon="7.6503">
        <ele>1197.46</ele>
        <time>2019-04-02T10:25:09Z</time>
      </trkpt>
      <trkpt lat="60.40013" lon="7.65009">
        <ele>1196.5</ele>
        <time>2019-04-02T10:25:11Z</time>
      </trkpt>
      <trkpt lat="60.40002" lon="7.6498">
        <ele>1198.9</ele>
        <time>2019-04-02T10:25:14Z</time>
      </trkpt>
      <trkpt lat="60.4" lon="7.64969">
        <ele>1198.9</ele>
        <time>2019-04-02T10:25:15Z</time>
      </trkpt>
      <trkpt lat="60.39994" lon="7.64936">
        <ele>1196.5</ele>
        <time>2019-04-02T10:25:18Z</time>
      </trkpt>
      <trkpt lat="60.39981" lon="7.64897">
        <ele>1195.54</ele>
        <time>2019-04-02T10:25:22Z</time>
      </trkpt>
      <trkpt lat="60.39968" lon="7.64875">
        <ele>1194.09</ele>
        <time>2019-04-02T10:25:26Z</time>
      </trkpt>
      <trkpt lat="60.39962" lon="7.6486">
        <ele>1193.13</ele>
        <time>2019-04-02T10:25:28Z</time>
      </trkpt>
      <trkpt lat="60.39952" lon="7.64838">
        <ele>1191.69</ele>
        <time>2019-04-02T10:25:31Z</time>
      </trkpt>
      <trkpt lat="60.39944" lon="7.64786">
        <ele>1187.85</ele>
        <time>2019-04-02T10:25:36Z</time>
      </trkpt>
      <trkpt lat="60.39943" lon="7.64759">
        <ele>1185.92</ele>
        <time>2019-04-02T10:25:38Z</time>
      </trkpt>
      <trkpt lat="60.39936" lon="7.64712">
        <ele>1183.04</ele>
        <time>2019-04-02T10:25:41Z</time>
      </trkpt>
      <trkpt lat="60.39915" lon="7.64658">
        <ele>1177.75</ele>
        <time>2019-04-02T10:25:45Z</time>
      </trkpt>
      <trkpt lat="60.39903" lon="7.64634">
        <ele>1176.79</ele>
        <time>2019-04-02T10:25:47Z</time>
      </trkpt>
      <trkpt lat="60.39893" lon="7.64606">
        <ele>1175.83</ele>
        <time>2019-04-02T10:25:49Z</time>
      </trkpt>
      <trkpt lat="60.39875" lon="7.64535">
        <ele>1172.95</ele>
        <time>2019-04-02T10:25:54Z</time>
      </trkpt>
      <trkpt lat="60.39862" lon="7.64494">
        <ele>1169.58</ele>
        <time>2019-04-02T10:25:57Z</time>
      </trkpt>
      <trkpt lat="60.39841" lon="7.64451">
        <ele>1165.74</ele>
        <time>2019-04-02T10:26:00Z</time>
      </trkpt>
      <trkpt lat="60.39826" lon="7.64422">
        <ele>1161.89</ele>
        <time>2019-04-02T10:26:02Z</time>
      </trkpt>
      <trkpt lat="60.39819" lon="7.64408">
        <ele>1161.89</ele>
        <time>2019-04-02T10:26:03Z</time>
      </trkpt>
      <trkpt lat="60.39782" lon="7.64348">
        <ele>1162.37</ele>
        <time>2019-04-02T10:26:08Z</time>
      </trkpt>
      <trkpt lat="60.39752" lon="7.64299">
        <ele>1166.22</ele>
        <time>2019-04-02T10:26:13Z</time>
      </trkpt>
      <trkpt lat="60.39739" lon="7.64252">
        <ele>1166.7</ele>
        <time>2019-04-02T10:26:17Z</time>
      </trkpt>
      <trkpt lat="60.39729" lon="7.64217">
        <ele>1166.7</ele>
        <time>2019-04-02T10:26:20Z</time>
      </trkpt>
      <trkpt lat="60.39718" lon="7.64154">
        <ele>1167.66</ele>
        <time>2019-04-02T10:26:25Z</time>
      </trkpt>
      <trkpt lat="60.39712" lon="7.64126">
        <ele>1167.66</ele>
        <time>2019-04-02T10:26:27Z</time>
      </trkpt>
      <trkpt lat="60.39691" lon="7.63976">
        <ele>1167.66</ele>
        <time>2019-04-02T10:26:37Z</time>
      </trkpt>
      <trkpt lat="60.39687" lon="7.63949">
        <ele>1166.22</ele>
        <time>2019-04-02T10:26:39Z</time>
      </trkpt>
      <trkpt lat="60.39671" lon="7.63868">
        <ele>1166.22</ele>
        <time>2019-04-02T10:26:45Z</time>
      </trkpt>
      <trkpt lat="60.39652" lon="7.63792">
        <ele>1165.74</ele>
        <time>2019-04-02T10:26:51Z</time>
      </trkpt>
      <trkpt lat="60.3965" lon="7.63768">
        <ele>1165.74</ele>
        <time>2019-04-02T10:26:53Z</time>
      </trkpt>
      <trkpt lat="60.3964" lon="7.6373">
        <ele>1165.74</ele>
        <time>2019-04-02T10:26:56Z</time>
      </trkpt>
      <trkpt lat="60.39632" lon="7.63705">
        <ele>1167.18</ele>
        <time>2019-04-02T10:26:58Z</time>
      </trkpt>
      <trkpt lat="60.39627" lon="7.63675">
        <ele>1165.74</ele>
        <time>2019-04-02T10:27:00Z</time>
      </trkpt>
      <trkpt lat="60.39626" lon="7.63664">
        <ele>1165.74</ele>
        <time>2019-04-02T10:27:01Z</time>
      </trkpt>
      <trkpt lat="60.39612" lon="7.63587">
        <ele>1167.66</ele>
        <time>2019-04-02T10:27:08Z</time>
      </trkpt>
      <trkpt lat="60.3961" lon="7.63576">
        <ele>1167.66</ele>
        <time>2019-04-02T10:27:09Z</time>
      </trkpt>
      <trkpt lat="60.39607" lon="7.6355">
        <ele>1167.66</ele>
        <time>2019-04-02T10:27:11Z</time>
      </trkpt>
      <trkpt lat="60.39602" lon="7.63523">
        <ele>1167.66</ele>
        <time>2019-04-02T10:27:13Z</time>
      </trkpt>
      <trkpt lat="60.39593" lon="7.63464">
        <ele>1167.66</ele>
        <time>2019-04-02T10:27:17Z</time>
      </trkpt>
      <trkpt lat="60.39585" lon="7.634">
        <ele>1168.14</ele>
        <time>2019-04-02T10:27:21Z</time>
      </trkpt>
      <trkpt lat="60.39585" lon="7.63356">
        <ele>1168.14</ele>
        <time>2019-04-02T10:27:24Z</time>
      </trkpt>
      <trkpt lat="60.39575" lon="7.63183">
        <ele>1169.1</ele>
        <time>2019-04-02T10:27:34Z</time>
      </trkpt>
      <trkpt lat="60.39551" lon="7.63024">
        <ele>1171.98</ele>
        <time>2019-04-02T10:27:43Z</time>
      </trkpt>
      <trkpt lat="60.39532" lon="7.62926">
        <ele>1173.43</ele>
        <time>2019-04-02T10:27:49Z</time>
      </trkpt>
      <trkpt lat="60.3953" lon="7.62912">
        <ele>1174.39</ele>
        <time>2019-04-02T10:27:50Z</time>
      </trkpt>
      <trkpt lat="60.39517" lon="7.62819">
        <ele>1175.83</ele>
        <time>2019-04-02T10:27:56Z</time>
      </trkpt>
      <trkpt lat="60.39511" lon="7.62767">
        <ele>1176.31</ele>
        <time>2019-04-02T10:28:00Z</time>
      </trkpt>
      <trkpt lat="60.39506" lon="7.62741">
        <ele>1177.27</ele>
        <time>2019-04-02T10:28:02Z</time>
      </trkpt>
      <trkpt lat="60.395" lon="7.62691">
        <ele>1177.75</ele>
        <time>2019-04-02T10:28:07Z</time>
      </trkpt>
      <trkpt lat="60.39494" lon="7.6267">
        <ele>1177.75</ele>
        <time>2019-04-02T10:28:09Z</time>
      </trkpt>
      <trkpt lat="60.39491" lon="7.62648">
        <ele>1179.19</ele>
        <time>2019-04-02T10:28:11Z</time>
      </trkpt>
      <trkpt lat="60.39486" lon="7.62594">
        <ele>1179.67</ele>
        <time>2019-04-02T10:28:15Z</time>
      </trkpt>
      <trkpt lat="60.39478" lon="7.62541">
        <ele>1180.64</ele>
        <time>2019-04-02T10:28:19Z</time>
      </trkpt>
      <trkpt lat="60.39469" lon="7.62502">
        <ele>1182.08</ele>
        <time>2019-04-02T10:28:22Z</time>
      </trkpt>
      <trkpt lat="60.39465" lon="7.6248">
        <ele>1182.56</ele>
        <time>2019-04-02T10:28:24Z</time>
      </trkpt>
      <trkpt lat="60.39463" lon="7.62439">
        <ele>1182.56</ele>
        <time>2019-04-02T10:28:28Z</time>
      </trkpt>
      <trkpt lat="60.39462" lon="7.62403">
        <ele>1183.04</ele>
        <time>2019-04-02T10:28:32Z</time>
      </trkpt>
      <trkpt lat="60.39459" lon="7.62386">
        <ele>1183.52</ele>
        <time>2019-04-02T10:28:34Z</time>
      </trkpt>
      <trkpt lat="60.39454" lon="7.62332">
        <ele>1184.96</ele>
        <time>2019-04-02T10:28:40Z</time>
      </trkpt>
      <trkpt lat="60.39449" lon="7.62314">
        <ele>1185.92</ele>
        <time>2019-04-02T10:28:42Z</time>
      </trkpt>
      <trkpt lat="60.39446" lon="7.6228">
        <ele>1185.92</ele>
        <time>2019-04-02T10:28:48Z</time>
      </trkpt>
      <trkpt lat="60.39448" lon="7.62266">
        <ele>1186.4</ele>
        <time>2019-04-02T10:28:51Z</time>
      </trkpt>
      <trkpt lat="60.39443" lon="7.62185">
        <ele>1188.81</ele>
        <time>2019-04-02T10:29:01Z</time>
      </trkpt>
      <trkpt lat="60.39443" lon="7.62179">
        <ele>1189.29</ele>
        <time>2019-04-02T10:29:02Z</time>
      </trkpt>
      <trkpt lat="60.39444" lon="7.62149">
        <ele>1189.77</ele>
        <time>2019-04-02T10:29:07Z</time>
      </trkpt>
      <trkpt lat="60.39441" lon="7.62091">
        <ele>1192.17</ele>
        <time>2019-04-02T10:29:14Z</time>
      </trkpt>
      <trkpt lat="60.39462" lon="7.62046">
        <ele>1192.65</ele>
        <time>2019-04-02T10:29:22Z</time>
      </trkpt>
      <trkpt lat="60.39495" lon="7.62011">
        <ele>1188.81</ele>
        <time>2019-04-02T10:29:27Z</time>
      </trkpt>
      <trkpt lat="60.39554" lon="7.61936">
        <ele>1185.92</ele>
        <time>2019-04-02T10:29:36Z</time>
      </trkpt>
      <trkpt lat="60.39568" lon="7.61918">
        <ele>1185.92</ele>
        <time>2019-04-02T10:29:39Z</time>
      </trkpt>
      <trkpt lat="60.39586" lon="7.61905">
        <ele>1185.92</ele>
        <time>2019-04-02T10:29:42Z</time>
      </trkpt>
      <trkpt lat="60.39605" lon="7.61878">
        <ele>1184.96</ele>
        <time>2019-04-02T10:29:46Z</time>
      </trkpt>
      <trkpt lat="60.39644" lon="7.61822">
        <ele>1184.96</ele>
        <time>2019-04-02T10:29:53Z</time>
      </trkpt>
      <trkpt lat="60.39669" lon="7.61795">
        <ele>1184.96</ele>
        <time>2019-04-02T10:29:57Z</time>
      </trkpt>
      <trkpt lat="60.39685" lon="7.61786">
        <ele>1184.96</ele>
        <time>2019-04-02T10:30:01Z</time>
      </trkpt>
      <trkpt lat="60.39722" lon="7.61797">
        <ele>1183.52</ele>
        <time>2019-04-02T10:30:06Z</time>
      </trkpt>
      <trkpt lat="60.39776" lon="7.61799">
        <ele>1182.56</ele>
        <time>2019-04-02T10:30:12Z</time>
      </trkpt>
      <trkpt lat="60.39817" lon="7.61779">
        <ele>1184</ele>
        <time>2019-04-02T10:30:19Z</time>
      </trkpt>
      <trkpt lat="60.3981" lon="7.61765">
        <ele>1183.52</ele>
        <time>2019-04-02T10:30:26Z</time>
      </trkpt>
      <trkpt lat="60.39797" lon="7.61754">
        <ele>1183.52</ele>
        <time>2019-04-02T10:30:35Z</time>
      </trkpt>
      <trkpt lat="60.39785" lon="7.61746">
        <ele>1180.16</ele>
        <time>2019-04-02T10:30:37Z</time>
      </trkpt>
      <trkpt lat="60.39768" lon="7.61723">
        <ele>1182.08</ele>
        <time>2019-04-02T10:30:40Z</time>
      </trkpt>
      <trkpt lat="60.39761" lon="7.61712">
        <ele>1182.56</ele>
        <time>2019-04-02T10:30:41Z</time>
      </trkpt>
      <trkpt lat="60.39742" lon="7.61671">
        <ele>1181.6</ele>
        <time>2019-04-02T10:30:45Z</time>
      </trkpt>
      <trkpt lat="60.39729" lon="7.61632">
        <ele>1182.56</ele>
        <time>2019-04-02T10:30:48Z</time>
      </trkpt>
      <trkpt lat="60.39721" lon="7.61605">
        <ele>1184</ele>
        <time>2019-04-02T10:30:50Z</time>
      </trkpt>
      <trkpt lat="60.39717" lon="7.61592">
        <ele>1182.08</ele>
        <time>2019-04-02T10:30:51Z</time>
      </trkpt>
      <trkpt lat="60.39711" lon="7.61566">
        <ele>1181.12</ele>
        <time>2019-04-02T10:30:53Z</time>
      </trkpt>
      <trkpt lat="60.39714" lon="7.6155">
        <ele>1182.56</ele>
        <time>2019-04-02T10:30:55Z</time>
      </trkpt>
      <trkpt lat="60.39736" lon="7.61512">
        <ele>1182.56</ele>
        <time>2019-04-02T10:31:01Z</time>
      </trkpt>
      <trkpt lat="60.39766" lon="7.6149">
        <ele>1183.04</ele>
        <time>2019-04-02T10:31:07Z</time>
      </trkpt>
      <trkpt lat="60.39781" lon="7.61474">
        <ele>1183.52</ele>
        <time>2019-04-02T10:31:11Z</time>
      </trkpt>
      <trkpt lat="60.39794" lon="7.61466">
        <ele>1184</ele>
        <time>2019-04-02T10:31:16Z</time>
      </trkpt>
      <trkpt lat="60.39802" lon="7.61471">
        <ele>1185.44</ele>
        <time>2019-04-02T10:31:25Z</time>
      </trkpt>
      <trkpt lat="60.39801" lon="7.61469">
        <ele>1185.44</ele>
        <time>2019-04-02T10:31:45Z</time>
      </trkpt>
      <trkpt lat="60.398" lon="7.61468">
        <ele>1184</ele>
        <time>2019-04-02T10:31:59Z</time>
      </trkpt>
      <trkpt lat="60.39799" lon="7.61469">
        <ele>1184</ele>
        <time>2019-04-02T10:32:01Z</time>
      </trkpt>
      <trkpt lat="60.39792" lon="7.61476">
        <ele>1181.6</ele>
        <time>2019-04-02T10:32:06Z</time>
      </trkpt>
      <trkpt lat="60.39791" lon="7.61477">
        <ele>1182.56</ele>
        <time>2019-04-02T10:32:22Z</time>
      </trkpt>
      <trkpt lat="60.39788" lon="7.61473">
        <ele>1184</ele>
        <time>2019-04-02T10:32:43Z</time>
      </trkpt>
      <trkpt lat="60.39784" lon="7.6147">
        <ele>1182.56</ele>
        <time>2019-04-02T10:32:48Z</time>
      </trkpt>
      <trkpt lat="60.3978" lon="7.61471">
        <ele>1183.52</ele>
        <time>2019-04-02T10:32:54Z</time>
      </trkpt>
      <trkpt lat="60.39765" lon="7.61476">
        <ele>1180.64</ele>
        <time>2019-04-02T10:32:59Z</time>
      </trkpt>
      <trkpt lat="60.39756" lon="7.61479">
        <ele>1180.64</ele>
        <time>2019-04-02T10:33:01Z</time>
      </trkpt>
      <trkpt lat="60.39746" lon="7.61481">
        <ele>1182.08</ele>
        <time>2019-04-02T10:33:03Z</time>
      </trkpt>
      <trkpt lat="60.39715" lon="7.61483">
        <ele>1179.19</ele>
        <time>2019-04-02T10:33:08Z</time>
      </trkpt>
      <trkpt lat="60.39702" lon="7.61482">
        <ele>1179.19</ele>
        <time>2019-04-02T10:33:10Z</time>
      </trkpt>
      <trkpt lat="60.39683" lon="7.61484">
        <ele>1179.19</ele>
        <time>2019-04-02T10:33:13Z</time>
      </trkpt>
      <trkpt lat="60.39665" lon="7.61484">
        <ele>1183.04</ele>
        <time>2019-04-02T10:33:16Z</time>
      </trkpt>
      <trkpt lat="60.39659" lon="7.61483">
        <ele>1183.52</ele>
        <time>2019-04-02T10:33:17Z</time>
      </trkpt>
      <trkpt lat="60.39613" lon="7.6147">
        <ele>1185.92</ele>
        <time>2019-04-02T10:33:26Z</time>
      </trkpt>
      <trkpt lat="60.39578" lon="7.61452">
        <ele>1187.85</ele>
        <time>2019-04-02T10:33:33Z</time>
      </trkpt>
      <trkpt lat="60.39554" lon="7.61437">
        <ele>1188.81</ele>
        <time>2019-04-02T10:33:38Z</time>
      </trkpt>
      <trkpt lat="60.39535" lon="7.61427">
        <ele>1190.73</ele>
        <time>2019-04-02T10:33:42Z</time>
      </trkpt>
      <trkpt lat="60.39509" lon="7.6141">
        <ele>1193.13</ele>
        <time>2019-04-02T10:33:48Z</time>
      </trkpt>
      <trkpt lat="60.39484" lon="7.61386">
        <ele>1188.33</ele>
        <time>2019-04-02T10:33:53Z</time>
      </trkpt>
      <trkpt lat="60.39478" lon="7.6138">
        <ele>1188.33</ele>
        <time>2019-04-02T10:33:54Z</time>
      </trkpt>
      <trkpt lat="60.39471" lon="7.61372">
        <ele>1188.33</ele>
        <time>2019-04-02T10:33:55Z</time>
      </trkpt>
      <trkpt lat="60.39442" lon="7.61344">
        <ele>1191.69</ele>
        <time>2019-04-02T10:34:00Z</time>
      </trkpt>
      <trkpt lat="60.39431" lon="7.61333">
        <ele>1193.61</ele>
        <time>2019-04-02T10:34:02Z</time>
      </trkpt>
      <trkpt lat="60.39402" lon="7.61313">
        <ele>1196.5</ele>
        <time>2019-04-02T10:34:07Z</time>
      </trkpt>
      <trkpt lat="60.39397" lon="7.61309">
        <ele>1196.5</ele>
        <time>2019-04-02T10:34:08Z</time>
      </trkpt>
      <trkpt lat="60.39366" lon="7.61296">
        <ele>1197.94</ele>
        <time>2019-04-02T10:34:14Z</time>
      </trkpt>
      <trkpt lat="60.39356" lon="7.6129">
        <ele>1198.42</ele>
        <time>2019-04-02T10:34:16Z</time>
      </trkpt>
      <trkpt lat="60.39347" lon="7.6128">
        <ele>1198.42</ele>
        <time>2019-04-02T10:34:18Z</time>
      </trkpt>
      <trkpt lat="60.39322" lon="7.61254">
        <ele>1199.86</ele>
        <time>2019-04-02T10:34:23Z</time>
      </trkpt>
      <trkpt lat="60.39313" lon="7.61242">
        <ele>1201.3</ele>
        <time>2019-04-02T10:34:25Z</time>
      </trkpt>
      <trkpt lat="60.39305" lon="7.61232">
        <ele>1201.79</ele>
        <time>2019-04-02T10:34:27Z</time>
      </trkpt>
      <trkpt lat="60.39299" lon="7.61221">
        <ele>1201.79</ele>
        <time>2019-04-02T10:34:29Z</time>
      </trkpt>
      <trkpt lat="60.39271" lon="7.61183">
        <ele>1204.19</ele>
        <time>2019-04-02T10:34:38Z</time>
      </trkpt>
      <trkpt lat="60.39266" lon="7.61176">
        <ele>1204.19</ele>
        <time>2019-04-02T10:34:40Z</time>
      </trkpt>
      <trkpt lat="60.39249" lon="7.61143">
        <ele>1205.63</ele>
        <time>2019-04-02T10:34:48Z</time>
      </trkpt>
      <trkpt lat="60.39234" lon="7.61127">
        <ele>1207.07</ele>
        <time>2019-04-02T10:34:52Z</time>
      </trkpt>
      <trkpt lat="60.39217" lon="7.61108">
        <ele>1209.48</ele>
        <time>2019-04-02T10:34:56Z</time>
      </trkpt>
      <trkpt lat="60.39209" lon="7.61096">
        <ele>1209.48</ele>
        <time>2019-04-02T10:34:58Z</time>
      </trkpt>
      <trkpt lat="60.39173" lon="7.61057">
        <ele>1213.32</ele>
        <time>2019-04-02T10:35:04Z</time>
      </trkpt>
      <trkpt lat="60.39148" lon="7.61034">
        <ele>1216.69</ele>
        <time>2019-04-02T10:35:08Z</time>
      </trkpt>
      <trkpt lat="60.39129" lon="7.61017">
        <ele>1221.01</ele>
        <time>2019-04-02T10:35:12Z</time>
      </trkpt>
      <trkpt lat="60.39113" lon="7.60994">
        <ele>1224.38</ele>
        <time>2019-04-02T10:35:16Z</time>
      </trkpt>
      <trkpt lat="60.39091" lon="7.60971">
        <ele>1225.82</ele>
        <time>2019-04-02T10:35:20Z</time>
      </trkpt>
      <trkpt lat="60.3906" lon="7.60938">
        <ele>1224.38</ele>
        <time>2019-04-02T10:35:25Z</time>
      </trkpt>
      <trkpt lat="60.39041" lon="7.60912">
        <ele>1227.74</ele>
        <time>2019-04-02T10:35:28Z</time>
      </trkpt>
      <trkpt lat="60.39035" lon="7.60903">
        <ele>1227.74</ele>
        <time>2019-04-02T10:35:29Z</time>
      </trkpt>
      <trkpt lat="60.39023" lon="7.60885">
        <ele>1229.18</ele>
        <time>2019-04-02T10:35:31Z</time>
      </trkpt>
      <trkpt lat="60.39006" lon="7.60858">
        <ele>1230.14</ele>
        <time>2019-04-02T10:35:34Z</time>
      </trkpt>
      <trkpt lat="60.38989" lon="7.6084">
        <ele>1235.43</ele>
        <time>2019-04-02T10:35:37Z</time>
      </trkpt>
      <trkpt lat="60.38984" lon="7.60835">
        <ele>1235.43</ele>
        <time>2019-04-02T10:35:38Z</time>
      </trkpt>
      <trkpt lat="60.38953" lon="7.60812">
        <ele>1234.47</ele>
        <time>2019-04-02T10:35:46Z</time>
      </trkpt>
      <trkpt lat="60.3895" lon="7.6081">
        <ele>1233.99</ele>
        <time>2019-04-02T10:35:53Z</time>
      </trkpt>
      <trkpt lat="60.38946" lon="7.60798">
        <ele>1233.99</ele>
        <time>2019-04-02T10:36:03Z</time>
      </trkpt>
      <trkpt lat="60.3894" lon="7.60774">
        <ele>1233.51</ele>
        <time>2019-04-02T10:36:14Z</time>
      </trkpt>
      <trkpt lat="60.38939" lon="7.6077">
        <ele>1233.51</ele>
        <time>2019-04-02T10:36:15Z</time>
      </trkpt>
      <trkpt lat="60.38917" lon="7.60738">
        <ele>1234.95</ele>
        <time>2019-04-02T10:36:24Z</time>
      </trkpt>
      <trkpt lat="60.38913" lon="7.60732">
        <ele>1235.91</ele>
        <time>2019-04-02T10:36:25Z</time>
      </trkpt>
      <trkpt lat="60.38906" lon="7.6072">
        <ele>1236.39</ele>
        <time>2019-04-02T10:36:27Z</time>
      </trkpt>
      <trkpt lat="60.389" lon="7.60705">
        <ele>1236.87</ele>
        <time>2019-04-02T10:36:29Z</time>
      </trkpt>
      <trkpt lat="60.38886" lon="7.60664">
        <ele>1239.76</ele>
        <time>2019-04-02T10:36:34Z</time>
      </trkpt>
      <trkpt lat="60.38865" lon="7.60621">
        <ele>1241.68</ele>
        <time>2019-04-02T10:36:39Z</time>
      </trkpt>
      <trkpt lat="60.3884" lon="7.60596">
        <ele>1242.64</ele>
        <time>2019-04-02T10:36:44Z</time>
      </trkpt>
      <trkpt lat="60.38824" lon="7.6057">
        <ele>1243.12</ele>
        <time>2019-04-02T10:36:48Z</time>
      </trkpt>
      <trkpt lat="60.38811" lon="7.60552">
        <ele>1243.6</ele>
        <time>2019-04-02T10:36:51Z</time>
      </trkpt>
      <trkpt lat="60.38785" lon="7.60496">
        <ele>1244.56</ele>
        <time>2019-04-02T10:36:58Z</time>
      </trkpt>
      <trkpt lat="60.38776" lon="7.60476">
        <ele>1246.01</ele>
        <time>2019-04-02T10:37:00Z</time>
      </trkpt>
      <trkpt lat="60.38764" lon="7.60448">
        <ele>1246.49</ele>
        <time>2019-04-02T10:37:03Z</time>
      </trkpt>
      <trkpt lat="60.38747" lon="7.60416">
        <ele>1247.93</ele>
        <time>2019-04-02T10:37:07Z</time>
      </trkpt>
      <trkpt lat="60.38743" lon="7.6041">
        <ele>1247.93</ele>
        <time>2019-04-02T10:37:08Z</time>
      </trkpt>
      <trkpt lat="60.38726" lon="7.60385">
        <ele>1247.93</ele>
        <time>2019-04-02T10:37:13Z</time>
      </trkpt>
      <trkpt lat="60.38716" lon="7.60357">
        <ele>1246.97</ele>
        <time>2019-04-02T10:37:17Z</time>
      </trkpt>
      <trkpt lat="60.3869" lon="7.60261">
        <ele>1250.33</ele>
        <time>2019-04-02T10:37:25Z</time>
      </trkpt>
      <trkpt lat="60.38675" lon="7.60225">
        <ele>1250.81</ele>
        <time>2019-04-02T10:37:28Z</time>
      </trkpt>
      <trkpt lat="60.38665" lon="7.60202">
        <ele>1251.77</ele>
        <time>2019-04-02T10:37:30Z</time>
      </trkpt>
      <trkpt lat="60.38653" lon="7.60167">
        <ele>1253.22</ele>
        <time>2019-04-02T10:37:33Z</time>
      </trkpt>
      <trkpt lat="60.38618" lon="7.60081">
        <ele>1255.62</ele>
        <time>2019-04-02T10:37:41Z</time>
      </trkpt>
      <trkpt lat="60.38597" lon="7.60015">
        <ele>1257.54</ele>
        <time>2019-04-02T10:37:47Z</time>
      </trkpt>
      <trkpt lat="60.38581" lon="7.59977">
        <ele>1258.02</ele>
        <time>2019-04-02T10:37:51Z</time>
      </trkpt>
      <trkpt lat="60.38545" lon="7.59884">
        <ele>1259.94</ele>
        <time>2019-04-02T10:38:01Z</time>
      </trkpt>
      <trkpt lat="60.38537" lon="7.59865">
        <ele>1259.94</ele>
        <time>2019-04-02T10:38:03Z</time>
      </trkpt>
      <trkpt lat="60.38525" lon="7.59843">
        <ele>1261.39</ele>
        <time>2019-04-02T10:38:06Z</time>
      </trkpt>
      <trkpt lat="60.38515" lon="7.59823">
        <ele>1262.83</ele>
        <time>2019-04-02T10:38:09Z</time>
      </trkpt>
      <trkpt lat="60.38509" lon="7.59806">
        <ele>1263.31</ele>
        <time>2019-04-02T10:38:11Z</time>
      </trkpt>
      <trkpt lat="60.38493" lon="7.59767">
        <ele>1264.75</ele>
        <time>2019-04-02T10:38:15Z</time>
      </trkpt>
      <trkpt lat="60.38478" lon="7.59736">
        <ele>1265.71</ele>
        <time>2019-04-02T10:38:18Z</time>
      </trkpt>
      <trkpt lat="60.38464" lon="7.59701">
        <ele>1264.75</ele>
        <time>2019-04-02T10:38:21Z</time>
      </trkpt>
      <trkpt lat="60.38448" lon="7.59672">
        <ele>1267.16</ele>
        <time>2019-04-02T10:38:24Z</time>
      </trkpt>
      <trkpt lat="60.38418" lon="7.59605">
        <ele>1269.08</ele>
        <time>2019-04-02T10:38:30Z</time>
      </trkpt>
      <trkpt lat="60.38413" lon="7.59596">
        <ele>1267.64</ele>
        <time>2019-04-02T10:38:31Z</time>
      </trkpt>
      <trkpt lat="60.38394" lon="7.59552">
        <ele>1267.64</ele>
        <time>2019-04-02T10:38:35Z</time>
      </trkpt>
      <trkpt lat="60.3837" lon="7.59496">
        <ele>1270.04</ele>
        <time>2019-04-02T10:38:40Z</time>
      </trkpt>
      <trkpt lat="60.38365" lon="7.59484">
        <ele>1270.04</ele>
        <time>2019-04-02T10:38:41Z</time>
      </trkpt>
      <trkpt lat="60.38346" lon="7.59452">
        <ele>1274.36</ele>
        <time>2019-04-02T10:38:46Z</time>
      </trkpt>
      <trkpt lat="60.38338" lon="7.59434">
        <ele>1275.33</ele>
        <time>2019-04-02T10:38:49Z</time>
      </trkpt>
      <trkpt lat="60.38329" lon="7.59421">
        <ele>1276.29</ele>
        <time>2019-04-02T10:38:52Z</time>
      </trkpt>
      <trkpt lat="60.3832" lon="7.5941">
        <ele>1277.73</ele>
        <time>2019-04-02T10:38:55Z</time>
      </trkpt>
      <trkpt lat="60.38308" lon="7.59394">
        <ele>1279.65</ele>
        <time>2019-04-02T10:38:58Z</time>
      </trkpt>
      <trkpt lat="60.38304" lon="7.59389">
        <ele>1280.13</ele>
        <time>2019-04-02T10:38:59Z</time>
      </trkpt>
      <trkpt lat="60.38289" lon="7.5936">
        <ele>1280.13</ele>
        <time>2019-04-02T10:39:03Z</time>
      </trkpt>
      <trkpt lat="60.38264" lon="7.59322">
        <ele>1278.21</ele>
        <time>2019-04-02T10:39:08Z</time>
      </trkpt>
      <trkpt lat="60.38248" lon="7.59294">
        <ele>1281.09</ele>
        <time>2019-04-02T10:39:11Z</time>
      </trkpt>
      <trkpt lat="60.38232" lon="7.59265">
        <ele>1278.69</ele>
        <time>2019-04-02T10:39:14Z</time>
      </trkpt>
      <trkpt lat="60.38217" lon="7.5924">
        <ele>1281.09</ele>
        <time>2019-04-02T10:39:17Z</time>
      </trkpt>
      <trkpt lat="60.38213" lon="7.59231">
        <ele>1277.73</ele>
        <time>2019-04-02T10:39:18Z</time>
      </trkpt>
      <trkpt lat="60.38189" lon="7.59188">
        <ele>1280.61</ele>
        <time>2019-04-02T10:39:23Z</time>
      </trkpt>
      <trkpt lat="60.3816" lon="7.59121">
        <ele>1281.09</ele>
        <time>2019-04-02T10:39:30Z</time>
      </trkpt>
      <trkpt lat="60.38144" lon="7.59091">
        <ele>1283.98</ele>
        <time>2019-04-02T10:39:34Z</time>
      </trkpt>
      <trkpt lat="60.38101" lon="7.58961">
        <ele>1285.42</ele>
        <time>2019-04-02T10:39:47Z</time>
      </trkpt>
      <trkpt lat="60.38097" lon="7.58949">
        <ele>1285.42</ele>
        <time>2019-04-02T10:39:48Z</time>
      </trkpt>
      <trkpt lat="60.3809" lon="7.58923">
        <ele>1284.46</ele>
        <time>2019-04-02T10:39:50Z</time>
      </trkpt>
      <trkpt lat="60.38078" lon="7.58871">
        <ele>1283.98</ele>
        <time>2019-04-02T10:39:54Z</time>
      </trkpt>
      <trkpt lat="60.3807" lon="7.58844">
        <ele>1283.98</ele>
        <time>2019-04-02T10:39:56Z</time>
      </trkpt>
      <trkpt lat="60.38061" lon="7.58806">
        <ele>1287.82</ele>
        <time>2019-04-02T10:39:59Z</time>
      </trkpt>
      <trkpt lat="60.3805" lon="7.58768">
        <ele>1285.42</ele>
        <time>2019-04-02T10:40:02Z</time>
      </trkpt>
      <trkpt lat="60.38042" lon="7.58742">
        <ele>1286.86</ele>
        <time>2019-04-02T10:40:04Z</time>
      </trkpt>
      <trkpt lat="60.38027" lon="7.58695">
        <ele>1287.82</ele>
        <time>2019-04-02T10:40:08Z</time>
      </trkpt>
      <trkpt lat="60.38012" lon="7.58644">
        <ele>1288.3</ele>
        <time>2019-04-02T10:40:13Z</time>
      </trkpt>
      <trkpt lat="60.37998" lon="7.58609">
        <ele>1290.71</ele>
        <time>2019-04-02T10:40:17Z</time>
      </trkpt>
      <trkpt lat="60.37977" lon="7.58564">
        <ele>1292.63</ele>
        <time>2019-04-02T10:40:23Z</time>
      </trkpt>
      <trkpt lat="60.37969" lon="7.5854">
        <ele>1292.63</ele>
        <time>2019-04-02T10:40:26Z</time>
      </trkpt>
      <trkpt lat="60.37952" lon="7.58503">
        <ele>1292.15</ele>
        <time>2019-04-02T10:40:30Z</time>
      </trkpt>
      <trkpt lat="60.3794" lon="7.58479">
        <ele>1293.11</ele>
        <time>2019-04-02T10:40:33Z</time>
      </trkpt>
      <trkpt lat="60.37926" lon="7.58451">
        <ele>1291.67</ele>
        <time>2019-04-02T10:40:36Z</time>
      </trkpt>
      <trkpt lat="60.3791" lon="7.58418">
        <ele>1290.23</ele>
        <time>2019-04-02T10:40:39Z</time>
      </trkpt>
      <trkpt lat="60.37905" lon="7.58407">
        <ele>1288.3</ele>
        <time>2019-04-02T10:40:40Z</time>
      </trkpt>
      <trkpt lat="60.3789" lon="7.58382">
        <ele>1292.63</ele>
        <time>2019-04-02T10:40:43Z</time>
      </trkpt>
      <trkpt lat="60.37878" lon="7.58358">
        <ele>1293.11</ele>
        <time>2019-04-02T10:40:46Z</time>
      </trkpt>
      <trkpt lat="60.37871" lon="7.58342">
        <ele>1291.67</ele>
        <time>2019-04-02T10:40:48Z</time>
      </trkpt>
      <trkpt lat="60.37857" lon="7.58315">
        <ele>1295.03</ele>
        <time>2019-04-02T10:40:52Z</time>
      </trkpt>
      <trkpt lat="60.37836" lon="7.58273">
        <ele>1295.03</ele>
        <time>2019-04-02T10:40:58Z</time>
      </trkpt>
      <trkpt lat="60.37823" lon="7.58248">
        <ele>1293.59</ele>
        <time>2019-04-02T10:41:01Z</time>
      </trkpt>
      <trkpt lat="60.37797" lon="7.58198">
        <ele>1289.27</ele>
        <time>2019-04-02T10:41:06Z</time>
      </trkpt>
      <trkpt lat="60.37785" lon="7.58178">
        <ele>1285.9</ele>
        <time>2019-04-02T10:41:08Z</time>
      </trkpt>
      <trkpt lat="60.37761" lon="7.58136">
        <ele>1282.06</ele>
        <time>2019-04-02T10:41:12Z</time>
      </trkpt>
      <trkpt lat="60.37756" lon="7.58126">
        <ele>1282.06</ele>
        <time>2019-04-02T10:41:13Z</time>
      </trkpt>
      <trkpt lat="60.37712" lon="7.58052">
        <ele>1282.54</ele>
        <time>2019-04-02T10:41:21Z</time>
      </trkpt>
      <trkpt lat="60.3769" lon="7.5802">
        <ele>1278.21</ele>
        <time>2019-04-02T10:41:25Z</time>
      </trkpt>
      <trkpt lat="60.37684" lon="7.58011">
        <ele>1278.21</ele>
        <time>2019-04-02T10:41:26Z</time>
      </trkpt>
      <trkpt lat="60.37672" lon="7.57991">
        <ele>1276.29</ele>
        <time>2019-04-02T10:41:28Z</time>
      </trkpt>
      <trkpt lat="60.37659" lon="7.57972">
        <ele>1277.73</ele>
        <time>2019-04-02T10:41:30Z</time>
      </trkpt>
      <trkpt lat="60.37652" lon="7.57965">
        <ele>1279.17</ele>
        <time>2019-04-02T10:41:31Z</time>
      </trkpt>
      <trkpt lat="60.37642" lon="7.5795">
        <ele>1281.57</ele>
        <time>2019-04-02T10:41:33Z</time>
      </trkpt>
      <trkpt lat="60.37632" lon="7.57934">
        <ele>1282.54</ele>
        <time>2019-04-02T10:41:35Z</time>
      </trkpt>
      <trkpt lat="60.37608" lon="7.57882">
        <ele>1280.13</ele>
        <time>2019-04-02T10:41:40Z</time>
      </trkpt>
      <trkpt lat="60.37599" lon="7.57863">
        <ele>1280.13</ele>
        <time>2019-04-02T10:41:42Z</time>
      </trkpt>
      <trkpt lat="60.3758" lon="7.57838">
        <ele>1281.09</ele>
        <time>2019-04-02T10:41:46Z</time>
      </trkpt>
      <trkpt lat="60.37572" lon="7.57825">
        <ele>1282.06</ele>
        <time>2019-04-02T10:41:48Z</time>
      </trkpt>
      <trkpt lat="60.37563" lon="7.5781">
        <ele>1278.21</ele>
        <time>2019-04-02T10:41:50Z</time>
      </trkpt>
      <trkpt lat="60.37558" lon="7.57801">
        <ele>1278.21</ele>
        <time>2019-04-02T10:41:51Z</time>
      </trkpt>
      <trkpt lat="60.37552" lon="7.57791">
        <ele>1279.65</ele>
        <time>2019-04-02T10:41:52Z</time>
      </trkpt>
      <trkpt lat="60.37529" lon="7.57758">
        <ele>1277.25</ele>
        <time>2019-04-02T10:41:56Z</time>
      </trkpt>
      <trkpt lat="60.37508" lon="7.57715">
        <ele>1276.29</ele>
        <time>2019-04-02T10:42:00Z</time>
      </trkpt>
      <trkpt lat="60.37498" lon="7.57694">
        <ele>1278.21</ele>
        <time>2019-04-02T10:42:02Z</time>
      </trkpt>
      <trkpt lat="60.3749" lon="7.57677">
        <ele>1279.17</ele>
        <time>2019-04-02T10:42:04Z</time>
      </trkpt>
      <trkpt lat="60.37484" lon="7.57661">
        <ele>1280.13</ele>
        <time>2019-04-02T10:42:06Z</time>
      </trkpt>
      <trkpt lat="60.37479" lon="7.5765">
        <ele>1281.57</ele>
        <time>2019-04-02T10:42:08Z</time>
      </trkpt>
      <trkpt lat="60.37468" lon="7.57625">
        <ele>1285.42</ele>
        <time>2019-04-02T10:42:13Z</time>
      </trkpt>
      <trkpt lat="60.37465" lon="7.5762">
        <ele>1285.42</ele>
        <time>2019-04-02T10:42:14Z</time>
      </trkpt>
      <trkpt lat="60.37452" lon="7.57591">
        <ele>1285.9</ele>
        <time>2019-04-02T10:42:19Z</time>
      </trkpt>
      <trkpt lat="60.37441" lon="7.57567">
        <ele>1287.34</ele>
        <time>2019-04-02T10:42:23Z</time>
      </trkpt>
      <trkpt lat="60.37434" lon="7.57544">
        <ele>1288.78</ele>
        <time>2019-04-02T10:42:26Z</time>
      </trkpt>
      <trkpt lat="60.37424" lon="7.57517">
        <ele>1288.78</ele>
        <time>2019-04-02T10:42:29Z</time>
      </trkpt>
      <trkpt lat="60.37393" lon="7.57428">
        <ele>1289.75</ele>
        <time>2019-04-02T10:42:40Z</time>
      </trkpt>
      <trkpt lat="60.37381" lon="7.57407">
        <ele>1290.71</ele>
        <time>2019-04-02T10:42:44Z</time>
      </trkpt>
      <trkpt lat="60.37371" lon="7.57384">
        <ele>1290.23</ele>
        <time>2019-04-02T10:42:47Z</time>
      </trkpt>
      <trkpt lat="60.37363" lon="7.57369">
        <ele>1288.78</ele>
        <time>2019-04-02T10:42:49Z</time>
      </trkpt>
      <trkpt lat="60.37356" lon="7.57355">
        <ele>1292.15</ele>
        <time>2019-04-02T10:42:52Z</time>
      </trkpt>
      <trkpt lat="60.3735" lon="7.57347">
        <ele>1291.67</ele>
        <time>2019-04-02T10:42:58Z</time>
      </trkpt>
      <trkpt lat="60.37346" lon="7.57342">
        <ele>1292.63</ele>
        <time>2019-04-02T10:43:03Z</time>
      </trkpt>
      <trkpt lat="60.37339" lon="7.57311">
        <ele>1291.67</ele>
        <time>2019-04-02T10:43:10Z</time>
      </trkpt>
      <trkpt lat="60.37341" lon="7.57288">
        <ele>1291.67</ele>
        <time>2019-04-02T10:43:15Z</time>
      </trkpt>
      <trkpt lat="60.37344" lon="7.57271">
        <ele>1291.19</ele>
        <time>2019-04-02T10:43:18Z</time>
      </trkpt>
      <trkpt lat="60.37367" lon="7.57284">
        <ele>1291.67</ele>
        <time>2019-04-02T10:43:24Z</time>
      </trkpt>
      <trkpt lat="60.37373" lon="7.57336">
        <ele>1293.11</ele>
        <time>2019-04-02T10:43:28Z</time>
      </trkpt>
      <trkpt lat="60.37376" lon="7.57362">
        <ele>1293.59</ele>
        <time>2019-04-02T10:43:30Z</time>
      </trkpt>
      <trkpt lat="60.3738" lon="7.57387">
        <ele>1293.59</ele>
        <time>2019-04-02T10:43:32Z</time>
      </trkpt>
      <trkpt lat="60.37384" lon="7.5741">
        <ele>1293.59</ele>
        <time>2019-04-02T10:43:34Z</time>
      </trkpt>
      <trkpt lat="60.37385" lon="7.57466">
        <ele>1294.55</ele>
        <time>2019-04-02T10:43:39Z</time>
      </trkpt>
      <trkpt lat="60.37385" lon="7.5751">
        <ele>1295.99</ele>
        <time>2019-04-02T10:43:43Z</time>
      </trkpt>
      <trkpt lat="60.37392" lon="7.5762">
        <ele>1297.92</ele>
        <time>2019-04-02T10:43:53Z</time>
      </trkpt>
      <trkpt lat="60.37395" lon="7.57671">
        <ele>1299.84</ele>
        <time>2019-04-02T10:43:57Z</time>
      </trkpt>
      <trkpt lat="60.37397" lon="7.57719">
        <ele>1301.76</ele>
        <time>2019-04-02T10:44:01Z</time>
      </trkpt>
      <trkpt lat="60.37398" lon="7.57772">
        <ele>1303.2</ele>
        <time>2019-04-02T10:44:06Z</time>
      </trkpt>
      <trkpt lat="60.37399" lon="7.57794">
        <ele>1303.69</ele>
        <time>2019-04-02T10:44:08Z</time>
      </trkpt>
      <trkpt lat="60.37398" lon="7.57806">
        <ele>1303.69</ele>
        <time>2019-04-02T10:44:09Z</time>
      </trkpt>
      <trkpt lat="60.37398" lon="7.57839">
        <ele>1305.13</ele>
        <time>2019-04-02T10:44:12Z</time>
      </trkpt>
      <trkpt lat="60.37397" lon="7.57886">
        <ele>1307.05</ele>
        <time>2019-04-02T10:44:16Z</time>
      </trkpt>
      <trkpt lat="60.37398" lon="7.57924">
        <ele>1308.01</ele>
        <time>2019-04-02T10:44:19Z</time>
      </trkpt>
      <trkpt lat="60.37404" lon="7.58042">
        <ele>1309.45</ele>
        <time>2019-04-02T10:44:29Z</time>
      </trkpt>
      <trkpt lat="60.37412" lon="7.58147">
        <ele>1309.93</ele>
        <time>2019-04-02T10:44:37Z</time>
      </trkpt>
      <trkpt lat="60.37415" lon="7.58187">
        <ele>1308.01</ele>
        <time>2019-04-02T10:44:40Z</time>
      </trkpt>
      <trkpt lat="60.3742" lon="7.58252">
        <ele>1307.53</ele>
        <time>2019-04-02T10:44:44Z</time>
      </trkpt>
      <trkpt lat="60.37434" lon="7.5837">
        <ele>1306.09</ele>
        <time>2019-04-02T10:44:51Z</time>
      </trkpt>
      <trkpt lat="60.37437" lon="7.58414">
        <ele>1307.05</ele>
        <time>2019-04-02T10:44:54Z</time>
      </trkpt>
      <trkpt lat="60.37439" lon="7.58425">
        <ele>1308.01</ele>
        <time>2019-04-02T10:44:56Z</time>
      </trkpt>
      <trkpt lat="60.37434" lon="7.58412">
        <ele>1304.17</ele>
        <time>2019-04-02T10:44:59Z</time>
      </trkpt>
      <trkpt lat="60.37429" lon="7.58405">
        <ele>1298.4</ele>
        <time>2019-04-02T10:45:00Z</time>
      </trkpt>
      <trkpt lat="60.37404" lon="7.58367">
        <ele>1298.4</ele>
        <time>2019-04-02T10:45:04Z</time>
      </trkpt>
      <trkpt lat="60.3739" lon="7.5834">
        <ele>1302.72</ele>
        <time>2019-04-02T10:45:07Z</time>
      </trkpt>
      <trkpt lat="60.37382" lon="7.5832">
        <ele>1305.13</ele>
        <time>2019-04-02T10:45:09Z</time>
      </trkpt>
      <trkpt lat="60.37373" lon="7.58299">
        <ele>1305.13</ele>
        <time>2019-04-02T10:45:11Z</time>
      </trkpt>
      <trkpt lat="60.37357" lon="7.58269">
        <ele>1306.57</ele>
        <time>2019-04-02T10:45:14Z</time>
      </trkpt>
      <trkpt lat="60.3734" lon="7.58243">
        <ele>1308.49</ele>
        <time>2019-04-02T10:45:17Z</time>
      </trkpt>
      <trkpt lat="60.37304" lon="7.58201">
        <ele>1306.57</ele>
        <time>2019-04-02T10:45:23Z</time>
      </trkpt>
      <trkpt lat="60.37291" lon="7.5819">
        <ele>1303.69</ele>
        <time>2019-04-02T10:45:25Z</time>
      </trkpt>
      <trkpt lat="60.37271" lon="7.58172">
        <ele>1301.28</ele>
        <time>2019-04-02T10:45:28Z</time>
      </trkpt>
      <trkpt lat="60.37244" lon="7.58141">
        <ele>1297.92</ele>
        <time>2019-04-02T10:45:32Z</time>
      </trkpt>
      <trkpt lat="60.37218" lon="7.58112">
        <ele>1300.8</ele>
        <time>2019-04-02T10:45:36Z</time>
      </trkpt>
      <trkpt lat="60.37205" lon="7.58095">
        <ele>1303.2</ele>
        <time>2019-04-02T10:45:38Z</time>
      </trkpt>
      <trkpt lat="60.37199" lon="7.58088">
        <ele>1299.84</ele>
        <time>2019-04-02T10:45:39Z</time>
      </trkpt>
      <trkpt lat="60.37192" lon="7.5808">
        <ele>1300.32</ele>
        <time>2019-04-02T10:45:40Z</time>
      </trkpt>
      <trkpt lat="60.37152" lon="7.58021">
        <ele>1299.36</ele>
        <time>2019-04-02T10:45:46Z</time>
      </trkpt>
      <trkpt lat="60.37122" lon="7.57957">
        <ele>1300.8</ele>
        <time>2019-04-02T10:45:51Z</time>
      </trkpt>
      <trkpt lat="60.37115" lon="7.57942">
        <ele>1297.44</ele>
        <time>2019-04-02T10:45:52Z</time>
      </trkpt>
      <trkpt lat="60.37098" lon="7.57895">
        <ele>1300.8</ele>
        <time>2019-04-02T10:45:55Z</time>
      </trkpt>
      <trkpt lat="60.37093" lon="7.57881">
        <ele>1301.76</ele>
        <time>2019-04-02T10:45:56Z</time>
      </trkpt>
      <trkpt lat="60.37084" lon="7.5786">
        <ele>1308.97</ele>
        <time>2019-04-02T10:45:58Z</time>
      </trkpt>
      <trkpt lat="60.3708" lon="7.57851">
        <ele>1307.53</ele>
        <time>2019-04-02T10:45:59Z</time>
      </trkpt>
      <trkpt lat="60.37082" lon="7.57855">
        <ele>1308.97</ele>
        <time>2019-04-02T10:46:04Z</time>
      </trkpt>
      <trkpt lat="60.37082" lon="7.5788">
        <ele>1309.93</ele>
        <time>2019-04-02T10:46:06Z</time>
      </trkpt>
      <trkpt lat="60.3708" lon="7.57921">
        <ele>1307.05</ele>
        <time>2019-04-02T10:46:10Z</time>
      </trkpt>
      <trkpt lat="60.37082" lon="7.57928">
        <ele>1305.13</ele>
        <time>2019-04-02T10:46:15Z</time>
      </trkpt>
      <trkpt lat="60.37093" lon="7.5796">
        <ele>1307.05</ele>
        <time>2019-04-02T10:46:22Z</time>
      </trkpt>
      <trkpt lat="60.37093" lon="7.57991">
        <ele>1307.53</ele>
        <time>2019-04-02T10:46:24Z</time>
      </trkpt>
      <trkpt lat="60.37099" lon="7.58089">
        <ele>1306.09</ele>
        <time>2019-04-02T10:46:30Z</time>
      </trkpt>
      <trkpt lat="60.37116" lon="7.58219">
        <ele>1306.09</ele>
        <time>2019-04-02T10:46:38Z</time>
      </trkpt>
      <trkpt lat="60.37124" lon="7.58232">
        <ele>1303.2</ele>
        <time>2019-04-02T10:46:41Z</time>
      </trkpt>
      <trkpt lat="60.37114" lon="7.58204">
        <ele>1301.76</ele>
        <time>2019-04-02T10:46:45Z</time>
      </trkpt>
      <trkpt lat="60.37091" lon="7.58158">
        <ele>1297.44</ele>
        <time>2019-04-02T10:46:49Z</time>
      </trkpt>
      <trkpt lat="60.37078" lon="7.58136">
        <ele>1300.32</ele>
        <time>2019-04-02T10:46:51Z</time>
      </trkpt>
      <trkpt lat="60.37065" lon="7.5812">
        <ele>1301.28</ele>
        <time>2019-04-02T10:46:53Z</time>
      </trkpt>
      <trkpt lat="60.37053" lon="7.58103">
        <ele>1297.92</ele>
        <time>2019-04-02T10:46:55Z</time>
      </trkpt>
      <trkpt lat="60.37047" lon="7.58095">
        <ele>1297.92</ele>
        <time>2019-04-02T10:46:56Z</time>
      </trkpt>
      <trkpt lat="60.37042" lon="7.58086">
        <ele>1297.92</ele>
        <time>2019-04-02T10:46:57Z</time>
      </trkpt>
      <trkpt lat="60.37025" lon="7.58055">
        <ele>1297.44</ele>
        <time>2019-04-02T10:47:00Z</time>
      </trkpt>
      <trkpt lat="60.37017" lon="7.58029">
        <ele>1295.51</ele>
        <time>2019-04-02T10:47:02Z</time>
      </trkpt>
      <trkpt lat="60.37013" lon="7.58014">
        <ele>1301.28</ele>
        <time>2019-04-02T10:47:03Z</time>
      </trkpt>
      <trkpt lat="60.36993" lon="7.57965">
        <ele>1303.69</ele>
        <time>2019-04-02T10:47:08Z</time>
      </trkpt>
      <trkpt lat="60.36976" lon="7.57954">
        <ele>1300.8</ele>
        <time>2019-04-02T10:47:13Z</time>
      </trkpt>
      <trkpt lat="60.36973" lon="7.57953">
        <ele>1303.69</ele>
        <time>2019-04-02T10:47:15Z</time>
      </trkpt>
      <trkpt lat="60.36972" lon="7.57952">
        <ele>1301.76</ele>
        <time>2019-04-02T10:47:17Z</time>
      </trkpt>
      <trkpt lat="60.36972" lon="7.57951">
        <ele>1306.57</ele>
        <time>2019-04-02T10:47:19Z</time>
      </trkpt>
      <trkpt lat="60.36972" lon="7.5795">
        <ele>1307.53</ele>
        <time>2019-04-02T10:47:20Z</time>
      </trkpt>
      <trkpt lat="60.36969" lon="7.57947">
        <ele>1301.28</ele>
        <time>2019-04-02T10:47:23Z</time>
      </trkpt>
      <trkpt lat="60.36967" lon="7.57947">
        <ele>1301.28</ele>
        <time>2019-04-02T10:47:24Z</time>
      </trkpt>
      <trkpt lat="60.36959" lon="7.57945">
        <ele>1298.88</ele>
        <time>2019-04-02T10:47:27Z</time>
      </trkpt>
      <trkpt lat="60.36947" lon="7.57944">
        <ele>1295.03</ele>
        <time>2019-04-02T10:47:30Z</time>
      </trkpt>
      <trkpt lat="60.36936" lon="7.5794">
        <ele>1290.23</ele>
        <time>2019-04-02T10:47:32Z</time>
      </trkpt>
      <trkpt lat="60.36922" lon="7.57933">
        <ele>1287.82</ele>
        <time>2019-04-02T10:47:34Z</time>
      </trkpt>
      <trkpt lat="60.36907" lon="7.57926">
        <ele>1284.94</ele>
        <time>2019-04-02T10:47:36Z</time>
      </trkpt>
      <trkpt lat="60.36887" lon="7.57919">
        <ele>1281.57</ele>
        <time>2019-04-02T10:47:39Z</time>
      </trkpt>
      <trkpt lat="60.3688" lon="7.57916">
        <ele>1281.57</ele>
        <time>2019-04-02T10:47:40Z</time>
      </trkpt>
      <trkpt lat="60.3686" lon="7.57902">
        <ele>1279.17</ele>
        <time>2019-04-02T10:47:43Z</time>
      </trkpt>
      <trkpt lat="60.36832" lon="7.57873">
        <ele>1276.77</ele>
        <time>2019-04-02T10:47:47Z</time>
      </trkpt>
      <trkpt lat="60.36811" lon="7.57835">
        <ele>1269.56</ele>
        <time>2019-04-02T10:47:50Z</time>
      </trkpt>
      <trkpt lat="60.3679" lon="7.57798">
        <ele>1269.08</ele>
        <time>2019-04-02T10:47:53Z</time>
      </trkpt>
      <trkpt lat="60.36771" lon="7.57773">
        <ele>1268.12</ele>
        <time>2019-04-02T10:47:56Z</time>
      </trkpt>
      <trkpt lat="60.36765" lon="7.57766">
        <ele>1269.56</ele>
        <time>2019-04-02T10:47:57Z</time>
      </trkpt>
      <trkpt lat="60.36747" lon="7.57753">
        <ele>1270.52</ele>
        <time>2019-04-02T10:48:01Z</time>
      </trkpt>
      <trkpt lat="60.36738" lon="7.57748">
        <ele>1269.08</ele>
        <time>2019-04-02T10:48:03Z</time>
      </trkpt>
      <trkpt lat="60.36726" lon="7.57738">
        <ele>1266.67</ele>
        <time>2019-04-02T10:48:06Z</time>
      </trkpt>
      <trkpt lat="60.36722" lon="7.5773">
        <ele>1271.48</ele>
        <time>2019-04-02T10:48:08Z</time>
      </trkpt>
      <trkpt lat="60.36723" lon="7.5773">
        <ele>1273.88</ele>
        <time>2019-04-02T10:48:10Z</time>
      </trkpt>
      <trkpt lat="60.36721" lon="7.57728">
        <ele>1273.88</ele>
        <time>2019-04-02T10:48:13Z</time>
      </trkpt>
      <trkpt lat="60.36705" lon="7.57725">
        <ele>1269.56</ele>
        <time>2019-04-02T10:48:17Z</time>
      </trkpt>
      <trkpt lat="60.36692" lon="7.57725">
        <ele>1271</ele>
        <time>2019-04-02T10:48:20Z</time>
      </trkpt>
      <trkpt lat="60.36671" lon="7.57719">
        <ele>1264.27</ele>
        <time>2019-04-02T10:48:24Z</time>
      </trkpt>
      <trkpt lat="60.36665" lon="7.57716">
        <ele>1262.83</ele>
        <time>2019-04-02T10:48:25Z</time>
      </trkpt>
      <trkpt lat="60.36646" lon="7.57706">
        <ele>1260.43</ele>
        <time>2019-04-02T10:48:28Z</time>
      </trkpt>
      <trkpt lat="60.36633" lon="7.57695">
        <ele>1261.87</ele>
        <time>2019-04-02T10:48:30Z</time>
      </trkpt>
      <trkpt lat="60.3662" lon="7.57681">
        <ele>1258.98</ele>
        <time>2019-04-02T10:48:32Z</time>
      </trkpt>
      <trkpt lat="60.36609" lon="7.57661">
        <ele>1257.54</ele>
        <time>2019-04-02T10:48:34Z</time>
      </trkpt>
      <trkpt lat="60.36598" lon="7.57641">
        <ele>1253.7</ele>
        <time>2019-04-02T10:48:36Z</time>
      </trkpt>
      <trkpt lat="60.36592" lon="7.57631">
        <ele>1253.7</ele>
        <time>2019-04-02T10:48:37Z</time>
      </trkpt>
      <trkpt lat="60.36587" lon="7.57621">
        <ele>1257.54</ele>
        <time>2019-04-02T10:48:38Z</time>
      </trkpt>
      <trkpt lat="60.36575" lon="7.57604">
        <ele>1258.02</ele>
        <time>2019-04-02T10:48:40Z</time>
      </trkpt>
      <trkpt lat="60.36558" lon="7.57579">
        <ele>1256.58</ele>
        <time>2019-04-02T10:48:43Z</time>
      </trkpt>
      <trkpt lat="60.36549" lon="7.57558">
        <ele>1258.98</ele>
        <time>2019-04-02T10:48:45Z</time>
      </trkpt>
      <trkpt lat="60.3654" lon="7.57534">
        <ele>1262.83</ele>
        <time>2019-04-02T10:48:47Z</time>
      </trkpt>
      <trkpt lat="60.3653" lon="7.57512">
        <ele>1264.27</ele>
        <time>2019-04-02T10:48:49Z</time>
      </trkpt>
      <trkpt lat="60.36502" lon="7.57465">
        <ele>1265.23</ele>
        <time>2019-04-02T10:48:54Z</time>
      </trkpt>
      <trkpt lat="60.36492" lon="7.57443">
        <ele>1264.75</ele>
        <time>2019-04-02T10:48:56Z</time>
      </trkpt>
      <trkpt lat="60.3648" lon="7.57408">
        <ele>1263.31</ele>
        <time>2019-04-02T10:48:59Z</time>
      </trkpt>
      <trkpt lat="60.36482" lon="7.57384">
        <ele>1259.94</ele>
        <time>2019-04-02T10:49:02Z</time>
      </trkpt>
      <trkpt lat="60.36483" lon="7.57384">
        <ele>1259.94</ele>
        <time>2019-04-02T10:49:03Z</time>
      </trkpt>
      <trkpt lat="60.36484" lon="7.57386">
        <ele>1261.87</ele>
        <time>2019-04-02T10:49:22Z</time>
      </trkpt>
      <trkpt lat="60.36483" lon="7.57384">
        <ele>1261.87</ele>
        <time>2019-04-02T10:49:50Z</time>
      </trkpt>
      <trkpt lat="60.36484" lon="7.57379">
        <ele>1260.91</ele>
        <time>2019-04-02T10:49:55Z</time>
      </trkpt>
      <trkpt lat="60.36484" lon="7.57376">
        <ele>1260.91</ele>
        <time>2019-04-02T10:49:57Z</time>
      </trkpt>
      <trkpt lat="60.36472" lon="7.57315">
        <ele>1259.46</ele>
        <time>2019-04-02T10:50:05Z</time>
      </trkpt>
      <trkpt lat="60.3646" lon="7.57207">
        <ele>1258.5</ele>
        <time>2019-04-02T10:50:12Z</time>
      </trkpt>
      <trkpt lat="60.36419" lon="7.57024">
        <ele>1259.94</ele>
        <time>2019-04-02T10:50:23Z</time>
      </trkpt>
      <trkpt lat="60.3641" lon="7.56982">
        <ele>1258.02</ele>
        <time>2019-04-02T10:50:26Z</time>
      </trkpt>
      <trkpt lat="60.36404" lon="7.56957">
        <ele>1258.02</ele>
        <time>2019-04-02T10:50:28Z</time>
      </trkpt>
      <trkpt lat="60.36391" lon="7.56929">
        <ele>1259.94</ele>
        <time>2019-04-02T10:50:34Z</time>
      </trkpt>
      <trkpt lat="60.36387" lon="7.56926">
        <ele>1260.91</ele>
        <time>2019-04-02T10:50:50Z</time>
      </trkpt>
      <trkpt lat="60.36385" lon="7.56922">
        <ele>1259.94</ele>
        <time>2019-04-02T10:51:05Z</time>
      </trkpt>
      <trkpt lat="60.36383" lon="7.56917">
        <ele>1261.39</ele>
        <time>2019-04-02T10:51:10Z</time>
      </trkpt>
      <trkpt lat="60.36381" lon="7.56914">
        <ele>1262.83</ele>
        <time>2019-04-02T10:51:19Z</time>
      </trkpt>
      <trkpt lat="60.36378" lon="7.56904">
        <ele>1262.83</ele>
        <time>2019-04-02T10:51:26Z</time>
      </trkpt>
      <trkpt lat="60.36381" lon="7.56906">
        <ele>1262.35</ele>
        <time>2019-04-02T10:51:44Z</time>
      </trkpt>
      <trkpt lat="60.36407" lon="7.56898">
        <ele>1260.91</ele>
        <time>2019-04-02T10:51:50Z</time>
      </trkpt>
      <trkpt lat="60.36425" lon="7.56938">
        <ele>1263.79</ele>
        <time>2019-04-02T10:51:53Z</time>
      </trkpt>
      <trkpt lat="60.36455" lon="7.57024">
        <ele>1264.27</ele>
        <time>2019-04-02T10:51:58Z</time>
      </trkpt>
      <trkpt lat="60.36512" lon="7.57193">
        <ele>1262.83</ele>
        <time>2019-04-02T10:52:07Z</time>
      </trkpt>
      <trkpt lat="60.36571" lon="7.57362">
        <ele>1262.83</ele>
        <time>2019-04-02T10:52:17Z</time>
      </trkpt>
      <trkpt lat="60.36579" lon="7.57393">
        <ele>1260.43</ele>
        <time>2019-04-02T10:52:21Z</time>
      </trkpt>
      <trkpt lat="60.36576" lon="7.57387">
        <ele>1258.98</ele>
        <time>2019-04-02T10:52:24Z</time>
      </trkpt>
      <trkpt lat="60.36574" lon="7.57382">
        <ele>1260.91</ele>
        <time>2019-04-02T10:52:26Z</time>
      </trkpt>
      <trkpt lat="60.36572" lon="7.57376">
        <ele>1262.35</ele>
        <time>2019-04-02T10:52:28Z</time>
      </trkpt>
      <trkpt lat="60.36569" lon="7.57372">
        <ele>1260.43</ele>
        <time>2019-04-02T10:52:29Z</time>
      </trkpt>
      <trkpt lat="60.36558" lon="7.57357">
        <ele>1258.98</ele>
        <time>2019-04-02T10:52:32Z</time>
      </trkpt>
      <trkpt lat="60.36553" lon="7.57351">
        <ele>1257.54</ele>
        <time>2019-04-02T10:52:33Z</time>
      </trkpt>
      <trkpt lat="60.36543" lon="7.57341">
        <ele>1256.58</ele>
        <time>2019-04-02T10:52:35Z</time>
      </trkpt>
      <trkpt lat="60.36517" lon="7.57311">
        <ele>1256.58</ele>
        <time>2019-04-02T10:52:40Z</time>
      </trkpt>
      <trkpt lat="60.36499" lon="7.57285">
        <ele>1254.66</ele>
        <time>2019-04-02T10:52:44Z</time>
      </trkpt>
      <trkpt lat="60.36496" lon="7.57283">
        <ele>1258.02</ele>
        <time>2019-04-02T10:52:47Z</time>
      </trkpt>
      <trkpt lat="60.36495" lon="7.57282">
        <ele>1258.02</ele>
        <time>2019-04-02T10:52:48Z</time>
      </trkpt>
      <trkpt lat="60.36495" lon="7.57282">
        <ele>1258.98</ele>
        <time>2019-04-02T10:52:49Z</time>
      </trkpt>
      <trkpt lat="60.36493" lon="7.57278">
        <ele>1257.06</ele>
        <time>2019-04-02T10:52:53Z</time>
      </trkpt>
      <trkpt lat="60.36492" lon="7.57276">
        <ele>1258.5</ele>
        <time>2019-04-02T10:52:58Z</time>
      </trkpt>
      <trkpt lat="60.36491" lon="7.57275">
        <ele>1258.5</ele>
        <time>2019-04-02T10:53:00Z</time>
      </trkpt>
      <trkpt lat="60.3649" lon="7.57268">
        <ele>1260.43</ele>
        <time>2019-04-02T10:53:03Z</time>
      </trkpt>
      <trkpt lat="60.36503" lon="7.57267">
        <ele>1258.98</ele>
        <time>2019-04-02T10:53:08Z</time>
      </trkpt>
      <trkpt lat="60.36549" lon="7.57367">
        <ele>1263.31</ele>
        <time>2019-04-02T10:53:16Z</time>
      </trkpt>
      <trkpt lat="60.36611" lon="7.57495">
        <ele>1265.23</ele>
        <time>2019-04-02T10:53:24Z</time>
      </trkpt>
      <trkpt lat="60.36628" lon="7.57528">
        <ele>1265.23</ele>
        <time>2019-04-02T10:53:26Z</time>
      </trkpt>
      <trkpt lat="60.36642" lon="7.57558">
        <ele>1266.67</ele>
        <time>2019-04-02T10:53:28Z</time>
      </trkpt>
      <trkpt lat="60.3668" lon="7.57629">
        <ele>1269.56</ele>
        <time>2019-04-02T10:53:33Z</time>
      </trkpt>
      <trkpt lat="60.3671" lon="7.57688">
        <ele>1273.4</ele>
        <time>2019-04-02T10:53:37Z</time>
      </trkpt>
      <trkpt lat="60.36718" lon="7.57702">
        <ele>1273.4</ele>
        <time>2019-04-02T10:53:38Z</time>
      </trkpt>
      <trkpt lat="60.36782" lon="7.5781">
        <ele>1276.29</ele>
        <time>2019-04-02T10:53:46Z</time>
      </trkpt>
      <trkpt lat="60.36791" lon="7.57824">
        <ele>1276.29</ele>
        <time>2019-04-02T10:53:47Z</time>
      </trkpt>
      <trkpt lat="60.36822" lon="7.5788">
        <ele>1281.09</ele>
        <time>2019-04-02T10:53:51Z</time>
      </trkpt>
      <trkpt lat="60.36836" lon="7.57905">
        <ele>1282.54</ele>
        <time>2019-04-02T10:53:53Z</time>
      </trkpt>
      <trkpt lat="60.36858" lon="7.57935">
        <ele>1285.9</ele>
        <time>2019-04-02T10:53:56Z</time>
      </trkpt>
      <trkpt lat="60.36888" lon="7.57973">
        <ele>1289.75</ele>
        <time>2019-04-02T10:54:00Z</time>
      </trkpt>
      <trkpt lat="60.3691" lon="7.58002">
        <ele>1293.59</ele>
        <time>2019-04-02T10:54:03Z</time>
      </trkpt>
      <trkpt lat="60.36926" lon="7.5802">
        <ele>1295.99</ele>
        <time>2019-04-02T10:54:05Z</time>
      </trkpt>
      <trkpt lat="60.36948" lon="7.58052">
        <ele>1299.84</ele>
        <time>2019-04-02T10:54:09Z</time>
      </trkpt>
      <trkpt lat="60.36952" lon="7.58057">
        <ele>1300.32</ele>
        <time>2019-04-02T10:54:10Z</time>
      </trkpt>
      <trkpt lat="60.36966" lon="7.58075">
        <ele>1302.24</ele>
        <time>2019-04-02T10:54:14Z</time>
      </trkpt>
      <trkpt lat="60.37032" lon="7.58139">
        <ele>1302.24</ele>
        <time>2019-04-02T10:54:28Z</time>
      </trkpt>
      <trkpt lat="60.37053" lon="7.58163">
        <ele>1302.24</ele>
        <time>2019-04-02T10:54:32Z</time>
      </trkpt>
      <trkpt lat="60.37064" lon="7.58203">
        <ele>1302.24</ele>
        <time>2019-04-02T10:54:37Z</time>
      </trkpt>
      <trkpt lat="60.37064" lon="7.58219">
        <ele>1302.24</ele>
        <time>2019-04-02T10:54:39Z</time>
      </trkpt>
      <trkpt lat="60.37065" lon="7.58226">
        <ele>1302.24</ele>
        <time>2019-04-02T10:54:46Z</time>
      </trkpt>
      <trkpt lat="60.37057" lon="7.58175">
        <ele>1299.36</ele>
        <time>2019-04-02T10:55:00Z</time>
      </trkpt>
      <trkpt lat="60.37048" lon="7.58162">
        <ele>1302.24</ele>
        <time>2019-04-02T10:55:06Z</time>
      </trkpt>
      <trkpt lat="60.37042" lon="7.58156">
        <ele>1300.8</ele>
        <time>2019-04-02T10:55:09Z</time>
      </trkpt>
      <trkpt lat="60.37034" lon="7.58147">
        <ele>1302.72</ele>
        <time>2019-04-02T10:55:19Z</time>
      </trkpt>
      <trkpt lat="60.37025" lon="7.58141">
        <ele>1300.8</ele>
        <time>2019-04-02T10:55:22Z</time>
      </trkpt>
      <trkpt lat="60.37019" lon="7.58136">
        <ele>1299.36</ele>
        <time>2019-04-02T10:55:24Z</time>
      </trkpt>
      <trkpt lat="60.36992" lon="7.58114">
        <ele>1297.44</ele>
        <time>2019-04-02T10:55:32Z</time>
      </trkpt>
      <trkpt lat="60.36985" lon="7.58108">
        <ele>1295.99</ele>
        <time>2019-04-02T10:55:34Z</time>
      </trkpt>
      <trkpt lat="60.36981" lon="7.58105">
        <ele>1295.99</ele>
        <time>2019-04-02T10:55:35Z</time>
      </trkpt>
      <trkpt lat="60.3697" lon="7.58089">
        <ele>1299.36</ele>
        <time>2019-04-02T10:55:38Z</time>
      </trkpt>
      <trkpt lat="60.36953" lon="7.58058">
        <ele>1293.11</ele>
        <time>2019-04-02T10:55:44Z</time>
      </trkpt>
      <trkpt lat="60.36949" lon="7.58052">
        <ele>1297.44</ele>
        <time>2019-04-02T10:55:46Z</time>
      </trkpt>
      <trkpt lat="60.36947" lon="7.5805">
        <ele>1296.48</ele>
        <time>2019-04-02T10:55:47Z</time>
      </trkpt>
      <trkpt lat="60.36944" lon="7.58047">
        <ele>1299.36</ele>
        <time>2019-04-02T10:55:49Z</time>
      </trkpt>
      <trkpt lat="60.36942" lon="7.58043">
        <ele>1300.32</ele>
        <time>2019-04-02T10:55:50Z</time>
      </trkpt>
      <trkpt lat="60.36934" lon="7.58033">
        <ele>1295.03</ele>
        <time>2019-04-02T10:55:52Z</time>
      </trkpt>
      <trkpt lat="60.36929" lon="7.58028">
        <ele>1294.07</ele>
        <time>2019-04-02T10:55:53Z</time>
      </trkpt>
      <trkpt lat="60.36918" lon="7.58013">
        <ele>1291.19</ele>
        <time>2019-04-02T10:55:55Z</time>
      </trkpt>
      <trkpt lat="60.36905" lon="7.57998">
        <ele>1288.78</ele>
        <time>2019-04-02T10:55:57Z</time>
      </trkpt>
      <trkpt lat="60.36897" lon="7.57987">
        <ele>1285.42</ele>
        <time>2019-04-02T10:55:58Z</time>
      </trkpt>
      <trkpt lat="60.3689" lon="7.57977">
        <ele>1282.06</ele>
        <time>2019-04-02T10:55:59Z</time>
      </trkpt>
      <trkpt lat="60.36881" lon="7.57966">
        <ele>1283.5</ele>
        <time>2019-04-02T10:56:00Z</time>
      </trkpt>
      <trkpt lat="60.36874" lon="7.57954">
        <ele>1280.13</ele>
        <time>2019-04-02T10:56:01Z</time>
      </trkpt>
      <trkpt lat="60.36844" lon="7.57903">
        <ele>1278.21</ele>
        <time>2019-04-02T10:56:05Z</time>
      </trkpt>
      <trkpt lat="60.36824" lon="7.57852">
        <ele>1268.6</ele>
        <time>2019-04-02T10:56:08Z</time>
      </trkpt>
      <trkpt lat="60.36813" lon="7.57807">
        <ele>1266.19</ele>
        <time>2019-04-02T10:56:10Z</time>
      </trkpt>
      <trkpt lat="60.368" lon="7.57739">
        <ele>1265.71</ele>
        <time>2019-04-02T10:56:13Z</time>
      </trkpt>
      <trkpt lat="60.36778" lon="7.57666">
        <ele>1265.71</ele>
        <time>2019-04-02T10:56:17Z</time>
      </trkpt>
      <trkpt lat="60.36758" lon="7.57631">
        <ele>1262.35</ele>
        <time>2019-04-02T10:56:20Z</time>
      </trkpt>
      <trkpt lat="60.3675" lon="7.57624">
        <ele>1262.35</ele>
        <time>2019-04-02T10:56:21Z</time>
      </trkpt>
      <trkpt lat="60.36744" lon="7.57616">
        <ele>1263.79</ele>
        <time>2019-04-02T10:56:22Z</time>
      </trkpt>
      <trkpt lat="60.36692" lon="7.57578">
        <ele>1267.64</ele>
        <time>2019-04-02T10:56:30Z</time>
      </trkpt>
      <trkpt lat="60.36679" lon="7.57571">
        <ele>1261.39</ele>
        <time>2019-04-02T10:56:32Z</time>
      </trkpt>
      <trkpt lat="60.36663" lon="7.5756">
        <ele>1260.91</ele>
        <time>2019-04-02T10:56:35Z</time>
      </trkpt>
      <trkpt lat="60.36651" lon="7.57545">
        <ele>1263.79</ele>
        <time>2019-04-02T10:56:38Z</time>
      </trkpt>
      <trkpt lat="60.36641" lon="7.57535">
        <ele>1262.35</ele>
        <time>2019-04-02T10:56:40Z</time>
      </trkpt>
      <trkpt lat="60.36631" lon="7.57525">
        <ele>1258.02</ele>
        <time>2019-04-02T10:56:42Z</time>
      </trkpt>
      <trkpt lat="60.36625" lon="7.57522">
        <ele>1258.5</ele>
        <time>2019-04-02T10:56:43Z</time>
      </trkpt>
      <trkpt lat="60.36614" lon="7.57513">
        <ele>1257.06</ele>
        <time>2019-04-02T10:56:45Z</time>
      </trkpt>
      <trkpt lat="60.36609" lon="7.57508">
        <ele>1257.06</ele>
        <time>2019-04-02T10:56:46Z</time>
      </trkpt>
      <trkpt lat="60.36592" lon="7.5749">
        <ele>1255.62</ele>
        <time>2019-04-02T10:56:49Z</time>
      </trkpt>
      <trkpt lat="60.36577" lon="7.57464">
        <ele>1254.18</ele>
        <time>2019-04-02T10:56:52Z</time>
      </trkpt>
      <trkpt lat="60.36557" lon="7.57429">
        <ele>1256.58</ele>
        <time>2019-04-02T10:56:57Z</time>
      </trkpt>
      <trkpt lat="60.36555" lon="7.57426">
        <ele>1256.58</ele>
        <time>2019-04-02T10:56:58Z</time>
      </trkpt>
      <trkpt lat="60.3655" lon="7.57424">
        <ele>1255.14</ele>
        <time>2019-04-02T10:57:00Z</time>
      </trkpt>
      <trkpt lat="60.36547" lon="7.57422">
        <ele>1258.02</ele>
        <time>2019-04-02T10:57:02Z</time>
      </trkpt>
      <trkpt lat="60.36547" lon="7.57379">
        <ele>1257.06</ele>
        <time>2019-04-02T10:57:10Z</time>
      </trkpt>
      <trkpt lat="60.36548" lon="7.57371">
        <ele>1257.06</ele>
        <time>2019-04-02T10:57:11Z</time>
      </trkpt>
      <trkpt lat="60.36552" lon="7.5736">
        <ele>1258.98</ele>
        <time>2019-04-02T10:57:13Z</time>
      </trkpt>
      <trkpt lat="60.36556" lon="7.57374">
        <ele>1259.94</ele>
        <time>2019-04-02T10:57:16Z</time>
      </trkpt>
      <trkpt lat="60.36558" lon="7.57379">
        <ele>1259.46</ele>
        <time>2019-04-02T10:57:33Z</time>
      </trkpt>
      <trkpt lat="60.36558" lon="7.57379">
        <ele>1259.46</ele>
        <time>2019-04-02T10:57:56Z</time>
      </trkpt>
      <trkpt lat="60.36558" lon="7.5738">
        <ele>1259.46</ele>
        <time>2019-04-02T10:58:22Z</time>
      </trkpt>
      <trkpt lat="60.36558" lon="7.57379">
        <ele>1258.98</ele>
        <time>2019-04-02T10:58:27Z</time>
      </trkpt>
      <trkpt lat="60.36561" lon="7.57363">
        <ele>1258.98</ele>
        <time>2019-04-02T10:58:36Z</time>
      </trkpt>
      <trkpt lat="60.3656" lon="7.57363">
        <ele>1259.94</ele>
        <time>2019-04-02T10:58:58Z</time>
      </trkpt>
      <trkpt lat="60.36561" lon="7.57362">
        <ele>1258.02</ele>
        <time>2019-04-02T10:59:20Z</time>
      </trkpt>
      <trkpt lat="60.36562" lon="7.57362">
        <ele>1258.5</ele>
        <time>2019-04-02T10:59:32Z</time>
      </trkpt>
      <trkpt lat="60.36562" lon="7.57359">
        <ele>1258.5</ele>
        <time>2019-04-02T10:59:51Z</time>
      </trkpt>
      <trkpt lat="60.36563" lon="7.57359">
        <ele>1258.5</ele>
        <time>2019-04-02T11:00:12Z</time>
      </trkpt>
      <trkpt lat="60.36562" lon="7.57358">
        <ele>1255.14</ele>
        <time>2019-04-02T11:00:16Z</time>
      </trkpt>
      <trkpt lat="60.36562" lon="7.57358">
        <ele>1255.14</ele>
        <time>2019-04-02T11:00:17Z</time>
      </trkpt>
      <trkpt lat="60.36562" lon="7.57358">
        <ele>1258.98</ele>
        <time>2019-04-02T11:00:21Z</time>
      </trkpt>
      <trkpt lat="60.36563" lon="7.57358">
        <ele>1258.98</ele>
        <time>2019-04-02T11:00:22Z</time>
      </trkpt>
      <trkpt lat="60.36562" lon="7.57357">
        <ele>1254.18</ele>
        <time>2019-04-02T11:00:23Z</time>
      </trkpt>
      <trkpt lat="60.36562" lon="7.57356">
        <ele>1257.54</ele>
        <time>2019-04-02T11:00:24Z</time>
      </trkpt>
      <trkpt lat="60.36563" lon="7.57357">
        <ele>1258.98</ele>
        <time>2019-04-02T11:00:28Z</time>
      </trkpt>
      <trkpt lat="60.36562" lon="7.57353">
        <ele>1257.54</ele>
        <time>2019-04-02T11:00:33Z</time>
      </trkpt>
      <trkpt lat="60.3656" lon="7.57353">
        <ele>1256.58</ele>
        <time>2019-04-02T11:00:35Z</time>
      </trkpt>
      <trkpt lat="60.36555" lon="7.57343">
        <ele>1257.54</ele>
        <time>2019-04-02T11:00:40Z</time>
      </trkpt>
      <trkpt lat="60.36555" lon="7.57343">
        <ele>1256.58</ele>
        <time>2019-04-02T11:00:43Z</time>
      </trkpt>
      <trkpt lat="60.36555" lon="7.57343">
        <ele>1256.58</ele>
        <time>2019-04-02T11:00:50Z</time>
      </trkpt>
      <trkpt lat="60.36555" lon="7.57343">
        <ele>1255.14</ele>
        <time>2019-04-02T11:00:58Z</time>
      </trkpt>
      <trkpt lat="60.36555" lon="7.57343">
        <ele>1257.06</ele>
        <time>2019-04-02T11:01:03Z</time>
      </trkpt>
      <trkpt lat="60.36554" lon="7.57343">
        <ele>1256.1</ele>
        <time>2019-04-02T11:01:17Z</time>
      </trkpt>
      <trkpt lat="60.36554" lon="7.57345">
        <ele>1252.74</ele>
        <time>2019-04-02T11:01:30Z</time>
      </trkpt>
      <trkpt lat="60.36554" lon="7.57344">
        <ele>1257.06</ele>
        <time>2019-04-02T11:01:31Z</time>
      </trkpt>
      <trkpt lat="60.36555" lon="7.57344">
        <ele>1252.74</ele>
        <time>2019-04-02T11:01:33Z</time>
      </trkpt>
      <trkpt lat="60.36555" lon="7.57343">
        <ele>1260.43</ele>
        <time>2019-04-02T11:01:34Z</time>
      </trkpt>
      <trkpt lat="60.36555" lon="7.57343">
        <ele>1256.1</ele>
        <time>2019-04-02T11:01:35Z</time>
      </trkpt>
      <trkpt lat="60.36556" lon="7.57346">
        <ele>1258.5</ele>
        <time>2019-04-02T11:01:47Z</time>
      </trkpt>
      <trkpt lat="60.36563" lon="7.57343">
        <ele>1258.5</ele>
        <time>2019-04-02T11:01:53Z</time>
      </trkpt>
      <trkpt lat="60.36578" lon="7.57334">
        <ele>1258.5</ele>
        <time>2019-04-02T11:02:09Z</time>
      </trkpt>
      <trkpt lat="60.36581" lon="7.57332">
        <ele>1258.98</ele>
        <time>2019-04-02T11:02:23Z</time>
      </trkpt>
      <trkpt lat="60.36581" lon="7.57332">
        <ele>1257.54</ele>
        <time>2019-04-02T11:02:26Z</time>
      </trkpt>
      <trkpt lat="60.36581" lon="7.57333">
        <ele>1257.06</ele>
        <time>2019-04-02T11:02:42Z</time>
      </trkpt>
      <trkpt lat="60.36582" lon="7.57333">
        <ele>1258.02</ele>
        <time>2019-04-02T11:02:54Z</time>
      </trkpt>
      <trkpt lat="60.36582" lon="7.57333">
        <ele>1256.58</ele>
        <time>2019-04-02T11:02:57Z</time>
      </trkpt>
      <trkpt lat="60.36581" lon="7.57332">
        <ele>1258.02</ele>
        <time>2019-04-02T11:03:30Z</time>
      </trkpt>
      <trkpt lat="60.36581" lon="7.5733">
        <ele>1258.02</ele>
        <time>2019-04-02T11:04:11Z</time>
      </trkpt>
      <trkpt lat="60.36582" lon="7.57331">
        <ele>1257.06</ele>
        <time>2019-04-02T11:04:54Z</time>
      </trkpt>
      <trkpt lat="60.36581" lon="7.57331">
        <ele>1258.5</ele>
        <time>2019-04-02T11:05:10Z</time>
      </trkpt>
      <trkpt lat="60.36581" lon="7.57331">
        <ele>1258.98</ele>
        <time>2019-04-02T11:05:55Z</time>
      </trkpt>
      <trkpt lat="60.36581" lon="7.57332">
        <ele>1257.54</ele>
        <time>2019-04-02T11:06:36Z</time>
      </trkpt>
      <trkpt lat="60.36581" lon="7.57332">
        <ele>1257.54</ele>
        <time>2019-04-02T11:07:22Z</time>
      </trkpt>
      <trkpt lat="60.36583" lon="7.57331">
        <ele>1257.06</ele>
        <time>2019-04-02T11:07:51Z</time>
      </trkpt>
      <trkpt lat="60.36582" lon="7.57327">
        <ele>1258.5</ele>
        <time>2019-04-02T11:08:04Z</time>
      </trkpt>
      <trkpt lat="60.36582" lon="7.57327">
        <ele>1258.5</ele>
        <time>2019-04-02T11:08:38Z</time>
      </trkpt>
      <trkpt lat="60.36582" lon="7.57327">
        <ele>1257.06</ele>
        <time>2019-04-02T11:09:15Z</time>
      </trkpt>
      <trkpt lat="60.36582" lon="7.57326">
        <ele>1258.02</ele>
        <time>2019-04-02T11:09:56Z</time>
      </trkpt>
      <trkpt lat="60.36583" lon="7.57327">
        <ele>1258.5</ele>
        <time>2019-04-02T11:10:27Z</time>
      </trkpt>
      <trkpt lat="60.36583" lon="7.57324">
        <ele>1258.98</ele>
        <time>2019-04-02T11:10:29Z</time>
      </trkpt>
      <trkpt lat="60.36584" lon="7.57328">
        <ele>1258.98</ele>
        <time>2019-04-02T11:10:46Z</time>
      </trkpt>
      <trkpt lat="60.36583" lon="7.57329">
        <ele>1259.46</ele>
        <time>2019-04-02T11:11:14Z</time>
      </trkpt>
      <trkpt lat="60.36583" lon="7.57328">
        <ele>1259.46</ele>
        <time>2019-04-02T11:11:15Z</time>
      </trkpt>
      <trkpt lat="60.36583" lon="7.57327">
        <ele>1258.02</ele>
        <time>2019-04-02T11:11:21Z</time>
      </trkpt>
      <trkpt lat="60.36583" lon="7.57326">
        <ele>1259.94</ele>
        <time>2019-04-02T11:11:33Z</time>
      </trkpt>
      <trkpt lat="60.36585" lon="7.57324">
        <ele>1258.98</ele>
        <time>2019-04-02T11:11:43Z</time>
      </trkpt>
      <trkpt lat="60.36583" lon="7.57329">
        <ele>1258.02</ele>
        <time>2019-04-02T11:12:04Z</time>
      </trkpt>
      <trkpt lat="60.36583" lon="7.5733">
        <ele>1258.98</ele>
        <time>2019-04-02T11:12:06Z</time>
      </trkpt>
      <trkpt lat="60.36583" lon="7.57331">
        <ele>1256.58</ele>
        <time>2019-04-02T11:12:15Z</time>
      </trkpt>
      <trkpt lat="60.36583" lon="7.5733">
        <ele>1258.02</ele>
        <time>2019-04-02T11:12:26Z</time>
      </trkpt>
      <trkpt lat="60.36583" lon="7.57328">
        <ele>1258.5</ele>
        <time>2019-04-02T11:12:46Z</time>
      </trkpt>
      <trkpt lat="60.36583" lon="7.57323">
        <ele>1258.98</ele>
        <time>2019-04-02T11:13:20Z</time>
      </trkpt>
      <trkpt lat="60.36583" lon="7.57321">
        <ele>1257.54</ele>
        <time>2019-04-02T11:13:38Z</time>
      </trkpt>
      <trkpt lat="60.36583" lon="7.57322">
        <ele>1258.98</ele>
        <time>2019-04-02T11:14:04Z</time>
      </trkpt>
      <trkpt lat="60.36582" lon="7.57323">
        <ele>1256.58</ele>
        <time>2019-04-02T11:14:07Z</time>
      </trkpt>
      <trkpt lat="60.36584" lon="7.57325">
        <ele>1256.1</ele>
        <time>2019-04-02T11:14:25Z</time>
      </trkpt>
      <trkpt lat="60.36583" lon="7.57325">
        <ele>1256.1</ele>
        <time>2019-04-02T11:15:03Z</time>
      </trkpt>
      <trkpt lat="60.36583" lon="7.57323">
        <ele>1256.1</ele>
        <time>2019-04-02T11:15:44Z</time>
      </trkpt>
      <trkpt lat="60.36584" lon="7.57323">
        <ele>1256.1</ele>
        <time>2019-04-02T11:16:23Z</time>
      </trkpt>
      <trkpt lat="60.36583" lon="7.57323">
        <ele>1256.1</ele>
        <time>2019-04-02T11:16:56Z</time>
      </trkpt>
      <trkpt lat="60.36583" lon="7.57323">
        <ele>1257.06</ele>
        <time>2019-04-02T11:17:04Z</time>
      </trkpt>
      <trkpt lat="60.36582" lon="7.57322">
        <ele>1257.06</ele>
        <time>2019-04-02T11:17:43Z</time>
      </trkpt>
      <trkpt lat="60.36582" lon="7.57321">
        <ele>1257.06</ele>
        <time>2019-04-02T11:18:17Z</time>
      </trkpt>
      <trkpt lat="60.36583" lon="7.57323">
        <ele>1257.54</ele>
        <time>2019-04-02T11:18:48Z</time>
      </trkpt>
      <trkpt lat="60.36583" lon="7.57326">
        <ele>1257.54</ele>
        <time>2019-04-02T11:19:22Z</time>
      </trkpt>
      <trkpt lat="60.36582" lon="7.57327">
        <ele>1256.1</ele>
        <time>2019-04-02T11:20:03Z</time>
      </trkpt>
      <trkpt lat="60.36582" lon="7.57327">
        <ele>1257.06</ele>
        <time>2019-04-02T11:20:41Z</time>
      </trkpt>
      <trkpt lat="60.36583" lon="7.57326">
        <ele>1257.06</ele>
        <time>2019-04-02T11:21:02Z</time>
      </trkpt>
      <trkpt lat="60.36583" lon="7.57326">
        <ele>1256.1</ele>
        <time>2019-04-02T11:21:19Z</time>
      </trkpt>
      <trkpt lat="60.36583" lon="7.57326">
        <ele>1256.58</ele>
        <time>2019-04-02T11:21:37Z</time>
      </trkpt>
      <trkpt lat="60.36583" lon="7.57325">
        <ele>1255.62</ele>
        <time>2019-04-02T11:22:16Z</time>
      </trkpt>
      <trkpt lat="60.36583" lon="7.57326">
        <ele>1257.06</ele>
        <time>2019-04-02T11:22:48Z</time>
      </trkpt>
      <trkpt lat="60.36583" lon="7.57326">
        <ele>1257.06</ele>
        <time>2019-04-02T11:22:49Z</time>
      </trkpt>
      <trkpt lat="60.36584" lon="7.57325">
        <ele>1255.62</ele>
        <time>2019-04-02T11:23:02Z</time>
      </trkpt>
      <trkpt lat="60.36584" lon="7.57325">
        <ele>1259.94</ele>
        <time>2019-04-02T11:23:06Z</time>
      </trkpt>
      <trkpt lat="60.36586" lon="7.57327">
        <ele>1259.94</ele>
        <time>2019-04-02T11:23:17Z</time>
      </trkpt>
      <trkpt lat="60.36586" lon="7.57328">
        <ele>1259.94</ele>
        <time>2019-04-02T11:23:18Z</time>
      </trkpt>
      <trkpt lat="60.3659" lon="7.57333">
        <ele>1259.94</ele>
        <time>2019-04-02T11:23:22Z</time>
      </trkpt>
      <trkpt lat="60.36595" lon="7.57335">
        <ele>1259.94</ele>
        <time>2019-04-02T11:23:37Z</time>
      </trkpt>
      <trkpt lat="60.36596" lon="7.57334">
        <ele>1260.43</ele>
        <time>2019-04-02T11:23:47Z</time>
      </trkpt>
      <trkpt lat="60.36596" lon="7.57333">
        <ele>1259.46</ele>
        <time>2019-04-02T11:23:51Z</time>
      </trkpt>
      <trkpt lat="60.36609" lon="7.57357">
        <ele>1260.91</ele>
        <time>2019-04-02T11:23:56Z</time>
      </trkpt>
      <trkpt lat="60.36619" lon="7.57393">
        <ele>1262.83</ele>
        <time>2019-04-02T11:23:59Z</time>
      </trkpt>
      <trkpt lat="60.36627" lon="7.57417">
        <ele>1262.83</ele>
        <time>2019-04-02T11:24:01Z</time>
      </trkpt>
      <trkpt lat="60.36644" lon="7.57464">
        <ele>1265.23</ele>
        <time>2019-04-02T11:24:05Z</time>
      </trkpt>
      <trkpt lat="60.36687" lon="7.57565">
        <ele>1267.16</ele>
        <time>2019-04-02T11:24:13Z</time>
      </trkpt>
      <trkpt lat="60.36712" lon="7.57617">
        <ele>1270.52</ele>
        <time>2019-04-02T11:24:18Z</time>
      </trkpt>
      <trkpt lat="60.36739" lon="7.57679">
        <ele>1272.44</ele>
        <time>2019-04-02T11:24:23Z</time>
      </trkpt>
      <trkpt lat="60.36779" lon="7.57768">
        <ele>1275.81</ele>
        <time>2019-04-02T11:24:29Z</time>
      </trkpt>
      <trkpt lat="60.36787" lon="7.57785">
        <ele>1275.81</ele>
        <time>2019-04-02T11:24:30Z</time>
      </trkpt>
      <trkpt lat="60.3681" lon="7.57831">
        <ele>1277.25</ele>
        <time>2019-04-02T11:24:33Z</time>
      </trkpt>
      <trkpt lat="60.36833" lon="7.57871">
        <ele>1280.61</ele>
        <time>2019-04-02T11:24:36Z</time>
      </trkpt>
      <trkpt lat="60.36853" lon="7.57907">
        <ele>1284.46</ele>
        <time>2019-04-02T11:24:39Z</time>
      </trkpt>
      <trkpt lat="60.36859" lon="7.57919">
        <ele>1284.46</ele>
        <time>2019-04-02T11:24:40Z</time>
      </trkpt>
      <trkpt lat="60.36886" lon="7.57966">
        <ele>1288.3</ele>
        <time>2019-04-02T11:24:44Z</time>
      </trkpt>
      <trkpt lat="60.36901" lon="7.57991">
        <ele>1291.19</ele>
        <time>2019-04-02T11:24:46Z</time>
      </trkpt>
      <trkpt lat="60.36924" lon="7.58022">
        <ele>1293.11</ele>
        <time>2019-04-02T11:24:49Z</time>
      </trkpt>
      <trkpt lat="60.36932" lon="7.5803">
        <ele>1294.07</ele>
        <time>2019-04-02T11:24:50Z</time>
      </trkpt>
      <trkpt lat="60.36952" lon="7.58051">
        <ele>1299.36</ele>
        <time>2019-04-02T11:24:53Z</time>
      </trkpt>
      <trkpt lat="60.36959" lon="7.58057">
        <ele>1299.36</ele>
        <time>2019-04-02T11:24:54Z</time>
      </trkpt>
      <trkpt lat="60.37056" lon="7.58137">
        <ele>1300.32</ele>
        <time>2019-04-02T11:25:06Z</time>
      </trkpt>
      <trkpt lat="60.3711" lon="7.58186">
        <ele>1300.32</ele>
        <time>2019-04-02T11:25:12Z</time>
      </trkpt>
      <trkpt lat="60.37142" lon="7.58218">
        <ele>1301.76</ele>
        <time>2019-04-02T11:25:17Z</time>
      </trkpt>
      <trkpt lat="60.37161" lon="7.58241">
        <ele>1303.2</ele>
        <time>2019-04-02T11:25:23Z</time>
      </trkpt>
      <trkpt lat="60.37166" lon="7.58234">
        <ele>1304.17</ele>
        <time>2019-04-02T11:25:38Z</time>
      </trkpt>
      <trkpt lat="60.37173" lon="7.58232">
        <ele>1303.69</ele>
        <time>2019-04-02T11:25:55Z</time>
      </trkpt>
      <trkpt lat="60.37174" lon="7.58235">
        <ele>1304.65</ele>
        <time>2019-04-02T11:26:19Z</time>
      </trkpt>
      <trkpt lat="60.37175" lon="7.58236">
        <ele>1303.2</ele>
        <time>2019-04-02T11:26:22Z</time>
      </trkpt>
      <trkpt lat="60.37166" lon="7.58214">
        <ele>1305.61</ele>
        <time>2019-04-02T11:26:28Z</time>
      </trkpt>
      <trkpt lat="60.37162" lon="7.58207">
        <ele>1305.61</ele>
        <time>2019-04-02T11:26:29Z</time>
      </trkpt>
      <trkpt lat="60.37152" lon="7.58193">
        <ele>1303.2</ele>
        <time>2019-04-02T11:26:31Z</time>
      </trkpt>
      <trkpt lat="60.37147" lon="7.58187">
        <ele>1302.72</ele>
        <time>2019-04-02T11:26:32Z</time>
      </trkpt>
      <trkpt lat="60.37137" lon="7.58161">
        <ele>1301.76</ele>
        <time>2019-04-02T11:26:35Z</time>
      </trkpt>
      <trkpt lat="60.37132" lon="7.58149">
        <ele>1301.28</ele>
        <time>2019-04-02T11:26:37Z</time>
      </trkpt>
      <trkpt lat="60.37132" lon="7.58145">
        <ele>1301.28</ele>
        <time>2019-04-02T11:26:39Z</time>
      </trkpt>
      <trkpt lat="60.37135" lon="7.5816">
        <ele>1302.24</ele>
        <time>2019-04-02T11:26:42Z</time>
      </trkpt>
      <trkpt lat="60.37138" lon="7.58168">
        <ele>1302.24</ele>
        <time>2019-04-02T11:26:43Z</time>
      </trkpt>
      <trkpt lat="60.37148" lon="7.58193">
        <ele>1302.24</ele>
        <time>2019-04-02T11:26:46Z</time>
      </trkpt>
      <trkpt lat="60.37164" lon="7.58256">
        <ele>1301.76</ele>
        <time>2019-04-02T11:26:53Z</time>
      </trkpt>
      <trkpt lat="60.37166" lon="7.58263">
        <ele>1303.2</ele>
        <time>2019-04-02T11:26:57Z</time>
      </trkpt>
      <trkpt lat="60.37167" lon="7.58267">
        <ele>1301.76</ele>
        <time>2019-04-02T11:27:02Z</time>
      </trkpt>
      <trkpt lat="60.37168" lon="7.58278">
        <ele>1304.65</ele>
        <time>2019-04-02T11:27:14Z</time>
      </trkpt>
      <trkpt lat="60.37169" lon="7.58282">
        <ele>1304.17</ele>
        <time>2019-04-02T11:27:17Z</time>
      </trkpt>
      <trkpt lat="60.37175" lon="7.58285">
        <ele>1303.2</ele>
        <time>2019-04-02T11:27:30Z</time>
      </trkpt>
      <trkpt lat="60.37177" lon="7.58282">
        <ele>1303.69</ele>
        <time>2019-04-02T11:27:53Z</time>
      </trkpt>
      <trkpt lat="60.37177" lon="7.58282">
        <ele>1303.69</ele>
        <time>2019-04-02T11:27:54Z</time>
      </trkpt>
      <trkpt lat="60.37178" lon="7.58243">
        <ele>1303.2</ele>
        <time>2019-04-02T11:27:58Z</time>
      </trkpt>
      <trkpt lat="60.37162" lon="7.58066">
        <ele>1305.13</ele>
        <time>2019-04-02T11:28:06Z</time>
      </trkpt>
      <trkpt lat="60.37155" lon="7.5799">
        <ele>1301.76</ele>
        <time>2019-04-02T11:28:09Z</time>
      </trkpt>
      <trkpt lat="60.37153" lon="7.57964">
        <ele>1301.76</ele>
        <time>2019-04-02T11:28:10Z</time>
      </trkpt>
      <trkpt lat="60.37148" lon="7.57888">
        <ele>1305.61</ele>
        <time>2019-04-02T11:28:13Z</time>
      </trkpt>
      <trkpt lat="60.37146" lon="7.57864">
        <ele>1305.61</ele>
        <time>2019-04-02T11:28:14Z</time>
      </trkpt>
      <trkpt lat="60.37138" lon="7.57776">
        <ele>1309.45</ele>
        <time>2019-04-02T11:28:18Z</time>
      </trkpt>
      <trkpt lat="60.37134" lon="7.57734">
        <ele>1312.82</ele>
        <time>2019-04-02T11:28:20Z</time>
      </trkpt>
      <trkpt lat="60.37126" lon="7.57674">
        <ele>1316.66</ele>
        <time>2019-04-02T11:28:23Z</time>
      </trkpt>
      <trkpt lat="60.37123" lon="7.57656">
        <ele>1316.66</ele>
        <time>2019-04-02T11:28:24Z</time>
      </trkpt>
      <trkpt lat="60.37109" lon="7.57609">
        <ele>1318.1</ele>
        <time>2019-04-02T11:28:27Z</time>
      </trkpt>
      <trkpt lat="60.3709" lon="7.57569">
        <ele>1316.18</ele>
        <time>2019-04-02T11:28:31Z</time>
      </trkpt>
      <trkpt lat="60.37079" lon="7.57533">
        <ele>1320.03</ele>
        <time>2019-04-02T11:28:35Z</time>
      </trkpt>
      <trkpt lat="60.37088" lon="7.57554">
        <ele>1317.62</ele>
        <time>2019-04-02T11:28:39Z</time>
      </trkpt>
      <trkpt lat="60.37091" lon="7.57629">
        <ele>1315.22</ele>
        <time>2019-04-02T11:28:44Z</time>
      </trkpt>
      <trkpt lat="60.37093" lon="7.57662">
        <ele>1313.78</ele>
        <time>2019-04-02T11:28:46Z</time>
      </trkpt>
      <trkpt lat="60.37097" lon="7.57734">
        <ele>1311.38</ele>
        <time>2019-04-02T11:28:50Z</time>
      </trkpt>
      <trkpt lat="60.37104" lon="7.5781">
        <ele>1308.97</ele>
        <time>2019-04-02T11:28:54Z</time>
      </trkpt>
      <trkpt lat="60.37111" lon="7.5787">
        <ele>1308.49</ele>
        <time>2019-04-02T11:28:57Z</time>
      </trkpt>
      <trkpt lat="60.37118" lon="7.57927">
        <ele>1305.13</ele>
        <time>2019-04-02T11:29:00Z</time>
      </trkpt>
      <trkpt lat="60.3713" lon="7.58043">
        <ele>1302.72</ele>
        <time>2019-04-02T11:29:07Z</time>
      </trkpt>
      <trkpt lat="60.37131" lon="7.58057">
        <ele>1302.72</ele>
        <time>2019-04-02T11:29:08Z</time>
      </trkpt>
      <trkpt lat="60.37137" lon="7.58108">
        <ele>1302.72</ele>
        <time>2019-04-02T11:29:12Z</time>
      </trkpt>
      <trkpt lat="60.37149" lon="7.58203">
        <ele>1305.13</ele>
        <time>2019-04-02T11:29:20Z</time>
      </trkpt>
      <trkpt lat="60.37153" lon="7.58238">
        <ele>1302.24</ele>
        <time>2019-04-02T11:29:24Z</time>
      </trkpt>
      <trkpt lat="60.37161" lon="7.58259">
        <ele>1301.76</ele>
        <time>2019-04-02T11:29:34Z</time>
      </trkpt>
      <trkpt lat="60.37161" lon="7.58259">
        <ele>1303.2</ele>
        <time>2019-04-02T11:29:40Z</time>
      </trkpt>
      <trkpt lat="60.37161" lon="7.58259">
        <ele>1301.76</ele>
        <time>2019-04-02T11:29:51Z</time>
      </trkpt>
      <trkpt lat="60.37161" lon="7.5826">
        <ele>1302.72</ele>
        <time>2019-04-02T11:30:20Z</time>
      </trkpt>
      <trkpt lat="60.37163" lon="7.5826">
        <ele>1301.76</ele>
        <time>2019-04-02T11:30:43Z</time>
      </trkpt>
      <trkpt lat="60.37164" lon="7.58261">
        <ele>1301.28</ele>
        <time>2019-04-02T11:31:01Z</time>
      </trkpt>
      <trkpt lat="60.37164" lon="7.58262">
        <ele>1302.24</ele>
        <time>2019-04-02T11:31:19Z</time>
      </trkpt>
      <trkpt lat="60.37164" lon="7.58262">
        <ele>1301.28</ele>
        <time>2019-04-02T11:31:23Z</time>
      </trkpt>
      <trkpt lat="60.37165" lon="7.58264">
        <ele>1302.24</ele>
        <time>2019-04-02T11:31:40Z</time>
      </trkpt>
      <trkpt lat="60.37165" lon="7.58263">
        <ele>1302.24</ele>
        <time>2019-04-02T11:31:46Z</time>
      </trkpt>
      <trkpt lat="60.37167" lon="7.5828">
        <ele>1303.2</ele>
        <time>2019-04-02T11:31:50Z</time>
      </trkpt>
      <trkpt lat="60.37166" lon="7.58357">
        <ele>1304.17</ele>
        <time>2019-04-02T11:31:59Z</time>
      </trkpt>
      <trkpt lat="60.37164" lon="7.58398">
        <ele>1301.76</ele>
        <time>2019-04-02T11:32:04Z</time>
      </trkpt>
      <trkpt lat="60.37162" lon="7.58413">
        <ele>1299.36</ele>
        <time>2019-04-02T11:32:08Z</time>
      </trkpt>
      <trkpt lat="60.37162" lon="7.58414">
        <ele>1302.24</ele>
        <time>2019-04-02T11:32:12Z</time>
      </trkpt>
      <trkpt lat="60.37162" lon="7.58414">
        <ele>1302.24</ele>
        <time>2019-04-02T11:32:13Z</time>
      </trkpt>
      <trkpt lat="60.37161" lon="7.58414">
        <ele>1298.88</ele>
        <time>2019-04-02T11:32:15Z</time>
      </trkpt>
      <trkpt lat="60.37161" lon="7.58414">
        <ele>1298.88</ele>
        <time>2019-04-02T11:32:16Z</time>
      </trkpt>
      <trkpt lat="60.37161" lon="7.58414">
        <ele>1303.69</ele>
        <time>2019-04-02T11:32:18Z</time>
      </trkpt>
      <trkpt lat="60.37161" lon="7.58415">
        <ele>1303.69</ele>
        <time>2019-04-02T11:32:19Z</time>
      </trkpt>
      <trkpt lat="60.37163" lon="7.58416">
        <ele>1302.72</ele>
        <time>2019-04-02T11:32:34Z</time>
      </trkpt>
      <trkpt lat="60.37163" lon="7.58415">
        <ele>1303.69</ele>
        <time>2019-04-02T11:32:50Z</time>
      </trkpt>
      <trkpt lat="60.37163" lon="7.58416">
        <ele>1302.72</ele>
        <time>2019-04-02T11:32:55Z</time>
      </trkpt>
      <trkpt lat="60.37163" lon="7.58416">
        <ele>1303.69</ele>
        <time>2019-04-02T11:32:58Z</time>
      </trkpt>
      <trkpt lat="60.37164" lon="7.58416">
        <ele>1302.72</ele>
        <time>2019-04-02T11:33:12Z</time>
      </trkpt>
      <trkpt lat="60.3717" lon="7.58391">
        <ele>1303.2</ele>
        <time>2019-04-02T11:33:18Z</time>
      </trkpt>
      <trkpt lat="60.37168" lon="7.58381">
        <ele>1306.09</ele>
        <time>2019-04-02T11:33:19Z</time>
      </trkpt>
      <trkpt lat="60.37161" lon="7.58359">
        <ele>1306.09</ele>
        <time>2019-04-02T11:33:21Z</time>
      </trkpt>
      <trkpt lat="60.37156" lon="7.58338">
        <ele>1304.17</ele>
        <time>2019-04-02T11:33:24Z</time>
      </trkpt>
      <trkpt lat="60.37154" lon="7.58333">
        <ele>1300.8</ele>
        <time>2019-04-02T11:33:27Z</time>
      </trkpt>
      <trkpt lat="60.37154" lon="7.58333">
        <ele>1300.8</ele>
        <time>2019-04-02T11:33:28Z</time>
      </trkpt>
      <trkpt lat="60.37154" lon="7.58333">
        <ele>1302.72</ele>
        <time>2019-04-02T11:33:32Z</time>
      </trkpt>
      <trkpt lat="60.37155" lon="7.58332">
        <ele>1301.76</ele>
        <time>2019-04-02T11:33:40Z</time>
      </trkpt>
      <trkpt lat="60.37156" lon="7.58329">
        <ele>1301.28</ele>
        <time>2019-04-02T11:33:55Z</time>
      </trkpt>
      <trkpt lat="60.37162" lon="7.58323">
        <ele>1301.28</ele>
        <time>2019-04-02T11:33:58Z</time>
      </trkpt>
      <trkpt lat="60.37188" lon="7.58336">
        <ele>1303.69</ele>
        <time>2019-04-02T11:34:02Z</time>
      </trkpt>
      <trkpt lat="60.37225" lon="7.58406">
        <ele>1309.93</ele>
        <time>2019-04-02T11:34:07Z</time>
      </trkpt>
      <trkpt lat="60.37242" lon="7.5844">
        <ele>1311.38</ele>
        <time>2019-04-02T11:34:09Z</time>
      </trkpt>
      <trkpt lat="60.37269" lon="7.58492">
        <ele>1313.3</ele>
        <time>2019-04-02T11:34:12Z</time>
      </trkpt>
      <trkpt lat="60.37305" lon="7.58557">
        <ele>1318.1</ele>
        <time>2019-04-02T11:34:16Z</time>
      </trkpt>
      <trkpt lat="60.37334" lon="7.58623">
        <ele>1320.51</ele>
        <time>2019-04-02T11:34:20Z</time>
      </trkpt>
      <trkpt lat="60.37355" lon="7.58663">
        <ele>1325.8</ele>
        <time>2019-04-02T11:34:23Z</time>
      </trkpt>
      <trkpt lat="60.37361" lon="7.58674">
        <ele>1328.68</ele>
        <time>2019-04-02T11:34:24Z</time>
      </trkpt>
      <trkpt lat="60.37373" lon="7.58693">
        <ele>1328.68</ele>
        <time>2019-04-02T11:34:29Z</time>
      </trkpt>
      <trkpt lat="60.37372" lon="7.5869">
        <ele>1330.12</ele>
        <time>2019-04-02T11:34:30Z</time>
      </trkpt>
      <trkpt lat="60.37352" lon="7.58662">
        <ele>1326.76</ele>
        <time>2019-04-02T11:34:38Z</time>
      </trkpt>
      <trkpt lat="60.37344" lon="7.58651">
        <ele>1325.8</ele>
        <time>2019-04-02T11:34:40Z</time>
      </trkpt>
      <trkpt lat="60.37339" lon="7.58645">
        <ele>1325.31</ele>
        <time>2019-04-02T11:34:41Z</time>
      </trkpt>
      <trkpt lat="60.37323" lon="7.58618">
        <ele>1319.07</ele>
        <time>2019-04-02T11:34:44Z</time>
      </trkpt>
      <trkpt lat="60.37316" lon="7.58608">
        <ele>1320.51</ele>
        <time>2019-04-02T11:34:45Z</time>
      </trkpt>
      <trkpt lat="60.37305" lon="7.58584">
        <ele>1314.26</ele>
        <time>2019-04-02T11:34:47Z</time>
      </trkpt>
      <trkpt lat="60.37293" lon="7.58557">
        <ele>1317.62</ele>
        <time>2019-04-02T11:34:49Z</time>
      </trkpt>
      <trkpt lat="60.37287" lon="7.58541">
        <ele>1313.3</ele>
        <time>2019-04-02T11:34:50Z</time>
      </trkpt>
      <trkpt lat="60.3728" lon="7.58527">
        <ele>1315.7</ele>
        <time>2019-04-02T11:34:51Z</time>
      </trkpt>
      <trkpt lat="60.37268" lon="7.58505">
        <ele>1315.22</ele>
        <time>2019-04-02T11:34:53Z</time>
      </trkpt>
      <trkpt lat="60.37256" lon="7.58485">
        <ele>1311.38</ele>
        <time>2019-04-02T11:34:55Z</time>
      </trkpt>
      <trkpt lat="60.3725" lon="7.58475">
        <ele>1311.38</ele>
        <time>2019-04-02T11:34:56Z</time>
      </trkpt>
      <trkpt lat="60.37245" lon="7.58464">
        <ele>1312.82</ele>
        <time>2019-04-02T11:34:57Z</time>
      </trkpt>
      <trkpt lat="60.37222" lon="7.58424">
        <ele>1306.57</ele>
        <time>2019-04-02T11:35:03Z</time>
      </trkpt>
      <trkpt lat="60.37222" lon="7.58422">
        <ele>1306.57</ele>
        <time>2019-04-02T11:35:04Z</time>
      </trkpt>
      <trkpt lat="60.37222" lon="7.5842">
        <ele>1306.09</ele>
        <time>2019-04-02T11:35:12Z</time>
      </trkpt>
      <trkpt lat="60.37224" lon="7.58419">
        <ele>1308.01</ele>
        <time>2019-04-02T11:35:14Z</time>
      </trkpt>
      <trkpt lat="60.37228" lon="7.58404">
        <ele>1306.57</ele>
        <time>2019-04-02T11:35:22Z</time>
      </trkpt>
      <trkpt lat="60.37225" lon="7.58397">
        <ele>1309.45</ele>
        <time>2019-04-02T11:35:26Z</time>
      </trkpt>
      <trkpt lat="60.37224" lon="7.58395">
        <ele>1309.45</ele>
        <time>2019-04-02T11:35:27Z</time>
      </trkpt>
      <trkpt lat="60.37216" lon="7.58378">
        <ele>1306.57</ele>
        <time>2019-04-02T11:35:32Z</time>
      </trkpt>
      <trkpt lat="60.37216" lon="7.5837">
        <ele>1304.65</ele>
        <time>2019-04-02T11:35:36Z</time>
      </trkpt>
      <trkpt lat="60.37217" lon="7.58367">
        <ele>1306.09</ele>
        <time>2019-04-02T11:35:43Z</time>
      </trkpt>
      <trkpt lat="60.37217" lon="7.58367">
        <ele>1304.65</ele>
        <time>2019-04-02T11:35:45Z</time>
      </trkpt>
      <trkpt lat="60.37216" lon="7.58349">
        <ele>1304.65</ele>
        <time>2019-04-02T11:35:49Z</time>
      </trkpt>
      <trkpt lat="60.37219" lon="7.58313">
        <ele>1303.69</ele>
        <time>2019-04-02T11:35:53Z</time>
      </trkpt>
      <trkpt lat="60.3722" lon="7.58287">
        <ele>1303.69</ele>
        <time>2019-04-02T11:35:55Z</time>
      </trkpt>
      <trkpt lat="60.37221" lon="7.58201">
        <ele>1302.24</ele>
        <time>2019-04-02T11:36:01Z</time>
      </trkpt>
      <trkpt lat="60.37222" lon="7.58142">
        <ele>1298.88</ele>
        <time>2019-04-02T11:36:04Z</time>
      </trkpt>
      <trkpt lat="60.37222" lon="7.5812">
        <ele>1296.96</ele>
        <time>2019-04-02T11:36:05Z</time>
      </trkpt>
      <trkpt lat="60.37225" lon="7.58073">
        <ele>1295.99</ele>
        <time>2019-04-02T11:36:07Z</time>
      </trkpt>
      <trkpt lat="60.37229" lon="7.58029">
        <ele>1295.51</ele>
        <time>2019-04-02T11:36:09Z</time>
      </trkpt>
      <trkpt lat="60.37238" lon="7.579">
        <ele>1295.03</ele>
        <time>2019-04-02T11:36:15Z</time>
      </trkpt>
      <trkpt lat="60.37238" lon="7.57882">
        <ele>1296.48</ele>
        <time>2019-04-02T11:36:16Z</time>
      </trkpt>
      <trkpt lat="60.37235" lon="7.57828">
        <ele>1299.84</ele>
        <time>2019-04-02T11:36:19Z</time>
      </trkpt>
      <trkpt lat="60.37236" lon="7.57811">
        <ele>1299.84</ele>
        <time>2019-04-02T11:36:20Z</time>
      </trkpt>
      <trkpt lat="60.3724" lon="7.57736">
        <ele>1300.8</ele>
        <time>2019-04-02T11:36:24Z</time>
      </trkpt>
      <trkpt lat="60.37244" lon="7.57684">
        <ele>1303.2</ele>
        <time>2019-04-02T11:36:27Z</time>
      </trkpt>
      <trkpt lat="60.37249" lon="7.57665">
        <ele>1303.69</ele>
        <time>2019-04-02T11:36:29Z</time>
      </trkpt>
      <trkpt lat="60.37261" lon="7.57674">
        <ele>1301.76</ele>
        <time>2019-04-02T11:36:31Z</time>
      </trkpt>
      <trkpt lat="60.37289" lon="7.57725">
        <ele>1296.48</ele>
        <time>2019-04-02T11:36:35Z</time>
      </trkpt>
      <trkpt lat="60.3732" lon="7.57772">
        <ele>1297.92</ele>
        <time>2019-04-02T11:36:39Z</time>
      </trkpt>
      <trkpt lat="60.37339" lon="7.57798">
        <ele>1299.84</ele>
        <time>2019-04-02T11:36:42Z</time>
      </trkpt>
      <trkpt lat="60.37359" lon="7.57793">
        <ele>1296.48</ele>
        <time>2019-04-02T11:36:45Z</time>
      </trkpt>
      <trkpt lat="60.37362" lon="7.57784">
        <ele>1295.99</ele>
        <time>2019-04-02T11:36:46Z</time>
      </trkpt>
      <trkpt lat="60.37377" lon="7.57724">
        <ele>1292.63</ele>
        <time>2019-04-02T11:36:53Z</time>
      </trkpt>
      <trkpt lat="60.37381" lon="7.57727">
        <ele>1292.63</ele>
        <time>2019-04-02T11:36:54Z</time>
      </trkpt>
      <trkpt lat="60.37393" lon="7.57735">
        <ele>1292.15</ele>
        <time>2019-04-02T11:36:56Z</time>
      </trkpt>
      <trkpt lat="60.37423" lon="7.57781">
        <ele>1290.23</ele>
        <time>2019-04-02T11:37:01Z</time>
      </trkpt>
      <trkpt lat="60.3744" lon="7.57815">
        <ele>1288.3</ele>
        <time>2019-04-02T11:37:04Z</time>
      </trkpt>
      <trkpt lat="60.37461" lon="7.57869">
        <ele>1288.3</ele>
        <time>2019-04-02T11:37:08Z</time>
      </trkpt>
      <trkpt lat="60.37465" lon="7.57883">
        <ele>1287.82</ele>
        <time>2019-04-02T11:37:09Z</time>
      </trkpt>
      <trkpt lat="60.37484" lon="7.57922">
        <ele>1285.42</ele>
        <time>2019-04-02T11:37:12Z</time>
      </trkpt>
      <trkpt lat="60.37495" lon="7.57947">
        <ele>1283.02</ele>
        <time>2019-04-02T11:37:14Z</time>
      </trkpt>
      <trkpt lat="60.37527" lon="7.57988">
        <ele>1278.21</ele>
        <time>2019-04-02T11:37:18Z</time>
      </trkpt>
      <trkpt lat="60.37538" lon="7.57997">
        <ele>1276.29</ele>
        <time>2019-04-02T11:37:19Z</time>
      </trkpt>
      <trkpt lat="60.37564" lon="7.57997">
        <ele>1277.25</ele>
        <time>2019-04-02T11:37:22Z</time>
      </trkpt>
      <trkpt lat="60.37569" lon="7.57968">
        <ele>1275.81</ele>
        <time>2019-04-02T11:37:24Z</time>
      </trkpt>
      <trkpt lat="60.37573" lon="7.57932">
        <ele>1274.36</ele>
        <time>2019-04-02T11:37:26Z</time>
      </trkpt>
      <trkpt lat="60.3758" lon="7.57895">
        <ele>1273.4</ele>
        <time>2019-04-02T11:37:28Z</time>
      </trkpt>
      <trkpt lat="60.37591" lon="7.57843">
        <ele>1272.44</ele>
        <time>2019-04-02T11:37:31Z</time>
      </trkpt>
      <trkpt lat="60.37599" lon="7.57784">
        <ele>1271</ele>
        <time>2019-04-02T11:37:34Z</time>
      </trkpt>
      <trkpt lat="60.37618" lon="7.57709">
        <ele>1269.56</ele>
        <time>2019-04-02T11:37:38Z</time>
      </trkpt>
      <trkpt lat="60.37627" lon="7.57669">
        <ele>1269.08</ele>
        <time>2019-04-02T11:37:40Z</time>
      </trkpt>
      <trkpt lat="60.37639" lon="7.57602">
        <ele>1266.19</ele>
        <time>2019-04-02T11:37:43Z</time>
      </trkpt>
      <trkpt lat="60.37649" lon="7.57557">
        <ele>1263.31</ele>
        <time>2019-04-02T11:37:46Z</time>
      </trkpt>
      <trkpt lat="60.37663" lon="7.57554">
        <ele>1264.75</ele>
        <time>2019-04-02T11:37:48Z</time>
      </trkpt>
      <trkpt lat="60.37678" lon="7.57563">
        <ele>1262.83</ele>
        <time>2019-04-02T11:37:50Z</time>
      </trkpt>
      <trkpt lat="60.37761" lon="7.57618">
        <ele>1264.75</ele>
        <time>2019-04-02T11:38:00Z</time>
      </trkpt>
      <trkpt lat="60.37784" lon="7.57612">
        <ele>1262.83</ele>
        <time>2019-04-02T11:38:04Z</time>
      </trkpt>
      <trkpt lat="60.37801" lon="7.57594">
        <ele>1260.91</ele>
        <time>2019-04-02T11:38:07Z</time>
      </trkpt>
      <trkpt lat="60.3782" lon="7.5754">
        <ele>1257.54</ele>
        <time>2019-04-02T11:38:12Z</time>
      </trkpt>
      <trkpt lat="60.37824" lon="7.57477">
        <ele>1256.58</ele>
        <time>2019-04-02T11:38:16Z</time>
      </trkpt>
      <trkpt lat="60.37824" lon="7.57441">
        <ele>1255.14</ele>
        <time>2019-04-02T11:38:18Z</time>
      </trkpt>
      <trkpt lat="60.37825" lon="7.57402">
        <ele>1253.7</ele>
        <time>2019-04-02T11:38:20Z</time>
      </trkpt>
      <trkpt lat="60.37832" lon="7.57354">
        <ele>1251.29</ele>
        <time>2019-04-02T11:38:23Z</time>
      </trkpt>
      <trkpt lat="60.37832" lon="7.57341">
        <ele>1251.29</ele>
        <time>2019-04-02T11:38:24Z</time>
      </trkpt>
      <trkpt lat="60.37831" lon="7.573">
        <ele>1249.37</ele>
        <time>2019-04-02T11:38:27Z</time>
      </trkpt>
      <trkpt lat="60.37823" lon="7.57236">
        <ele>1247.45</ele>
        <time>2019-04-02T11:38:32Z</time>
      </trkpt>
      <trkpt lat="60.3782" lon="7.57212">
        <ele>1249.37</ele>
        <time>2019-04-02T11:38:34Z</time>
      </trkpt>
      <trkpt lat="60.37816" lon="7.5716">
        <ele>1246.49</ele>
        <time>2019-04-02T11:38:38Z</time>
      </trkpt>
      <trkpt lat="60.37822" lon="7.57113">
        <ele>1242.64</ele>
        <time>2019-04-02T11:38:42Z</time>
      </trkpt>
      <trkpt lat="60.3783" lon="7.57089">
        <ele>1241.2</ele>
        <time>2019-04-02T11:38:44Z</time>
      </trkpt>
      <trkpt lat="60.37837" lon="7.57066">
        <ele>1240.24</ele>
        <time>2019-04-02T11:38:46Z</time>
      </trkpt>
      <trkpt lat="60.37842" lon="7.57035">
        <ele>1242.16</ele>
        <time>2019-04-02T11:38:50Z</time>
      </trkpt>
      <trkpt lat="60.37841" lon="7.57019">
        <ele>1243.6</ele>
        <time>2019-04-02T11:38:53Z</time>
      </trkpt>
      <trkpt lat="60.3784" lon="7.57003">
        <ele>1241.68</ele>
        <time>2019-04-02T11:38:56Z</time>
      </trkpt>
      <trkpt lat="60.3784" lon="7.56998">
        <ele>1240.72</ele>
        <time>2019-04-02T11:38:57Z</time>
      </trkpt>
      <trkpt lat="60.3784" lon="7.56994">
        <ele>1240.72</ele>
        <time>2019-04-02T11:38:58Z</time>
      </trkpt>
      <trkpt lat="60.37839" lon="7.56991">
        <ele>1242.16</ele>
        <time>2019-04-02T11:39:00Z</time>
      </trkpt>
      <trkpt lat="60.3784" lon="7.56988">
        <ele>1242.64</ele>
        <time>2019-04-02T11:39:03Z</time>
      </trkpt>
      <trkpt lat="60.37839" lon="7.56986">
        <ele>1240.72</ele>
        <time>2019-04-02T11:39:19Z</time>
      </trkpt>
      <trkpt lat="60.37837" lon="7.5698">
        <ele>1240.72</ele>
        <time>2019-04-02T11:39:38Z</time>
      </trkpt>
      <trkpt lat="60.37836" lon="7.56981">
        <ele>1242.16</ele>
        <time>2019-04-02T11:39:44Z</time>
      </trkpt>
      <trkpt lat="60.37836" lon="7.5698">
        <ele>1242.16</ele>
        <time>2019-04-02T11:39:53Z</time>
      </trkpt>
      <trkpt lat="60.37836" lon="7.5698">
        <ele>1242.64</ele>
        <time>2019-04-02T11:39:57Z</time>
      </trkpt>
      <trkpt lat="60.37836" lon="7.5698">
        <ele>1241.2</ele>
        <time>2019-04-02T11:40:01Z</time>
      </trkpt>
      <trkpt lat="60.37834" lon="7.56976">
        <ele>1242.16</ele>
        <time>2019-04-02T11:40:21Z</time>
      </trkpt>
      <trkpt lat="60.37832" lon="7.56965">
        <ele>1242.16</ele>
        <time>2019-04-02T11:40:32Z</time>
      </trkpt>
      <trkpt lat="60.37831" lon="7.56963">
        <ele>1242.16</ele>
        <time>2019-04-02T11:40:33Z</time>
      </trkpt>
      <trkpt lat="60.3783" lon="7.56961">
        <ele>1242.16</ele>
        <time>2019-04-02T11:40:34Z</time>
      </trkpt>
      <trkpt lat="60.3783" lon="7.56958">
        <ele>1238.8</ele>
        <time>2019-04-02T11:40:36Z</time>
      </trkpt>
      <trkpt lat="60.3783" lon="7.56957">
        <ele>1238.32</ele>
        <time>2019-04-02T11:40:37Z</time>
      </trkpt>
      <trkpt lat="60.3783" lon="7.56952">
        <ele>1236.87</ele>
        <time>2019-04-02T11:40:39Z</time>
      </trkpt>
      <trkpt lat="60.37829" lon="7.56949">
        <ele>1236.87</ele>
        <time>2019-04-02T11:40:40Z</time>
      </trkpt>
      <trkpt lat="60.37829" lon="7.56946">
        <ele>1236.87</ele>
        <time>2019-04-02T11:40:41Z</time>
      </trkpt>
      <trkpt lat="60.37829" lon="7.56944">
        <ele>1236.87</ele>
        <time>2019-04-02T11:40:42Z</time>
      </trkpt>
      <trkpt lat="60.37828" lon="7.56942">
        <ele>1236.87</ele>
        <time>2019-04-02T11:40:43Z</time>
      </trkpt>
      <trkpt lat="60.37828" lon="7.56933">
        <ele>1236.87</ele>
        <time>2019-04-02T11:40:47Z</time>
      </trkpt>
      <trkpt lat="60.37828" lon="7.56928">
        <ele>1236.87</ele>
        <time>2019-04-02T11:40:56Z</time>
      </trkpt>
      <trkpt lat="60.37828" lon="7.56926">
        <ele>1240.24</ele>
        <time>2019-04-02T11:40:57Z</time>
      </trkpt>
      <trkpt lat="60.37829" lon="7.56923">
        <ele>1240.24</ele>
        <time>2019-04-02T11:40:58Z</time>
      </trkpt>
      <trkpt lat="60.37829" lon="7.56919">
        <ele>1240.24</ele>
        <time>2019-04-02T11:40:59Z</time>
      </trkpt>
      <trkpt lat="60.37832" lon="7.56898">
        <ele>1238.32</ele>
        <time>2019-04-02T11:41:01Z</time>
      </trkpt>
      <trkpt lat="60.37831" lon="7.56886">
        <ele>1236.87</ele>
        <time>2019-04-02T11:41:02Z</time>
      </trkpt>
      <trkpt lat="60.37829" lon="7.56877">
        <ele>1239.28</ele>
        <time>2019-04-02T11:41:03Z</time>
      </trkpt>
      <trkpt lat="60.37826" lon="7.56866">
        <ele>1234.47</ele>
        <time>2019-04-02T11:41:04Z</time>
      </trkpt>
      <trkpt lat="60.37822" lon="7.56856">
        <ele>1234.47</ele>
        <time>2019-04-02T11:41:05Z</time>
      </trkpt>
      <trkpt lat="60.37818" lon="7.56847">
        <ele>1238.8</ele>
        <time>2019-04-02T11:41:06Z</time>
      </trkpt>
      <trkpt lat="60.37814" lon="7.56837">
        <ele>1239.28</ele>
        <time>2019-04-02T11:41:07Z</time>
      </trkpt>
      <trkpt lat="60.37808" lon="7.56816">
        <ele>1239.28</ele>
        <time>2019-04-02T11:41:09Z</time>
      </trkpt>
      <trkpt lat="60.37798" lon="7.56763">
        <ele>1236.87</ele>
        <time>2019-04-02T11:41:13Z</time>
      </trkpt>
      <trkpt lat="60.37796" lon="7.56755">
        <ele>1238.8</ele>
        <time>2019-04-02T11:41:14Z</time>
      </trkpt>
      <trkpt lat="60.37796" lon="7.56738">
        <ele>1237.35</ele>
        <time>2019-04-02T11:41:16Z</time>
      </trkpt>
      <trkpt lat="60.37789" lon="7.56683">
        <ele>1237.83</ele>
        <time>2019-04-02T11:41:23Z</time>
      </trkpt>
      <trkpt lat="60.37786" lon="7.56668">
        <ele>1236.87</ele>
        <time>2019-04-02T11:41:25Z</time>
      </trkpt>
      <trkpt lat="60.37784" lon="7.5666">
        <ele>1236.87</ele>
        <time>2019-04-02T11:41:26Z</time>
      </trkpt>
      <trkpt lat="60.37781" lon="7.56633">
        <ele>1237.35</ele>
        <time>2019-04-02T11:41:29Z</time>
      </trkpt>
      <trkpt lat="60.37774" lon="7.56611">
        <ele>1233.03</ele>
        <time>2019-04-02T11:41:32Z</time>
      </trkpt>
      <trkpt lat="60.37771" lon="7.56605">
        <ele>1234.95</ele>
        <time>2019-04-02T11:41:33Z</time>
      </trkpt>
      <trkpt lat="60.37768" lon="7.56592">
        <ele>1236.39</ele>
        <time>2019-04-02T11:41:35Z</time>
      </trkpt>
      <trkpt lat="60.3776" lon="7.56558">
        <ele>1234.95</ele>
        <time>2019-04-02T11:41:42Z</time>
      </trkpt>
      <trkpt lat="60.37759" lon="7.56554">
        <ele>1234.95</ele>
        <time>2019-04-02T11:41:43Z</time>
      </trkpt>
      <trkpt lat="60.37756" lon="7.56546">
        <ele>1234.95</ele>
        <time>2019-04-02T11:41:47Z</time>
      </trkpt>
      <trkpt lat="60.3776" lon="7.56542">
        <ele>1233.51</ele>
        <time>2019-04-02T11:41:51Z</time>
      </trkpt>
      <trkpt lat="60.37763" lon="7.56543">
        <ele>1233.51</ele>
        <time>2019-04-02T11:41:56Z</time>
      </trkpt>
      <trkpt lat="60.37776" lon="7.56545">
        <ele>1234.95</ele>
        <time>2019-04-02T11:42:04Z</time>
      </trkpt>
      <trkpt lat="60.37778" lon="7.56554">
        <ele>1234.95</ele>
        <time>2019-04-02T11:42:05Z</time>
      </trkpt>
      <trkpt lat="60.37784" lon="7.56579">
        <ele>1234.95</ele>
        <time>2019-04-02T11:42:08Z</time>
      </trkpt>
      <trkpt lat="60.37794" lon="7.56655">
        <ele>1234.47</ele>
        <time>2019-04-02T11:42:17Z</time>
      </trkpt>
      <trkpt lat="60.37796" lon="7.56679">
        <ele>1235.91</ele>
        <time>2019-04-02T11:42:20Z</time>
      </trkpt>
      <trkpt lat="60.37801" lon="7.56707">
        <ele>1236.87</ele>
        <time>2019-04-02T11:42:24Z</time>
      </trkpt>
      <trkpt lat="60.3781" lon="7.56755">
        <ele>1236.87</ele>
        <time>2019-04-02T11:42:34Z</time>
      </trkpt>
      <trkpt lat="60.37809" lon="7.56739">
        <ele>1234.95</ele>
        <time>2019-04-02T11:42:36Z</time>
      </trkpt>
      <trkpt lat="60.37805" lon="7.5672">
        <ele>1236.39</ele>
        <time>2019-04-02T11:42:38Z</time>
      </trkpt>
      <trkpt lat="60.37767" lon="7.56593">
        <ele>1236.87</ele>
        <time>2019-04-02T11:42:48Z</time>
      </trkpt>
      <trkpt lat="60.37757" lon="7.56549">
        <ele>1236.87</ele>
        <time>2019-04-02T11:42:51Z</time>
      </trkpt>
      <trkpt lat="60.37709" lon="7.56362">
        <ele>1235.43</ele>
        <time>2019-04-02T11:43:02Z</time>
      </trkpt>
      <trkpt lat="60.37663" lon="7.56139">
        <ele>1234.47</ele>
        <time>2019-04-02T11:43:14Z</time>
      </trkpt>
      <trkpt lat="60.37655" lon="7.56082">
        <ele>1235.43</ele>
        <time>2019-04-02T11:43:17Z</time>
      </trkpt>
      <trkpt lat="60.37629" lon="7.55945">
        <ele>1237.83</ele>
        <time>2019-04-02T11:43:24Z</time>
      </trkpt>
      <trkpt lat="60.37612" lon="7.55859">
        <ele>1235.91</ele>
        <time>2019-04-02T11:43:28Z</time>
      </trkpt>
      <trkpt lat="60.37595" lon="7.55774">
        <ele>1234.95</ele>
        <time>2019-04-02T11:43:32Z</time>
      </trkpt>
      <trkpt lat="60.37585" lon="7.55733">
        <ele>1233.99</ele>
        <time>2019-04-02T11:43:34Z</time>
      </trkpt>
      <trkpt lat="60.37577" lon="7.55696">
        <ele>1235.43</ele>
        <time>2019-04-02T11:43:36Z</time>
      </trkpt>
      <trkpt lat="60.37562" lon="7.55622">
        <ele>1235.91</ele>
        <time>2019-04-02T11:43:40Z</time>
      </trkpt>
      <trkpt lat="60.37554" lon="7.55572">
        <ele>1235.91</ele>
        <time>2019-04-02T11:43:43Z</time>
      </trkpt>
      <trkpt lat="60.37551" lon="7.55556">
        <ele>1236.39</ele>
        <time>2019-04-02T11:43:44Z</time>
      </trkpt>
      <trkpt lat="60.37548" lon="7.5554">
        <ele>1236.39</ele>
        <time>2019-04-02T11:43:45Z</time>
      </trkpt>
      <trkpt lat="60.37545" lon="7.55523">
        <ele>1236.87</ele>
        <time>2019-04-02T11:43:46Z</time>
      </trkpt>
      <trkpt lat="60.37543" lon="7.55507">
        <ele>1236.39</ele>
        <time>2019-04-02T11:43:47Z</time>
      </trkpt>
      <trkpt lat="60.3754" lon="7.55491">
        <ele>1236.87</ele>
        <time>2019-04-02T11:43:48Z</time>
      </trkpt>
      <trkpt lat="60.37531" lon="7.55441">
        <ele>1238.32</ele>
        <time>2019-04-02T11:43:51Z</time>
      </trkpt>
      <trkpt lat="60.37524" lon="7.55408">
        <ele>1237.83</ele>
        <time>2019-04-02T11:43:53Z</time>
      </trkpt>
      <trkpt lat="60.37513" lon="7.55345">
        <ele>1240.24</ele>
        <time>2019-04-02T11:43:57Z</time>
      </trkpt>
      <trkpt lat="60.37502" lon="7.55287">
        <ele>1242.64</ele>
        <time>2019-04-02T11:44:01Z</time>
      </trkpt>
      <trkpt lat="60.37498" lon="7.55257">
        <ele>1241.2</ele>
        <time>2019-04-02T11:44:03Z</time>
      </trkpt>
      <trkpt lat="60.3749" lon="7.55192">
        <ele>1238.8</ele>
        <time>2019-04-02T11:44:07Z</time>
      </trkpt>
      <trkpt lat="60.37488" lon="7.55178">
        <ele>1242.64</ele>
        <time>2019-04-02T11:44:08Z</time>
      </trkpt>
      <trkpt lat="60.37486" lon="7.55164">
        <ele>1242.64</ele>
        <time>2019-04-02T11:44:09Z</time>
      </trkpt>
      <trkpt lat="60.37475" lon="7.5507">
        <ele>1241.2</ele>
        <time>2019-04-02T11:44:15Z</time>
      </trkpt>
      <trkpt lat="60.37469" lon="7.5502">
        <ele>1242.16</ele>
        <time>2019-04-02T11:44:18Z</time>
      </trkpt>
      <trkpt lat="60.37463" lon="7.54973">
        <ele>1241.68</ele>
        <time>2019-04-02T11:44:21Z</time>
      </trkpt>
      <trkpt lat="60.37461" lon="7.5496">
        <ele>1240.24</ele>
        <time>2019-04-02T11:44:22Z</time>
      </trkpt>
      <trkpt lat="60.37459" lon="7.54948">
        <ele>1240.72</ele>
        <time>2019-04-02T11:44:23Z</time>
      </trkpt>
      <trkpt lat="60.37458" lon="7.54936">
        <ele>1242.16</ele>
        <time>2019-04-02T11:44:24Z</time>
      </trkpt>
      <trkpt lat="60.37457" lon="7.54924">
        <ele>1245.04</ele>
        <time>2019-04-02T11:44:25Z</time>
      </trkpt>
      <trkpt lat="60.37456" lon="7.54911">
        <ele>1245.04</ele>
        <time>2019-04-02T11:44:26Z</time>
      </trkpt>
      <trkpt lat="60.37447" lon="7.54793">
        <ele>1247.45</ele>
        <time>2019-04-02T11:44:34Z</time>
      </trkpt>
      <trkpt lat="60.37446" lon="7.54778">
        <ele>1247.45</ele>
        <time>2019-04-02T11:44:35Z</time>
      </trkpt>
      <trkpt lat="60.37443" lon="7.54747">
        <ele>1249.37</ele>
        <time>2019-04-02T11:44:37Z</time>
      </trkpt>
      <trkpt lat="60.37436" lon="7.54692">
        <ele>1250.33</ele>
        <time>2019-04-02T11:44:41Z</time>
      </trkpt>
      <trkpt lat="60.37435" lon="7.54679">
        <ele>1251.29</ele>
        <time>2019-04-02T11:44:42Z</time>
      </trkpt>
      <trkpt lat="60.37433" lon="7.54667">
        <ele>1252.25</ele>
        <time>2019-04-02T11:44:43Z</time>
      </trkpt>
      <trkpt lat="60.37427" lon="7.54631">
        <ele>1253.7</ele>
        <time>2019-04-02T11:44:46Z</time>
      </trkpt>
      <trkpt lat="60.37424" lon="7.54619">
        <ele>1254.66</ele>
        <time>2019-04-02T11:44:47Z</time>
      </trkpt>
      <trkpt lat="60.37391" lon="7.54486">
        <ele>1251.29</ele>
        <time>2019-04-02T11:44:56Z</time>
      </trkpt>
      <trkpt lat="60.37388" lon="7.54466">
        <ele>1247.93</ele>
        <time>2019-04-02T11:44:57Z</time>
      </trkpt>
      <trkpt lat="60.37384" lon="7.54446">
        <ele>1247.93</ele>
        <time>2019-04-02T11:44:58Z</time>
      </trkpt>
      <trkpt lat="60.3735" lon="7.54289">
        <ele>1243.6</ele>
        <time>2019-04-02T11:45:07Z</time>
      </trkpt>
      <trkpt lat="60.37345" lon="7.54273">
        <ele>1243.6</ele>
        <time>2019-04-02T11:45:08Z</time>
      </trkpt>
      <trkpt lat="60.3734" lon="7.54257">
        <ele>1247.45</ele>
        <time>2019-04-02T11:45:09Z</time>
      </trkpt>
      <trkpt lat="60.37336" lon="7.54242">
        <ele>1247.45</ele>
        <time>2019-04-02T11:45:10Z</time>
      </trkpt>
      <trkpt lat="60.37322" lon="7.54196">
        <ele>1242.64</ele>
        <time>2019-04-02T11:45:13Z</time>
      </trkpt>
      <trkpt lat="60.37305" lon="7.54139">
        <ele>1243.6</ele>
        <time>2019-04-02T11:45:17Z</time>
      </trkpt>
      <trkpt lat="60.37296" lon="7.54113">
        <ele>1242.16</ele>
        <time>2019-04-02T11:45:19Z</time>
      </trkpt>
      <trkpt lat="60.37292" lon="7.54099">
        <ele>1242.16</ele>
        <time>2019-04-02T11:45:20Z</time>
      </trkpt>
      <trkpt lat="60.37282" lon="7.54058">
        <ele>1239.76</ele>
        <time>2019-04-02T11:45:23Z</time>
      </trkpt>
      <trkpt lat="60.37272" lon="7.54019">
        <ele>1241.2</ele>
        <time>2019-04-02T11:45:26Z</time>
      </trkpt>
      <trkpt lat="60.3727" lon="7.54006">
        <ele>1242.16</ele>
        <time>2019-04-02T11:45:27Z</time>
      </trkpt>
      <trkpt lat="60.37267" lon="7.53994">
        <ele>1240.24</ele>
        <time>2019-04-02T11:45:28Z</time>
      </trkpt>
      <trkpt lat="60.37245" lon="7.53843">
        <ele>1243.12</ele>
        <time>2019-04-02T11:45:39Z</time>
      </trkpt>
      <trkpt lat="60.37241" lon="7.53822">
        <ele>1242.64</ele>
        <time>2019-04-02T11:45:41Z</time>
      </trkpt>
      <trkpt lat="60.37238" lon="7.53812">
        <ele>1244.56</ele>
        <time>2019-04-02T11:45:42Z</time>
      </trkpt>
      <trkpt lat="60.37237" lon="7.53802">
        <ele>1244.56</ele>
        <time>2019-04-02T11:45:43Z</time>
      </trkpt>
      <trkpt lat="60.37235" lon="7.53792">
        <ele>1243.12</ele>
        <time>2019-04-02T11:45:44Z</time>
      </trkpt>
      <trkpt lat="60.37234" lon="7.53781">
        <ele>1243.12</ele>
        <time>2019-04-02T11:45:45Z</time>
      </trkpt>
      <trkpt lat="60.37229" lon="7.53702">
        <ele>1241.68</ele>
        <time>2019-04-02T11:45:52Z</time>
      </trkpt>
      <trkpt lat="60.37229" lon="7.5369">
        <ele>1241.68</ele>
        <time>2019-04-02T11:45:53Z</time>
      </trkpt>
      <trkpt lat="60.3723" lon="7.53679">
        <ele>1241.68</ele>
        <time>2019-04-02T11:45:54Z</time>
      </trkpt>
      <trkpt lat="60.37235" lon="7.53637">
        <ele>1241.68</ele>
        <time>2019-04-02T11:45:58Z</time>
      </trkpt>
      <trkpt lat="60.37237" lon="7.53627">
        <ele>1241.68</ele>
        <time>2019-04-02T11:45:59Z</time>
      </trkpt>
      <trkpt lat="60.37255" lon="7.53562">
        <ele>1237.83</ele>
        <time>2019-04-02T11:46:05Z</time>
      </trkpt>
      <trkpt lat="60.37257" lon="7.53557">
        <ele>1237.83</ele>
        <time>2019-04-02T11:46:06Z</time>
      </trkpt>
      <trkpt lat="60.37258" lon="7.53555">
        <ele>1239.28</ele>
        <time>2019-04-02T11:46:08Z</time>
      </trkpt>
      <trkpt lat="60.3726" lon="7.53553">
        <ele>1239.28</ele>
        <time>2019-04-02T11:46:09Z</time>
      </trkpt>
      <trkpt lat="60.37262" lon="7.53549">
        <ele>1239.28</ele>
        <time>2019-04-02T11:46:10Z</time>
      </trkpt>
      <trkpt lat="60.37265" lon="7.53542">
        <ele>1239.28</ele>
        <time>2019-04-02T11:46:11Z</time>
      </trkpt>
      <trkpt lat="60.37266" lon="7.53534">
        <ele>1239.28</ele>
        <time>2019-04-02T11:46:12Z</time>
      </trkpt>
      <trkpt lat="60.37267" lon="7.53524">
        <ele>1239.28</ele>
        <time>2019-04-02T11:46:13Z</time>
      </trkpt>
      <trkpt lat="60.37268" lon="7.53515">
        <ele>1239.28</ele>
        <time>2019-04-02T11:46:14Z</time>
      </trkpt>
      <trkpt lat="60.37271" lon="7.53505">
        <ele>1239.28</ele>
        <time>2019-04-02T11:46:15Z</time>
      </trkpt>
      <trkpt lat="60.37273" lon="7.53501">
        <ele>1239.28</ele>
        <time>2019-04-02T11:46:16Z</time>
      </trkpt>
      <trkpt lat="60.37274" lon="7.535">
        <ele>1239.28</ele>
        <time>2019-04-02T11:46:17Z</time>
      </trkpt>
      <trkpt lat="60.37275" lon="7.53497">
        <ele>1239.76</ele>
        <time>2019-04-02T11:46:18Z</time>
      </trkpt>
      <trkpt lat="60.37275" lon="7.53495">
        <ele>1239.76</ele>
        <time>2019-04-02T11:46:19Z</time>
      </trkpt>
      <trkpt lat="60.37275" lon="7.53492">
        <ele>1239.76</ele>
        <time>2019-04-02T11:46:20Z</time>
      </trkpt>
      <trkpt lat="60.37275" lon="7.5349">
        <ele>1239.76</ele>
        <time>2019-04-02T11:46:21Z</time>
      </trkpt>
      <trkpt lat="60.37275" lon="7.53488">
        <ele>1240.24</ele>
        <time>2019-04-02T11:46:35Z</time>
      </trkpt>
      <trkpt lat="60.37276" lon="7.53486">
        <ele>1240.24</ele>
        <time>2019-04-02T11:46:37Z</time>
      </trkpt>
      <trkpt lat="60.37276" lon="7.53482">
        <ele>1240.24</ele>
        <time>2019-04-02T11:46:38Z</time>
      </trkpt>
      <trkpt lat="60.37276" lon="7.53475">
        <ele>1240.24</ele>
        <time>2019-04-02T11:46:39Z</time>
      </trkpt>
      <trkpt lat="60.37279" lon="7.53443">
        <ele>1238.8</ele>
        <time>2019-04-02T11:46:42Z</time>
      </trkpt>
      <trkpt lat="60.37281" lon="7.53431">
        <ele>1238.8</ele>
        <time>2019-04-02T11:46:43Z</time>
      </trkpt>
      <trkpt lat="60.37283" lon="7.53419">
        <ele>1236.87</ele>
        <time>2019-04-02T11:46:44Z</time>
      </trkpt>
      <trkpt lat="60.37288" lon="7.53394">
        <ele>1235.43</ele>
        <time>2019-04-02T11:46:46Z</time>
      </trkpt>
      <trkpt lat="60.37289" lon="7.53381">
        <ele>1235.43</ele>
        <time>2019-04-02T11:46:47Z</time>
      </trkpt>
      <trkpt lat="60.37292" lon="7.53325">
        <ele>1230.14</ele>
        <time>2019-04-02T11:46:50Z</time>
      </trkpt>
      <trkpt lat="60.37292" lon="7.53302">
        <ele>1227.26</ele>
        <time>2019-04-02T11:46:51Z</time>
      </trkpt>
      <trkpt lat="60.37291" lon="7.53279">
        <ele>1224.38</ele>
        <time>2019-04-02T11:46:52Z</time>
      </trkpt>
      <trkpt lat="60.37289" lon="7.53256">
        <ele>1225.82</ele>
        <time>2019-04-02T11:46:53Z</time>
      </trkpt>
      <trkpt lat="60.37273" lon="7.53156">
        <ele>1221.97</ele>
        <time>2019-04-02T11:46:58Z</time>
      </trkpt>
      <trkpt lat="60.37269" lon="7.53138">
        <ele>1221.97</ele>
        <time>2019-04-02T11:46:59Z</time>
      </trkpt>
      <trkpt lat="60.37265" lon="7.53121">
        <ele>1225.82</ele>
        <time>2019-04-02T11:47:00Z</time>
      </trkpt>
      <trkpt lat="60.37257" lon="7.53091">
        <ele>1229.18</ele>
        <time>2019-04-02T11:47:02Z</time>
      </trkpt>
      <trkpt lat="60.3725" lon="7.53062">
        <ele>1228.7</ele>
        <time>2019-04-02T11:47:04Z</time>
      </trkpt>
      <trkpt lat="60.37247" lon="7.53047">
        <ele>1227.74</ele>
        <time>2019-04-02T11:47:05Z</time>
      </trkpt>
      <trkpt lat="60.3724" lon="7.53017">
        <ele>1230.62</ele>
        <time>2019-04-02T11:47:07Z</time>
      </trkpt>
      <trkpt lat="60.37229" lon="7.52973">
        <ele>1232.07</ele>
        <time>2019-04-02T11:47:10Z</time>
      </trkpt>
      <trkpt lat="60.37219" lon="7.5293">
        <ele>1232.55</ele>
        <time>2019-04-02T11:47:13Z</time>
      </trkpt>
      <trkpt lat="60.37212" lon="7.52904">
        <ele>1233.99</ele>
        <time>2019-04-02T11:47:15Z</time>
      </trkpt>
      <trkpt lat="60.37191" lon="7.52829">
        <ele>1234.47</ele>
        <time>2019-04-02T11:47:21Z</time>
      </trkpt>
      <trkpt lat="60.37187" lon="7.52817">
        <ele>1233.03</ele>
        <time>2019-04-02T11:47:22Z</time>
      </trkpt>
      <trkpt lat="60.37184" lon="7.52805">
        <ele>1233.03</ele>
        <time>2019-04-02T11:47:23Z</time>
      </trkpt>
      <trkpt lat="60.37158" lon="7.52714">
        <ele>1232.55</ele>
        <time>2019-04-02T11:47:31Z</time>
      </trkpt>
      <trkpt lat="60.37146" lon="7.52669">
        <ele>1233.03</ele>
        <time>2019-04-02T11:47:35Z</time>
      </trkpt>
      <trkpt lat="60.37143" lon="7.52657">
        <ele>1233.03</ele>
        <time>2019-04-02T11:47:36Z</time>
      </trkpt>
      <trkpt lat="60.3714" lon="7.52646">
        <ele>1229.66</ele>
        <time>2019-04-02T11:47:37Z</time>
      </trkpt>
      <trkpt lat="60.37137" lon="7.52636">
        <ele>1231.11</ele>
        <time>2019-04-02T11:47:38Z</time>
      </trkpt>
      <trkpt lat="60.37114" lon="7.52554">
        <ele>1230.62</ele>
        <time>2019-04-02T11:47:45Z</time>
      </trkpt>
      <trkpt lat="60.37104" lon="7.52514">
        <ele>1232.07</ele>
        <time>2019-04-02T11:47:48Z</time>
      </trkpt>
      <trkpt lat="60.37084" lon="7.52439">
        <ele>1227.74</ele>
        <time>2019-04-02T11:47:53Z</time>
      </trkpt>
      <trkpt lat="60.37075" lon="7.52406">
        <ele>1225.82</ele>
        <time>2019-04-02T11:47:55Z</time>
      </trkpt>
      <trkpt lat="60.37066" lon="7.52376">
        <ele>1228.7</ele>
        <time>2019-04-02T11:47:57Z</time>
      </trkpt>
      <trkpt lat="60.37053" lon="7.52332">
        <ele>1224.38</ele>
        <time>2019-04-02T11:48:00Z</time>
      </trkpt>
      <trkpt lat="60.37049" lon="7.52318">
        <ele>1228.22</ele>
        <time>2019-04-02T11:48:01Z</time>
      </trkpt>
      <trkpt lat="60.37046" lon="7.52303">
        <ele>1225.34</ele>
        <time>2019-04-02T11:48:02Z</time>
      </trkpt>
      <trkpt lat="60.37043" lon="7.52289">
        <ele>1225.34</ele>
        <time>2019-04-02T11:48:03Z</time>
      </trkpt>
      <trkpt lat="60.37036" lon="7.5226">
        <ele>1223.9</ele>
        <time>2019-04-02T11:48:05Z</time>
      </trkpt>
      <trkpt lat="60.37025" lon="7.5222">
        <ele>1227.74</ele>
        <time>2019-04-02T11:48:08Z</time>
      </trkpt>
      <trkpt lat="60.37021" lon="7.52206">
        <ele>1227.74</ele>
        <time>2019-04-02T11:48:09Z</time>
      </trkpt>
      <trkpt lat="60.37013" lon="7.5218">
        <ele>1229.66</ele>
        <time>2019-04-02T11:48:11Z</time>
      </trkpt>
      <trkpt lat="60.36992" lon="7.52111">
        <ele>1226.3</ele>
        <time>2019-04-02T11:48:16Z</time>
      </trkpt>
      <trkpt lat="60.36988" lon="7.52098">
        <ele>1230.62</ele>
        <time>2019-04-02T11:48:17Z</time>
      </trkpt>
      <trkpt lat="60.36984" lon="7.52085">
        <ele>1230.62</ele>
        <time>2019-04-02T11:48:18Z</time>
      </trkpt>
      <trkpt lat="60.36976" lon="7.52055">
        <ele>1228.7</ele>
        <time>2019-04-02T11:48:20Z</time>
      </trkpt>
      <trkpt lat="60.36968" lon="7.52028">
        <ele>1229.66</ele>
        <time>2019-04-02T11:48:22Z</time>
      </trkpt>
      <trkpt lat="60.36956" lon="7.51986">
        <ele>1226.3</ele>
        <time>2019-04-02T11:48:25Z</time>
      </trkpt>
      <trkpt lat="60.36951" lon="7.51972">
        <ele>1227.26</ele>
        <time>2019-04-02T11:48:26Z</time>
      </trkpt>
      <trkpt lat="60.36945" lon="7.51946">
        <ele>1228.22</ele>
        <time>2019-04-02T11:48:28Z</time>
      </trkpt>
      <trkpt lat="60.36935" lon="7.51895">
        <ele>1229.66</ele>
        <time>2019-04-02T11:48:32Z</time>
      </trkpt>
      <trkpt lat="60.36922" lon="7.51831">
        <ele>1233.03</ele>
        <time>2019-04-02T11:48:38Z</time>
      </trkpt>
      <trkpt lat="60.3692" lon="7.51821">
        <ele>1233.03</ele>
        <time>2019-04-02T11:48:39Z</time>
      </trkpt>
      <trkpt lat="60.36914" lon="7.51773">
        <ele>1233.99</ele>
        <time>2019-04-02T11:48:43Z</time>
      </trkpt>
      <trkpt lat="60.36912" lon="7.51759">
        <ele>1233.99</ele>
        <time>2019-04-02T11:48:44Z</time>
      </trkpt>
      <trkpt lat="60.3691" lon="7.5173">
        <ele>1232.07</ele>
        <time>2019-04-02T11:48:46Z</time>
      </trkpt>
      <trkpt lat="60.36906" lon="7.51684">
        <ele>1233.51</ele>
        <time>2019-04-02T11:48:49Z</time>
      </trkpt>
      <trkpt lat="60.36902" lon="7.51653">
        <ele>1234.47</ele>
        <time>2019-04-02T11:48:51Z</time>
      </trkpt>
      <trkpt lat="60.36893" lon="7.51571">
        <ele>1230.62</ele>
        <time>2019-04-02T11:48:56Z</time>
      </trkpt>
      <trkpt lat="60.36889" lon="7.51538">
        <ele>1229.66</ele>
        <time>2019-04-02T11:48:58Z</time>
      </trkpt>
      <trkpt lat="60.36888" lon="7.51523">
        <ele>1233.51</ele>
        <time>2019-04-02T11:48:59Z</time>
      </trkpt>
      <trkpt lat="60.36886" lon="7.51508">
        <ele>1233.51</ele>
        <time>2019-04-02T11:49:00Z</time>
      </trkpt>
      <trkpt lat="60.36881" lon="7.51463">
        <ele>1232.07</ele>
        <time>2019-04-02T11:49:03Z</time>
      </trkpt>
      <trkpt lat="60.36876" lon="7.51399">
        <ele>1232.07</ele>
        <time>2019-04-02T11:49:08Z</time>
      </trkpt>
      <trkpt lat="60.36875" lon="7.51372">
        <ele>1233.51</ele>
        <time>2019-04-02T11:49:10Z</time>
      </trkpt>
      <trkpt lat="60.36873" lon="7.51328">
        <ele>1232.07</ele>
        <time>2019-04-02T11:49:13Z</time>
      </trkpt>
      <trkpt lat="60.3687" lon="7.51278">
        <ele>1233.99</ele>
        <time>2019-04-02T11:49:16Z</time>
      </trkpt>
      <trkpt lat="60.36869" lon="7.51262">
        <ele>1235.43</ele>
        <time>2019-04-02T11:49:17Z</time>
      </trkpt>
      <trkpt lat="60.36866" lon="7.51248">
        <ele>1235.43</ele>
        <time>2019-04-02T11:49:18Z</time>
      </trkpt>
      <trkpt lat="60.36864" lon="7.51235">
        <ele>1233.99</ele>
        <time>2019-04-02T11:49:19Z</time>
      </trkpt>
      <trkpt lat="60.36862" lon="7.51225">
        <ele>1235.43</ele>
        <time>2019-04-02T11:49:20Z</time>
      </trkpt>
      <trkpt lat="60.36861" lon="7.51215">
        <ele>1235.91</ele>
        <time>2019-04-02T11:49:21Z</time>
      </trkpt>
      <trkpt lat="60.3686" lon="7.51205">
        <ele>1237.35</ele>
        <time>2019-04-02T11:49:22Z</time>
      </trkpt>
      <trkpt lat="60.36858" lon="7.51174">
        <ele>1240.24</ele>
        <time>2019-04-02T11:49:25Z</time>
      </trkpt>
      <trkpt lat="60.36857" lon="7.51134">
        <ele>1243.6</ele>
        <time>2019-04-02T11:49:29Z</time>
      </trkpt>
      <trkpt lat="60.36857" lon="7.51115">
        <ele>1245.53</ele>
        <time>2019-04-02T11:49:31Z</time>
      </trkpt>
      <trkpt lat="60.36857" lon="7.51107">
        <ele>1245.53</ele>
        <time>2019-04-02T11:49:32Z</time>
      </trkpt>
      <trkpt lat="60.36859" lon="7.51089">
        <ele>1246.49</ele>
        <time>2019-04-02T11:49:34Z</time>
      </trkpt>
      <trkpt lat="60.3686" lon="7.5108">
        <ele>1247.93</ele>
        <time>2019-04-02T11:49:35Z</time>
      </trkpt>
      <trkpt lat="60.36861" lon="7.51071">
        <ele>1247.93</ele>
        <time>2019-04-02T11:49:36Z</time>
      </trkpt>
      <trkpt lat="60.36861" lon="7.51063">
        <ele>1248.89</ele>
        <time>2019-04-02T11:49:37Z</time>
      </trkpt>
      <trkpt lat="60.36861" lon="7.51053">
        <ele>1250.33</ele>
        <time>2019-04-02T11:49:38Z</time>
      </trkpt>
      <trkpt lat="60.3686" lon="7.51013">
        <ele>1254.18</ele>
        <time>2019-04-02T11:49:42Z</time>
      </trkpt>
      <trkpt lat="60.36853" lon="7.50981">
        <ele>1257.54</ele>
        <time>2019-04-02T11:49:45Z</time>
      </trkpt>
      <trkpt lat="60.36852" lon="7.50969">
        <ele>1257.54</ele>
        <time>2019-04-02T11:49:46Z</time>
      </trkpt>
      <trkpt lat="60.36845" lon="7.50916">
        <ele>1258.02</ele>
        <time>2019-04-02T11:49:51Z</time>
      </trkpt>
      <trkpt lat="60.36848" lon="7.50826">
        <ele>1258.98</ele>
        <time>2019-04-02T11:50:03Z</time>
      </trkpt>
      <trkpt lat="60.3685" lon="7.50773">
        <ele>1256.58</ele>
        <time>2019-04-02T11:50:14Z</time>
      </trkpt>
      <trkpt lat="60.36851" lon="7.50762">
        <ele>1254.66</ele>
        <time>2019-04-02T11:50:15Z</time>
      </trkpt>
      <trkpt lat="60.36852" lon="7.50749">
        <ele>1253.7</ele>
        <time>2019-04-02T11:50:16Z</time>
      </trkpt>
      <trkpt lat="60.36855" lon="7.50736">
        <ele>1252.25</ele>
        <time>2019-04-02T11:50:17Z</time>
      </trkpt>
      <trkpt lat="60.36863" lon="7.50686">
        <ele>1245.04</ele>
        <time>2019-04-02T11:50:20Z</time>
      </trkpt>
      <trkpt lat="60.36864" lon="7.50668">
        <ele>1243.12</ele>
        <time>2019-04-02T11:50:21Z</time>
      </trkpt>
      <trkpt lat="60.36863" lon="7.50628">
        <ele>1239.76</ele>
        <time>2019-04-02T11:50:23Z</time>
      </trkpt>
      <trkpt lat="60.36862" lon="7.50609">
        <ele>1239.76</ele>
        <time>2019-04-02T11:50:24Z</time>
      </trkpt>
      <trkpt lat="60.36861" lon="7.50593">
        <ele>1242.16</ele>
        <time>2019-04-02T11:50:25Z</time>
      </trkpt>
      <trkpt lat="60.36862" lon="7.50578">
        <ele>1243.6</ele>
        <time>2019-04-02T11:50:26Z</time>
      </trkpt>
      <trkpt lat="60.36865" lon="7.50557">
        <ele>1246.97</ele>
        <time>2019-04-02T11:50:32Z</time>
      </trkpt>
      <trkpt lat="60.36867" lon="7.50557">
        <ele>1247.45</ele>
        <time>2019-04-02T11:50:41Z</time>
      </trkpt>
      <trkpt lat="60.36868" lon="7.50557">
        <ele>1247.45</ele>
        <time>2019-04-02T11:50:42Z</time>
      </trkpt>
      <trkpt lat="60.3687" lon="7.50558">
        <ele>1248.41</ele>
        <time>2019-04-02T11:50:53Z</time>
      </trkpt>
      <trkpt lat="60.3687" lon="7.50558">
        <ele>1245.04</ele>
        <time>2019-04-02T11:50:55Z</time>
      </trkpt>
      <trkpt lat="60.3687" lon="7.50558">
        <ele>1248.41</ele>
        <time>2019-04-02T11:50:58Z</time>
      </trkpt>
      <trkpt lat="60.3687" lon="7.50558">
        <ele>1245.04</ele>
        <time>2019-04-02T11:51:06Z</time>
      </trkpt>
      <trkpt lat="60.36871" lon="7.50558">
        <ele>1246.01</ele>
        <time>2019-04-02T11:51:07Z</time>
      </trkpt>
      <trkpt lat="60.36871" lon="7.50555">
        <ele>1246.01</ele>
        <time>2019-04-02T11:51:08Z</time>
      </trkpt>
      <trkpt lat="60.3687" lon="7.50552">
        <ele>1254.66</ele>
        <time>2019-04-02T11:51:09Z</time>
      </trkpt>
      <trkpt lat="60.3687" lon="7.50549">
        <ele>1246.49</ele>
        <time>2019-04-02T11:51:10Z</time>
      </trkpt>
      <trkpt lat="60.36869" lon="7.50545">
        <ele>1244.56</ele>
        <time>2019-04-02T11:51:11Z</time>
      </trkpt>
      <trkpt lat="60.36869" lon="7.50541">
        <ele>1243.12</ele>
        <time>2019-04-02T11:51:12Z</time>
      </trkpt>
      <trkpt lat="60.36868" lon="7.50538">
        <ele>1245.04</ele>
        <time>2019-04-02T11:51:13Z</time>
      </trkpt>
      <trkpt lat="60.36868" lon="7.50534">
        <ele>1241.2</ele>
        <time>2019-04-02T11:51:16Z</time>
      </trkpt>
      <trkpt lat="60.36868" lon="7.50533">
        <ele>1248.89</ele>
        <time>2019-04-02T11:51:17Z</time>
      </trkpt>
      <trkpt lat="60.36868" lon="7.5053">
        <ele>1250.81</ele>
        <time>2019-04-02T11:51:19Z</time>
      </trkpt>
      <trkpt lat="60.36869" lon="7.50533">
        <ele>1246.49</ele>
        <time>2019-04-02T11:51:21Z</time>
      </trkpt>
      <trkpt lat="60.36871" lon="7.50549">
        <ele>1246.01</ele>
        <time>2019-04-02T11:51:29Z</time>
      </trkpt>
      <trkpt lat="60.36871" lon="7.50553">
        <ele>1244.08</ele>
        <time>2019-04-02T11:51:33Z</time>
      </trkpt>
      <trkpt lat="60.36871" lon="7.50555">
        <ele>1248.41</ele>
        <time>2019-04-02T11:51:37Z</time>
      </trkpt>
      <trkpt lat="60.36871" lon="7.50556">
        <ele>1248.41</ele>
        <time>2019-04-02T11:51:38Z</time>
      </trkpt>
      <trkpt lat="60.36871" lon="7.50557">
        <ele>1244.56</ele>
        <time>2019-04-02T11:51:41Z</time>
      </trkpt>
      <trkpt lat="60.36871" lon="7.50558">
        <ele>1241.2</ele>
        <time>2019-04-02T11:51:43Z</time>
      </trkpt>
      <trkpt lat="60.36871" lon="7.50557">
        <ele>1251.29</ele>
        <time>2019-04-02T11:51:44Z</time>
      </trkpt>
      <trkpt lat="60.3687" lon="7.50558">
        <ele>1246.97</ele>
        <time>2019-04-02T11:51:45Z</time>
      </trkpt>
      <trkpt lat="60.3687" lon="7.50557">
        <ele>1247.93</ele>
        <time>2019-04-02T11:52:03Z</time>
      </trkpt>
      <trkpt lat="60.3687" lon="7.50557">
        <ele>1247.93</ele>
        <time>2019-04-02T11:52:32Z</time>
      </trkpt>
      <trkpt lat="60.36874" lon="7.50554">
        <ele>1248.41</ele>
        <time>2019-04-02T11:52:47Z</time>
      </trkpt>
      <trkpt lat="60.36878" lon="7.5055">
        <ele>1248.41</ele>
        <time>2019-04-02T11:52:58Z</time>
      </trkpt>
      <trkpt lat="60.3688" lon="7.50546">
        <ele>1248.41</ele>
        <time>2019-04-02T11:53:02Z</time>
      </trkpt>
      <trkpt lat="60.36884" lon="7.50542">
        <ele>1248.89</ele>
        <time>2019-04-02T11:53:13Z</time>
      </trkpt>
      <trkpt lat="60.36885" lon="7.50541">
        <ele>1247.93</ele>
        <time>2019-04-02T11:53:16Z</time>
      </trkpt>
      <trkpt lat="60.36886" lon="7.50541">
        <ele>1246.97</ele>
        <time>2019-04-02T11:53:30Z</time>
      </trkpt>
      <trkpt lat="60.36885" lon="7.50539">
        <ele>1250.33</ele>
        <time>2019-04-02T11:53:45Z</time>
      </trkpt>
      <trkpt lat="60.36885" lon="7.50539">
        <ele>1247.45</ele>
        <time>2019-04-02T11:53:46Z</time>
      </trkpt>
      <trkpt lat="60.36885" lon="7.5054">
        <ele>1245.04</ele>
        <time>2019-04-02T11:54:05Z</time>
      </trkpt>
      <trkpt lat="60.36885" lon="7.50541">
        <ele>1244.56</ele>
        <time>2019-04-02T11:54:19Z</time>
      </trkpt>
      <trkpt lat="60.36885" lon="7.50542">
        <ele>1246.01</ele>
        <time>2019-04-02T11:54:29Z</time>
      </trkpt>
      <trkpt lat="60.36885" lon="7.50542">
        <ele>1244.56</ele>
        <time>2019-04-02T11:54:34Z</time>
      </trkpt>
      <trkpt lat="60.36885" lon="7.50542">
        <ele>1245.53</ele>
        <time>2019-04-02T11:54:37Z</time>
      </trkpt>
      <trkpt lat="60.36885" lon="7.50542">
        <ele>1246.97</ele>
        <time>2019-04-02T11:54:56Z</time>
      </trkpt>
      <trkpt lat="60.36885" lon="7.50543">
        <ele>1245.04</ele>
        <time>2019-04-02T11:54:59Z</time>
      </trkpt>
      <trkpt lat="60.36885" lon="7.50543">
        <ele>1246.49</ele>
        <time>2019-04-02T11:55:07Z</time>
      </trkpt>
      <trkpt lat="60.36885" lon="7.50543">
        <ele>1245.04</ele>
        <time>2019-04-02T11:55:13Z</time>
      </trkpt>
      <trkpt lat="60.36885" lon="7.50543">
        <ele>1246.01</ele>
        <time>2019-04-02T11:55:20Z</time>
      </trkpt>
      <trkpt lat="60.36885" lon="7.50543">
        <ele>1245.04</ele>
        <time>2019-04-02T11:55:52Z</time>
      </trkpt>
      <trkpt lat="60.36885" lon="7.50543">
        <ele>1246.01</ele>
        <time>2019-04-02T11:55:59Z</time>
      </trkpt>
      <trkpt lat="60.36884" lon="7.50543">
        <ele>1244.56</ele>
        <time>2019-04-02T11:56:01Z</time>
      </trkpt>
      <trkpt lat="60.36885" lon="7.50543">
        <ele>1246.01</ele>
        <time>2019-04-02T11:56:26Z</time>
      </trkpt>
      <trkpt lat="60.36885" lon="7.50543">
        <ele>1246.01</ele>
        <time>2019-04-02T11:56:56Z</time>
      </trkpt>
      <trkpt lat="60.36886" lon="7.50543">
        <ele>1246.01</ele>
        <time>2019-04-02T11:57:27Z</time>
      </trkpt>
      <trkpt lat="60.36886" lon="7.50542">
        <ele>1246.01</ele>
        <time>2019-04-02T11:57:59Z</time>
      </trkpt>
      <trkpt lat="60.36886" lon="7.50542">
        <ele>1246.01</ele>
        <time>2019-04-02T11:58:15Z</time>
      </trkpt>
      <trkpt lat="60.36886" lon="7.50542">
        <ele>1246.49</ele>
        <time>2019-04-02T11:58:42Z</time>
      </trkpt>
      <trkpt lat="60.36886" lon="7.50542">
        <ele>1245.04</ele>
        <time>2019-04-02T11:59:00Z</time>
      </trkpt>
      <trkpt lat="60.36886" lon="7.50542">
        <ele>1246.49</ele>
        <time>2019-04-02T11:59:39Z</time>
      </trkpt>
      <trkpt lat="60.36886" lon="7.50542">
        <ele>1245.04</ele>
        <time>2019-04-02T11:59:43Z</time>
      </trkpt>
      <trkpt lat="60.36886" lon="7.50542">
        <ele>1246.49</ele>
        <time>2019-04-02T11:59:50Z</time>
      </trkpt>
      <trkpt lat="60.36886" lon="7.50541">
        <ele>1246.97</ele>
        <time>2019-04-02T12:00:28Z</time>
      </trkpt>
      <trkpt lat="60.36886" lon="7.50542">
        <ele>1247.45</ele>
        <time>2019-04-02T12:01:02Z</time>
      </trkpt>
      <trkpt lat="60.36887" lon="7.50541">
        <ele>1246.97</ele>
        <time>2019-04-02T12:01:40Z</time>
      </trkpt>
      <trkpt lat="60.36886" lon="7.50542">
        <ele>1246.49</ele>
        <time>2019-04-02T12:02:18Z</time>
      </trkpt>
      <trkpt lat="60.36887" lon="7.50542">
        <ele>1247.45</ele>
        <time>2019-04-02T12:02:21Z</time>
      </trkpt>
      <trkpt lat="60.36886" lon="7.50542">
        <ele>1247.45</ele>
        <time>2019-04-02T12:02:29Z</time>
      </trkpt>
      <trkpt lat="60.36886" lon="7.50542">
        <ele>1246.01</ele>
        <time>2019-04-02T12:02:50Z</time>
      </trkpt>
      <trkpt lat="60.36886" lon="7.50542">
        <ele>1247.45</ele>
        <time>2019-04-02T12:02:54Z</time>
      </trkpt>
      <trkpt lat="60.36886" lon="7.50542">
        <ele>1246.49</ele>
        <time>2019-04-02T12:03:10Z</time>
      </trkpt>
      <trkpt lat="60.36886" lon="7.50541">
        <ele>1247.93</ele>
        <time>2019-04-02T12:03:22Z</time>
      </trkpt>
      <trkpt lat="60.36886" lon="7.50541">
        <ele>1246.49</ele>
        <time>2019-04-02T12:03:57Z</time>
      </trkpt>
      <trkpt lat="60.36886" lon="7.50541">
        <ele>1248.41</ele>
        <time>2019-04-02T12:04:15Z</time>
      </trkpt>
      <trkpt lat="60.36886" lon="7.50541">
        <ele>1247.45</ele>
        <time>2019-04-02T12:04:25Z</time>
      </trkpt>
      <trkpt lat="60.36886" lon="7.50541">
        <ele>1247.93</ele>
        <time>2019-04-02T12:04:41Z</time>
      </trkpt>
      <trkpt lat="60.36886" lon="7.50541">
        <ele>1246.49</ele>
        <time>2019-04-02T12:04:50Z</time>
      </trkpt>
      <trkpt lat="60.36886" lon="7.50541">
        <ele>1247.93</ele>
        <time>2019-04-02T12:04:53Z</time>
      </trkpt>
      <trkpt lat="60.36887" lon="7.5054">
        <ele>1246.49</ele>
        <time>2019-04-02T12:05:23Z</time>
      </trkpt>
      <trkpt lat="60.36887" lon="7.5054">
        <ele>1246.49</ele>
        <time>2019-04-02T12:05:24Z</time>
      </trkpt>
      <trkpt lat="60.36887" lon="7.5054">
        <ele>1247.93</ele>
        <time>2019-04-02T12:05:27Z</time>
      </trkpt>
      <trkpt lat="60.36887" lon="7.5054">
        <ele>1247.45</ele>
        <time>2019-04-02T12:05:48Z</time>
      </trkpt>
      <trkpt lat="60.36887" lon="7.50541">
        <ele>1247.45</ele>
        <time>2019-04-02T12:06:09Z</time>
      </trkpt>
      <trkpt lat="60.36886" lon="7.50541">
        <ele>1247.93</ele>
        <time>2019-04-02T12:06:43Z</time>
      </trkpt>
      <trkpt lat="60.36886" lon="7.50541">
        <ele>1247.45</ele>
        <time>2019-04-02T12:07:01Z</time>
      </trkpt>
      <trkpt lat="60.36886" lon="7.50541">
        <ele>1248.89</ele>
        <time>2019-04-02T12:07:03Z</time>
      </trkpt>
      <trkpt lat="60.36886" lon="7.50541">
        <ele>1247.93</ele>
        <time>2019-04-02T12:07:28Z</time>
      </trkpt>
      <trkpt lat="60.36886" lon="7.5054">
        <ele>1248.89</ele>
        <time>2019-04-02T12:07:37Z</time>
      </trkpt>
      <trkpt lat="60.36886" lon="7.5054">
        <ele>1247.45</ele>
        <time>2019-04-02T12:08:01Z</time>
      </trkpt>
      <trkpt lat="60.36886" lon="7.5054">
        <ele>1247.93</ele>
        <time>2019-04-02T12:08:16Z</time>
      </trkpt>
      <trkpt lat="60.36886" lon="7.5054">
        <ele>1247.45</ele>
        <time>2019-04-02T12:08:52Z</time>
      </trkpt>
      <trkpt lat="60.36886" lon="7.5054">
        <ele>1248.41</ele>
        <time>2019-04-02T12:09:17Z</time>
      </trkpt>
      <trkpt lat="60.36886" lon="7.5054">
        <ele>1247.93</ele>
        <time>2019-04-02T12:09:47Z</time>
      </trkpt>
      <trkpt lat="60.36886" lon="7.5054">
        <ele>1246.97</ele>
        <time>2019-04-02T12:09:52Z</time>
      </trkpt>
      <trkpt lat="60.36886" lon="7.5054">
        <ele>1248.41</ele>
        <time>2019-04-02T12:10:03Z</time>
      </trkpt>
      <trkpt lat="60.36886" lon="7.50539">
        <ele>1248.41</ele>
        <time>2019-04-02T12:10:30Z</time>
      </trkpt>
      <trkpt lat="60.36886" lon="7.5054">
        <ele>1247.45</ele>
        <time>2019-04-02T12:10:51Z</time>
      </trkpt>
      <trkpt lat="60.36886" lon="7.5054">
        <ele>1249.37</ele>
        <time>2019-04-02T12:11:23Z</time>
      </trkpt>
      <trkpt lat="60.36886" lon="7.50539">
        <ele>1247.93</ele>
        <time>2019-04-02T12:12:00Z</time>
      </trkpt>
      <trkpt lat="60.36886" lon="7.50539">
        <ele>1247.93</ele>
        <time>2019-04-02T12:12:36Z</time>
      </trkpt>
      <trkpt lat="60.36886" lon="7.50539">
        <ele>1249.37</ele>
        <time>2019-04-02T12:12:38Z</time>
      </trkpt>
      <trkpt lat="60.36886" lon="7.5054">
        <ele>1249.37</ele>
        <time>2019-04-02T12:13:12Z</time>
      </trkpt>
      <trkpt lat="60.36886" lon="7.5054">
        <ele>1247.93</ele>
        <time>2019-04-02T12:13:16Z</time>
      </trkpt>
      <trkpt lat="60.36886" lon="7.50539">
        <ele>1248.89</ele>
        <time>2019-04-02T12:13:58Z</time>
      </trkpt>
      <trkpt lat="60.36886" lon="7.50539">
        <ele>1247.93</ele>
        <time>2019-04-02T12:14:40Z</time>
      </trkpt>
      <trkpt lat="60.36886" lon="7.50539">
        <ele>1249.37</ele>
        <time>2019-04-02T12:14:42Z</time>
      </trkpt>
      <trkpt lat="60.36887" lon="7.5054">
        <ele>1247.93</ele>
        <time>2019-04-02T12:15:05Z</time>
      </trkpt>
      <trkpt lat="60.36887" lon="7.5054">
        <ele>1249.37</ele>
        <time>2019-04-02T12:15:11Z</time>
      </trkpt>
      <trkpt lat="60.36887" lon="7.5054">
        <ele>1247.93</ele>
        <time>2019-04-02T12:15:18Z</time>
      </trkpt>
      <trkpt lat="60.36886" lon="7.5054">
        <ele>1249.85</ele>
        <time>2019-04-02T12:15:57Z</time>
      </trkpt>
      <trkpt lat="60.36886" lon="7.5054">
        <ele>1248.41</ele>
        <time>2019-04-02T12:16:00Z</time>
      </trkpt>
      <trkpt lat="60.36886" lon="7.5054">
        <ele>1249.85</ele>
        <time>2019-04-02T12:16:03Z</time>
      </trkpt>
      <trkpt lat="60.36886" lon="7.5054">
        <ele>1248.41</ele>
        <time>2019-04-02T12:16:23Z</time>
      </trkpt>
      <trkpt lat="60.36886" lon="7.50539">
        <ele>1249.85</ele>
        <time>2019-04-02T12:17:11Z</time>
      </trkpt>
      <trkpt lat="60.36886" lon="7.50539">
        <ele>1249.85</ele>
        <time>2019-04-02T12:17:39Z</time>
      </trkpt>
      <trkpt lat="60.36886" lon="7.50539">
        <ele>1248.89</ele>
        <time>2019-04-02T12:18:05Z</time>
      </trkpt>
      <trkpt lat="60.36886" lon="7.5054">
        <ele>1250.33</ele>
        <time>2019-04-02T12:18:45Z</time>
      </trkpt>
      <trkpt lat="60.36887" lon="7.50539">
        <ele>1250.81</ele>
        <time>2019-04-02T12:19:23Z</time>
      </trkpt>
      <trkpt lat="60.36887" lon="7.50539">
        <ele>1249.37</ele>
        <time>2019-04-02T12:19:30Z</time>
      </trkpt>
      <trkpt lat="60.36887" lon="7.50538">
        <ele>1249.85</ele>
        <time>2019-04-02T12:20:11Z</time>
      </trkpt>
      <trkpt lat="60.36887" lon="7.50537">
        <ele>1250.33</ele>
        <time>2019-04-02T12:20:42Z</time>
      </trkpt>
      <trkpt lat="60.36887" lon="7.50537">
        <ele>1248.89</ele>
        <time>2019-04-02T12:21:09Z</time>
      </trkpt>
      <trkpt lat="60.36887" lon="7.50537">
        <ele>1248.89</ele>
        <time>2019-04-02T12:21:44Z</time>
      </trkpt>
      <trkpt lat="60.36887" lon="7.50538">
        <ele>1250.33</ele>
        <time>2019-04-02T12:22:18Z</time>
      </trkpt>
      <trkpt lat="60.36887" lon="7.50538">
        <ele>1249.37</ele>
        <time>2019-04-02T12:22:43Z</time>
      </trkpt>
      <trkpt lat="60.36886" lon="7.50537">
        <ele>1249.37</ele>
        <time>2019-04-02T12:23:22Z</time>
      </trkpt>
      <trkpt lat="60.36886" lon="7.50537">
        <ele>1249.37</ele>
        <time>2019-04-02T12:23:37Z</time>
      </trkpt>
      <trkpt lat="60.36887" lon="7.50538">
        <ele>1250.33</ele>
        <time>2019-04-02T12:24:17Z</time>
      </trkpt>
      <trkpt lat="60.36887" lon="7.50538">
        <ele>1250.33</ele>
        <time>2019-04-02T12:24:50Z</time>
      </trkpt>
      <trkpt lat="60.36887" lon="7.50539">
        <ele>1249.37</ele>
        <time>2019-04-02T12:25:02Z</time>
      </trkpt>
      <trkpt lat="60.36887" lon="7.5054">
        <ele>1249.37</ele>
        <time>2019-04-02T12:25:49Z</time>
      </trkpt>
      <trkpt lat="60.36887" lon="7.5054">
        <ele>1250.81</ele>
        <time>2019-04-02T12:26:10Z</time>
      </trkpt>
      <trkpt lat="60.36887" lon="7.5054">
        <ele>1249.37</ele>
        <time>2019-04-02T12:26:15Z</time>
      </trkpt>
      <trkpt lat="60.36887" lon="7.5054">
        <ele>1249.37</ele>
        <time>2019-04-02T12:26:24Z</time>
      </trkpt>
      <trkpt lat="60.36887" lon="7.5054">
        <ele>1250.81</ele>
        <time>2019-04-02T12:27:01Z</time>
      </trkpt>
      <trkpt lat="60.36887" lon="7.5054">
        <ele>1250.81</ele>
        <time>2019-04-02T12:27:37Z</time>
      </trkpt>
      <trkpt lat="60.36887" lon="7.50541">
        <ele>1249.37</ele>
        <time>2019-04-02T12:28:07Z</time>
      </trkpt>
      <trkpt lat="60.36886" lon="7.5054">
        <ele>1250.81</ele>
        <time>2019-04-02T12:28:15Z</time>
      </trkpt>
      <trkpt lat="60.36887" lon="7.50539">
        <ele>1249.37</ele>
        <time>2019-04-02T12:28:57Z</time>
      </trkpt>
      <trkpt lat="60.36887" lon="7.50539">
        <ele>1250.81</ele>
        <time>2019-04-02T12:29:03Z</time>
      </trkpt>
      <trkpt lat="60.36887" lon="7.50539">
        <ele>1249.85</ele>
        <time>2019-04-02T12:29:38Z</time>
      </trkpt>
      <trkpt lat="60.36887" lon="7.50539">
        <ele>1251.29</ele>
        <time>2019-04-02T12:29:43Z</time>
      </trkpt>
      <trkpt lat="60.36887" lon="7.50538">
        <ele>1249.85</ele>
        <time>2019-04-02T12:30:03Z</time>
      </trkpt>
      <trkpt lat="60.36886" lon="7.50538">
        <ele>1249.37</ele>
        <time>2019-04-02T12:30:10Z</time>
      </trkpt>
      <trkpt lat="60.36886" lon="7.50538">
        <ele>1250.81</ele>
        <time>2019-04-02T12:30:17Z</time>
      </trkpt>
      <trkpt lat="60.36886" lon="7.50538">
        <ele>1249.85</ele>
        <time>2019-04-02T12:30:23Z</time>
      </trkpt>
      <trkpt lat="60.36886" lon="7.50539">
        <ele>1249.37</ele>
        <time>2019-04-02T12:31:05Z</time>
      </trkpt>
      <trkpt lat="60.36886" lon="7.50539">
        <ele>1250.33</ele>
        <time>2019-04-02T12:31:48Z</time>
      </trkpt>
      <trkpt lat="60.36886" lon="7.50538">
        <ele>1248.89</ele>
        <time>2019-04-02T12:32:01Z</time>
      </trkpt>
      <trkpt lat="60.36887" lon="7.50538">
        <ele>1248.89</ele>
        <time>2019-04-02T12:32:44Z</time>
      </trkpt>
      <trkpt lat="60.36886" lon="7.50538">
        <ele>1248.89</ele>
        <time>2019-04-02T12:33:19Z</time>
      </trkpt>
      <trkpt lat="60.36886" lon="7.50539">
        <ele>1247.93</ele>
        <time>2019-04-02T12:33:48Z</time>
      </trkpt>
      <trkpt lat="60.36886" lon="7.50539">
        <ele>1249.37</ele>
        <time>2019-04-02T12:34:28Z</time>
      </trkpt>
      <trkpt lat="60.36885" lon="7.50539">
        <ele>1248.89</ele>
        <time>2019-04-02T12:34:56Z</time>
      </trkpt>
      <trkpt lat="60.36885" lon="7.50538">
        <ele>1247.93</ele>
        <time>2019-04-02T12:35:19Z</time>
      </trkpt>
      <trkpt lat="60.36885" lon="7.50539">
        <ele>1247.93</ele>
        <time>2019-04-02T12:35:55Z</time>
      </trkpt>
      <trkpt lat="60.36886" lon="7.50539">
        <ele>1248.89</ele>
        <time>2019-04-02T12:36:35Z</time>
      </trkpt>
      <trkpt lat="60.36886" lon="7.50539">
        <ele>1248.89</ele>
        <time>2019-04-02T12:37:15Z</time>
      </trkpt>
      <trkpt lat="60.36886" lon="7.50538">
        <ele>1248.89</ele>
        <time>2019-04-02T12:37:46Z</time>
      </trkpt>
      <trkpt lat="60.36887" lon="7.50538">
        <ele>1247.45</ele>
        <time>2019-04-02T12:38:21Z</time>
      </trkpt>
      <trkpt lat="60.36887" lon="7.50538">
        <ele>1248.41</ele>
        <time>2019-04-02T12:39:02Z</time>
      </trkpt>
      <trkpt lat="60.36887" lon="7.50538">
        <ele>1248.41</ele>
        <time>2019-04-02T12:39:43Z</time>
      </trkpt>
      <trkpt lat="60.36887" lon="7.50539">
        <ele>1247.45</ele>
        <time>2019-04-02T12:40:07Z</time>
      </trkpt>
      <trkpt lat="60.36887" lon="7.50539">
        <ele>1248.41</ele>
        <time>2019-04-02T12:40:09Z</time>
      </trkpt>
      <trkpt lat="60.36887" lon="7.50539">
        <ele>1248.41</ele>
        <time>2019-04-02T12:40:43Z</time>
      </trkpt>
      <trkpt lat="60.36886" lon="7.5054">
        <ele>1248.41</ele>
        <time>2019-04-02T12:41:19Z</time>
      </trkpt>
      <trkpt lat="60.36887" lon="7.5054">
        <ele>1248.41</ele>
        <time>2019-04-02T12:42:00Z</time>
      </trkpt>
      <trkpt lat="60.36886" lon="7.50539">
        <ele>1248.41</ele>
        <time>2019-04-02T12:42:38Z</time>
      </trkpt>
      <trkpt lat="60.36886" lon="7.50539">
        <ele>1248.41</ele>
        <time>2019-04-02T12:43:13Z</time>
      </trkpt>
      <trkpt lat="60.36886" lon="7.50538">
        <ele>1248.41</ele>
        <time>2019-04-02T12:43:48Z</time>
      </trkpt>
      <trkpt lat="60.36886" lon="7.50538">
        <ele>1248.41</ele>
        <time>2019-04-02T12:44:22Z</time>
      </trkpt>
      <trkpt lat="60.36886" lon="7.50538">
        <ele>1248.41</ele>
        <time>2019-04-02T12:44:54Z</time>
      </trkpt>
      <trkpt lat="60.36886" lon="7.50538">
        <ele>1248.41</ele>
        <time>2019-04-02T12:45:28Z</time>
      </trkpt>
      <trkpt lat="60.36886" lon="7.50538">
        <ele>1248.41</ele>
        <time>2019-04-02T12:46:02Z</time>
      </trkpt>
      <trkpt lat="60.36886" lon="7.50539">
        <ele>1248.41</ele>
        <time>2019-04-02T12:46:31Z</time>
      </trkpt>
      <trkpt lat="60.36886" lon="7.50539">
        <ele>1248.41</ele>
        <time>2019-04-02T12:46:55Z</time>
      </trkpt>
      <trkpt lat="60.36887" lon="7.50539">
        <ele>1248.41</ele>
        <time>2019-04-02T12:47:39Z</time>
      </trkpt>
      <trkpt lat="60.36887" lon="7.50538">
        <ele>1248.41</ele>
        <time>2019-04-02T12:48:17Z</time>
      </trkpt>
      <trkpt lat="60.36886" lon="7.50537">
        <ele>1248.41</ele>
        <time>2019-04-02T12:48:57Z</time>
      </trkpt>
      <trkpt lat="60.36886" lon="7.50537">
        <ele>1248.41</ele>
        <time>2019-04-02T12:49:34Z</time>
      </trkpt>
      <trkpt lat="60.36886" lon="7.50537">
        <ele>1248.41</ele>
        <time>2019-04-02T12:50:11Z</time>
      </trkpt>
      <trkpt lat="60.36887" lon="7.50537">
        <ele>1248.41</ele>
        <time>2019-04-02T12:50:50Z</time>
      </trkpt>
      <trkpt lat="60.36887" lon="7.50538">
        <ele>1248.41</ele>
        <time>2019-04-02T12:51:30Z</time>
      </trkpt>
      <trkpt lat="60.36887" lon="7.50537">
        <ele>1248.89</ele>
        <time>2019-04-02T12:52:20Z</time>
      </trkpt>
      <trkpt lat="60.36887" lon="7.50537">
        <ele>1248.89</ele>
        <time>2019-04-02T12:53:07Z</time>
      </trkpt>
      <trkpt lat="60.36887" lon="7.50537">
        <ele>1248.89</ele>
        <time>2019-04-02T12:53:58Z</time>
      </trkpt>
      <trkpt lat="60.36887" lon="7.50537">
        <ele>1247.93</ele>
        <time>2019-04-02T12:54:34Z</time>
      </trkpt>
      <trkpt lat="60.36886" lon="7.50537">
        <ele>1247.93</ele>
        <time>2019-04-02T12:55:19Z</time>
      </trkpt>
      <trkpt lat="60.36886" lon="7.50537">
        <ele>1247.45</ele>
        <time>2019-04-02T12:55:58Z</time>
      </trkpt>
      <trkpt lat="60.36886" lon="7.50538">
        <ele>1247.45</ele>
        <time>2019-04-02T12:56:38Z</time>
      </trkpt>
      <trkpt lat="60.36886" lon="7.50537">
        <ele>1248.89</ele>
        <time>2019-04-02T12:57:26Z</time>
      </trkpt>
      <trkpt lat="60.36887" lon="7.50537">
        <ele>1249.37</ele>
        <time>2019-04-02T12:58:15Z</time>
      </trkpt>
      <trkpt lat="60.36887" lon="7.50536">
        <ele>1249.37</ele>
        <time>2019-04-02T12:58:40Z</time>
      </trkpt>
      <trkpt lat="60.36887" lon="7.50536">
        <ele>1248.41</ele>
        <time>2019-04-02T12:59:14Z</time>
      </trkpt>
      <trkpt lat="60.36887" lon="7.50536">
        <ele>1249.85</ele>
        <time>2019-04-02T12:59:16Z</time>
      </trkpt>
      <trkpt lat="60.36887" lon="7.50536">
        <ele>1249.85</ele>
        <time>2019-04-02T12:59:46Z</time>
      </trkpt>
      <trkpt lat="60.36887" lon="7.50537">
        <ele>1249.85</ele>
        <time>2019-04-02T13:00:24Z</time>
      </trkpt>
      <trkpt lat="60.36887" lon="7.50538">
        <ele>1249.85</ele>
        <time>2019-04-02T13:01:00Z</time>
      </trkpt>
      <trkpt lat="60.36887" lon="7.50538">
        <ele>1249.85</ele>
        <time>2019-04-02T13:01:35Z</time>
      </trkpt>
      <trkpt lat="60.36887" lon="7.50538">
        <ele>1250.33</ele>
        <time>2019-04-02T13:02:19Z</time>
      </trkpt>
      <trkpt lat="60.36887" lon="7.50537">
        <ele>1250.33</ele>
        <time>2019-04-02T13:02:51Z</time>
      </trkpt>
      <trkpt lat="60.36887" lon="7.50537">
        <ele>1249.37</ele>
        <time>2019-04-02T13:03:28Z</time>
      </trkpt>
      <trkpt lat="60.36887" lon="7.50537">
        <ele>1249.37</ele>
        <time>2019-04-02T13:04:03Z</time>
      </trkpt>
      <trkpt lat="60.36886" lon="7.50537">
        <ele>1250.33</ele>
        <time>2019-04-02T13:04:48Z</time>
      </trkpt>
      <trkpt lat="60.36886" lon="7.50537">
        <ele>1249.37</ele>
        <time>2019-04-02T13:05:31Z</time>
      </trkpt>
      <trkpt lat="60.36886" lon="7.50538">
        <ele>1249.37</ele>
        <time>2019-04-02T13:06:15Z</time>
      </trkpt>
      <trkpt lat="60.36886" lon="7.50538">
        <ele>1250.33</ele>
        <time>2019-04-02T13:06:55Z</time>
      </trkpt>
      <trkpt lat="60.36886" lon="7.50538">
        <ele>1250.33</ele>
        <time>2019-04-02T13:07:33Z</time>
      </trkpt>
      <trkpt lat="60.36887" lon="7.50538">
        <ele>1250.33</ele>
        <time>2019-04-02T13:08:20Z</time>
      </trkpt>
      <trkpt lat="60.36887" lon="7.50539">
        <ele>1250.33</ele>
        <time>2019-04-02T13:08:48Z</time>
      </trkpt>
      <trkpt lat="60.36886" lon="7.50536">
        <ele>1250.33</ele>
        <time>2019-04-02T13:09:33Z</time>
      </trkpt>
      <trkpt lat="60.36886" lon="7.50535">
        <ele>1250.33</ele>
        <time>2019-04-02T13:10:22Z</time>
      </trkpt>
      <trkpt lat="60.36889" lon="7.50532">
        <ele>1251.29</ele>
        <time>2019-04-02T13:10:52Z</time>
      </trkpt>
      <trkpt lat="60.36891" lon="7.50535">
        <ele>1253.22</ele>
        <time>2019-04-02T13:11:03Z</time>
      </trkpt>
      <trkpt lat="60.36893" lon="7.50537">
        <ele>1253.7</ele>
        <time>2019-04-02T13:11:07Z</time>
      </trkpt>
      <trkpt lat="60.36894" lon="7.50538">
        <ele>1254.18</ele>
        <time>2019-04-02T13:11:12Z</time>
      </trkpt>
      <trkpt lat="60.36895" lon="7.5054">
        <ele>1254.18</ele>
        <time>2019-04-02T13:11:13Z</time>
      </trkpt>
      <trkpt lat="60.36898" lon="7.50544">
        <ele>1253.7</ele>
        <time>2019-04-02T13:11:26Z</time>
      </trkpt>
      <trkpt lat="60.369" lon="7.50545">
        <ele>1253.7</ele>
        <time>2019-04-02T13:11:31Z</time>
      </trkpt>
      <trkpt lat="60.36907" lon="7.50552">
        <ele>1252.25</ele>
        <time>2019-04-02T13:11:33Z</time>
      </trkpt>
      <trkpt lat="60.36909" lon="7.50561">
        <ele>1254.18</ele>
        <time>2019-04-02T13:11:34Z</time>
      </trkpt>
      <trkpt lat="60.36912" lon="7.50584">
        <ele>1255.14</ele>
        <time>2019-04-02T13:11:36Z</time>
      </trkpt>
      <trkpt lat="60.36914" lon="7.50606">
        <ele>1255.14</ele>
        <time>2019-04-02T13:11:38Z</time>
      </trkpt>
      <trkpt lat="60.36919" lon="7.50644">
        <ele>1255.62</ele>
        <time>2019-04-02T13:11:41Z</time>
      </trkpt>
      <trkpt lat="60.36921" lon="7.50679">
        <ele>1258.5</ele>
        <time>2019-04-02T13:11:44Z</time>
      </trkpt>
      <trkpt lat="60.36922" lon="7.50694">
        <ele>1257.06</ele>
        <time>2019-04-02T13:11:45Z</time>
      </trkpt>
      <trkpt lat="60.36924" lon="7.50731">
        <ele>1257.06</ele>
        <time>2019-04-02T13:11:48Z</time>
      </trkpt>
      <trkpt lat="60.36923" lon="7.50768">
        <ele>1257.06</ele>
        <time>2019-04-02T13:11:52Z</time>
      </trkpt>
      <trkpt lat="60.36914" lon="7.50746">
        <ele>1255.62</ele>
        <time>2019-04-02T13:11:57Z</time>
      </trkpt>
      <trkpt lat="60.36909" lon="7.50742">
        <ele>1256.1</ele>
        <time>2019-04-02T13:11:58Z</time>
      </trkpt>
      <trkpt lat="60.36894" lon="7.50732">
        <ele>1256.58</ele>
        <time>2019-04-02T13:12:01Z</time>
      </trkpt>
      <trkpt lat="60.36867" lon="7.50718">
        <ele>1255.14</ele>
        <time>2019-04-02T13:12:07Z</time>
      </trkpt>
      <trkpt lat="60.36852" lon="7.50712">
        <ele>1255.14</ele>
        <time>2019-04-02T13:12:11Z</time>
      </trkpt>
      <trkpt lat="60.36858" lon="7.50707">
        <ele>1253.22</ele>
        <time>2019-04-02T13:12:14Z</time>
      </trkpt>
      <trkpt lat="60.36861" lon="7.50714">
        <ele>1255.14</ele>
        <time>2019-04-02T13:12:16Z</time>
      </trkpt>
      <trkpt lat="60.36863" lon="7.50718">
        <ele>1255.62</ele>
        <time>2019-04-02T13:12:17Z</time>
      </trkpt>
      <trkpt lat="60.36871" lon="7.50737">
        <ele>1257.06</ele>
        <time>2019-04-02T13:12:27Z</time>
      </trkpt>
      <trkpt lat="60.36878" lon="7.50778">
        <ele>1259.94</ele>
        <time>2019-04-02T13:12:36Z</time>
      </trkpt>
      <trkpt lat="60.36878" lon="7.50808">
        <ele>1260.91</ele>
        <time>2019-04-02T13:12:43Z</time>
      </trkpt>
      <trkpt lat="60.36882" lon="7.50837">
        <ele>1262.83</ele>
        <time>2019-04-02T13:12:49Z</time>
      </trkpt>
      <trkpt lat="60.36883" lon="7.50851">
        <ele>1264.27</ele>
        <time>2019-04-02T13:12:51Z</time>
      </trkpt>
      <trkpt lat="60.36886" lon="7.5095">
        <ele>1266.67</ele>
        <time>2019-04-02T13:13:02Z</time>
      </trkpt>
      <trkpt lat="60.36886" lon="7.5096">
        <ele>1266.67</ele>
        <time>2019-04-02T13:13:03Z</time>
      </trkpt>
      <trkpt lat="60.36887" lon="7.51018">
        <ele>1263.79</ele>
        <time>2019-04-02T13:13:08Z</time>
      </trkpt>
      <trkpt lat="60.36889" lon="7.51043">
        <ele>1262.83</ele>
        <time>2019-04-02T13:13:10Z</time>
      </trkpt>
      <trkpt lat="60.36889" lon="7.51068">
        <ele>1260.91</ele>
        <time>2019-04-02T13:13:12Z</time>
      </trkpt>
      <trkpt lat="60.36892" lon="7.51127">
        <ele>1258.5</ele>
        <time>2019-04-02T13:13:16Z</time>
      </trkpt>
      <trkpt lat="60.36894" lon="7.5116">
        <ele>1256.1</ele>
        <time>2019-04-02T13:13:18Z</time>
      </trkpt>
      <trkpt lat="60.36896" lon="7.51196">
        <ele>1252.25</ele>
        <time>2019-04-02T13:13:20Z</time>
      </trkpt>
      <trkpt lat="60.369" lon="7.51248">
        <ele>1247.45</ele>
        <time>2019-04-02T13:13:23Z</time>
      </trkpt>
      <trkpt lat="60.36901" lon="7.51264">
        <ele>1247.45</ele>
        <time>2019-04-02T13:13:24Z</time>
      </trkpt>
      <trkpt lat="60.36904" lon="7.51309">
        <ele>1244.08</ele>
        <time>2019-04-02T13:13:27Z</time>
      </trkpt>
      <trkpt lat="60.36913" lon="7.51404">
        <ele>1241.2</ele>
        <time>2019-04-02T13:13:33Z</time>
      </trkpt>
      <trkpt lat="60.36914" lon="7.51419">
        <ele>1242.64</ele>
        <time>2019-04-02T13:13:34Z</time>
      </trkpt>
      <trkpt lat="60.36914" lon="7.51456">
        <ele>1239.28</ele>
        <time>2019-04-02T13:13:38Z</time>
      </trkpt>
      <trkpt lat="60.36913" lon="7.51461">
        <ele>1238.8</ele>
        <time>2019-04-02T13:13:39Z</time>
      </trkpt>
      <trkpt lat="60.36915" lon="7.51476">
        <ele>1236.87</ele>
        <time>2019-04-02T13:13:43Z</time>
      </trkpt>
      <trkpt lat="60.36939" lon="7.51501">
        <ele>1236.39</ele>
        <time>2019-04-02T13:13:49Z</time>
      </trkpt>
      <trkpt lat="60.36949" lon="7.51545">
        <ele>1238.32</ele>
        <time>2019-04-02T13:13:53Z</time>
      </trkpt>
      <trkpt lat="60.36949" lon="7.5157">
        <ele>1234.95</ele>
        <time>2019-04-02T13:13:56Z</time>
      </trkpt>
      <trkpt lat="60.36952" lon="7.51589">
        <ele>1234.95</ele>
        <time>2019-04-02T13:14:01Z</time>
      </trkpt>
      <trkpt lat="60.36952" lon="7.5162">
        <ele>1234.95</ele>
        <time>2019-04-02T13:14:07Z</time>
      </trkpt>
      <trkpt lat="60.36951" lon="7.51636">
        <ele>1236.87</ele>
        <time>2019-04-02T13:14:09Z</time>
      </trkpt>
      <trkpt lat="60.3695" lon="7.51665">
        <ele>1235.91</ele>
        <time>2019-04-02T13:14:12Z</time>
      </trkpt>
      <trkpt lat="60.36949" lon="7.51691">
        <ele>1236.87</ele>
        <time>2019-04-02T13:14:15Z</time>
      </trkpt>
      <trkpt lat="60.36949" lon="7.517">
        <ele>1235.43</ele>
        <time>2019-04-02T13:14:16Z</time>
      </trkpt>
      <trkpt lat="60.36949" lon="7.51717">
        <ele>1235.43</ele>
        <time>2019-04-02T13:14:18Z</time>
      </trkpt>
      <trkpt lat="60.3695" lon="7.51736">
        <ele>1234.95</ele>
        <time>2019-04-02T13:14:20Z</time>
      </trkpt>
      <trkpt lat="60.3695" lon="7.51766">
        <ele>1235.43</ele>
        <time>2019-04-02T13:14:23Z</time>
      </trkpt>
      <trkpt lat="60.36951" lon="7.5181">
        <ele>1234.47</ele>
        <time>2019-04-02T13:14:27Z</time>
      </trkpt>
      <trkpt lat="60.36962" lon="7.51915">
        <ele>1233.99</ele>
        <time>2019-04-02T13:14:35Z</time>
      </trkpt>
      <trkpt lat="60.3697" lon="7.51968">
        <ele>1232.55</ele>
        <time>2019-04-02T13:14:39Z</time>
      </trkpt>
      <trkpt lat="60.36973" lon="7.51998">
        <ele>1232.55</ele>
        <time>2019-04-02T13:14:41Z</time>
      </trkpt>
      <trkpt lat="60.36976" lon="7.52023">
        <ele>1233.99</ele>
        <time>2019-04-02T13:14:43Z</time>
      </trkpt>
      <trkpt lat="60.36985" lon="7.5206">
        <ele>1233.99</ele>
        <time>2019-04-02T13:14:46Z</time>
      </trkpt>
      <trkpt lat="60.36989" lon="7.52085">
        <ele>1234.47</ele>
        <time>2019-04-02T13:14:48Z</time>
      </trkpt>
      <trkpt lat="60.36998" lon="7.52124">
        <ele>1234.47</ele>
        <time>2019-04-02T13:14:51Z</time>
      </trkpt>
      <trkpt lat="60.37006" lon="7.52167">
        <ele>1234.95</ele>
        <time>2019-04-02T13:14:54Z</time>
      </trkpt>
      <trkpt lat="60.37018" lon="7.52206">
        <ele>1233.51</ele>
        <time>2019-04-02T13:14:57Z</time>
      </trkpt>
      <trkpt lat="60.37024" lon="7.5222">
        <ele>1232.55</ele>
        <time>2019-04-02T13:14:58Z</time>
      </trkpt>
      <trkpt lat="60.37033" lon="7.52248">
        <ele>1231.11</ele>
        <time>2019-04-02T13:15:00Z</time>
      </trkpt>
      <trkpt lat="60.37049" lon="7.52308">
        <ele>1233.51</ele>
        <time>2019-04-02T13:15:04Z</time>
      </trkpt>
      <trkpt lat="60.3706" lon="7.52356">
        <ele>1233.99</ele>
        <time>2019-04-02T13:15:07Z</time>
      </trkpt>
      <trkpt lat="60.37076" lon="7.52415">
        <ele>1232.55</ele>
        <time>2019-04-02T13:15:11Z</time>
      </trkpt>
      <trkpt lat="60.37082" lon="7.52428">
        <ele>1232.55</ele>
        <time>2019-04-02T13:15:12Z</time>
      </trkpt>
      <trkpt lat="60.37099" lon="7.52465">
        <ele>1234.95</ele>
        <time>2019-04-02T13:15:15Z</time>
      </trkpt>
      <trkpt lat="60.37104" lon="7.5248">
        <ele>1235.43</ele>
        <time>2019-04-02T13:15:16Z</time>
      </trkpt>
      <trkpt lat="60.37117" lon="7.52526">
        <ele>1235.43</ele>
        <time>2019-04-02T13:15:19Z</time>
      </trkpt>
      <trkpt lat="60.37125" lon="7.52567">
        <ele>1234.95</ele>
        <time>2019-04-02T13:15:22Z</time>
      </trkpt>
      <trkpt lat="60.37141" lon="7.52639">
        <ele>1236.39</ele>
        <time>2019-04-02T13:15:27Z</time>
      </trkpt>
      <trkpt lat="60.37183" lon="7.52788">
        <ele>1235.43</ele>
        <time>2019-04-02T13:15:39Z</time>
      </trkpt>
      <trkpt lat="60.37186" lon="7.52802">
        <ele>1236.87</ele>
        <time>2019-04-02T13:15:40Z</time>
      </trkpt>
      <trkpt lat="60.3719" lon="7.52814">
        <ele>1238.32</ele>
        <time>2019-04-02T13:15:41Z</time>
      </trkpt>
      <trkpt lat="60.37194" lon="7.52827">
        <ele>1238.32</ele>
        <time>2019-04-02T13:15:42Z</time>
      </trkpt>
      <trkpt lat="60.37198" lon="7.52841">
        <ele>1238.32</ele>
        <time>2019-04-02T13:15:43Z</time>
      </trkpt>
      <trkpt lat="60.37203" lon="7.52857">
        <ele>1238.32</ele>
        <time>2019-04-02T13:15:44Z</time>
      </trkpt>
      <trkpt lat="60.37213" lon="7.52889">
        <ele>1238.32</ele>
        <time>2019-04-02T13:15:46Z</time>
      </trkpt>
      <trkpt lat="60.37229" lon="7.52965">
        <ele>1234.95</ele>
        <time>2019-04-02T13:15:51Z</time>
      </trkpt>
      <trkpt lat="60.37233" lon="7.52982">
        <ele>1238.32</ele>
        <time>2019-04-02T13:15:52Z</time>
      </trkpt>
      <trkpt lat="60.37235" lon="7.52998">
        <ele>1236.39</ele>
        <time>2019-04-02T13:15:53Z</time>
      </trkpt>
      <trkpt lat="60.37241" lon="7.5305">
        <ele>1234.95</ele>
        <time>2019-04-02T13:15:56Z</time>
      </trkpt>
      <trkpt lat="60.37243" lon="7.53066">
        <ele>1234.95</ele>
        <time>2019-04-02T13:15:57Z</time>
      </trkpt>
      <trkpt lat="60.37248" lon="7.53099">
        <ele>1232.07</ele>
        <time>2019-04-02T13:15:59Z</time>
      </trkpt>
      <trkpt lat="60.37279" lon="7.53271">
        <ele>1233.51</ele>
        <time>2019-04-02T13:16:09Z</time>
      </trkpt>
      <trkpt lat="60.37282" lon="7.53303">
        <ele>1235.43</ele>
        <time>2019-04-02T13:16:11Z</time>
      </trkpt>
      <trkpt lat="60.37285" lon="7.53328">
        <ele>1236.87</ele>
        <time>2019-04-02T13:16:13Z</time>
      </trkpt>
      <trkpt lat="60.37287" lon="7.5337">
        <ele>1239.76</ele>
        <time>2019-04-02T13:16:18Z</time>
      </trkpt>
      <trkpt lat="60.37289" lon="7.53395">
        <ele>1241.2</ele>
        <time>2019-04-02T13:16:21Z</time>
      </trkpt>
      <trkpt lat="60.37289" lon="7.53438">
        <ele>1243.6</ele>
        <time>2019-04-02T13:16:25Z</time>
      </trkpt>
      <trkpt lat="60.37291" lon="7.53468">
        <ele>1245.04</ele>
        <time>2019-04-02T13:16:28Z</time>
      </trkpt>
      <trkpt lat="60.37293" lon="7.53504">
        <ele>1246.97</ele>
        <time>2019-04-02T13:16:31Z</time>
      </trkpt>
      <trkpt lat="60.37295" lon="7.53526">
        <ele>1251.29</ele>
        <time>2019-04-02T13:16:33Z</time>
      </trkpt>
      <trkpt lat="60.37296" lon="7.53537">
        <ele>1251.29</ele>
        <time>2019-04-02T13:16:34Z</time>
      </trkpt>
      <trkpt lat="60.37298" lon="7.53574">
        <ele>1253.22</ele>
        <time>2019-04-02T13:16:37Z</time>
      </trkpt>
      <trkpt lat="60.37302" lon="7.53662">
        <ele>1255.14</ele>
        <time>2019-04-02T13:16:43Z</time>
      </trkpt>
      <trkpt lat="60.37301" lon="7.53688">
        <ele>1256.1</ele>
        <time>2019-04-02T13:16:45Z</time>
      </trkpt>
      <trkpt lat="60.37301" lon="7.53701">
        <ele>1254.18</ele>
        <time>2019-04-02T13:16:46Z</time>
      </trkpt>
      <trkpt lat="60.37301" lon="7.53788">
        <ele>1253.22</ele>
        <time>2019-04-02T13:16:52Z</time>
      </trkpt>
      <trkpt lat="60.37299" lon="7.53849">
        <ele>1248.41</ele>
        <time>2019-04-02T13:16:56Z</time>
      </trkpt>
      <trkpt lat="60.37304" lon="7.53936">
        <ele>1247.45</ele>
        <time>2019-04-02T13:17:01Z</time>
      </trkpt>
      <trkpt lat="60.37307" lon="7.53971">
        <ele>1246.49</ele>
        <time>2019-04-02T13:17:03Z</time>
      </trkpt>
      <trkpt lat="60.37316" lon="7.5404">
        <ele>1247.45</ele>
        <time>2019-04-02T13:17:07Z</time>
      </trkpt>
      <trkpt lat="60.37327" lon="7.541">
        <ele>1248.89</ele>
        <time>2019-04-02T13:17:11Z</time>
      </trkpt>
      <trkpt lat="60.37331" lon="7.5413">
        <ele>1249.85</ele>
        <time>2019-04-02T13:17:13Z</time>
      </trkpt>
      <trkpt lat="60.37341" lon="7.54189">
        <ele>1252.74</ele>
        <time>2019-04-02T13:17:17Z</time>
      </trkpt>
      <trkpt lat="60.37361" lon="7.54324">
        <ele>1251.29</ele>
        <time>2019-04-02T13:17:27Z</time>
      </trkpt>
      <trkpt lat="60.37368" lon="7.54352">
        <ele>1252.74</ele>
        <time>2019-04-02T13:17:30Z</time>
      </trkpt>
      <trkpt lat="60.37372" lon="7.54379">
        <ele>1253.22</ele>
        <time>2019-04-02T13:17:33Z</time>
      </trkpt>
      <trkpt lat="60.37374" lon="7.54385">
        <ele>1253.22</ele>
        <time>2019-04-02T13:17:34Z</time>
      </trkpt>
      <trkpt lat="60.37377" lon="7.54392">
        <ele>1252.25</ele>
        <time>2019-04-02T13:17:35Z</time>
      </trkpt>
      <trkpt lat="60.37379" lon="7.54399">
        <ele>1252.25</ele>
        <time>2019-04-02T13:17:36Z</time>
      </trkpt>
      <trkpt lat="60.37382" lon="7.54408">
        <ele>1252.25</ele>
        <time>2019-04-02T13:17:37Z</time>
      </trkpt>
      <trkpt lat="60.37383" lon="7.54418">
        <ele>1252.25</ele>
        <time>2019-04-02T13:17:38Z</time>
      </trkpt>
      <trkpt lat="60.37385" lon="7.54428">
        <ele>1253.7</ele>
        <time>2019-04-02T13:17:39Z</time>
      </trkpt>
      <trkpt lat="60.37387" lon="7.54439">
        <ele>1254.18</ele>
        <time>2019-04-02T13:17:40Z</time>
      </trkpt>
      <trkpt lat="60.37388" lon="7.54446">
        <ele>1254.18</ele>
        <time>2019-04-02T13:17:41Z</time>
      </trkpt>
      <trkpt lat="60.3739" lon="7.54455">
        <ele>1253.7</ele>
        <time>2019-04-02T13:17:42Z</time>
      </trkpt>
      <trkpt lat="60.3739" lon="7.54464">
        <ele>1254.66</ele>
        <time>2019-04-02T13:17:43Z</time>
      </trkpt>
      <trkpt lat="60.37391" lon="7.54472">
        <ele>1254.18</ele>
        <time>2019-04-02T13:17:44Z</time>
      </trkpt>
      <trkpt lat="60.37392" lon="7.54481">
        <ele>1254.66</ele>
        <time>2019-04-02T13:17:45Z</time>
      </trkpt>
      <trkpt lat="60.37394" lon="7.5449">
        <ele>1255.62</ele>
        <time>2019-04-02T13:17:46Z</time>
      </trkpt>
      <trkpt lat="60.37395" lon="7.54499">
        <ele>1255.62</ele>
        <time>2019-04-02T13:17:47Z</time>
      </trkpt>
      <trkpt lat="60.37399" lon="7.54544">
        <ele>1258.02</ele>
        <time>2019-04-02T13:17:51Z</time>
      </trkpt>
      <trkpt lat="60.37402" lon="7.54557">
        <ele>1258.02</ele>
        <time>2019-04-02T13:17:52Z</time>
      </trkpt>
      <trkpt lat="60.37411" lon="7.5463">
        <ele>1262.83</ele>
        <time>2019-04-02T13:17:57Z</time>
      </trkpt>
      <trkpt lat="60.37415" lon="7.54663">
        <ele>1258.02</ele>
        <time>2019-04-02T13:17:59Z</time>
      </trkpt>
      <trkpt lat="60.37417" lon="7.54681">
        <ele>1258.02</ele>
        <time>2019-04-02T13:18:00Z</time>
      </trkpt>
      <trkpt lat="60.37423" lon="7.54715">
        <ele>1256.58</ele>
        <time>2019-04-02T13:18:02Z</time>
      </trkpt>
      <trkpt lat="60.3743" lon="7.54752">
        <ele>1255.62</ele>
        <time>2019-04-02T13:18:04Z</time>
      </trkpt>
      <trkpt lat="60.37434" lon="7.54771">
        <ele>1254.66</ele>
        <time>2019-04-02T13:18:05Z</time>
      </trkpt>
      <trkpt lat="60.37445" lon="7.54827">
        <ele>1253.22</ele>
        <time>2019-04-02T13:18:08Z</time>
      </trkpt>
      <trkpt lat="60.37448" lon="7.54846">
        <ele>1252.74</ele>
        <time>2019-04-02T13:18:09Z</time>
      </trkpt>
      <trkpt lat="60.37457" lon="7.54917">
        <ele>1249.37</ele>
        <time>2019-04-02T13:18:13Z</time>
      </trkpt>
      <trkpt lat="60.37462" lon="7.54947">
        <ele>1248.89</ele>
        <time>2019-04-02T13:18:15Z</time>
      </trkpt>
      <trkpt lat="60.37472" lon="7.54998">
        <ele>1245.53</ele>
        <time>2019-04-02T13:18:18Z</time>
      </trkpt>
      <trkpt lat="60.3748" lon="7.5505">
        <ele>1246.97</ele>
        <time>2019-04-02T13:18:21Z</time>
      </trkpt>
      <trkpt lat="60.37486" lon="7.55094">
        <ele>1246.97</ele>
        <time>2019-04-02T13:18:24Z</time>
      </trkpt>
      <trkpt lat="60.37506" lon="7.55194">
        <ele>1245.04</ele>
        <time>2019-04-02T13:18:31Z</time>
      </trkpt>
      <trkpt lat="60.37516" lon="7.55254">
        <ele>1247.45</ele>
        <time>2019-04-02T13:18:35Z</time>
      </trkpt>
      <trkpt lat="60.37521" lon="7.55283">
        <ele>1245.53</ele>
        <time>2019-04-02T13:18:37Z</time>
      </trkpt>
      <trkpt lat="60.37529" lon="7.5534">
        <ele>1244.08</ele>
        <time>2019-04-02T13:18:41Z</time>
      </trkpt>
      <trkpt lat="60.37538" lon="7.55382">
        <ele>1242.64</ele>
        <time>2019-04-02T13:18:44Z</time>
      </trkpt>
      <trkpt lat="60.37541" lon="7.55397">
        <ele>1242.64</ele>
        <time>2019-04-02T13:18:45Z</time>
      </trkpt>
      <trkpt lat="60.37554" lon="7.55468">
        <ele>1238.32</ele>
        <time>2019-04-02T13:18:50Z</time>
      </trkpt>
      <trkpt lat="60.37556" lon="7.5548">
        <ele>1239.76</ele>
        <time>2019-04-02T13:18:51Z</time>
      </trkpt>
      <trkpt lat="60.37561" lon="7.55504">
        <ele>1240.72</ele>
        <time>2019-04-02T13:18:53Z</time>
      </trkpt>
      <trkpt lat="60.37566" lon="7.5553">
        <ele>1239.28</ele>
        <time>2019-04-02T13:18:55Z</time>
      </trkpt>
      <trkpt lat="60.37576" lon="7.55574">
        <ele>1241.2</ele>
        <time>2019-04-02T13:18:58Z</time>
      </trkpt>
      <trkpt lat="60.37581" lon="7.55602">
        <ele>1241.2</ele>
        <time>2019-04-02T13:19:00Z</time>
      </trkpt>
      <trkpt lat="60.37584" lon="7.55615">
        <ele>1238.8</ele>
        <time>2019-04-02T13:19:01Z</time>
      </trkpt>
      <trkpt lat="60.37586" lon="7.55628">
        <ele>1238.8</ele>
        <time>2019-04-02T13:19:02Z</time>
      </trkpt>
      <trkpt lat="60.37605" lon="7.5571">
        <ele>1237.83</ele>
        <time>2019-04-02T13:19:08Z</time>
      </trkpt>
      <trkpt lat="60.37609" lon="7.55724">
        <ele>1240.72</ele>
        <time>2019-04-02T13:19:09Z</time>
      </trkpt>
      <trkpt lat="60.37613" lon="7.55739">
        <ele>1240.72</ele>
        <time>2019-04-02T13:19:10Z</time>
      </trkpt>
      <trkpt lat="60.37617" lon="7.55756">
        <ele>1240.72</ele>
        <time>2019-04-02T13:19:11Z</time>
      </trkpt>
      <trkpt lat="60.37629" lon="7.55817">
        <ele>1242.64</ele>
        <time>2019-04-02T13:19:15Z</time>
      </trkpt>
      <trkpt lat="60.3764" lon="7.55878">
        <ele>1242.64</ele>
        <time>2019-04-02T13:19:19Z</time>
      </trkpt>
      <trkpt lat="60.37646" lon="7.55923">
        <ele>1241.68</ele>
        <time>2019-04-02T13:19:22Z</time>
      </trkpt>
      <trkpt lat="60.37651" lon="7.55961">
        <ele>1241.2</ele>
        <time>2019-04-02T13:19:25Z</time>
      </trkpt>
      <trkpt lat="60.37653" lon="7.55973">
        <ele>1239.76</ele>
        <time>2019-04-02T13:19:26Z</time>
      </trkpt>
      <trkpt lat="60.37657" lon="7.55985">
        <ele>1239.76</ele>
        <time>2019-04-02T13:19:27Z</time>
      </trkpt>
      <trkpt lat="60.3766" lon="7.55996">
        <ele>1238.8</ele>
        <time>2019-04-02T13:19:28Z</time>
      </trkpt>
      <trkpt lat="60.37663" lon="7.56008">
        <ele>1238.8</ele>
        <time>2019-04-02T13:19:29Z</time>
      </trkpt>
      <trkpt lat="60.37673" lon="7.56061">
        <ele>1240.24</ele>
        <time>2019-04-02T13:19:33Z</time>
      </trkpt>
      <trkpt lat="60.37686" lon="7.56115">
        <ele>1241.68</ele>
        <time>2019-04-02T13:19:37Z</time>
      </trkpt>
      <trkpt lat="60.37708" lon="7.56225">
        <ele>1240.72</ele>
        <time>2019-04-02T13:19:44Z</time>
      </trkpt>
      <trkpt lat="60.37727" lon="7.56291">
        <ele>1239.28</ele>
        <time>2019-04-02T13:19:49Z</time>
      </trkpt>
      <trkpt lat="60.37751" lon="7.5639">
        <ele>1241.68</ele>
        <time>2019-04-02T13:19:56Z</time>
      </trkpt>
      <trkpt lat="60.37755" lon="7.56405">
        <ele>1241.68</ele>
        <time>2019-04-02T13:19:57Z</time>
      </trkpt>
      <trkpt lat="60.37765" lon="7.5645">
        <ele>1240.24</ele>
        <time>2019-04-02T13:20:00Z</time>
      </trkpt>
      <trkpt lat="60.37767" lon="7.56465">
        <ele>1240.72</ele>
        <time>2019-04-02T13:20:01Z</time>
      </trkpt>
      <trkpt lat="60.3777" lon="7.56479">
        <ele>1240.24</ele>
        <time>2019-04-02T13:20:02Z</time>
      </trkpt>
      <trkpt lat="60.37777" lon="7.56507">
        <ele>1241.68</ele>
        <time>2019-04-02T13:20:04Z</time>
      </trkpt>
      <trkpt lat="60.3781" lon="7.56633">
        <ele>1239.28</ele>
        <time>2019-04-02T13:20:13Z</time>
      </trkpt>
      <trkpt lat="60.3782" lon="7.5667">
        <ele>1239.28</ele>
        <time>2019-04-02T13:20:16Z</time>
      </trkpt>
      <trkpt lat="60.37828" lon="7.56695">
        <ele>1241.2</ele>
        <time>2019-04-02T13:20:18Z</time>
      </trkpt>
      <trkpt lat="60.37861" lon="7.56819">
        <ele>1238.8</ele>
        <time>2019-04-02T13:20:27Z</time>
      </trkpt>
      <trkpt lat="60.37865" lon="7.56831">
        <ele>1238.8</ele>
        <time>2019-04-02T13:20:28Z</time>
      </trkpt>
      <trkpt lat="60.3787" lon="7.56853">
        <ele>1240.24</ele>
        <time>2019-04-02T13:20:30Z</time>
      </trkpt>
      <trkpt lat="60.37873" lon="7.56863">
        <ele>1240.24</ele>
        <time>2019-04-02T13:20:31Z</time>
      </trkpt>
      <trkpt lat="60.37903" lon="7.56966">
        <ele>1241.2</ele>
        <time>2019-04-02T13:20:39Z</time>
      </trkpt>
      <trkpt lat="60.37908" lon="7.5698">
        <ele>1241.68</ele>
        <time>2019-04-02T13:20:40Z</time>
      </trkpt>
      <trkpt lat="60.37926" lon="7.57053">
        <ele>1242.64</ele>
        <time>2019-04-02T13:20:45Z</time>
      </trkpt>
      <trkpt lat="60.37934" lon="7.57081">
        <ele>1242.64</ele>
        <time>2019-04-02T13:20:47Z</time>
      </trkpt>
      <trkpt lat="60.37937" lon="7.57094">
        <ele>1242.64</ele>
        <time>2019-04-02T13:20:48Z</time>
      </trkpt>
      <trkpt lat="60.37941" lon="7.57107">
        <ele>1241.2</ele>
        <time>2019-04-02T13:20:49Z</time>
      </trkpt>
      <trkpt lat="60.37946" lon="7.5712">
        <ele>1241.2</ele>
        <time>2019-04-02T13:20:50Z</time>
      </trkpt>
      <trkpt lat="60.37951" lon="7.57133">
        <ele>1241.2</ele>
        <time>2019-04-02T13:20:51Z</time>
      </trkpt>
      <trkpt lat="60.37957" lon="7.57148">
        <ele>1240.24</ele>
        <time>2019-04-02T13:20:52Z</time>
      </trkpt>
      <trkpt lat="60.3799" lon="7.57255">
        <ele>1240.72</ele>
        <time>2019-04-02T13:20:59Z</time>
      </trkpt>
      <trkpt lat="60.3802" lon="7.5734">
        <ele>1240.24</ele>
        <time>2019-04-02T13:21:05Z</time>
      </trkpt>
      <trkpt lat="60.38028" lon="7.57368">
        <ele>1240.24</ele>
        <time>2019-04-02T13:21:07Z</time>
      </trkpt>
      <trkpt lat="60.38033" lon="7.57382">
        <ele>1240.24</ele>
        <time>2019-04-02T13:21:08Z</time>
      </trkpt>
      <trkpt lat="60.38039" lon="7.57395">
        <ele>1242.64</ele>
        <time>2019-04-02T13:21:09Z</time>
      </trkpt>
      <trkpt lat="60.38045" lon="7.57408">
        <ele>1242.64</ele>
        <time>2019-04-02T13:21:10Z</time>
      </trkpt>
      <trkpt lat="60.38051" lon="7.57422">
        <ele>1240.24</ele>
        <time>2019-04-02T13:21:11Z</time>
      </trkpt>
      <trkpt lat="60.38057" lon="7.57437">
        <ele>1240.24</ele>
        <time>2019-04-02T13:21:12Z</time>
      </trkpt>
      <trkpt lat="60.38062" lon="7.57452">
        <ele>1240.24</ele>
        <time>2019-04-02T13:21:13Z</time>
      </trkpt>
      <trkpt lat="60.38074" lon="7.57479">
        <ele>1240.24</ele>
        <time>2019-04-02T13:21:15Z</time>
      </trkpt>
      <trkpt lat="60.3808" lon="7.57492">
        <ele>1242.16</ele>
        <time>2019-04-02T13:21:16Z</time>
      </trkpt>
      <trkpt lat="60.38086" lon="7.57507">
        <ele>1242.16</ele>
        <time>2019-04-02T13:21:17Z</time>
      </trkpt>
      <trkpt lat="60.38098" lon="7.57536">
        <ele>1240.72</ele>
        <time>2019-04-02T13:21:19Z</time>
      </trkpt>
      <trkpt lat="60.38107" lon="7.57561">
        <ele>1243.12</ele>
        <time>2019-04-02T13:21:21Z</time>
      </trkpt>
      <trkpt lat="60.38122" lon="7.57594">
        <ele>1240.24</ele>
        <time>2019-04-02T13:21:24Z</time>
      </trkpt>
      <trkpt lat="60.38153" lon="7.57662">
        <ele>1239.28</ele>
        <time>2019-04-02T13:21:31Z</time>
      </trkpt>
      <trkpt lat="60.3817" lon="7.57689">
        <ele>1240.24</ele>
        <time>2019-04-02T13:21:36Z</time>
      </trkpt>
      <trkpt lat="60.38173" lon="7.57692">
        <ele>1240.24</ele>
        <time>2019-04-02T13:21:38Z</time>
      </trkpt>
      <trkpt lat="60.38175" lon="7.57698">
        <ele>1240.24</ele>
        <time>2019-04-02T13:21:46Z</time>
      </trkpt>
      <trkpt lat="60.38177" lon="7.57701">
        <ele>1240.24</ele>
        <time>2019-04-02T13:21:47Z</time>
      </trkpt>
      <trkpt lat="60.38182" lon="7.57711">
        <ele>1240.24</ele>
        <time>2019-04-02T13:21:49Z</time>
      </trkpt>
      <trkpt lat="60.38185" lon="7.57718">
        <ele>1240.24</ele>
        <time>2019-04-02T13:21:50Z</time>
      </trkpt>
      <trkpt lat="60.38188" lon="7.57725">
        <ele>1240.24</ele>
        <time>2019-04-02T13:21:51Z</time>
      </trkpt>
      <trkpt lat="60.38206" lon="7.57765">
        <ele>1241.68</ele>
        <time>2019-04-02T13:21:55Z</time>
      </trkpt>
      <trkpt lat="60.38254" lon="7.57887">
        <ele>1241.2</ele>
        <time>2019-04-02T13:22:04Z</time>
      </trkpt>
      <trkpt lat="60.38283" lon="7.57953">
        <ele>1242.16</ele>
        <time>2019-04-02T13:22:09Z</time>
      </trkpt>
      <trkpt lat="60.38323" lon="7.58041">
        <ele>1240.24</ele>
        <time>2019-04-02T13:22:16Z</time>
      </trkpt>
      <trkpt lat="60.3833" lon="7.58053">
        <ele>1240.24</ele>
        <time>2019-04-02T13:22:17Z</time>
      </trkpt>
      <trkpt lat="60.38336" lon="7.58066">
        <ele>1240.24</ele>
        <time>2019-04-02T13:22:18Z</time>
      </trkpt>
      <trkpt lat="60.38342" lon="7.58081">
        <ele>1239.28</ele>
        <time>2019-04-02T13:22:19Z</time>
      </trkpt>
      <trkpt lat="60.38348" lon="7.58094">
        <ele>1241.2</ele>
        <time>2019-04-02T13:22:20Z</time>
      </trkpt>
      <trkpt lat="60.38354" lon="7.58106">
        <ele>1240.24</ele>
        <time>2019-04-02T13:22:21Z</time>
      </trkpt>
      <trkpt lat="60.38359" lon="7.58118">
        <ele>1239.76</ele>
        <time>2019-04-02T13:22:22Z</time>
      </trkpt>
      <trkpt lat="60.38366" lon="7.58129">
        <ele>1239.76</ele>
        <time>2019-04-02T13:22:23Z</time>
      </trkpt>
      <trkpt lat="60.38385" lon="7.58163">
        <ele>1237.83</ele>
        <time>2019-04-02T13:22:26Z</time>
      </trkpt>
      <trkpt lat="60.38389" lon="7.58171">
        <ele>1237.83</ele>
        <time>2019-04-02T13:22:27Z</time>
      </trkpt>
      <trkpt lat="60.38392" lon="7.58178">
        <ele>1240.24</ele>
        <time>2019-04-02T13:22:28Z</time>
      </trkpt>
      <trkpt lat="60.38394" lon="7.58181">
        <ele>1240.24</ele>
        <time>2019-04-02T13:22:29Z</time>
      </trkpt>
      <trkpt lat="60.38399" lon="7.58177">
        <ele>1238.8</ele>
        <time>2019-04-02T13:22:32Z</time>
      </trkpt>
      <trkpt lat="60.38399" lon="7.58174">
        <ele>1238.8</ele>
        <time>2019-04-02T13:22:33Z</time>
      </trkpt>
      <trkpt lat="60.384" lon="7.58161">
        <ele>1238.32</ele>
        <time>2019-04-02T13:22:37Z</time>
      </trkpt>
      <trkpt lat="60.38409" lon="7.58166">
        <ele>1239.76</ele>
        <time>2019-04-02T13:22:44Z</time>
      </trkpt>
      <trkpt lat="60.38411" lon="7.58172">
        <ele>1238.8</ele>
        <time>2019-04-02T13:22:46Z</time>
      </trkpt>
      <trkpt lat="60.38412" lon="7.58173">
        <ele>1238.8</ele>
        <time>2019-04-02T13:22:47Z</time>
      </trkpt>
      <trkpt lat="60.38418" lon="7.58186">
        <ele>1239.76</ele>
        <time>2019-04-02T13:22:52Z</time>
      </trkpt>
      <trkpt lat="60.3842" lon="7.58192">
        <ele>1240.24</ele>
        <time>2019-04-02T13:22:58Z</time>
      </trkpt>
      <trkpt lat="60.38423" lon="7.582">
        <ele>1238.8</ele>
        <time>2019-04-02T13:23:01Z</time>
      </trkpt>
      <trkpt lat="60.38427" lon="7.58209">
        <ele>1238.8</ele>
        <time>2019-04-02T13:23:04Z</time>
      </trkpt>
      <trkpt lat="60.38436" lon="7.58239">
        <ele>1237.35</ele>
        <time>2019-04-02T13:23:10Z</time>
      </trkpt>
      <trkpt lat="60.3844" lon="7.58251">
        <ele>1236.87</ele>
        <time>2019-04-02T13:23:17Z</time>
      </trkpt>
      <trkpt lat="60.3844" lon="7.5825">
        <ele>1238.8</ele>
        <time>2019-04-02T13:23:22Z</time>
      </trkpt>
      <trkpt lat="60.3844" lon="7.58249">
        <ele>1239.28</ele>
        <time>2019-04-02T13:23:28Z</time>
      </trkpt>
      <trkpt lat="60.38445" lon="7.58253">
        <ele>1236.87</ele>
        <time>2019-04-02T13:23:30Z</time>
      </trkpt>
      <trkpt lat="60.38452" lon="7.58266">
        <ele>1236.87</ele>
        <time>2019-04-02T13:23:32Z</time>
      </trkpt>
      <trkpt lat="60.38464" lon="7.58296">
        <ele>1238.32</ele>
        <time>2019-04-02T13:23:35Z</time>
      </trkpt>
      <trkpt lat="60.38501" lon="7.58379">
        <ele>1239.76</ele>
        <time>2019-04-02T13:23:42Z</time>
      </trkpt>
      <trkpt lat="60.38517" lon="7.5842">
        <ele>1240.72</ele>
        <time>2019-04-02T13:23:47Z</time>
      </trkpt>
      <trkpt lat="60.3852" lon="7.58429">
        <ele>1241.2</ele>
        <time>2019-04-02T13:23:48Z</time>
      </trkpt>
      <trkpt lat="60.38526" lon="7.58448">
        <ele>1241.2</ele>
        <time>2019-04-02T13:23:50Z</time>
      </trkpt>
      <trkpt lat="60.38543" lon="7.58487">
        <ele>1239.76</ele>
        <time>2019-04-02T13:23:54Z</time>
      </trkpt>
      <trkpt lat="60.38554" lon="7.5851">
        <ele>1238.8</ele>
        <time>2019-04-02T13:23:56Z</time>
      </trkpt>
      <trkpt lat="60.38564" lon="7.58536">
        <ele>1238.8</ele>
        <time>2019-04-02T13:23:58Z</time>
      </trkpt>
      <trkpt lat="60.38582" lon="7.58593">
        <ele>1239.76</ele>
        <time>2019-04-02T13:24:02Z</time>
      </trkpt>
      <trkpt lat="60.38586" lon="7.58607">
        <ele>1239.76</ele>
        <time>2019-04-02T13:24:03Z</time>
      </trkpt>
      <trkpt lat="60.38591" lon="7.58621">
        <ele>1239.76</ele>
        <time>2019-04-02T13:24:04Z</time>
      </trkpt>
      <trkpt lat="60.38595" lon="7.58634">
        <ele>1239.76</ele>
        <time>2019-04-02T13:24:05Z</time>
      </trkpt>
      <trkpt lat="60.38599" lon="7.58647">
        <ele>1239.76</ele>
        <time>2019-04-02T13:24:06Z</time>
      </trkpt>
      <trkpt lat="60.38604" lon="7.58659">
        <ele>1239.76</ele>
        <time>2019-04-02T13:24:07Z</time>
      </trkpt>
      <trkpt lat="60.38621" lon="7.58695">
        <ele>1237.83</ele>
        <time>2019-04-02T13:24:10Z</time>
      </trkpt>
      <trkpt lat="60.38646" lon="7.58751">
        <ele>1235.43</ele>
        <time>2019-04-02T13:24:14Z</time>
      </trkpt>
      <trkpt lat="60.38658" lon="7.5878">
        <ele>1234.95</ele>
        <time>2019-04-02T13:24:16Z</time>
      </trkpt>
      <trkpt lat="60.38665" lon="7.58795">
        <ele>1234.95</ele>
        <time>2019-04-02T13:24:17Z</time>
      </trkpt>
      <trkpt lat="60.38677" lon="7.58824">
        <ele>1235.91</ele>
        <time>2019-04-02T13:24:19Z</time>
      </trkpt>
      <trkpt lat="60.38684" lon="7.58837">
        <ele>1236.87</ele>
        <time>2019-04-02T13:24:20Z</time>
      </trkpt>
      <trkpt lat="60.38691" lon="7.58851">
        <ele>1235.91</ele>
        <time>2019-04-02T13:24:21Z</time>
      </trkpt>
      <trkpt lat="60.38709" lon="7.58894">
        <ele>1233.03</ele>
        <time>2019-04-02T13:24:24Z</time>
      </trkpt>
      <trkpt lat="60.38716" lon="7.58908">
        <ele>1233.03</ele>
        <time>2019-04-02T13:24:25Z</time>
      </trkpt>
      <trkpt lat="60.38723" lon="7.58923">
        <ele>1233.03</ele>
        <time>2019-04-02T13:24:26Z</time>
      </trkpt>
      <trkpt lat="60.38731" lon="7.58935">
        <ele>1234.47</ele>
        <time>2019-04-02T13:24:27Z</time>
      </trkpt>
      <trkpt lat="60.38739" lon="7.58947">
        <ele>1233.03</ele>
        <time>2019-04-02T13:24:28Z</time>
      </trkpt>
      <trkpt lat="60.38747" lon="7.5896">
        <ele>1232.07</ele>
        <time>2019-04-02T13:24:29Z</time>
      </trkpt>
      <trkpt lat="60.38756" lon="7.58973">
        <ele>1232.07</ele>
        <time>2019-04-02T13:24:30Z</time>
      </trkpt>
      <trkpt lat="60.38799" lon="7.5904">
        <ele>1231.11</ele>
        <time>2019-04-02T13:24:35Z</time>
      </trkpt>
      <trkpt lat="60.38822" lon="7.59087">
        <ele>1229.66</ele>
        <time>2019-04-02T13:24:38Z</time>
      </trkpt>
      <trkpt lat="60.38829" lon="7.59104">
        <ele>1228.7</ele>
        <time>2019-04-02T13:24:39Z</time>
      </trkpt>
      <trkpt lat="60.38849" lon="7.59153">
        <ele>1230.62</ele>
        <time>2019-04-02T13:24:42Z</time>
      </trkpt>
      <trkpt lat="60.38867" lon="7.59203">
        <ele>1228.22</ele>
        <time>2019-04-02T13:24:45Z</time>
      </trkpt>
      <trkpt lat="60.38874" lon="7.59219">
        <ele>1228.22</ele>
        <time>2019-04-02T13:24:46Z</time>
      </trkpt>
      <trkpt lat="60.3891" lon="7.59301">
        <ele>1224.86</ele>
        <time>2019-04-02T13:24:51Z</time>
      </trkpt>
      <trkpt lat="60.38917" lon="7.59317">
        <ele>1224.86</ele>
        <time>2019-04-02T13:24:52Z</time>
      </trkpt>
      <trkpt lat="60.38954" lon="7.59393">
        <ele>1223.42</ele>
        <time>2019-04-02T13:24:57Z</time>
      </trkpt>
      <trkpt lat="60.38964" lon="7.59404">
        <ele>1221.97</ele>
        <time>2019-04-02T13:24:58Z</time>
      </trkpt>
      <trkpt lat="60.38984" lon="7.59421">
        <ele>1218.61</ele>
        <time>2019-04-02T13:25:00Z</time>
      </trkpt>
      <trkpt lat="60.38992" lon="7.59432">
        <ele>1217.65</ele>
        <time>2019-04-02T13:25:01Z</time>
      </trkpt>
      <trkpt lat="60.38999" lon="7.59443">
        <ele>1217.65</ele>
        <time>2019-04-02T13:25:02Z</time>
      </trkpt>
      <trkpt lat="60.39012" lon="7.59465">
        <ele>1219.57</ele>
        <time>2019-04-02T13:25:04Z</time>
      </trkpt>
      <trkpt lat="60.39027" lon="7.59491">
        <ele>1216.69</ele>
        <time>2019-04-02T13:25:06Z</time>
      </trkpt>
      <trkpt lat="60.39033" lon="7.59507">
        <ele>1215.24</ele>
        <time>2019-04-02T13:25:07Z</time>
      </trkpt>
      <trkpt lat="60.39041" lon="7.59541">
        <ele>1214.28</ele>
        <time>2019-04-02T13:25:09Z</time>
      </trkpt>
      <trkpt lat="60.39044" lon="7.59557">
        <ele>1214.28</ele>
        <time>2019-04-02T13:25:10Z</time>
      </trkpt>
      <trkpt lat="60.39048" lon="7.59572">
        <ele>1215.72</ele>
        <time>2019-04-02T13:25:11Z</time>
      </trkpt>
      <trkpt lat="60.39052" lon="7.59587">
        <ele>1215.72</ele>
        <time>2019-04-02T13:25:12Z</time>
      </trkpt>
      <trkpt lat="60.3907" lon="7.59652">
        <ele>1213.8</ele>
        <time>2019-04-02T13:25:16Z</time>
      </trkpt>
      <trkpt lat="60.39076" lon="7.59669">
        <ele>1215.24</ele>
        <time>2019-04-02T13:25:17Z</time>
      </trkpt>
      <trkpt lat="60.39081" lon="7.59685">
        <ele>1215.24</ele>
        <time>2019-04-02T13:25:18Z</time>
      </trkpt>
      <trkpt lat="60.39085" lon="7.59702">
        <ele>1213.8</ele>
        <time>2019-04-02T13:25:19Z</time>
      </trkpt>
      <trkpt lat="60.3909" lon="7.59721">
        <ele>1213.8</ele>
        <time>2019-04-02T13:25:20Z</time>
      </trkpt>
      <trkpt lat="60.39099" lon="7.59757">
        <ele>1212.36</ele>
        <time>2019-04-02T13:25:22Z</time>
      </trkpt>
      <trkpt lat="60.39111" lon="7.5981">
        <ele>1208.03</ele>
        <time>2019-04-02T13:25:25Z</time>
      </trkpt>
      <trkpt lat="60.39117" lon="7.59825">
        <ele>1208.03</ele>
        <time>2019-04-02T13:25:26Z</time>
      </trkpt>
      <trkpt lat="60.39123" lon="7.59842">
        <ele>1208.03</ele>
        <time>2019-04-02T13:25:27Z</time>
      </trkpt>
      <trkpt lat="60.39128" lon="7.59857">
        <ele>1207.55</ele>
        <time>2019-04-02T13:25:28Z</time>
      </trkpt>
      <trkpt lat="60.39135" lon="7.59873">
        <ele>1207.55</ele>
        <time>2019-04-02T13:25:29Z</time>
      </trkpt>
      <trkpt lat="60.39164" lon="7.59965">
        <ele>1205.15</ele>
        <time>2019-04-02T13:25:35Z</time>
      </trkpt>
      <trkpt lat="60.39173" lon="7.59993">
        <ele>1206.11</ele>
        <time>2019-04-02T13:25:37Z</time>
      </trkpt>
      <trkpt lat="60.3919" lon="7.60056">
        <ele>1204.67</ele>
        <time>2019-04-02T13:25:41Z</time>
      </trkpt>
      <trkpt lat="60.39207" lon="7.60124">
        <ele>1202.75</ele>
        <time>2019-04-02T13:25:45Z</time>
      </trkpt>
      <trkpt lat="60.39228" lon="7.60198">
        <ele>1202.27</ele>
        <time>2019-04-02T13:25:50Z</time>
      </trkpt>
      <trkpt lat="60.3923" lon="7.6021">
        <ele>1202.27</ele>
        <time>2019-04-02T13:25:51Z</time>
      </trkpt>
      <trkpt lat="60.39245" lon="7.60272">
        <ele>1203.23</ele>
        <time>2019-04-02T13:25:56Z</time>
      </trkpt>
      <trkpt lat="60.39248" lon="7.60285">
        <ele>1203.23</ele>
        <time>2019-04-02T13:25:57Z</time>
      </trkpt>
      <trkpt lat="60.3925" lon="7.60298">
        <ele>1203.23</ele>
        <time>2019-04-02T13:25:58Z</time>
      </trkpt>
      <trkpt lat="60.39254" lon="7.6031">
        <ele>1201.3</ele>
        <time>2019-04-02T13:25:59Z</time>
      </trkpt>
      <trkpt lat="60.39259" lon="7.6032">
        <ele>1201.3</ele>
        <time>2019-04-02T13:26:00Z</time>
      </trkpt>
      <trkpt lat="60.39264" lon="7.60329">
        <ele>1201.3</ele>
        <time>2019-04-02T13:26:01Z</time>
      </trkpt>
      <trkpt lat="60.39268" lon="7.60339">
        <ele>1201.3</ele>
        <time>2019-04-02T13:26:02Z</time>
      </trkpt>
      <trkpt lat="60.39272" lon="7.60348">
        <ele>1201.3</ele>
        <time>2019-04-02T13:26:03Z</time>
      </trkpt>
      <trkpt lat="60.3928" lon="7.60367">
        <ele>1203.23</ele>
        <time>2019-04-02T13:26:05Z</time>
      </trkpt>
      <trkpt lat="60.39284" lon="7.60378">
        <ele>1201.79</ele>
        <time>2019-04-02T13:26:06Z</time>
      </trkpt>
      <trkpt lat="60.39289" lon="7.60391">
        <ele>1201.79</ele>
        <time>2019-04-02T13:26:07Z</time>
      </trkpt>
      <trkpt lat="60.39305" lon="7.60431">
        <ele>1199.86</ele>
        <time>2019-04-02T13:26:10Z</time>
      </trkpt>
      <trkpt lat="60.3931" lon="7.60445">
        <ele>1198.9</ele>
        <time>2019-04-02T13:26:11Z</time>
      </trkpt>
      <trkpt lat="60.39315" lon="7.6046">
        <ele>1197.46</ele>
        <time>2019-04-02T13:26:12Z</time>
      </trkpt>
      <trkpt lat="60.39321" lon="7.60474">
        <ele>1197.94</ele>
        <time>2019-04-02T13:26:13Z</time>
      </trkpt>
      <trkpt lat="60.39332" lon="7.60501">
        <ele>1196.02</ele>
        <time>2019-04-02T13:26:15Z</time>
      </trkpt>
      <trkpt lat="60.3935" lon="7.60537">
        <ele>1196.5</ele>
        <time>2019-04-02T13:26:18Z</time>
      </trkpt>
      <trkpt lat="60.39356" lon="7.60546">
        <ele>1196.5</ele>
        <time>2019-04-02T13:26:19Z</time>
      </trkpt>
      <trkpt lat="60.39394" lon="7.60588">
        <ele>1191.69</ele>
        <time>2019-04-02T13:26:24Z</time>
      </trkpt>
      <trkpt lat="60.39411" lon="7.60608">
        <ele>1190.73</ele>
        <time>2019-04-02T13:26:26Z</time>
      </trkpt>
      <trkpt lat="60.39418" lon="7.60619">
        <ele>1190.73</ele>
        <time>2019-04-02T13:26:27Z</time>
      </trkpt>
      <trkpt lat="60.3943" lon="7.6064">
        <ele>1190.73</ele>
        <time>2019-04-02T13:26:29Z</time>
      </trkpt>
      <trkpt lat="60.3944" lon="7.60661">
        <ele>1192.65</ele>
        <time>2019-04-02T13:26:31Z</time>
      </trkpt>
      <trkpt lat="60.39448" lon="7.60686">
        <ele>1191.21</ele>
        <time>2019-04-02T13:26:33Z</time>
      </trkpt>
      <trkpt lat="60.39452" lon="7.60699">
        <ele>1189.77</ele>
        <time>2019-04-02T13:26:34Z</time>
      </trkpt>
      <trkpt lat="60.39461" lon="7.60727">
        <ele>1189.29</ele>
        <time>2019-04-02T13:26:36Z</time>
      </trkpt>
      <trkpt lat="60.39466" lon="7.6074">
        <ele>1188.81</ele>
        <time>2019-04-02T13:26:37Z</time>
      </trkpt>
      <trkpt lat="60.39471" lon="7.60753">
        <ele>1188.81</ele>
        <time>2019-04-02T13:26:38Z</time>
      </trkpt>
      <trkpt lat="60.39476" lon="7.60766">
        <ele>1188.81</ele>
        <time>2019-04-02T13:26:39Z</time>
      </trkpt>
      <trkpt lat="60.39481" lon="7.60779">
        <ele>1188.81</ele>
        <time>2019-04-02T13:26:40Z</time>
      </trkpt>
      <trkpt lat="60.39485" lon="7.60792">
        <ele>1187.85</ele>
        <time>2019-04-02T13:26:41Z</time>
      </trkpt>
      <trkpt lat="60.39494" lon="7.60817">
        <ele>1186.88</ele>
        <time>2019-04-02T13:26:43Z</time>
      </trkpt>
      <trkpt lat="60.39514" lon="7.60864">
        <ele>1186.88</ele>
        <time>2019-04-02T13:26:47Z</time>
      </trkpt>
      <trkpt lat="60.39543" lon="7.60924">
        <ele>1184.96</ele>
        <time>2019-04-02T13:26:52Z</time>
      </trkpt>
      <trkpt lat="60.39548" lon="7.60935">
        <ele>1184.96</ele>
        <time>2019-04-02T13:26:53Z</time>
      </trkpt>
      <trkpt lat="60.39553" lon="7.60945">
        <ele>1183.52</ele>
        <time>2019-04-02T13:26:54Z</time>
      </trkpt>
      <trkpt lat="60.39559" lon="7.60954">
        <ele>1182.56</ele>
        <time>2019-04-02T13:26:55Z</time>
      </trkpt>
      <trkpt lat="60.39565" lon="7.60963">
        <ele>1183.04</ele>
        <time>2019-04-02T13:26:56Z</time>
      </trkpt>
      <trkpt lat="60.3957" lon="7.60971">
        <ele>1182.56</ele>
        <time>2019-04-02T13:26:57Z</time>
      </trkpt>
      <trkpt lat="60.39575" lon="7.60979">
        <ele>1182.56</ele>
        <time>2019-04-02T13:26:58Z</time>
      </trkpt>
      <trkpt lat="60.39581" lon="7.60988">
        <ele>1182.56</ele>
        <time>2019-04-02T13:26:59Z</time>
      </trkpt>
      <trkpt lat="60.39607" lon="7.61029">
        <ele>1183.04</ele>
        <time>2019-04-02T13:27:04Z</time>
      </trkpt>
      <trkpt lat="60.39613" lon="7.61036">
        <ele>1183.04</ele>
        <time>2019-04-02T13:27:05Z</time>
      </trkpt>
      <trkpt lat="60.39641" lon="7.61068">
        <ele>1185.92</ele>
        <time>2019-04-02T13:27:09Z</time>
      </trkpt>
      <trkpt lat="60.39662" lon="7.61097">
        <ele>1184</ele>
        <time>2019-04-02T13:27:12Z</time>
      </trkpt>
      <trkpt lat="60.3967" lon="7.61109">
        <ele>1183.52</ele>
        <time>2019-04-02T13:27:13Z</time>
      </trkpt>
      <trkpt lat="60.39696" lon="7.61155">
        <ele>1181.6</ele>
        <time>2019-04-02T13:27:17Z</time>
      </trkpt>
      <trkpt lat="60.39713" lon="7.6119">
        <ele>1181.12</ele>
        <time>2019-04-02T13:27:20Z</time>
      </trkpt>
      <trkpt lat="60.39729" lon="7.61224">
        <ele>1183.04</ele>
        <time>2019-04-02T13:27:24Z</time>
      </trkpt>
      <trkpt lat="60.39732" lon="7.6123">
        <ele>1183.04</ele>
        <time>2019-04-02T13:27:25Z</time>
      </trkpt>
      <trkpt lat="60.39739" lon="7.61243">
        <ele>1184</ele>
        <time>2019-04-02T13:27:28Z</time>
      </trkpt>
      <trkpt lat="60.39742" lon="7.61243">
        <ele>1184</ele>
        <time>2019-04-02T13:27:29Z</time>
      </trkpt>
      <trkpt lat="60.39743" lon="7.61242">
        <ele>1182.56</ele>
        <time>2019-04-02T13:27:30Z</time>
      </trkpt>
      <trkpt lat="60.39745" lon="7.61239">
        <ele>1182.56</ele>
        <time>2019-04-02T13:27:31Z</time>
      </trkpt>
      <trkpt lat="60.39747" lon="7.61236">
        <ele>1182.56</ele>
        <time>2019-04-02T13:27:32Z</time>
      </trkpt>
      <trkpt lat="60.3975" lon="7.61233">
        <ele>1182.08</ele>
        <time>2019-04-02T13:27:33Z</time>
      </trkpt>
      <trkpt lat="60.39753" lon="7.6123">
        <ele>1182.08</ele>
        <time>2019-04-02T13:27:34Z</time>
      </trkpt>
      <trkpt lat="60.39757" lon="7.61227">
        <ele>1181.12</ele>
        <time>2019-04-02T13:27:35Z</time>
      </trkpt>
      <trkpt lat="60.39774" lon="7.61207">
        <ele>1180.64</ele>
        <time>2019-04-02T13:27:40Z</time>
      </trkpt>
      <trkpt lat="60.39778" lon="7.61204">
        <ele>1180.64</ele>
        <time>2019-04-02T13:27:41Z</time>
      </trkpt>
      <trkpt lat="60.39782" lon="7.61198">
        <ele>1180.64</ele>
        <time>2019-04-02T13:27:42Z</time>
      </trkpt>
      <trkpt lat="60.39787" lon="7.61161">
        <ele>1177.75</ele>
        <time>2019-04-02T13:27:45Z</time>
      </trkpt>
      <trkpt lat="60.39789" lon="7.61103">
        <ele>1175.35</ele>
        <time>2019-04-02T13:27:49Z</time>
      </trkpt>
      <trkpt lat="60.3979" lon="7.61089">
        <ele>1175.35</ele>
        <time>2019-04-02T13:27:50Z</time>
      </trkpt>
      <trkpt lat="60.39801" lon="7.61064">
        <ele>1175.83</ele>
        <time>2019-04-02T13:27:55Z</time>
      </trkpt>
      <trkpt lat="60.39806" lon="7.61066">
        <ele>1175.83</ele>
        <time>2019-04-02T13:27:56Z</time>
      </trkpt>
      <trkpt lat="60.39815" lon="7.61071">
        <ele>1176.79</ele>
        <time>2019-04-02T13:27:58Z</time>
      </trkpt>
      <trkpt lat="60.39838" lon="7.61083">
        <ele>1176.79</ele>
        <time>2019-04-02T13:28:03Z</time>
      </trkpt>
      <trkpt lat="60.39845" lon="7.61087">
        <ele>1176.79</ele>
        <time>2019-04-02T13:28:05Z</time>
      </trkpt>
      <trkpt lat="60.3986" lon="7.61109">
        <ele>1176.79</ele>
        <time>2019-04-02T13:28:09Z</time>
      </trkpt>
      <trkpt lat="60.39872" lon="7.61133">
        <ele>1177.27</ele>
        <time>2019-04-02T13:28:13Z</time>
      </trkpt>
      <trkpt lat="60.39887" lon="7.61164">
        <ele>1175.83</ele>
        <time>2019-04-02T13:28:18Z</time>
      </trkpt>
      <trkpt lat="60.399" lon="7.61187">
        <ele>1175.83</ele>
        <time>2019-04-02T13:28:23Z</time>
      </trkpt>
      <trkpt lat="60.39913" lon="7.61233">
        <ele>1175.35</ele>
        <time>2019-04-02T13:28:31Z</time>
      </trkpt>
      <trkpt lat="60.39915" lon="7.61234">
        <ele>1176.31</ele>
        <time>2019-04-02T13:28:44Z</time>
      </trkpt>
      <trkpt lat="60.39915" lon="7.61233">
        <ele>1177.27</ele>
        <time>2019-04-02T13:28:49Z</time>
      </trkpt>
      <trkpt lat="60.39913" lon="7.61236">
        <ele>1176.31</ele>
        <time>2019-04-02T13:29:09Z</time>
      </trkpt>
      <trkpt lat="60.39912" lon="7.61237">
        <ele>1176.79</ele>
        <time>2019-04-02T13:29:26Z</time>
      </trkpt>
      <trkpt lat="60.39914" lon="7.61233">
        <ele>1175.83</ele>
        <time>2019-04-02T13:29:48Z</time>
      </trkpt>
      <trkpt lat="60.39914" lon="7.6123">
        <ele>1176.79</ele>
        <time>2019-04-02T13:30:04Z</time>
      </trkpt>
      <trkpt lat="60.39913" lon="7.61227">
        <ele>1176.79</ele>
        <time>2019-04-02T13:30:13Z</time>
      </trkpt>
      <trkpt lat="60.39911" lon="7.61204">
        <ele>1175.35</ele>
        <time>2019-04-02T13:30:18Z</time>
      </trkpt>
      <trkpt lat="60.3994" lon="7.6117">
        <ele>1175.35</ele>
        <time>2019-04-02T13:30:25Z</time>
      </trkpt>
      <trkpt lat="60.39964" lon="7.61171">
        <ele>1176.79</ele>
        <time>2019-04-02T13:30:28Z</time>
      </trkpt>
      <trkpt lat="60.39983" lon="7.61167">
        <ele>1176.79</ele>
        <time>2019-04-02T13:30:30Z</time>
      </trkpt>
      <trkpt lat="60.40036" lon="7.61171">
        <ele>1176.79</ele>
        <time>2019-04-02T13:30:35Z</time>
      </trkpt>
      <trkpt lat="60.40112" lon="7.61198">
        <ele>1175.35</ele>
        <time>2019-04-02T13:30:42Z</time>
      </trkpt>
      <trkpt lat="60.40131" lon="7.61202">
        <ele>1173.91</ele>
        <time>2019-04-02T13:30:44Z</time>
      </trkpt>
      <trkpt lat="60.40151" lon="7.61208">
        <ele>1172.95</ele>
        <time>2019-04-02T13:30:46Z</time>
      </trkpt>
      <trkpt lat="60.40227" lon="7.61237">
        <ele>1173.43</ele>
        <time>2019-04-02T13:30:54Z</time>
      </trkpt>
      <trkpt lat="60.40266" lon="7.61262">
        <ele>1174.87</ele>
        <time>2019-04-02T13:30:58Z</time>
      </trkpt>
      <trkpt lat="60.40322" lon="7.61318">
        <ele>1171.98</ele>
        <time>2019-04-02T13:31:05Z</time>
      </trkpt>
      <trkpt lat="60.4035" lon="7.61341">
        <ele>1172.47</ele>
        <time>2019-04-02T13:31:10Z</time>
      </trkpt>
      <trkpt lat="60.40381" lon="7.61362">
        <ele>1175.83</ele>
        <time>2019-04-02T13:31:15Z</time>
      </trkpt>
      <trkpt lat="60.40389" lon="7.61368">
        <ele>1175.83</ele>
        <time>2019-04-02T13:31:16Z</time>
      </trkpt>
      <trkpt lat="60.40396" lon="7.61376">
        <ele>1176.31</ele>
        <time>2019-04-02T13:31:17Z</time>
      </trkpt>
      <trkpt lat="60.40423" lon="7.61406">
        <ele>1176.79</ele>
        <time>2019-04-02T13:31:21Z</time>
      </trkpt>
      <trkpt lat="60.40469" lon="7.61441">
        <ele>1177.75</ele>
        <time>2019-04-02T13:31:28Z</time>
      </trkpt>
      <trkpt lat="60.40487" lon="7.61451">
        <ele>1177.75</ele>
        <time>2019-04-02T13:31:31Z</time>
      </trkpt>
      <trkpt lat="60.405" lon="7.61462">
        <ele>1179.19</ele>
        <time>2019-04-02T13:31:35Z</time>
      </trkpt>
      <trkpt lat="60.40502" lon="7.61461">
        <ele>1178.71</ele>
        <time>2019-04-02T13:31:36Z</time>
      </trkpt>
      <trkpt lat="60.40508" lon="7.6146">
        <ele>1179.67</ele>
        <time>2019-04-02T13:31:38Z</time>
      </trkpt>
      <trkpt lat="60.40514" lon="7.61459">
        <ele>1181.12</ele>
        <time>2019-04-02T13:31:40Z</time>
      </trkpt>
      <trkpt lat="60.40517" lon="7.61458">
        <ele>1181.6</ele>
        <time>2019-04-02T13:31:41Z</time>
      </trkpt>
      <trkpt lat="60.40525" lon="7.61457">
        <ele>1182.56</ele>
        <time>2019-04-02T13:31:44Z</time>
      </trkpt>
      <trkpt lat="60.40548" lon="7.61454">
        <ele>1188.81</ele>
        <time>2019-04-02T13:31:50Z</time>
      </trkpt>
      <trkpt lat="60.40559" lon="7.61455">
        <ele>1192.17</ele>
        <time>2019-04-02T13:31:55Z</time>
      </trkpt>
      <trkpt lat="60.40579" lon="7.61454">
        <ele>1195.54</ele>
        <time>2019-04-02T13:32:00Z</time>
      </trkpt>
      <trkpt lat="60.40585" lon="7.61456">
        <ele>1197.46</ele>
        <time>2019-04-02T13:32:02Z</time>
      </trkpt>
      <trkpt lat="60.40598" lon="7.6145">
        <ele>1200.34</ele>
        <time>2019-04-02T13:32:05Z</time>
      </trkpt>
      <trkpt lat="60.40606" lon="7.61451">
        <ele>1203.23</ele>
        <time>2019-04-02T13:32:07Z</time>
      </trkpt>
      <trkpt lat="60.40622" lon="7.61449">
        <ele>1207.55</ele>
        <time>2019-04-02T13:32:11Z</time>
      </trkpt>
      <trkpt lat="60.40625" lon="7.61449">
        <ele>1209</ele>
        <time>2019-04-02T13:32:12Z</time>
      </trkpt>
      <trkpt lat="60.40633" lon="7.6145">
        <ele>1212.36</ele>
        <time>2019-04-02T13:32:15Z</time>
      </trkpt>
      <trkpt lat="60.40638" lon="7.61448">
        <ele>1213.32</ele>
        <time>2019-04-02T13:32:18Z</time>
      </trkpt>
      <trkpt lat="60.40645" lon="7.61449">
        <ele>1216.69</ele>
        <time>2019-04-02T13:32:21Z</time>
      </trkpt>
      <trkpt lat="60.40661" lon="7.61443">
        <ele>1220.05</ele>
        <time>2019-04-02T13:32:26Z</time>
      </trkpt>
      <trkpt lat="60.40665" lon="7.6144">
        <ele>1220.05</ele>
        <time>2019-04-02T13:32:27Z</time>
      </trkpt>
      <trkpt lat="60.40669" lon="7.61437">
        <ele>1220.53</ele>
        <time>2019-04-02T13:32:28Z</time>
      </trkpt>
      <trkpt lat="60.40683" lon="7.61427">
        <ele>1223.9</ele>
        <time>2019-04-02T13:32:32Z</time>
      </trkpt>
      <trkpt lat="60.40698" lon="7.61422">
        <ele>1229.18</ele>
        <time>2019-04-02T13:32:36Z</time>
      </trkpt>
      <trkpt lat="60.40716" lon="7.61418">
        <ele>1233.99</ele>
        <time>2019-04-02T13:32:40Z</time>
      </trkpt>
      <trkpt lat="60.40728" lon="7.61426">
        <ele>1237.35</ele>
        <time>2019-04-02T13:32:43Z</time>
      </trkpt>
      <trkpt lat="60.40755" lon="7.61434">
        <ele>1244.08</ele>
        <time>2019-04-02T13:32:49Z</time>
      </trkpt>
      <trkpt lat="60.4077" lon="7.61446">
        <ele>1247.45</ele>
        <time>2019-04-02T13:32:52Z</time>
      </trkpt>
      <trkpt lat="60.40779" lon="7.6146">
        <ele>1250.33</ele>
        <time>2019-04-02T13:32:54Z</time>
      </trkpt>
      <trkpt lat="60.40803" lon="7.61489">
        <ele>1253.7</ele>
        <time>2019-04-02T13:32:59Z</time>
      </trkpt>
      <trkpt lat="60.40822" lon="7.61502">
        <ele>1257.06</ele>
        <time>2019-04-02T13:33:03Z</time>
      </trkpt>
      <trkpt lat="60.40826" lon="7.61506">
        <ele>1257.54</ele>
        <time>2019-04-02T13:33:04Z</time>
      </trkpt>
      <trkpt lat="60.40854" lon="7.61535">
        <ele>1262.83</ele>
        <time>2019-04-02T13:33:10Z</time>
      </trkpt>
      <trkpt lat="60.40879" lon="7.61553">
        <ele>1266.19</ele>
        <time>2019-04-02T13:33:16Z</time>
      </trkpt>
      <trkpt lat="60.40911" lon="7.61566">
        <ele>1270.52</ele>
        <time>2019-04-02T13:33:22Z</time>
      </trkpt>
      <trkpt lat="60.40916" lon="7.61571">
        <ele>1271.48</ele>
        <time>2019-04-02T13:33:23Z</time>
      </trkpt>
      <trkpt lat="60.40946" lon="7.61602">
        <ele>1274.36</ele>
        <time>2019-04-02T13:33:29Z</time>
      </trkpt>
      <trkpt lat="60.40963" lon="7.61617">
        <ele>1275.81</ele>
        <time>2019-04-02T13:33:32Z</time>
      </trkpt>
      <trkpt lat="60.40979" lon="7.61636">
        <ele>1279.17</ele>
        <time>2019-04-02T13:33:36Z</time>
      </trkpt>
      <trkpt lat="60.40991" lon="7.61648">
        <ele>1280.61</ele>
        <time>2019-04-02T13:33:39Z</time>
      </trkpt>
      <trkpt lat="60.41003" lon="7.61665">
        <ele>1282.06</ele>
        <time>2019-04-02T13:33:42Z</time>
      </trkpt>
      <trkpt lat="60.41017" lon="7.61699">
        <ele>1284.46</ele>
        <time>2019-04-02T13:33:48Z</time>
      </trkpt>
      <trkpt lat="60.41013" lon="7.61691">
        <ele>1283.98</ele>
        <time>2019-04-02T13:33:55Z</time>
      </trkpt>
      <trkpt lat="60.41015" lon="7.61683">
        <ele>1283.5</ele>
        <time>2019-04-02T13:34:01Z</time>
      </trkpt>
      <trkpt lat="60.41014" lon="7.61679">
        <ele>1283.02</ele>
        <time>2019-04-02T13:34:06Z</time>
      </trkpt>
      <trkpt lat="60.41002" lon="7.61673">
        <ele>1282.54</ele>
        <time>2019-04-02T13:34:11Z</time>
      </trkpt>
      <trkpt lat="60.40991" lon="7.6167">
        <ele>1282.06</ele>
        <time>2019-04-02T13:34:14Z</time>
      </trkpt>
      <trkpt lat="60.40981" lon="7.61669">
        <ele>1281.09</ele>
        <time>2019-04-02T13:34:16Z</time>
      </trkpt>
      <trkpt lat="60.40965" lon="7.61668">
        <ele>1279.17</ele>
        <time>2019-04-02T13:34:19Z</time>
      </trkpt>
      <trkpt lat="60.40953" lon="7.61667">
        <ele>1276.29</ele>
        <time>2019-04-02T13:34:21Z</time>
      </trkpt>
      <trkpt lat="60.40947" lon="7.61667">
        <ele>1276.29</ele>
        <time>2019-04-02T13:34:22Z</time>
      </trkpt>
      <trkpt lat="60.40935" lon="7.61664">
        <ele>1276.29</ele>
        <time>2019-04-02T13:34:24Z</time>
      </trkpt>
      <trkpt lat="60.40913" lon="7.61653">
        <ele>1276.29</ele>
        <time>2019-04-02T13:34:28Z</time>
      </trkpt>
      <trkpt lat="60.40889" lon="7.61643">
        <ele>1272.44</ele>
        <time>2019-04-02T13:34:34Z</time>
      </trkpt>
      <trkpt lat="60.40876" lon="7.61633">
        <ele>1270.04</ele>
        <time>2019-04-02T13:34:37Z</time>
      </trkpt>
      <trkpt lat="60.40865" lon="7.61623">
        <ele>1263.31</ele>
        <time>2019-04-02T13:34:39Z</time>
      </trkpt>
      <trkpt lat="60.40859" lon="7.61618">
        <ele>1267.16</ele>
        <time>2019-04-02T13:34:40Z</time>
      </trkpt>
      <trkpt lat="60.40853" lon="7.61612">
        <ele>1263.79</ele>
        <time>2019-04-02T13:34:41Z</time>
      </trkpt>
      <trkpt lat="60.40827" lon="7.61587">
        <ele>1261.39</ele>
        <time>2019-04-02T13:34:45Z</time>
      </trkpt>
      <trkpt lat="60.40807" lon="7.61563">
        <ele>1255.62</ele>
        <time>2019-04-02T13:34:48Z</time>
      </trkpt>
      <trkpt lat="60.408" lon="7.61554">
        <ele>1250.33</ele>
        <time>2019-04-02T13:34:49Z</time>
      </trkpt>
      <trkpt lat="60.40788" lon="7.61532">
        <ele>1246.97</ele>
        <time>2019-04-02T13:34:51Z</time>
      </trkpt>
      <trkpt lat="60.40782" lon="7.61524">
        <ele>1252.25</ele>
        <time>2019-04-02T13:34:52Z</time>
      </trkpt>
      <trkpt lat="60.40775" lon="7.61518">
        <ele>1252.25</ele>
        <time>2019-04-02T13:34:53Z</time>
      </trkpt>
      <trkpt lat="60.40768" lon="7.61512">
        <ele>1248.41</ele>
        <time>2019-04-02T13:34:54Z</time>
      </trkpt>
      <trkpt lat="60.4076" lon="7.61507">
        <ele>1243.6</ele>
        <time>2019-04-02T13:34:55Z</time>
      </trkpt>
      <trkpt lat="60.40733" lon="7.61484">
        <ele>1237.35</ele>
        <time>2019-04-02T13:34:59Z</time>
      </trkpt>
      <trkpt lat="60.40726" lon="7.61478">
        <ele>1240.24</ele>
        <time>2019-04-02T13:35:00Z</time>
      </trkpt>
      <trkpt lat="60.40713" lon="7.61471">
        <ele>1235.91</ele>
        <time>2019-04-02T13:35:02Z</time>
      </trkpt>
      <trkpt lat="60.40708" lon="7.61467">
        <ele>1228.7</ele>
        <time>2019-04-02T13:35:03Z</time>
      </trkpt>
      <trkpt lat="60.407" lon="7.61463">
        <ele>1227.74</ele>
        <time>2019-04-02T13:35:05Z</time>
      </trkpt>
      <trkpt lat="60.40684" lon="7.61459">
        <ele>1227.26</ele>
        <time>2019-04-02T13:35:08Z</time>
      </trkpt>
      <trkpt lat="60.40667" lon="7.61452">
        <ele>1215.24</ele>
        <time>2019-04-02T13:35:11Z</time>
      </trkpt>
      <trkpt lat="60.4066" lon="7.61449">
        <ele>1220.05</ele>
        <time>2019-04-02T13:35:12Z</time>
      </trkpt>
      <trkpt lat="60.40655" lon="7.61446">
        <ele>1216.21</ele>
        <time>2019-04-02T13:35:13Z</time>
      </trkpt>
      <trkpt lat="60.40639" lon="7.61438">
        <ele>1212.36</ele>
        <time>2019-04-02T13:35:16Z</time>
      </trkpt>
      <trkpt lat="60.40628" lon="7.61427">
        <ele>1204.67</ele>
        <time>2019-04-02T13:35:18Z</time>
      </trkpt>
      <trkpt lat="60.40622" lon="7.61423">
        <ele>1203.71</ele>
        <time>2019-04-02T13:35:19Z</time>
      </trkpt>
      <trkpt lat="60.40608" lon="7.61416">
        <ele>1198.42</ele>
        <time>2019-04-02T13:35:21Z</time>
      </trkpt>
      <trkpt lat="60.40595" lon="7.61407">
        <ele>1195.54</ele>
        <time>2019-04-02T13:35:23Z</time>
      </trkpt>
      <trkpt lat="60.40587" lon="7.61404">
        <ele>1189.29</ele>
        <time>2019-04-02T13:35:24Z</time>
      </trkpt>
      <trkpt lat="60.40549" lon="7.61387">
        <ele>1183.04</ele>
        <time>2019-04-02T13:35:29Z</time>
      </trkpt>
      <trkpt lat="60.4054" lon="7.61382">
        <ele>1183.04</ele>
        <time>2019-04-02T13:35:30Z</time>
      </trkpt>
      <trkpt lat="60.40521" lon="7.61374">
        <ele>1179.19</ele>
        <time>2019-04-02T13:35:32Z</time>
      </trkpt>
      <trkpt lat="60.40493" lon="7.61367">
        <ele>1171.5</ele>
        <time>2019-04-02T13:35:35Z</time>
      </trkpt>
      <trkpt lat="60.40444" lon="7.61342">
        <ele>1173.91</ele>
        <time>2019-04-02T13:35:43Z</time>
      </trkpt>
      <trkpt lat="60.40427" lon="7.61332">
        <ele>1171.98</ele>
        <time>2019-04-02T13:35:47Z</time>
      </trkpt>
      <trkpt lat="60.40411" lon="7.61326">
        <ele>1173.91</ele>
        <time>2019-04-02T13:35:50Z</time>
      </trkpt>
      <trkpt lat="60.40386" lon="7.61312">
        <ele>1170.06</ele>
        <time>2019-04-02T13:35:55Z</time>
      </trkpt>
      <trkpt lat="60.40381" lon="7.6131">
        <ele>1170.06</ele>
        <time>2019-04-02T13:35:56Z</time>
      </trkpt>
      <trkpt lat="60.40365" lon="7.61306">
        <ele>1171.5</ele>
        <time>2019-04-02T13:35:59Z</time>
      </trkpt>
      <trkpt lat="60.4036" lon="7.61306">
        <ele>1171.5</ele>
        <time>2019-04-02T13:36:00Z</time>
      </trkpt>
      <trkpt lat="60.4035" lon="7.613">
        <ele>1170.54</ele>
        <time>2019-04-02T13:36:02Z</time>
      </trkpt>
      <trkpt lat="60.40346" lon="7.61296">
        <ele>1170.54</ele>
        <time>2019-04-02T13:36:03Z</time>
      </trkpt>
      <trkpt lat="60.40309" lon="7.61279">
        <ele>1170.54</ele>
        <time>2019-04-02T13:36:11Z</time>
      </trkpt>
      <trkpt lat="60.40289" lon="7.61264">
        <ele>1170.06</ele>
        <time>2019-04-02T13:36:16Z</time>
      </trkpt>
      <trkpt lat="60.40256" lon="7.61237">
        <ele>1170.06</ele>
        <time>2019-04-02T13:36:25Z</time>
      </trkpt>
      <trkpt lat="60.40253" lon="7.61233">
        <ele>1170.06</ele>
        <time>2019-04-02T13:36:26Z</time>
      </trkpt>
      <trkpt lat="60.40234" lon="7.61225">
        <ele>1170.54</ele>
        <time>2019-04-02T13:36:30Z</time>
      </trkpt>
      <trkpt lat="60.40207" lon="7.61223">
        <ele>1170.54</ele>
        <time>2019-04-02T13:36:36Z</time>
      </trkpt>
      <trkpt lat="60.40194" lon="7.6122">
        <ele>1170.54</ele>
        <time>2019-04-02T13:36:39Z</time>
      </trkpt>
      <trkpt lat="60.40177" lon="7.61219">
        <ele>1168.62</ele>
        <time>2019-04-02T13:36:44Z</time>
      </trkpt>
      <trkpt lat="60.40175" lon="7.61218">
        <ele>1168.62</ele>
        <time>2019-04-02T13:36:45Z</time>
      </trkpt>
      <trkpt lat="60.40174" lon="7.61209">
        <ele>1168.14</ele>
        <time>2019-04-02T13:36:57Z</time>
      </trkpt>
      <trkpt lat="60.40174" lon="7.61206">
        <ele>1168.14</ele>
        <time>2019-04-02T13:37:22Z</time>
      </trkpt>
      <trkpt lat="60.40175" lon="7.61208">
        <ele>1169.1</ele>
        <time>2019-04-02T13:37:38Z</time>
      </trkpt>
      <trkpt lat="60.40176" lon="7.61208">
        <ele>1169.1</ele>
        <time>2019-04-02T13:37:48Z</time>
      </trkpt>
      <trkpt lat="60.40178" lon="7.61211">
        <ele>1170.06</ele>
        <time>2019-04-02T13:38:02Z</time>
      </trkpt>
      <trkpt lat="60.40179" lon="7.61212">
        <ele>1168.62</ele>
        <time>2019-04-02T13:38:10Z</time>
      </trkpt>
      <trkpt lat="60.40178" lon="7.6121">
        <ele>1168.62</ele>
        <time>2019-04-02T13:38:15Z</time>
      </trkpt>
      <trkpt lat="60.40164" lon="7.61199">
        <ele>1168.62</ele>
        <time>2019-04-02T13:38:21Z</time>
      </trkpt>
      <trkpt lat="60.40156" lon="7.61195">
        <ele>1170.54</ele>
        <time>2019-04-02T13:38:23Z</time>
      </trkpt>
      <trkpt lat="60.40108" lon="7.61165">
        <ele>1172.47</ele>
        <time>2019-04-02T13:38:34Z</time>
      </trkpt>
      <trkpt lat="60.401" lon="7.61162">
        <ele>1172.47</ele>
        <time>2019-04-02T13:38:36Z</time>
      </trkpt>
      <trkpt lat="60.4009" lon="7.61151">
        <ele>1170.54</ele>
        <time>2019-04-02T13:38:39Z</time>
      </trkpt>
      <trkpt lat="60.40072" lon="7.6114">
        <ele>1172.95</ele>
        <time>2019-04-02T13:38:43Z</time>
      </trkpt>
      <trkpt lat="60.40055" lon="7.61123">
        <ele>1172.95</ele>
        <time>2019-04-02T13:38:47Z</time>
      </trkpt>
      <trkpt lat="60.40026" lon="7.61099">
        <ele>1172.95</ele>
        <time>2019-04-02T13:38:53Z</time>
      </trkpt>
      <trkpt lat="60.40017" lon="7.6109">
        <ele>1172.95</ele>
        <time>2019-04-02T13:38:55Z</time>
      </trkpt>
      <trkpt lat="60.4" lon="7.61077">
        <ele>1172.95</ele>
        <time>2019-04-02T13:38:59Z</time>
      </trkpt>
      <trkpt lat="60.39988" lon="7.61064">
        <ele>1173.91</ele>
        <time>2019-04-02T13:39:02Z</time>
      </trkpt>
      <trkpt lat="60.3996" lon="7.61041">
        <ele>1171.98</ele>
        <time>2019-04-02T13:39:08Z</time>
      </trkpt>
      <trkpt lat="60.39929" lon="7.61003">
        <ele>1173.43</ele>
        <time>2019-04-02T13:39:15Z</time>
      </trkpt>
      <trkpt lat="60.39903" lon="7.60962">
        <ele>1173.91</ele>
        <time>2019-04-02T13:39:23Z</time>
      </trkpt>
      <trkpt lat="60.3989" lon="7.60939">
        <ele>1174.39</ele>
        <time>2019-04-02T13:39:27Z</time>
      </trkpt>
      <trkpt lat="60.39877" lon="7.60914">
        <ele>1175.83</ele>
        <time>2019-04-02T13:39:31Z</time>
      </trkpt>
      <trkpt lat="60.39853" lon="7.60846">
        <ele>1178.71</ele>
        <time>2019-04-02T13:39:40Z</time>
      </trkpt>
      <trkpt lat="60.39846" lon="7.60831">
        <ele>1179.67</ele>
        <time>2019-04-02T13:39:43Z</time>
      </trkpt>
      <trkpt lat="60.39826" lon="7.60811">
        <ele>1180.16</ele>
        <time>2019-04-02T13:39:47Z</time>
      </trkpt>
      <trkpt lat="60.39806" lon="7.60795">
        <ele>1173.91</ele>
        <time>2019-04-02T13:39:50Z</time>
      </trkpt>
      <trkpt lat="60.398" lon="7.60785">
        <ele>1173.91</ele>
        <time>2019-04-02T13:39:51Z</time>
      </trkpt>
      <trkpt lat="60.39789" lon="7.60773">
        <ele>1177.27</ele>
        <time>2019-04-02T13:39:53Z</time>
      </trkpt>
      <trkpt lat="60.39773" lon="7.60766">
        <ele>1177.27</ele>
        <time>2019-04-02T13:39:56Z</time>
      </trkpt>
      <trkpt lat="60.39759" lon="7.60761">
        <ele>1176.79</ele>
        <time>2019-04-02T13:40:00Z</time>
      </trkpt>
      <trkpt lat="60.3976" lon="7.60757">
        <ele>1175.35</ele>
        <time>2019-04-02T13:40:03Z</time>
      </trkpt>
      <trkpt lat="60.3977" lon="7.60792">
        <ele>1176.31</ele>
        <time>2019-04-02T13:40:09Z</time>
      </trkpt>
      <trkpt lat="60.39773" lon="7.60807">
        <ele>1174.87</ele>
        <time>2019-04-02T13:40:11Z</time>
      </trkpt>
      <trkpt lat="60.39789" lon="7.60874">
        <ele>1174.87</ele>
        <time>2019-04-02T13:40:19Z</time>
      </trkpt>
      <trkpt lat="60.39804" lon="7.60926">
        <ele>1174.39</ele>
        <time>2019-04-02T13:40:30Z</time>
      </trkpt>
      <trkpt lat="60.39809" lon="7.60939">
        <ele>1174.39</ele>
        <time>2019-04-02T13:40:37Z</time>
      </trkpt>
      <trkpt lat="60.3981" lon="7.6094">
        <ele>1174.39</ele>
        <time>2019-04-02T13:40:39Z</time>
      </trkpt>
      <trkpt lat="60.39816" lon="7.60951">
        <ele>1174.39</ele>
        <time>2019-04-02T13:40:43Z</time>
      </trkpt>
      <trkpt lat="60.3982" lon="7.60964">
        <ele>1174.39</ele>
        <time>2019-04-02T13:40:45Z</time>
      </trkpt>
      <trkpt lat="60.39823" lon="7.60979">
        <ele>1176.31</ele>
        <time>2019-04-02T13:40:47Z</time>
      </trkpt>
      <trkpt lat="60.39828" lon="7.61004">
        <ele>1176.31</ele>
        <time>2019-04-02T13:40:51Z</time>
      </trkpt>
      <trkpt lat="60.39832" lon="7.61019">
        <ele>1174.87</ele>
        <time>2019-04-02T13:40:54Z</time>
      </trkpt>
      <trkpt lat="60.3985" lon="7.61077">
        <ele>1174.39</ele>
        <time>2019-04-02T13:41:04Z</time>
      </trkpt>
      <trkpt lat="60.39869" lon="7.61132">
        <ele>1172.95</ele>
        <time>2019-04-02T13:41:16Z</time>
      </trkpt>
      <trkpt lat="60.39886" lon="7.61173">
        <ele>1172.95</ele>
        <time>2019-04-02T13:41:26Z</time>
      </trkpt>
      <trkpt lat="60.39887" lon="7.61173">
        <ele>1173.91</ele>
        <time>2019-04-02T13:41:39Z</time>
      </trkpt>
      <trkpt lat="60.39886" lon="7.61175">
        <ele>1173.91</ele>
        <time>2019-04-02T13:41:57Z</time>
      </trkpt>
      <trkpt lat="60.39896" lon="7.61157">
        <ele>1172.95</ele>
        <time>2019-04-02T13:42:02Z</time>
      </trkpt>
      <trkpt lat="60.39902" lon="7.61128">
        <ele>1172.47</ele>
        <time>2019-04-02T13:42:07Z</time>
      </trkpt>
      <trkpt lat="60.39902" lon="7.61105">
        <ele>1172.47</ele>
        <time>2019-04-02T13:42:10Z</time>
      </trkpt>
      <trkpt lat="60.39905" lon="7.61095">
        <ele>1171.98</ele>
        <time>2019-04-02T13:42:15Z</time>
      </trkpt>
      <trkpt lat="60.39908" lon="7.61089">
        <ele>1171.98</ele>
        <time>2019-04-02T13:42:19Z</time>
      </trkpt>
      <trkpt lat="60.39933" lon="7.61115">
        <ele>1171.98</ele>
        <time>2019-04-02T13:42:30Z</time>
      </trkpt>
      <trkpt lat="60.39955" lon="7.61148">
        <ele>1172.95</ele>
        <time>2019-04-02T13:42:41Z</time>
      </trkpt>
      <trkpt lat="60.3997" lon="7.61169">
        <ele>1172.95</ele>
        <time>2019-04-02T13:42:48Z</time>
      </trkpt>
      <trkpt lat="60.39981" lon="7.61173">
        <ele>1172.95</ele>
        <time>2019-04-02T13:42:53Z</time>
      </trkpt>
      <trkpt lat="60.40001" lon="7.61192">
        <ele>1172.95</ele>
        <time>2019-04-02T13:43:06Z</time>
      </trkpt>
      <trkpt lat="60.40013" lon="7.61207">
        <ele>1171.98</ele>
        <time>2019-04-02T13:43:10Z</time>
      </trkpt>
      <trkpt lat="60.40022" lon="7.61219">
        <ele>1171.98</ele>
        <time>2019-04-02T13:43:13Z</time>
      </trkpt>
      <trkpt lat="60.40035" lon="7.61244">
        <ele>1171.98</ele>
        <time>2019-04-02T13:43:17Z</time>
      </trkpt>
      <trkpt lat="60.40057" lon="7.61275">
        <ele>1171.98</ele>
        <time>2019-04-02T13:43:23Z</time>
      </trkpt>
      <trkpt lat="60.40078" lon="7.61301">
        <ele>1171.02</ele>
        <time>2019-04-02T13:43:29Z</time>
      </trkpt>
      <trkpt lat="60.40108" lon="7.61324">
        <ele>1171.02</ele>
        <time>2019-04-02T13:43:36Z</time>
      </trkpt>
      <trkpt lat="60.4013" lon="7.61354">
        <ele>1172.47</ele>
        <time>2019-04-02T13:43:40Z</time>
      </trkpt>
      <trkpt lat="60.4015" lon="7.61404">
        <ele>1172.47</ele>
        <time>2019-04-02T13:43:45Z</time>
      </trkpt>
      <trkpt lat="60.40158" lon="7.61421">
        <ele>1171.02</ele>
        <time>2019-04-02T13:43:47Z</time>
      </trkpt>
      <trkpt lat="60.40161" lon="7.6143">
        <ele>1171.02</ele>
        <time>2019-04-02T13:43:48Z</time>
      </trkpt>
      <trkpt lat="60.40175" lon="7.61464">
        <ele>1170.06</ele>
        <time>2019-04-02T13:43:52Z</time>
      </trkpt>
      <trkpt lat="60.40187" lon="7.61501">
        <ele>1170.06</ele>
        <time>2019-04-02T13:43:56Z</time>
      </trkpt>
      <trkpt lat="60.40193" lon="7.61515">
        <ele>1169.58</ele>
        <time>2019-04-02T13:43:58Z</time>
      </trkpt>
      <trkpt lat="60.40208" lon="7.61548">
        <ele>1169.1</ele>
        <time>2019-04-02T13:44:03Z</time>
      </trkpt>
      <trkpt lat="60.40224" lon="7.61574">
        <ele>1169.1</ele>
        <time>2019-04-02T13:44:07Z</time>
      </trkpt>
      <trkpt lat="60.40241" lon="7.61613">
        <ele>1169.1</ele>
        <time>2019-04-02T13:44:13Z</time>
      </trkpt>
      <trkpt lat="60.40275" lon="7.61668">
        <ele>1169.1</ele>
        <time>2019-04-02T13:44:24Z</time>
      </trkpt>
      <trkpt lat="60.40282" lon="7.61674">
        <ele>1169.1</ele>
        <time>2019-04-02T13:44:26Z</time>
      </trkpt>
      <trkpt lat="60.40326" lon="7.61694">
        <ele>1171.5</ele>
        <time>2019-04-02T13:44:34Z</time>
      </trkpt>
      <trkpt lat="60.40346" lon="7.6173">
        <ele>1171.5</ele>
        <time>2019-04-02T13:44:39Z</time>
      </trkpt>
      <trkpt lat="60.40364" lon="7.61756">
        <ele>1171.5</ele>
        <time>2019-04-02T13:44:44Z</time>
      </trkpt>
      <trkpt lat="60.40388" lon="7.61807">
        <ele>1171.98</ele>
        <time>2019-04-02T13:44:51Z</time>
      </trkpt>
      <trkpt lat="60.40419" lon="7.6186">
        <ele>1173.91</ele>
        <time>2019-04-02T13:45:01Z</time>
      </trkpt>
      <trkpt lat="60.40426" lon="7.61872">
        <ele>1173.91</ele>
        <time>2019-04-02T13:45:07Z</time>
      </trkpt>
      <trkpt lat="60.4045" lon="7.61883">
        <ele>1177.75</ele>
        <time>2019-04-02T13:45:14Z</time>
      </trkpt>
      <trkpt lat="60.4047" lon="7.61897">
        <ele>1180.16</ele>
        <time>2019-04-02T13:45:19Z</time>
      </trkpt>
      <trkpt lat="60.40474" lon="7.61901">
        <ele>1180.64</ele>
        <time>2019-04-02T13:45:20Z</time>
      </trkpt>
      <trkpt lat="60.40481" lon="7.61909">
        <ele>1181.6</ele>
        <time>2019-04-02T13:45:22Z</time>
      </trkpt>
      <trkpt lat="60.40497" lon="7.61912">
        <ele>1184.48</ele>
        <time>2019-04-02T13:45:27Z</time>
      </trkpt>
      <trkpt lat="60.40499" lon="7.61913">
        <ele>1184.48</ele>
        <time>2019-04-02T13:45:28Z</time>
      </trkpt>
      <trkpt lat="60.4052" lon="7.61909">
        <ele>1188.33</ele>
        <time>2019-04-02T13:45:37Z</time>
      </trkpt>
      <trkpt lat="60.40526" lon="7.61905">
        <ele>1189.77</ele>
        <time>2019-04-02T13:45:39Z</time>
      </trkpt>
      <trkpt lat="60.40539" lon="7.61901">
        <ele>1193.61</ele>
        <time>2019-04-02T13:45:44Z</time>
      </trkpt>
      <trkpt lat="60.40541" lon="7.61899">
        <ele>1194.09</ele>
        <time>2019-04-02T13:45:45Z</time>
      </trkpt>
      <trkpt lat="60.40547" lon="7.61894">
        <ele>1195.54</ele>
        <time>2019-04-02T13:45:48Z</time>
      </trkpt>
      <trkpt lat="60.40558" lon="7.61884">
        <ele>1198.9</ele>
        <time>2019-04-02T13:45:54Z</time>
      </trkpt>
      <trkpt lat="60.40564" lon="7.61872">
        <ele>1200.82</ele>
        <time>2019-04-02T13:45:59Z</time>
      </trkpt>
      <trkpt lat="60.40569" lon="7.61861">
        <ele>1202.75</ele>
        <time>2019-04-02T13:46:03Z</time>
      </trkpt>
      <trkpt lat="60.40576" lon="7.61842">
        <ele>1204.19</ele>
        <time>2019-04-02T13:46:07Z</time>
      </trkpt>
      <trkpt lat="60.40589" lon="7.61828">
        <ele>1209</ele>
        <time>2019-04-02T13:46:12Z</time>
      </trkpt>
      <trkpt lat="60.406" lon="7.61822">
        <ele>1215.24</ele>
        <time>2019-04-02T13:46:15Z</time>
      </trkpt>
      <trkpt lat="60.4061" lon="7.61821">
        <ele>1219.09</ele>
        <time>2019-04-02T13:46:18Z</time>
      </trkpt>
      <trkpt lat="60.40619" lon="7.61818">
        <ele>1223.42</ele>
        <time>2019-04-02T13:46:22Z</time>
      </trkpt>
      <trkpt lat="60.40631" lon="7.61809">
        <ele>1227.74</ele>
        <time>2019-04-02T13:46:26Z</time>
      </trkpt>
      <trkpt lat="60.40633" lon="7.61807">
        <ele>1227.74</ele>
        <time>2019-04-02T13:46:27Z</time>
      </trkpt>
      <trkpt lat="60.4064" lon="7.618">
        <ele>1231.11</ele>
        <time>2019-04-02T13:46:29Z</time>
      </trkpt>
      <trkpt lat="60.40645" lon="7.61794">
        <ele>1233.03</ele>
        <time>2019-04-02T13:46:31Z</time>
      </trkpt>
      <trkpt lat="60.40649" lon="7.6179">
        <ele>1234.47</ele>
        <time>2019-04-02T13:46:32Z</time>
      </trkpt>
      <trkpt lat="60.40658" lon="7.61781">
        <ele>1236.39</ele>
        <time>2019-04-02T13:46:35Z</time>
      </trkpt>
      <trkpt lat="60.40668" lon="7.61775">
        <ele>1239.76</ele>
        <time>2019-04-02T13:46:38Z</time>
      </trkpt>
      <trkpt lat="60.40677" lon="7.61773">
        <ele>1243.12</ele>
        <time>2019-04-02T13:46:41Z</time>
      </trkpt>
      <trkpt lat="60.40678" lon="7.61772">
        <ele>1243.12</ele>
        <time>2019-04-02T13:46:42Z</time>
      </trkpt>
      <trkpt lat="60.40683" lon="7.61768">
        <ele>1243.6</ele>
        <time>2019-04-02T13:46:44Z</time>
      </trkpt>
      <trkpt lat="60.40709" lon="7.61768">
        <ele>1247.45</ele>
        <time>2019-04-02T13:46:51Z</time>
      </trkpt>
      <trkpt lat="60.40719" lon="7.61787">
        <ele>1249.85</ele>
        <time>2019-04-02T13:46:54Z</time>
      </trkpt>
      <trkpt lat="60.40732" lon="7.61828">
        <ele>1253.22</ele>
        <time>2019-04-02T13:46:59Z</time>
      </trkpt>
      <trkpt lat="60.40737" lon="7.61847">
        <ele>1254.66</ele>
        <time>2019-04-02T13:47:01Z</time>
      </trkpt>
      <trkpt lat="60.40744" lon="7.61899">
        <ele>1255.62</ele>
        <time>2019-04-02T13:47:06Z</time>
      </trkpt>
      <trkpt lat="60.40748" lon="7.61933">
        <ele>1255.62</ele>
        <time>2019-04-02T13:47:09Z</time>
      </trkpt>
      <trkpt lat="60.40754" lon="7.61994">
        <ele>1254.18</ele>
        <time>2019-04-02T13:47:16Z</time>
      </trkpt>
      <trkpt lat="60.4076" lon="7.62003">
        <ele>1252.25</ele>
        <time>2019-04-02T13:47:19Z</time>
      </trkpt>
      <trkpt lat="60.40753" lon="7.62004">
        <ele>1250.33</ele>
        <time>2019-04-02T13:47:24Z</time>
      </trkpt>
      <trkpt lat="60.4075" lon="7.62008">
        <ele>1248.89</ele>
        <time>2019-04-02T13:47:25Z</time>
      </trkpt>
      <trkpt lat="60.40737" lon="7.62026">
        <ele>1245.53</ele>
        <time>2019-04-02T13:47:29Z</time>
      </trkpt>
      <trkpt lat="60.40723" lon="7.62048">
        <ele>1243.12</ele>
        <time>2019-04-02T13:47:34Z</time>
      </trkpt>
      <trkpt lat="60.40716" lon="7.62051">
        <ele>1244.56</ele>
        <time>2019-04-02T13:47:36Z</time>
      </trkpt>
      <trkpt lat="60.40713" lon="7.62051">
        <ele>1244.56</ele>
        <time>2019-04-02T13:47:37Z</time>
      </trkpt>
      <trkpt lat="60.40702" lon="7.62061">
        <ele>1240.24</ele>
        <time>2019-04-02T13:47:40Z</time>
      </trkpt>
      <trkpt lat="60.40694" lon="7.62072">
        <ele>1237.83</ele>
        <time>2019-04-02T13:47:42Z</time>
      </trkpt>
      <trkpt lat="60.40684" lon="7.62091">
        <ele>1234.95</ele>
        <time>2019-04-02T13:47:45Z</time>
      </trkpt>
      <trkpt lat="60.40675" lon="7.62111">
        <ele>1230.62</ele>
        <time>2019-04-02T13:47:49Z</time>
      </trkpt>
      <trkpt lat="60.40668" lon="7.62125">
        <ele>1229.66</ele>
        <time>2019-04-02T13:47:52Z</time>
      </trkpt>
      <trkpt lat="60.4067" lon="7.62123">
        <ele>1231.11</ele>
        <time>2019-04-02T13:47:57Z</time>
      </trkpt>
      <trkpt lat="60.4068" lon="7.62122">
        <ele>1232.55</ele>
        <time>2019-04-02T13:48:01Z</time>
      </trkpt>
      <trkpt lat="60.40695" lon="7.62155">
        <ele>1235.91</ele>
        <time>2019-04-02T13:48:09Z</time>
      </trkpt>
      <trkpt lat="60.40707" lon="7.62163">
        <ele>1236.87</ele>
        <time>2019-04-02T13:48:14Z</time>
      </trkpt>
      <trkpt lat="60.40721" lon="7.6216">
        <ele>1238.8</ele>
        <time>2019-04-02T13:48:18Z</time>
      </trkpt>
      <trkpt lat="60.40728" lon="7.62162">
        <ele>1240.24</ele>
        <time>2019-04-02T13:48:20Z</time>
      </trkpt>
      <trkpt lat="60.40743" lon="7.62176">
        <ele>1244.56</ele>
        <time>2019-04-02T13:48:24Z</time>
      </trkpt>
      <trkpt lat="60.40751" lon="7.62193">
        <ele>1245.04</ele>
        <time>2019-04-02T13:48:27Z</time>
      </trkpt>
      <trkpt lat="60.40756" lon="7.62206">
        <ele>1246.49</ele>
        <time>2019-04-02T13:48:29Z</time>
      </trkpt>
      <trkpt lat="60.4077" lon="7.62276">
        <ele>1247.93</ele>
        <time>2019-04-02T13:48:39Z</time>
      </trkpt>
      <trkpt lat="60.4077" lon="7.62274">
        <ele>1246.49</ele>
        <time>2019-04-02T13:48:40Z</time>
      </trkpt>
      <trkpt lat="60.4076" lon="7.62277">
        <ele>1244.08</ele>
        <time>2019-04-02T13:48:44Z</time>
      </trkpt>
      <trkpt lat="60.40757" lon="7.62281">
        <ele>1242.16</ele>
        <time>2019-04-02T13:48:45Z</time>
      </trkpt>
      <trkpt lat="60.40741" lon="7.62311">
        <ele>1237.83</ele>
        <time>2019-04-02T13:48:50Z</time>
      </trkpt>
      <trkpt lat="60.40735" lon="7.62322">
        <ele>1236.87</ele>
        <time>2019-04-02T13:48:52Z</time>
      </trkpt>
      <trkpt lat="60.40724" lon="7.62341">
        <ele>1235.43</ele>
        <time>2019-04-02T13:48:56Z</time>
      </trkpt>
      <trkpt lat="60.40717" lon="7.62344">
        <ele>1233.99</ele>
        <time>2019-04-02T13:48:58Z</time>
      </trkpt>
      <trkpt lat="60.40725" lon="7.62348">
        <ele>1235.91</ele>
        <time>2019-04-02T13:49:03Z</time>
      </trkpt>
      <trkpt lat="60.40738" lon="7.62373">
        <ele>1239.28</ele>
        <time>2019-04-02T13:49:08Z</time>
      </trkpt>
      <trkpt lat="60.40741" lon="7.62379">
        <ele>1239.28</ele>
        <time>2019-04-02T13:49:09Z</time>
      </trkpt>
      <trkpt lat="60.40787" lon="7.62477">
        <ele>1243.12</ele>
        <time>2019-04-02T13:49:23Z</time>
      </trkpt>
      <trkpt lat="60.40791" lon="7.62496">
        <ele>1241.68</ele>
        <time>2019-04-02T13:49:26Z</time>
      </trkpt>
      <trkpt lat="60.40806" lon="7.62532">
        <ele>1241.2</ele>
        <time>2019-04-02T13:49:37Z</time>
      </trkpt>
      <trkpt lat="60.40805" lon="7.62531">
        <ele>1241.2</ele>
        <time>2019-04-02T13:49:54Z</time>
      </trkpt>
      <trkpt lat="60.40805" lon="7.62531">
        <ele>1242.16</ele>
        <time>2019-04-02T13:50:21Z</time>
      </trkpt>
      <trkpt lat="60.40805" lon="7.6253">
        <ele>1242.16</ele>
        <time>2019-04-02T13:50:43Z</time>
      </trkpt>
      <trkpt lat="60.40806" lon="7.62529">
        <ele>1241.2</ele>
        <time>2019-04-02T13:51:01Z</time>
      </trkpt>
      <trkpt lat="60.40815" lon="7.62529">
        <ele>1242.64</ele>
        <time>2019-04-02T13:51:05Z</time>
      </trkpt>
      <trkpt lat="60.40843" lon="7.62593">
        <ele>1245.53</ele>
        <time>2019-04-02T13:51:16Z</time>
      </trkpt>
      <trkpt lat="60.40865" lon="7.62662">
        <ele>1243.6</ele>
        <time>2019-04-02T13:51:22Z</time>
      </trkpt>
      <trkpt lat="60.40894" lon="7.62771">
        <ele>1239.76</ele>
        <time>2019-04-02T13:51:29Z</time>
      </trkpt>
      <trkpt lat="60.40903" lon="7.62804">
        <ele>1236.87</ele>
        <time>2019-04-02T13:51:31Z</time>
      </trkpt>
      <trkpt lat="60.40915" lon="7.62845">
        <ele>1232.07</ele>
        <time>2019-04-02T13:51:34Z</time>
      </trkpt>
      <trkpt lat="60.40928" lon="7.62881">
        <ele>1229.66</ele>
        <time>2019-04-02T13:51:37Z</time>
      </trkpt>
      <trkpt lat="60.4098" lon="7.63053">
        <ele>1225.82</ele>
        <time>2019-04-02T13:51:49Z</time>
      </trkpt>
      <trkpt lat="60.41021" lon="7.63197">
        <ele>1222.45</ele>
        <time>2019-04-02T13:51:59Z</time>
      </trkpt>
      <trkpt lat="60.41037" lon="7.63274">
        <ele>1218.61</ele>
        <time>2019-04-02T13:52:04Z</time>
      </trkpt>
      <trkpt lat="60.41041" lon="7.63287">
        <ele>1218.61</ele>
        <time>2019-04-02T13:52:05Z</time>
      </trkpt>
      <trkpt lat="60.41066" lon="7.63397">
        <ele>1215.24</ele>
        <time>2019-04-02T13:52:12Z</time>
      </trkpt>
      <trkpt lat="60.41084" lon="7.63474">
        <ele>1211.4</ele>
        <time>2019-04-02T13:52:17Z</time>
      </trkpt>
      <trkpt lat="60.41103" lon="7.63546">
        <ele>1208.03</ele>
        <time>2019-04-02T13:52:22Z</time>
      </trkpt>
      <trkpt lat="60.41113" lon="7.63586">
        <ele>1205.15</ele>
        <time>2019-04-02T13:52:25Z</time>
      </trkpt>
      <trkpt lat="60.41121" lon="7.63612">
        <ele>1204.19</ele>
        <time>2019-04-02T13:52:27Z</time>
      </trkpt>
      <trkpt lat="60.41146" lon="7.63714">
        <ele>1201.79</ele>
        <time>2019-04-02T13:52:34Z</time>
      </trkpt>
      <trkpt lat="60.41154" lon="7.63743">
        <ele>1199.86</ele>
        <time>2019-04-02T13:52:36Z</time>
      </trkpt>
      <trkpt lat="60.41175" lon="7.63819">
        <ele>1198.42</ele>
        <time>2019-04-02T13:52:41Z</time>
      </trkpt>
      <trkpt lat="60.41194" lon="7.63899">
        <ele>1195.06</ele>
        <time>2019-04-02T13:52:46Z</time>
      </trkpt>
      <trkpt lat="60.41197" lon="7.63916">
        <ele>1195.06</ele>
        <time>2019-04-02T13:52:47Z</time>
      </trkpt>
      <trkpt lat="60.41207" lon="7.63961">
        <ele>1193.61</ele>
        <time>2019-04-02T13:52:50Z</time>
      </trkpt>
      <trkpt lat="60.41235" lon="7.64093">
        <ele>1189.77</ele>
        <time>2019-04-02T13:52:59Z</time>
      </trkpt>
      <trkpt lat="60.41237" lon="7.64107">
        <ele>1189.29</ele>
        <time>2019-04-02T13:53:00Z</time>
      </trkpt>
      <trkpt lat="60.41245" lon="7.64144">
        <ele>1187.85</ele>
        <time>2019-04-02T13:53:03Z</time>
      </trkpt>
      <trkpt lat="60.4125" lon="7.64167">
        <ele>1187.37</ele>
        <time>2019-04-02T13:53:05Z</time>
      </trkpt>
      <trkpt lat="60.41265" lon="7.64235">
        <ele>1186.4</ele>
        <time>2019-04-02T13:53:11Z</time>
      </trkpt>
      <trkpt lat="60.41271" lon="7.64255">
        <ele>1185.44</ele>
        <time>2019-04-02T13:53:13Z</time>
      </trkpt>
      <trkpt lat="60.41288" lon="7.64315">
        <ele>1184</ele>
        <time>2019-04-02T13:53:19Z</time>
      </trkpt>
      <trkpt lat="60.41301" lon="7.64341">
        <ele>1184</ele>
        <time>2019-04-02T13:53:23Z</time>
      </trkpt>
      <trkpt lat="60.41311" lon="7.6436">
        <ele>1184</ele>
        <time>2019-04-02T13:53:26Z</time>
      </trkpt>
      <trkpt lat="60.41341" lon="7.64415">
        <ele>1183.52</ele>
        <time>2019-04-02T13:53:36Z</time>
      </trkpt>
      <trkpt lat="60.41363" lon="7.64455">
        <ele>1182.56</ele>
        <time>2019-04-02T13:53:43Z</time>
      </trkpt>
      <trkpt lat="60.41371" lon="7.64469">
        <ele>1182.56</ele>
        <time>2019-04-02T13:53:45Z</time>
      </trkpt>
      <trkpt lat="60.4139" lon="7.64514">
        <ele>1182.08</ele>
        <time>2019-04-02T13:53:50Z</time>
      </trkpt>
      <trkpt lat="60.41401" lon="7.64553">
        <ele>1182.08</ele>
        <time>2019-04-02T13:53:54Z</time>
      </trkpt>
      <trkpt lat="60.41412" lon="7.6458">
        <ele>1181.6</ele>
        <time>2019-04-02T13:53:58Z</time>
      </trkpt>
      <trkpt lat="60.41418" lon="7.64594">
        <ele>1181.6</ele>
        <time>2019-04-02T13:54:00Z</time>
      </trkpt>
      <trkpt lat="60.41436" lon="7.6462">
        <ele>1180.64</ele>
        <time>2019-04-02T13:54:04Z</time>
      </trkpt>
      <trkpt lat="60.41457" lon="7.64668">
        <ele>1180.64</ele>
        <time>2019-04-02T13:54:09Z</time>
      </trkpt>
      <trkpt lat="60.41491" lon="7.64758">
        <ele>1176.31</ele>
        <time>2019-04-02T13:54:17Z</time>
      </trkpt>
      <trkpt lat="60.4151" lon="7.64814">
        <ele>1173.43</ele>
        <time>2019-04-02T13:54:21Z</time>
      </trkpt>
      <trkpt lat="60.41519" lon="7.6484">
        <ele>1172.47</ele>
        <time>2019-04-02T13:54:23Z</time>
      </trkpt>
      <trkpt lat="60.41524" lon="7.64853">
        <ele>1171.98</ele>
        <time>2019-04-02T13:54:24Z</time>
      </trkpt>
      <trkpt lat="60.41532" lon="7.64879">
        <ele>1171.02</ele>
        <time>2019-04-02T13:54:26Z</time>
      </trkpt>
      <trkpt lat="60.41568" lon="7.65034">
        <ele>1168.62</ele>
        <time>2019-04-02T13:54:37Z</time>
      </trkpt>
      <trkpt lat="60.41576" lon="7.65075">
        <ele>1166.7</ele>
        <time>2019-04-02T13:54:40Z</time>
      </trkpt>
      <trkpt lat="60.41582" lon="7.65105">
        <ele>1165.74</ele>
        <time>2019-04-02T13:54:42Z</time>
      </trkpt>
      <trkpt lat="60.41596" lon="7.65161">
        <ele>1163.33</ele>
        <time>2019-04-02T13:54:46Z</time>
      </trkpt>
      <trkpt lat="60.41614" lon="7.65258">
        <ele>1160.93</ele>
        <time>2019-04-02T13:54:53Z</time>
      </trkpt>
      <trkpt lat="60.4162" lon="7.65284">
        <ele>1160.93</ele>
        <time>2019-04-02T13:54:55Z</time>
      </trkpt>
      <trkpt lat="60.41644" lon="7.65372">
        <ele>1161.89</ele>
        <time>2019-04-02T13:55:02Z</time>
      </trkpt>
      <trkpt lat="60.41656" lon="7.65423">
        <ele>1161.89</ele>
        <time>2019-04-02T13:55:06Z</time>
      </trkpt>
      <trkpt lat="60.41662" lon="7.65447">
        <ele>1160.45</ele>
        <time>2019-04-02T13:55:08Z</time>
      </trkpt>
      <trkpt lat="60.41669" lon="7.65477">
        <ele>1159.97</ele>
        <time>2019-04-02T13:55:11Z</time>
      </trkpt>
      <trkpt lat="60.41707" lon="7.65615">
        <ele>1159.97</ele>
        <time>2019-04-02T13:55:23Z</time>
      </trkpt>
      <trkpt lat="60.41744" lon="7.65739">
        <ele>1159.49</ele>
        <time>2019-04-02T13:55:33Z</time>
      </trkpt>
      <trkpt lat="60.41757" lon="7.65765">
        <ele>1158.05</ele>
        <time>2019-04-02T13:55:36Z</time>
      </trkpt>
      <trkpt lat="60.41771" lon="7.65785">
        <ele>1158.05</ele>
        <time>2019-04-02T13:55:39Z</time>
      </trkpt>
      <trkpt lat="60.41792" lon="7.65835">
        <ele>1162.85</ele>
        <time>2019-04-02T13:55:44Z</time>
      </trkpt>
      <trkpt lat="60.41806" lon="7.65862">
        <ele>1162.85</ele>
        <time>2019-04-02T13:55:47Z</time>
      </trkpt>
      <trkpt lat="60.41817" lon="7.65882">
        <ele>1164.29</ele>
        <time>2019-04-02T13:55:49Z</time>
      </trkpt>
      <trkpt lat="60.41838" lon="7.65918">
        <ele>1169.58</ele>
        <time>2019-04-02T13:55:53Z</time>
      </trkpt>
      <trkpt lat="60.41841" lon="7.65924">
        <ele>1170.54</ele>
        <time>2019-04-02T13:55:54Z</time>
      </trkpt>
      <trkpt lat="60.41855" lon="7.65938">
        <ele>1174.39</ele>
        <time>2019-04-02T13:55:58Z</time>
      </trkpt>
      <trkpt lat="60.41864" lon="7.6595">
        <ele>1178.23</ele>
        <time>2019-04-02T13:56:01Z</time>
      </trkpt>
      <trkpt lat="60.41877" lon="7.65964">
        <ele>1180.64</ele>
        <time>2019-04-02T13:56:04Z</time>
      </trkpt>
      <trkpt lat="60.41903" lon="7.66005">
        <ele>1184.48</ele>
        <time>2019-04-02T13:56:09Z</time>
      </trkpt>
      <trkpt lat="60.4191" lon="7.66014">
        <ele>1184.48</ele>
        <time>2019-04-02T13:56:10Z</time>
      </trkpt>
      <trkpt lat="60.41976" lon="7.66108">
        <ele>1188.33</ele>
        <time>2019-04-02T13:56:20Z</time>
      </trkpt>
      <trkpt lat="60.41979" lon="7.66113">
        <ele>1189.29</ele>
        <time>2019-04-02T13:56:21Z</time>
      </trkpt>
      <trkpt lat="60.41988" lon="7.66118">
        <ele>1192.65</ele>
        <time>2019-04-02T13:56:24Z</time>
      </trkpt>
      <trkpt lat="60.4199" lon="7.66119">
        <ele>1194.09</ele>
        <time>2019-04-02T13:56:25Z</time>
      </trkpt>
      <trkpt lat="60.41993" lon="7.6612">
        <ele>1196.02</ele>
        <time>2019-04-02T13:56:27Z</time>
      </trkpt>
      <trkpt lat="60.42003" lon="7.66123">
        <ele>1200.34</ele>
        <time>2019-04-02T13:56:31Z</time>
      </trkpt>
      <trkpt lat="60.42013" lon="7.66131">
        <ele>1203.71</ele>
        <time>2019-04-02T13:56:35Z</time>
      </trkpt>
      <trkpt lat="60.42016" lon="7.66134">
        <ele>1204.19</ele>
        <time>2019-04-02T13:56:36Z</time>
      </trkpt>
      <trkpt lat="60.4203" lon="7.66149">
        <ele>1207.55</ele>
        <time>2019-04-02T13:56:44Z</time>
      </trkpt>
      <trkpt lat="60.42035" lon="7.66152">
        <ele>1209</ele>
        <time>2019-04-02T13:56:47Z</time>
      </trkpt>
      <trkpt lat="60.42048" lon="7.66166">
        <ele>1212.36</ele>
        <time>2019-04-02T13:56:51Z</time>
      </trkpt>
      <trkpt lat="60.42064" lon="7.66192">
        <ele>1216.21</ele>
        <time>2019-04-02T13:56:55Z</time>
      </trkpt>
      <trkpt lat="60.42073" lon="7.66211">
        <ele>1219.09</ele>
        <time>2019-04-02T13:56:58Z</time>
      </trkpt>
      <trkpt lat="60.42083" lon="7.66227">
        <ele>1221.49</ele>
        <time>2019-04-02T13:57:03Z</time>
      </trkpt>
      <trkpt lat="60.42084" lon="7.66229">
        <ele>1221.97</ele>
        <time>2019-04-02T13:57:04Z</time>
      </trkpt>
      <trkpt lat="60.42103" lon="7.6625">
        <ele>1223.9</ele>
        <time>2019-04-02T13:57:10Z</time>
      </trkpt>
      <trkpt lat="60.42123" lon="7.66283">
        <ele>1228.22</ele>
        <time>2019-04-02T13:57:16Z</time>
      </trkpt>
      <trkpt lat="60.42139" lon="7.66309">
        <ele>1232.55</ele>
        <time>2019-04-02T13:57:20Z</time>
      </trkpt>
      <trkpt lat="60.42146" lon="7.66323">
        <ele>1234.95</ele>
        <time>2019-04-02T13:57:22Z</time>
      </trkpt>
      <trkpt lat="60.4216" lon="7.66362">
        <ele>1239.28</ele>
        <time>2019-04-02T13:57:26Z</time>
      </trkpt>
      <trkpt lat="60.42167" lon="7.66384">
        <ele>1239.76</ele>
        <time>2019-04-02T13:57:28Z</time>
      </trkpt>
      <trkpt lat="60.4217" lon="7.66395">
        <ele>1240.72</ele>
        <time>2019-04-02T13:57:29Z</time>
      </trkpt>
      <trkpt lat="60.42184" lon="7.66484">
        <ele>1243.6</ele>
        <time>2019-04-02T13:57:37Z</time>
      </trkpt>
      <trkpt lat="60.42187" lon="7.66505">
        <ele>1244.56</ele>
        <time>2019-04-02T13:57:39Z</time>
      </trkpt>
      <trkpt lat="60.42195" lon="7.66564">
        <ele>1247.93</ele>
        <time>2019-04-02T13:57:44Z</time>
      </trkpt>
      <trkpt lat="60.42197" lon="7.66575">
        <ele>1247.93</ele>
        <time>2019-04-02T13:57:45Z</time>
      </trkpt>
      <trkpt lat="60.42203" lon="7.66624">
        <ele>1250.33</ele>
        <time>2019-04-02T13:57:49Z</time>
      </trkpt>
      <trkpt lat="60.42208" lon="7.66668">
        <ele>1251.77</ele>
        <time>2019-04-02T13:57:53Z</time>
      </trkpt>
      <trkpt lat="60.42211" lon="7.66691">
        <ele>1253.7</ele>
        <time>2019-04-02T13:57:55Z</time>
      </trkpt>
      <trkpt lat="60.42227" lon="7.66773">
        <ele>1255.62</ele>
        <time>2019-04-02T13:58:02Z</time>
      </trkpt>
      <trkpt lat="60.42235" lon="7.66824">
        <ele>1256.1</ele>
        <time>2019-04-02T13:58:06Z</time>
      </trkpt>
      <trkpt lat="60.42238" lon="7.66865">
        <ele>1255.14</ele>
        <time>2019-04-02T13:58:09Z</time>
      </trkpt>
      <trkpt lat="60.42238" lon="7.66892">
        <ele>1256.58</ele>
        <time>2019-04-02T13:58:11Z</time>
      </trkpt>
      <trkpt lat="60.42238" lon="7.66905">
        <ele>1256.58</ele>
        <time>2019-04-02T13:58:12Z</time>
      </trkpt>
      <trkpt lat="60.42244" lon="7.66948">
        <ele>1255.62</ele>
        <time>2019-04-02T13:58:15Z</time>
      </trkpt>
      <trkpt lat="60.42251" lon="7.66989">
        <ele>1253.7</ele>
        <time>2019-04-02T13:58:18Z</time>
      </trkpt>
      <trkpt lat="60.42258" lon="7.6701">
        <ele>1253.22</ele>
        <time>2019-04-02T13:58:20Z</time>
      </trkpt>
      <trkpt lat="60.42285" lon="7.6706">
        <ele>1255.62</ele>
        <time>2019-04-02T13:58:30Z</time>
      </trkpt>
      <trkpt lat="60.42292" lon="7.67048">
        <ele>1257.54</ele>
        <time>2019-04-02T13:58:41Z</time>
      </trkpt>
      <trkpt lat="60.42292" lon="7.67048">
        <ele>1257.54</ele>
        <time>2019-04-02T13:58:42Z</time>
      </trkpt>
      <trkpt lat="60.42288" lon="7.67031">
        <ele>1251.77</ele>
        <time>2019-04-02T13:58:51Z</time>
      </trkpt>
      <trkpt lat="60.42288" lon="7.6703">
        <ele>1251.77</ele>
        <time>2019-04-02T13:58:52Z</time>
      </trkpt>
      <trkpt lat="60.42285" lon="7.67026">
        <ele>1257.06</ele>
        <time>2019-04-02T13:58:55Z</time>
      </trkpt>
      <trkpt lat="60.42285" lon="7.67023">
        <ele>1257.06</ele>
        <time>2019-04-02T13:58:56Z</time>
      </trkpt>
      <trkpt lat="60.42288" lon="7.67014">
        <ele>1258.02</ele>
        <time>2019-04-02T13:59:05Z</time>
      </trkpt>
      <trkpt lat="60.42288" lon="7.67014">
        <ele>1256.1</ele>
        <time>2019-04-02T13:59:07Z</time>
      </trkpt>
      <trkpt lat="60.42288" lon="7.67013">
        <ele>1257.06</ele>
        <time>2019-04-02T13:59:19Z</time>
      </trkpt>
      <trkpt lat="60.42288" lon="7.67013">
        <ele>1255.62</ele>
        <time>2019-04-02T13:59:22Z</time>
      </trkpt>
      <trkpt lat="60.42288" lon="7.67013">
        <ele>1257.54</ele>
        <time>2019-04-02T13:59:24Z</time>
      </trkpt>
      <trkpt lat="60.42288" lon="7.67013">
        <ele>1256.1</ele>
        <time>2019-04-02T13:59:29Z</time>
      </trkpt>
      <trkpt lat="60.42288" lon="7.67013">
        <ele>1255.14</ele>
        <time>2019-04-02T13:59:51Z</time>
      </trkpt>
      <trkpt lat="60.42288" lon="7.67014">
        <ele>1256.58</ele>
        <time>2019-04-02T14:00:06Z</time>
      </trkpt>
      <trkpt lat="60.42288" lon="7.67014">
        <ele>1257.06</ele>
        <time>2019-04-02T14:00:28Z</time>
      </trkpt>
      <trkpt lat="60.42288" lon="7.67008">
        <ele>1256.58</ele>
        <time>2019-04-02T14:00:40Z</time>
      </trkpt>
      <trkpt lat="60.42289" lon="7.6701">
        <ele>1256.58</ele>
        <time>2019-04-02T14:00:43Z</time>
      </trkpt>
      <trkpt lat="60.42301" lon="7.67061">
        <ele>1257.06</ele>
        <time>2019-04-02T14:00:51Z</time>
      </trkpt>
      <trkpt lat="60.42308" lon="7.67111">
        <ele>1256.58</ele>
        <time>2019-04-02T14:00:57Z</time>
      </trkpt>
      <trkpt lat="60.42331" lon="7.67139">
        <ele>1256.58</ele>
        <time>2019-04-02T14:01:08Z</time>
      </trkpt>
      <trkpt lat="60.42364" lon="7.67159">
        <ele>1257.06</ele>
        <time>2019-04-02T14:01:17Z</time>
      </trkpt>
      <trkpt lat="60.42385" lon="7.67166">
        <ele>1258.02</ele>
        <time>2019-04-02T14:01:22Z</time>
      </trkpt>
      <trkpt lat="60.42392" lon="7.6717">
        <ele>1258.02</ele>
        <time>2019-04-02T14:01:24Z</time>
      </trkpt>
      <trkpt lat="60.42396" lon="7.67179">
        <ele>1259.46</ele>
        <time>2019-04-02T14:01:26Z</time>
      </trkpt>
      <trkpt lat="60.42396" lon="7.67187">
        <ele>1258.02</ele>
        <time>2019-04-02T14:01:28Z</time>
      </trkpt>
      <trkpt lat="60.42396" lon="7.67199">
        <ele>1259.46</ele>
        <time>2019-04-02T14:01:30Z</time>
      </trkpt>
      <trkpt lat="60.42395" lon="7.67234">
        <ele>1255.62</ele>
        <time>2019-04-02T14:01:34Z</time>
      </trkpt>
      <trkpt lat="60.42395" lon="7.67243">
        <ele>1255.62</ele>
        <time>2019-04-02T14:01:35Z</time>
      </trkpt>
      <trkpt lat="60.42393" lon="7.67256">
        <ele>1254.66</ele>
        <time>2019-04-02T14:01:37Z</time>
      </trkpt>
      <trkpt lat="60.424" lon="7.67262">
        <ele>1250.81</ele>
        <time>2019-04-02T14:01:40Z</time>
      </trkpt>
      <trkpt lat="60.42421" lon="7.67282">
        <ele>1246.01</ele>
        <time>2019-04-02T14:01:47Z</time>
      </trkpt>
      <trkpt lat="60.42426" lon="7.67314">
        <ele>1244.56</ele>
        <time>2019-04-02T14:01:50Z</time>
      </trkpt>
      <trkpt lat="60.42429" lon="7.67341">
        <ele>1240.24</ele>
        <time>2019-04-02T14:01:54Z</time>
      </trkpt>
      <trkpt lat="60.42433" lon="7.67372">
        <ele>1237.83</ele>
        <time>2019-04-02T14:02:01Z</time>
      </trkpt>
      <trkpt lat="60.42432" lon="7.67391">
        <ele>1237.35</ele>
        <time>2019-04-02T14:02:05Z</time>
      </trkpt>
      <trkpt lat="60.42432" lon="7.67396">
        <ele>1236.39</ele>
        <time>2019-04-02T14:02:06Z</time>
      </trkpt>
      <trkpt lat="60.42441" lon="7.67422">
        <ele>1234.47</ele>
        <time>2019-04-02T14:02:10Z</time>
      </trkpt>
      <trkpt lat="60.42442" lon="7.6743">
        <ele>1234.47</ele>
        <time>2019-04-02T14:02:11Z</time>
      </trkpt>
      <trkpt lat="60.42444" lon="7.6747">
        <ele>1232.55</ele>
        <time>2019-04-02T14:02:15Z</time>
      </trkpt>
      <trkpt lat="60.42446" lon="7.67497">
        <ele>1231.59</ele>
        <time>2019-04-02T14:02:17Z</time>
      </trkpt>
      <trkpt lat="60.42447" lon="7.67536">
        <ele>1227.26</ele>
        <time>2019-04-02T14:02:20Z</time>
      </trkpt>
      <trkpt lat="60.42447" lon="7.67564">
        <ele>1224.86</ele>
        <time>2019-04-02T14:02:22Z</time>
      </trkpt>
      <trkpt lat="60.42447" lon="7.67609">
        <ele>1220.53</ele>
        <time>2019-04-02T14:02:25Z</time>
      </trkpt>
      <trkpt lat="60.42446" lon="7.67622">
        <ele>1215.72</ele>
        <time>2019-04-02T14:02:26Z</time>
      </trkpt>
      <trkpt lat="60.42447" lon="7.6765">
        <ele>1212.36</ele>
        <time>2019-04-02T14:02:28Z</time>
      </trkpt>
      <trkpt lat="60.42445" lon="7.67656">
        <ele>1212.36</ele>
        <time>2019-04-02T14:02:29Z</time>
      </trkpt>
      <trkpt lat="60.42443" lon="7.6766">
        <ele>1211.4</ele>
        <time>2019-04-02T14:02:30Z</time>
      </trkpt>
      <trkpt lat="60.42442" lon="7.67662">
        <ele>1211.4</ele>
        <time>2019-04-02T14:02:32Z</time>
      </trkpt>
      <trkpt lat="60.42444" lon="7.67667">
        <ele>1210.92</ele>
        <time>2019-04-02T14:02:34Z</time>
      </trkpt>
      <trkpt lat="60.42451" lon="7.67677">
        <ele>1209.48</ele>
        <time>2019-04-02T14:02:37Z</time>
      </trkpt>
      <trkpt lat="60.42454" lon="7.67681">
        <ele>1209.48</ele>
        <time>2019-04-02T14:02:38Z</time>
      </trkpt>
      <trkpt lat="60.4246" lon="7.67725">
        <ele>1207.55</ele>
        <time>2019-04-02T14:02:42Z</time>
      </trkpt>
      <trkpt lat="60.42456" lon="7.67754">
        <ele>1206.59</ele>
        <time>2019-04-02T14:02:44Z</time>
      </trkpt>
      <trkpt lat="60.4245" lon="7.678">
        <ele>1200.34</ele>
        <time>2019-04-02T14:02:47Z</time>
      </trkpt>
      <trkpt lat="60.42446" lon="7.67836">
        <ele>1202.27</ele>
        <time>2019-04-02T14:02:50Z</time>
      </trkpt>
      <trkpt lat="60.42452" lon="7.67872">
        <ele>1200.82</ele>
        <time>2019-04-02T14:02:54Z</time>
      </trkpt>
      <trkpt lat="60.42458" lon="7.67878">
        <ele>1200.82</ele>
        <time>2019-04-02T14:02:55Z</time>
      </trkpt>
      <trkpt lat="60.42464" lon="7.67883">
        <ele>1202.27</ele>
        <time>2019-04-02T14:02:56Z</time>
      </trkpt>
      <trkpt lat="60.4247" lon="7.67886">
        <ele>1202.27</ele>
        <time>2019-04-02T14:02:57Z</time>
      </trkpt>
      <trkpt lat="60.42477" lon="7.67889">
        <ele>1204.19</ele>
        <time>2019-04-02T14:02:58Z</time>
      </trkpt>
      <trkpt lat="60.42482" lon="7.67894">
        <ele>1205.63</ele>
        <time>2019-04-02T14:02:59Z</time>
      </trkpt>
      <trkpt lat="60.42487" lon="7.67899">
        <ele>1207.55</ele>
        <time>2019-04-02T14:03:00Z</time>
      </trkpt>
      <trkpt lat="60.42491" lon="7.67906">
        <ele>1208.51</ele>
        <time>2019-04-02T14:03:01Z</time>
      </trkpt>
      <trkpt lat="60.42496" lon="7.67911">
        <ele>1209</ele>
        <time>2019-04-02T14:03:02Z</time>
      </trkpt>
      <trkpt lat="60.42508" lon="7.67921">
        <ele>1210.92</ele>
        <time>2019-04-02T14:03:04Z</time>
      </trkpt>
      <trkpt lat="60.42526" lon="7.67943">
        <ele>1217.17</ele>
        <time>2019-04-02T14:03:07Z</time>
      </trkpt>
      <trkpt lat="60.42531" lon="7.67952">
        <ele>1219.09</ele>
        <time>2019-04-02T14:03:08Z</time>
      </trkpt>
      <trkpt lat="60.42542" lon="7.67982">
        <ele>1225.82</ele>
        <time>2019-04-02T14:03:11Z</time>
      </trkpt>
      <trkpt lat="60.42545" lon="7.67991">
        <ele>1228.22</ele>
        <time>2019-04-02T14:03:12Z</time>
      </trkpt>
      <trkpt lat="60.42557" lon="7.68012">
        <ele>1231.11</ele>
        <time>2019-04-02T14:03:15Z</time>
      </trkpt>
      <trkpt lat="60.42563" lon="7.68023">
        <ele>1230.14</ele>
        <time>2019-04-02T14:03:17Z</time>
      </trkpt>
      <trkpt lat="60.4258" lon="7.6804">
        <ele>1234.95</ele>
        <time>2019-04-02T14:03:20Z</time>
      </trkpt>
      <trkpt lat="60.42585" lon="7.68049">
        <ele>1236.87</ele>
        <time>2019-04-02T14:03:21Z</time>
      </trkpt>
      <trkpt lat="60.42594" lon="7.68066">
        <ele>1239.28</ele>
        <time>2019-04-02T14:03:23Z</time>
      </trkpt>
      <trkpt lat="60.42606" lon="7.68098">
        <ele>1244.08</ele>
        <time>2019-04-02T14:03:27Z</time>
      </trkpt>
      <trkpt lat="60.42612" lon="7.68115">
        <ele>1247.45</ele>
        <time>2019-04-02T14:03:30Z</time>
      </trkpt>
      <trkpt lat="60.42614" lon="7.6812">
        <ele>1247.93</ele>
        <time>2019-04-02T14:03:31Z</time>
      </trkpt>
      <trkpt lat="60.42616" lon="7.68136">
        <ele>1249.37</ele>
        <time>2019-04-02T14:03:36Z</time>
      </trkpt>
      <trkpt lat="60.42616" lon="7.6814">
        <ele>1248.41</ele>
        <time>2019-04-02T14:03:43Z</time>
      </trkpt>
      <trkpt lat="60.42615" lon="7.6814">
        <ele>1248.89</ele>
        <time>2019-04-02T14:03:48Z</time>
      </trkpt>
      <trkpt lat="60.42615" lon="7.68142">
        <ele>1247.93</ele>
        <time>2019-04-02T14:03:51Z</time>
      </trkpt>
      <trkpt lat="60.42615" lon="7.68144">
        <ele>1248.89</ele>
        <time>2019-04-02T14:03:56Z</time>
      </trkpt>
      <trkpt lat="60.42629" lon="7.68163">
        <ele>1246.97</ele>
        <time>2019-04-02T14:04:00Z</time>
      </trkpt>
      <trkpt lat="60.42654" lon="7.68191">
        <ele>1248.89</ele>
        <time>2019-04-02T14:04:04Z</time>
      </trkpt>
      <trkpt lat="60.42675" lon="7.68206">
        <ele>1255.14</ele>
        <time>2019-04-02T14:04:07Z</time>
      </trkpt>
      <trkpt lat="60.42691" lon="7.68223">
        <ele>1259.46</ele>
        <time>2019-04-02T14:04:10Z</time>
      </trkpt>
      <trkpt lat="60.42699" lon="7.68232">
        <ele>1262.35</ele>
        <time>2019-04-02T14:04:12Z</time>
      </trkpt>
      <trkpt lat="60.42709" lon="7.6824">
        <ele>1264.27</ele>
        <time>2019-04-02T14:04:15Z</time>
      </trkpt>
      <trkpt lat="60.42726" lon="7.68256">
        <ele>1267.64</ele>
        <time>2019-04-02T14:04:21Z</time>
      </trkpt>
      <trkpt lat="60.42735" lon="7.68268">
        <ele>1270.04</ele>
        <time>2019-04-02T14:04:32Z</time>
      </trkpt>
      <trkpt lat="60.42737" lon="7.68269">
        <ele>1269.08</ele>
        <time>2019-04-02T14:04:49Z</time>
      </trkpt>
      <trkpt lat="60.42742" lon="7.68282">
        <ele>1270.52</ele>
        <time>2019-04-02T14:04:54Z</time>
      </trkpt>
      <trkpt lat="60.42749" lon="7.68325">
        <ele>1267.64</ele>
        <time>2019-04-02T14:04:59Z</time>
      </trkpt>
      <trkpt lat="60.4276" lon="7.68353">
        <ele>1264.27</ele>
        <time>2019-04-02T14:05:02Z</time>
      </trkpt>
      <trkpt lat="60.42768" lon="7.68404">
        <ele>1261.39</ele>
        <time>2019-04-02T14:05:07Z</time>
      </trkpt>
      <trkpt lat="60.42771" lon="7.68416">
        <ele>1257.54</ele>
        <time>2019-04-02T14:05:08Z</time>
      </trkpt>
      <trkpt lat="60.42785" lon="7.6844">
        <ele>1255.62</ele>
        <time>2019-04-02T14:05:11Z</time>
      </trkpt>
      <trkpt lat="60.42815" lon="7.68475">
        <ele>1251.77</ele>
        <time>2019-04-02T14:05:16Z</time>
      </trkpt>
      <trkpt lat="60.42829" lon="7.68486">
        <ele>1258.02</ele>
        <time>2019-04-02T14:05:20Z</time>
      </trkpt>
      <trkpt lat="60.42836" lon="7.68492">
        <ele>1258.5</ele>
        <time>2019-04-02T14:05:23Z</time>
      </trkpt>
      <trkpt lat="60.4285" lon="7.68498">
        <ele>1258.5</ele>
        <time>2019-04-02T14:05:26Z</time>
      </trkpt>
      <trkpt lat="60.42863" lon="7.68502">
        <ele>1256.58</ele>
        <time>2019-04-02T14:05:28Z</time>
      </trkpt>
      <trkpt lat="60.42901" lon="7.68547">
        <ele>1254.18</ele>
        <time>2019-04-02T14:05:34Z</time>
      </trkpt>
      <trkpt lat="60.42934" lon="7.68576">
        <ele>1250.81</ele>
        <time>2019-04-02T14:05:39Z</time>
      </trkpt>
      <trkpt lat="60.42955" lon="7.68605">
        <ele>1247.93</ele>
        <time>2019-04-02T14:05:42Z</time>
      </trkpt>
      <trkpt lat="60.42977" lon="7.68636">
        <ele>1246.01</ele>
        <time>2019-04-02T14:05:45Z</time>
      </trkpt>
      <trkpt lat="60.43009" lon="7.68695">
        <ele>1245.53</ele>
        <time>2019-04-02T14:05:50Z</time>
      </trkpt>
      <trkpt lat="60.43023" lon="7.68723">
        <ele>1244.08</ele>
        <time>2019-04-02T14:05:52Z</time>
      </trkpt>
      <trkpt lat="60.43052" lon="7.68777">
        <ele>1242.64</ele>
        <time>2019-04-02T14:05:56Z</time>
      </trkpt>
      <trkpt lat="60.43077" lon="7.68809">
        <ele>1244.08</ele>
        <time>2019-04-02T14:06:00Z</time>
      </trkpt>
      <trkpt lat="60.43086" lon="7.68817">
        <ele>1244.56</ele>
        <time>2019-04-02T14:06:02Z</time>
      </trkpt>
      <trkpt lat="60.43105" lon="7.68826">
        <ele>1246.49</ele>
        <time>2019-04-02T14:06:07Z</time>
      </trkpt>
      <trkpt lat="60.43118" lon="7.68835">
        <ele>1247.45</ele>
        <time>2019-04-02T14:06:10Z</time>
      </trkpt>
      <trkpt lat="60.43133" lon="7.68847">
        <ele>1249.85</ele>
        <time>2019-04-02T14:06:14Z</time>
      </trkpt>
      <trkpt lat="60.4314" lon="7.68856">
        <ele>1251.77</ele>
        <time>2019-04-02T14:06:19Z</time>
      </trkpt>
      <trkpt lat="60.43151" lon="7.68874">
        <ele>1251.77</ele>
        <time>2019-04-02T14:06:23Z</time>
      </trkpt>
      <trkpt lat="60.43155" lon="7.68881">
        <ele>1252.25</ele>
        <time>2019-04-02T14:06:25Z</time>
      </trkpt>
      <trkpt lat="60.43173" lon="7.68903">
        <ele>1253.7</ele>
        <time>2019-04-02T14:06:34Z</time>
      </trkpt>
      <trkpt lat="60.43194" lon="7.68934">
        <ele>1254.66</ele>
        <time>2019-04-02T14:06:44Z</time>
      </trkpt>
      <trkpt lat="60.43212" lon="7.68958">
        <ele>1256.1</ele>
        <time>2019-04-02T14:06:49Z</time>
      </trkpt>
      <trkpt lat="60.43221" lon="7.68977">
        <ele>1256.1</ele>
        <time>2019-04-02T14:06:52Z</time>
      </trkpt>
      <trkpt lat="60.43243" lon="7.69012">
        <ele>1257.54</ele>
        <time>2019-04-02T14:06:58Z</time>
      </trkpt>
      <trkpt lat="60.43273" lon="7.69093">
        <ele>1253.7</ele>
        <time>2019-04-02T14:07:04Z</time>
      </trkpt>
      <trkpt lat="60.43284" lon="7.69125">
        <ele>1253.22</ele>
        <time>2019-04-02T14:07:06Z</time>
      </trkpt>
      <trkpt lat="60.43289" lon="7.69141">
        <ele>1252.25</ele>
        <time>2019-04-02T14:07:07Z</time>
      </trkpt>
      <trkpt lat="60.43299" lon="7.69184">
        <ele>1254.18</ele>
        <time>2019-04-02T14:07:10Z</time>
      </trkpt>
      <trkpt lat="60.43315" lon="7.69216">
        <ele>1256.1</ele>
        <time>2019-04-02T14:07:15Z</time>
      </trkpt>
      <trkpt lat="60.43329" lon="7.6925">
        <ele>1259.94</ele>
        <time>2019-04-02T14:07:21Z</time>
      </trkpt>
      <trkpt lat="60.43331" lon="7.69254">
        <ele>1259.94</ele>
        <time>2019-04-02T14:07:22Z</time>
      </trkpt>
      <trkpt lat="60.43341" lon="7.69288">
        <ele>1262.35</ele>
        <time>2019-04-02T14:07:27Z</time>
      </trkpt>
      <trkpt lat="60.43345" lon="7.69314">
        <ele>1264.75</ele>
        <time>2019-04-02T14:07:30Z</time>
      </trkpt>
      <trkpt lat="60.43347" lon="7.69331">
        <ele>1265.23</ele>
        <time>2019-04-02T14:07:32Z</time>
      </trkpt>
      <trkpt lat="60.4335" lon="7.69369">
        <ele>1267.16</ele>
        <time>2019-04-02T14:07:38Z</time>
      </trkpt>
      <trkpt lat="60.43354" lon="7.69385">
        <ele>1267.16</ele>
        <time>2019-04-02T14:07:40Z</time>
      </trkpt>
      <trkpt lat="60.43359" lon="7.69406">
        <ele>1267.16</ele>
        <time>2019-04-02T14:07:42Z</time>
      </trkpt>
      <trkpt lat="60.43366" lon="7.69429">
        <ele>1265.71</ele>
        <time>2019-04-02T14:07:44Z</time>
      </trkpt>
      <trkpt lat="60.4337" lon="7.6944">
        <ele>1264.75</ele>
        <time>2019-04-02T14:07:45Z</time>
      </trkpt>
      <trkpt lat="60.4338" lon="7.69462">
        <ele>1263.79</ele>
        <time>2019-04-02T14:07:47Z</time>
      </trkpt>
      <trkpt lat="60.4339" lon="7.69482">
        <ele>1261.87</ele>
        <time>2019-04-02T14:07:49Z</time>
      </trkpt>
      <trkpt lat="60.43401" lon="7.69502">
        <ele>1261.87</ele>
        <time>2019-04-02T14:07:51Z</time>
      </trkpt>
      <trkpt lat="60.43413" lon="7.69517">
        <ele>1261.87</ele>
        <time>2019-04-02T14:07:53Z</time>
      </trkpt>
      <trkpt lat="60.43425" lon="7.69532">
        <ele>1263.31</ele>
        <time>2019-04-02T14:07:55Z</time>
      </trkpt>
      <trkpt lat="60.43434" lon="7.69549">
        <ele>1263.79</ele>
        <time>2019-04-02T14:07:57Z</time>
      </trkpt>
      <trkpt lat="60.43439" lon="7.69558">
        <ele>1263.79</ele>
        <time>2019-04-02T14:07:58Z</time>
      </trkpt>
      <trkpt lat="60.43444" lon="7.69578">
        <ele>1265.23</ele>
        <time>2019-04-02T14:08:00Z</time>
      </trkpt>
      <trkpt lat="60.43465" lon="7.69626">
        <ele>1268.12</ele>
        <time>2019-04-02T14:08:07Z</time>
      </trkpt>
      <trkpt lat="60.43491" lon="7.69677">
        <ele>1273.88</ele>
        <time>2019-04-02T14:08:13Z</time>
      </trkpt>
      <trkpt lat="60.43507" lon="7.69719">
        <ele>1278.21</ele>
        <time>2019-04-02T14:08:18Z</time>
      </trkpt>
      <trkpt lat="60.43521" lon="7.69747">
        <ele>1280.13</ele>
        <time>2019-04-02T14:08:23Z</time>
      </trkpt>
      <trkpt lat="60.43528" lon="7.69758">
        <ele>1280.61</ele>
        <time>2019-04-02T14:08:25Z</time>
      </trkpt>
      <trkpt lat="60.43545" lon="7.69804">
        <ele>1283.98</ele>
        <time>2019-04-02T14:08:31Z</time>
      </trkpt>
      <trkpt lat="60.4355" lon="7.69819">
        <ele>1283.98</ele>
        <time>2019-04-02T14:08:33Z</time>
      </trkpt>
      <trkpt lat="60.43556" lon="7.69855">
        <ele>1285.42</ele>
        <time>2019-04-02T14:08:38Z</time>
      </trkpt>
      <trkpt lat="60.43559" lon="7.69867">
        <ele>1286.38</ele>
        <time>2019-04-02T14:08:40Z</time>
      </trkpt>
      <trkpt lat="60.4356" lon="7.69872">
        <ele>1284.46</ele>
        <time>2019-04-02T14:08:42Z</time>
      </trkpt>
      <trkpt lat="60.4356" lon="7.69874">
        <ele>1284.46</ele>
        <time>2019-04-02T14:08:43Z</time>
      </trkpt>
      <trkpt lat="60.43583" lon="7.69901">
        <ele>1283.98</ele>
        <time>2019-04-02T14:08:54Z</time>
      </trkpt>
      <trkpt lat="60.43583" lon="7.69907">
        <ele>1283.98</ele>
        <time>2019-04-02T14:09:08Z</time>
      </trkpt>
      <trkpt lat="60.43585" lon="7.69912">
        <ele>1283.98</ele>
        <time>2019-04-02T14:09:20Z</time>
      </trkpt>
      <trkpt lat="60.43593" lon="7.69914">
        <ele>1283.5</ele>
        <time>2019-04-02T14:09:31Z</time>
      </trkpt>
      <trkpt lat="60.43593" lon="7.69915">
        <ele>1283.5</ele>
        <time>2019-04-02T14:09:50Z</time>
      </trkpt>
      <trkpt lat="60.43594" lon="7.69915">
        <ele>1283.02</ele>
        <time>2019-04-02T14:10:18Z</time>
      </trkpt>
      <trkpt lat="60.43594" lon="7.69915">
        <ele>1283.02</ele>
        <time>2019-04-02T14:10:36Z</time>
      </trkpt>
      <trkpt lat="60.43594" lon="7.69916">
        <ele>1283.02</ele>
        <time>2019-04-02T14:10:53Z</time>
      </trkpt>
      <trkpt lat="60.43595" lon="7.69918">
        <ele>1282.54</ele>
        <time>2019-04-02T14:11:16Z</time>
      </trkpt>
      <trkpt lat="60.43596" lon="7.69919">
        <ele>1282.06</ele>
        <time>2019-04-02T14:11:25Z</time>
      </trkpt>
      <trkpt lat="60.43601" lon="7.6994">
        <ele>1282.06</ele>
        <time>2019-04-02T14:11:30Z</time>
      </trkpt>
      <trkpt lat="60.43602" lon="7.69961">
        <ele>1276.77</ele>
        <time>2019-04-02T14:11:32Z</time>
      </trkpt>
      <trkpt lat="60.43603" lon="7.69973">
        <ele>1276.77</ele>
        <time>2019-04-02T14:11:33Z</time>
      </trkpt>
      <trkpt lat="60.43606" lon="7.69985">
        <ele>1273.88</ele>
        <time>2019-04-02T14:11:34Z</time>
      </trkpt>
      <trkpt lat="60.43614" lon="7.70014">
        <ele>1268.12</ele>
        <time>2019-04-02T14:11:37Z</time>
      </trkpt>
      <trkpt lat="60.43617" lon="7.70034">
        <ele>1266.19</ele>
        <time>2019-04-02T14:11:39Z</time>
      </trkpt>
      <trkpt lat="60.43625" lon="7.70057">
        <ele>1262.35</ele>
        <time>2019-04-02T14:11:41Z</time>
      </trkpt>
      <trkpt lat="60.43629" lon="7.70073">
        <ele>1260.91</ele>
        <time>2019-04-02T14:11:42Z</time>
      </trkpt>
      <trkpt lat="60.43635" lon="7.70106">
        <ele>1259.94</ele>
        <time>2019-04-02T14:11:44Z</time>
      </trkpt>
      <trkpt lat="60.43643" lon="7.70142">
        <ele>1258.5</ele>
        <time>2019-04-02T14:11:46Z</time>
      </trkpt>
      <trkpt lat="60.4365" lon="7.70236">
        <ele>1257.54</ele>
        <time>2019-04-02T14:11:51Z</time>
      </trkpt>
      <trkpt lat="60.43648" lon="7.70287">
        <ele>1259.94</ele>
        <time>2019-04-02T14:11:54Z</time>
      </trkpt>
      <trkpt lat="60.43645" lon="7.70372">
        <ele>1259.46</ele>
        <time>2019-04-02T14:12:00Z</time>
      </trkpt>
      <trkpt lat="60.43644" lon="7.70403">
        <ele>1259.94</ele>
        <time>2019-04-02T14:12:02Z</time>
      </trkpt>
      <trkpt lat="60.43637" lon="7.70481">
        <ele>1259.46</ele>
        <time>2019-04-02T14:12:07Z</time>
      </trkpt>
      <trkpt lat="60.43637" lon="7.70511">
        <ele>1258.02</ele>
        <time>2019-04-02T14:12:09Z</time>
      </trkpt>
      <trkpt lat="60.43637" lon="7.7054">
        <ele>1258.02</ele>
        <time>2019-04-02T14:12:11Z</time>
      </trkpt>
      <trkpt lat="60.43637" lon="7.7057">
        <ele>1256.1</ele>
        <time>2019-04-02T14:12:13Z</time>
      </trkpt>
      <trkpt lat="60.43637" lon="7.70586">
        <ele>1256.1</ele>
        <time>2019-04-02T14:12:14Z</time>
      </trkpt>
      <trkpt lat="60.43634" lon="7.70648">
        <ele>1255.62</ele>
        <time>2019-04-02T14:12:18Z</time>
      </trkpt>
      <trkpt lat="60.43631" lon="7.70713">
        <ele>1258.98</ele>
        <time>2019-04-02T14:12:22Z</time>
      </trkpt>
      <trkpt lat="60.4363" lon="7.70727">
        <ele>1258.98</ele>
        <time>2019-04-02T14:12:23Z</time>
      </trkpt>
      <trkpt lat="60.43627" lon="7.70749">
        <ele>1257.54</ele>
        <time>2019-04-02T14:12:25Z</time>
      </trkpt>
      <trkpt lat="60.43624" lon="7.70767">
        <ele>1256.1</ele>
        <time>2019-04-02T14:12:27Z</time>
      </trkpt>
      <trkpt lat="60.43616" lon="7.70814">
        <ele>1254.66</ele>
        <time>2019-04-02T14:12:33Z</time>
      </trkpt>
      <trkpt lat="60.43613" lon="7.7084">
        <ele>1253.22</ele>
        <time>2019-04-02T14:12:36Z</time>
      </trkpt>
      <trkpt lat="60.43607" lon="7.70867">
        <ele>1251.77</ele>
        <time>2019-04-02T14:12:39Z</time>
      </trkpt>
      <trkpt lat="60.43601" lon="7.70924">
        <ele>1250.81</ele>
        <time>2019-04-02T14:12:44Z</time>
      </trkpt>
      <trkpt lat="60.43598" lon="7.70951">
        <ele>1250.33</ele>
        <time>2019-04-02T14:12:46Z</time>
      </trkpt>
      <trkpt lat="60.43588" lon="7.7101">
        <ele>1247.93</ele>
        <time>2019-04-02T14:12:50Z</time>
      </trkpt>
      <trkpt lat="60.43581" lon="7.71058">
        <ele>1244.56</ele>
        <time>2019-04-02T14:12:53Z</time>
      </trkpt>
      <trkpt lat="60.43579" lon="7.71076">
        <ele>1241.68</ele>
        <time>2019-04-02T14:12:54Z</time>
      </trkpt>
      <trkpt lat="60.43577" lon="7.71094">
        <ele>1240.72</ele>
        <time>2019-04-02T14:12:55Z</time>
      </trkpt>
      <trkpt lat="60.43574" lon="7.7132">
        <ele>1237.83</ele>
        <time>2019-04-02T14:13:07Z</time>
      </trkpt>
      <trkpt lat="60.43572" lon="7.71496">
        <ele>1236.39</ele>
        <time>2019-04-02T14:13:18Z</time>
      </trkpt>
      <trkpt lat="60.4357" lon="7.71564">
        <ele>1234.95</ele>
        <time>2019-04-02T14:13:22Z</time>
      </trkpt>
      <trkpt lat="60.43569" lon="7.71597">
        <ele>1234.95</ele>
        <time>2019-04-02T14:13:24Z</time>
      </trkpt>
      <trkpt lat="60.43571" lon="7.71646">
        <ele>1233.99</ele>
        <time>2019-04-02T14:13:27Z</time>
      </trkpt>
      <trkpt lat="60.43574" lon="7.717">
        <ele>1234.95</ele>
        <time>2019-04-02T14:13:30Z</time>
      </trkpt>
      <trkpt lat="60.43575" lon="7.71733">
        <ele>1236.39</ele>
        <time>2019-04-02T14:13:32Z</time>
      </trkpt>
      <trkpt lat="60.43575" lon="7.71769">
        <ele>1238.8</ele>
        <time>2019-04-02T14:13:35Z</time>
      </trkpt>
      <trkpt lat="60.43575" lon="7.71788">
        <ele>1239.76</ele>
        <time>2019-04-02T14:13:37Z</time>
      </trkpt>
      <trkpt lat="60.43571" lon="7.71858">
        <ele>1243.12</ele>
        <time>2019-04-02T14:13:44Z</time>
      </trkpt>
      <trkpt lat="60.4357" lon="7.71868">
        <ele>1243.12</ele>
        <time>2019-04-02T14:13:45Z</time>
      </trkpt>
      <trkpt lat="60.43569" lon="7.71908">
        <ele>1241.68</ele>
        <time>2019-04-02T14:13:49Z</time>
      </trkpt>
      <trkpt lat="60.43566" lon="7.71951">
        <ele>1242.16</ele>
        <time>2019-04-02T14:13:54Z</time>
      </trkpt>
      <trkpt lat="60.43566" lon="7.71996">
        <ele>1241.2</ele>
        <time>2019-04-02T14:13:58Z</time>
      </trkpt>
      <trkpt lat="60.4357" lon="7.72037">
        <ele>1239.76</ele>
        <time>2019-04-02T14:14:01Z</time>
      </trkpt>
      <trkpt lat="60.43574" lon="7.72094">
        <ele>1242.64</ele>
        <time>2019-04-02T14:14:05Z</time>
      </trkpt>
      <trkpt lat="60.43577" lon="7.72122">
        <ele>1241.2</ele>
        <time>2019-04-02T14:14:07Z</time>
      </trkpt>
      <trkpt lat="60.43579" lon="7.72136">
        <ele>1241.2</ele>
        <time>2019-04-02T14:14:08Z</time>
      </trkpt>
      <trkpt lat="60.43581" lon="7.72166">
        <ele>1240.72</ele>
        <time>2019-04-02T14:14:10Z</time>
      </trkpt>
      <trkpt lat="60.43578" lon="7.72205">
        <ele>1240.72</ele>
        <time>2019-04-02T14:14:13Z</time>
      </trkpt>
      <trkpt lat="60.43575" lon="7.72226">
        <ele>1242.16</ele>
        <time>2019-04-02T14:14:15Z</time>
      </trkpt>
      <trkpt lat="60.43574" lon="7.72236">
        <ele>1240.24</ele>
        <time>2019-04-02T14:14:16Z</time>
      </trkpt>
      <trkpt lat="60.43574" lon="7.72254">
        <ele>1238.32</ele>
        <time>2019-04-02T14:14:18Z</time>
      </trkpt>
      <trkpt lat="60.43568" lon="7.72344">
        <ele>1236.87</ele>
        <time>2019-04-02T14:14:25Z</time>
      </trkpt>
      <trkpt lat="60.43566" lon="7.72391">
        <ele>1235.43</ele>
        <time>2019-04-02T14:14:28Z</time>
      </trkpt>
      <trkpt lat="60.43564" lon="7.72436">
        <ele>1232.07</ele>
        <time>2019-04-02T14:14:31Z</time>
      </trkpt>
      <trkpt lat="60.43563" lon="7.72451">
        <ele>1231.59</ele>
        <time>2019-04-02T14:14:32Z</time>
      </trkpt>
      <trkpt lat="60.43561" lon="7.725">
        <ele>1228.7</ele>
        <time>2019-04-02T14:14:35Z</time>
      </trkpt>
      <trkpt lat="60.43559" lon="7.72518">
        <ele>1227.26</ele>
        <time>2019-04-02T14:14:36Z</time>
      </trkpt>
      <trkpt lat="60.43555" lon="7.72552">
        <ele>1223.9</ele>
        <time>2019-04-02T14:14:38Z</time>
      </trkpt>
      <trkpt lat="60.4355" lon="7.72585">
        <ele>1218.61</ele>
        <time>2019-04-02T14:14:40Z</time>
      </trkpt>
      <trkpt lat="60.43548" lon="7.72602">
        <ele>1216.69</ele>
        <time>2019-04-02T14:14:41Z</time>
      </trkpt>
      <trkpt lat="60.43543" lon="7.72655">
        <ele>1210.92</ele>
        <time>2019-04-02T14:14:44Z</time>
      </trkpt>
      <trkpt lat="60.43541" lon="7.72674">
        <ele>1209.96</ele>
        <time>2019-04-02T14:14:45Z</time>
      </trkpt>
      <trkpt lat="60.43538" lon="7.72735">
        <ele>1202.75</ele>
        <time>2019-04-02T14:14:48Z</time>
      </trkpt>
      <trkpt lat="60.43538" lon="7.72774">
        <ele>1200.82</ele>
        <time>2019-04-02T14:14:50Z</time>
      </trkpt>
      <trkpt lat="60.43533" lon="7.72889">
        <ele>1201.79</ele>
        <time>2019-04-02T14:14:57Z</time>
      </trkpt>
      <trkpt lat="60.43532" lon="7.72943">
        <ele>1200.82</ele>
        <time>2019-04-02T14:15:01Z</time>
      </trkpt>
      <trkpt lat="60.4353" lon="7.72979">
        <ele>1199.38</ele>
        <time>2019-04-02T14:15:04Z</time>
      </trkpt>
      <trkpt lat="60.4352" lon="7.73034">
        <ele>1199.86</ele>
        <time>2019-04-02T14:15:09Z</time>
      </trkpt>
      <trkpt lat="60.43516" lon="7.7308">
        <ele>1195.06</ele>
        <time>2019-04-02T14:15:12Z</time>
      </trkpt>
      <trkpt lat="60.43514" lon="7.73114">
        <ele>1194.09</ele>
        <time>2019-04-02T14:15:14Z</time>
      </trkpt>
      <trkpt lat="60.43513" lon="7.73131">
        <ele>1190.73</ele>
        <time>2019-04-02T14:15:15Z</time>
      </trkpt>
      <trkpt lat="60.4351" lon="7.73157">
        <ele>1188.81</ele>
        <time>2019-04-02T14:15:17Z</time>
      </trkpt>
      <trkpt lat="60.43506" lon="7.73192">
        <ele>1191.69</ele>
        <time>2019-04-02T14:15:20Z</time>
      </trkpt>
      <trkpt lat="60.43504" lon="7.73206">
        <ele>1191.69</ele>
        <time>2019-04-02T14:15:21Z</time>
      </trkpt>
      <trkpt lat="60.435" lon="7.73292">
        <ele>1188.33</ele>
        <time>2019-04-02T14:15:26Z</time>
      </trkpt>
      <trkpt lat="60.43495" lon="7.7338">
        <ele>1182.56</ele>
        <time>2019-04-02T14:15:31Z</time>
      </trkpt>
      <trkpt lat="60.43491" lon="7.7345">
        <ele>1179.19</ele>
        <time>2019-04-02T14:15:35Z</time>
      </trkpt>
      <trkpt lat="60.43489" lon="7.73502">
        <ele>1177.75</ele>
        <time>2019-04-02T14:15:38Z</time>
      </trkpt>
      <trkpt lat="60.43483" lon="7.73595">
        <ele>1178.71</ele>
        <time>2019-04-02T14:15:44Z</time>
      </trkpt>
      <trkpt lat="60.43482" lon="7.73609">
        <ele>1178.71</ele>
        <time>2019-04-02T14:15:45Z</time>
      </trkpt>
      <trkpt lat="60.43481" lon="7.73636">
        <ele>1178.23</ele>
        <time>2019-04-02T14:15:47Z</time>
      </trkpt>
      <trkpt lat="60.43479" lon="7.73661">
        <ele>1177.27</ele>
        <time>2019-04-02T14:15:49Z</time>
      </trkpt>
      <trkpt lat="60.4348" lon="7.73713">
        <ele>1177.27</ele>
        <time>2019-04-02T14:15:53Z</time>
      </trkpt>
      <trkpt lat="60.4348" lon="7.73752">
        <ele>1178.71</ele>
        <time>2019-04-02T14:15:56Z</time>
      </trkpt>
      <trkpt lat="60.43482" lon="7.7378">
        <ele>1178.71</ele>
        <time>2019-04-02T14:15:58Z</time>
      </trkpt>
      <trkpt lat="60.43484" lon="7.73884">
        <ele>1179.19</ele>
        <time>2019-04-02T14:16:05Z</time>
      </trkpt>
      <trkpt lat="60.43486" lon="7.73911">
        <ele>1177.75</ele>
        <time>2019-04-02T14:16:07Z</time>
      </trkpt>
      <trkpt lat="60.43495" lon="7.73986">
        <ele>1180.16</ele>
        <time>2019-04-02T14:16:12Z</time>
      </trkpt>
      <trkpt lat="60.43498" lon="7.74017">
        <ele>1180.64</ele>
        <time>2019-04-02T14:16:14Z</time>
      </trkpt>
      <trkpt lat="60.43502" lon="7.74069">
        <ele>1183.04</ele>
        <time>2019-04-02T14:16:17Z</time>
      </trkpt>
      <trkpt lat="60.43502" lon="7.74099">
        <ele>1183.52</ele>
        <time>2019-04-02T14:16:19Z</time>
      </trkpt>
      <trkpt lat="60.43505" lon="7.74158">
        <ele>1183.52</ele>
        <time>2019-04-02T14:16:23Z</time>
      </trkpt>
      <trkpt lat="60.4351" lon="7.74231">
        <ele>1187.85</ele>
        <time>2019-04-02T14:16:28Z</time>
      </trkpt>
      <trkpt lat="60.43512" lon="7.74259">
        <ele>1188.81</ele>
        <time>2019-04-02T14:16:30Z</time>
      </trkpt>
      <trkpt lat="60.43516" lon="7.74301">
        <ele>1189.29</ele>
        <time>2019-04-02T14:16:33Z</time>
      </trkpt>
      <trkpt lat="60.4352" lon="7.74331">
        <ele>1190.25</ele>
        <time>2019-04-02T14:16:35Z</time>
      </trkpt>
      <trkpt lat="60.43523" lon="7.74363">
        <ele>1192.65</ele>
        <time>2019-04-02T14:16:37Z</time>
      </trkpt>
      <trkpt lat="60.43529" lon="7.74436">
        <ele>1196.98</ele>
        <time>2019-04-02T14:16:42Z</time>
      </trkpt>
      <trkpt lat="60.43532" lon="7.74478">
        <ele>1200.34</ele>
        <time>2019-04-02T14:16:45Z</time>
      </trkpt>
      <trkpt lat="60.43535" lon="7.74507">
        <ele>1201.79</ele>
        <time>2019-04-02T14:16:47Z</time>
      </trkpt>
      <trkpt lat="60.43538" lon="7.74547">
        <ele>1201.79</ele>
        <time>2019-04-02T14:16:50Z</time>
      </trkpt>
      <trkpt lat="60.43541" lon="7.74572">
        <ele>1201.79</ele>
        <time>2019-04-02T14:16:52Z</time>
      </trkpt>
      <trkpt lat="60.43549" lon="7.74626">
        <ele>1203.71</ele>
        <time>2019-04-02T14:16:56Z</time>
      </trkpt>
      <trkpt lat="60.43552" lon="7.74674">
        <ele>1206.11</ele>
        <time>2019-04-02T14:17:00Z</time>
      </trkpt>
      <trkpt lat="60.43554" lon="7.74692">
        <ele>1207.07</ele>
        <time>2019-04-02T14:17:02Z</time>
      </trkpt>
      <trkpt lat="60.4356" lon="7.74719">
        <ele>1208.03</ele>
        <time>2019-04-02T14:17:05Z</time>
      </trkpt>
      <trkpt lat="60.43575" lon="7.74778">
        <ele>1210.92</ele>
        <time>2019-04-02T14:17:10Z</time>
      </trkpt>
      <trkpt lat="60.43587" lon="7.7482">
        <ele>1210.92</ele>
        <time>2019-04-02T14:17:14Z</time>
      </trkpt>
      <trkpt lat="60.43598" lon="7.74886">
        <ele>1212.36</ele>
        <time>2019-04-02T14:17:20Z</time>
      </trkpt>
      <trkpt lat="60.43604" lon="7.74953">
        <ele>1213.32</ele>
        <time>2019-04-02T14:17:26Z</time>
      </trkpt>
      <trkpt lat="60.4362" lon="7.75033">
        <ele>1218.13</ele>
        <time>2019-04-02T14:17:33Z</time>
      </trkpt>
      <trkpt lat="60.43629" lon="7.75069">
        <ele>1219.57</ele>
        <time>2019-04-02T14:17:37Z</time>
      </trkpt>
      <trkpt lat="60.4364" lon="7.75102">
        <ele>1220.05</ele>
        <time>2019-04-02T14:17:41Z</time>
      </trkpt>
      <trkpt lat="60.43639" lon="7.75118">
        <ele>1220.53</ele>
        <time>2019-04-02T14:17:48Z</time>
      </trkpt>
      <trkpt lat="60.43638" lon="7.75119">
        <ele>1221.01</ele>
        <time>2019-04-02T14:18:04Z</time>
      </trkpt>
      <trkpt lat="60.43629" lon="7.7508">
        <ele>1221.49</ele>
        <time>2019-04-02T14:18:12Z</time>
      </trkpt>
      <trkpt lat="60.43614" lon="7.75049">
        <ele>1219.57</ele>
        <time>2019-04-02T14:18:16Z</time>
      </trkpt>
      <trkpt lat="60.43609" lon="7.75039">
        <ele>1219.09</ele>
        <time>2019-04-02T14:18:17Z</time>
      </trkpt>
      <trkpt lat="60.43596" lon="7.75018">
        <ele>1215.24</ele>
        <time>2019-04-02T14:18:19Z</time>
      </trkpt>
      <trkpt lat="60.43572" lon="7.7499">
        <ele>1213.8</ele>
        <time>2019-04-02T14:18:24Z</time>
      </trkpt>
      <trkpt lat="60.43571" lon="7.74976">
        <ele>1213.32</ele>
        <time>2019-04-02T14:18:31Z</time>
      </trkpt>
      <trkpt lat="60.43574" lon="7.74974">
        <ele>1212.84</ele>
        <time>2019-04-02T14:18:47Z</time>
      </trkpt>
      <trkpt lat="60.43578" lon="7.7497">
        <ele>1212.36</ele>
        <time>2019-04-02T14:19:03Z</time>
      </trkpt>
      <trkpt lat="60.4358" lon="7.7497">
        <ele>1212.36</ele>
        <time>2019-04-02T14:19:21Z</time>
      </trkpt>
      <trkpt lat="60.43582" lon="7.74971">
        <ele>1213.8</ele>
        <time>2019-04-02T14:19:34Z</time>
      </trkpt>
      <trkpt lat="60.43582" lon="7.7497">
        <ele>1212.84</ele>
        <time>2019-04-02T14:19:58Z</time>
      </trkpt>
      <trkpt lat="60.43584" lon="7.74969">
        <ele>1212.84</ele>
        <time>2019-04-02T14:20:17Z</time>
      </trkpt>
      <trkpt lat="60.43585" lon="7.74971">
        <ele>1212.84</ele>
        <time>2019-04-02T14:20:36Z</time>
      </trkpt>
      <trkpt lat="60.43585" lon="7.74971">
        <ele>1212.84</ele>
        <time>2019-04-02T14:20:55Z</time>
      </trkpt>
      <trkpt lat="60.43586" lon="7.74972">
        <ele>1212.84</ele>
        <time>2019-04-02T14:21:06Z</time>
      </trkpt>
      <trkpt lat="60.43593" lon="7.7499">
        <ele>1214.76</ele>
        <time>2019-04-02T14:21:09Z</time>
      </trkpt>
      <trkpt lat="60.43601" lon="7.75009">
        <ele>1214.76</ele>
        <time>2019-04-02T14:21:11Z</time>
      </trkpt>
      <trkpt lat="60.43609" lon="7.75028">
        <ele>1216.21</ele>
        <time>2019-04-02T14:21:13Z</time>
      </trkpt>
      <trkpt lat="60.43625" lon="7.75064">
        <ele>1219.09</ele>
        <time>2019-04-02T14:21:17Z</time>
      </trkpt>
      <trkpt lat="60.43629" lon="7.75073">
        <ele>1219.57</ele>
        <time>2019-04-02T14:21:18Z</time>
      </trkpt>
      <trkpt lat="60.43635" lon="7.75092">
        <ele>1220.53</ele>
        <time>2019-04-02T14:21:20Z</time>
      </trkpt>
      <trkpt lat="60.43648" lon="7.75135">
        <ele>1219.57</ele>
        <time>2019-04-02T14:21:25Z</time>
      </trkpt>
      <trkpt lat="60.43651" lon="7.75151">
        <ele>1219.57</ele>
        <time>2019-04-02T14:21:27Z</time>
      </trkpt>
      <trkpt lat="60.43652" lon="7.75164">
        <ele>1218.13</ele>
        <time>2019-04-02T14:21:39Z</time>
      </trkpt>
      <trkpt lat="60.43654" lon="7.75181">
        <ele>1218.13</ele>
        <time>2019-04-02T14:21:49Z</time>
      </trkpt>
      <trkpt lat="60.43661" lon="7.75267">
        <ele>1219.09</ele>
        <time>2019-04-02T14:21:59Z</time>
      </trkpt>
      <trkpt lat="60.43664" lon="7.75287">
        <ele>1220.53</ele>
        <time>2019-04-02T14:22:01Z</time>
      </trkpt>
      <trkpt lat="60.43668" lon="7.75319">
        <ele>1219.09</ele>
        <time>2019-04-02T14:22:04Z</time>
      </trkpt>
      <trkpt lat="60.43672" lon="7.75346">
        <ele>1218.61</ele>
        <time>2019-04-02T14:22:07Z</time>
      </trkpt>
      <trkpt lat="60.43679" lon="7.7539">
        <ele>1221.49</ele>
        <time>2019-04-02T14:22:15Z</time>
      </trkpt>
      <trkpt lat="60.43682" lon="7.75406">
        <ele>1222.93</ele>
        <time>2019-04-02T14:22:18Z</time>
      </trkpt>
      <trkpt lat="60.43683" lon="7.75425">
        <ele>1222.93</ele>
        <time>2019-04-02T14:22:27Z</time>
      </trkpt>
      <trkpt lat="60.43683" lon="7.75423">
        <ele>1221.97</ele>
        <time>2019-04-02T14:22:36Z</time>
      </trkpt>
      <trkpt lat="60.43683" lon="7.75424">
        <ele>1222.93</ele>
        <time>2019-04-02T14:22:38Z</time>
      </trkpt>
      <trkpt lat="60.43684" lon="7.75425">
        <ele>1221.97</ele>
        <time>2019-04-02T14:22:50Z</time>
      </trkpt>
      <trkpt lat="60.4368" lon="7.75403">
        <ele>1221.97</ele>
        <time>2019-04-02T14:22:55Z</time>
      </trkpt>
      <trkpt lat="60.43662" lon="7.75368">
        <ele>1223.42</ele>
        <time>2019-04-02T14:23:01Z</time>
      </trkpt>
      <trkpt lat="60.4365" lon="7.7534">
        <ele>1225.34</ele>
        <time>2019-04-02T14:23:05Z</time>
      </trkpt>
      <trkpt lat="60.43637" lon="7.75312">
        <ele>1228.22</ele>
        <time>2019-04-02T14:23:10Z</time>
      </trkpt>
      <trkpt lat="60.43618" lon="7.75275">
        <ele>1231.11</ele>
        <time>2019-04-02T14:23:21Z</time>
      </trkpt>
      <trkpt lat="60.43607" lon="7.75267">
        <ele>1226.78</ele>
        <time>2019-04-02T14:23:25Z</time>
      </trkpt>
      <trkpt lat="60.43586" lon="7.75258">
        <ele>1221.97</ele>
        <time>2019-04-02T14:23:31Z</time>
      </trkpt>
      <trkpt lat="60.43582" lon="7.75257">
        <ele>1221.49</ele>
        <time>2019-04-02T14:23:32Z</time>
      </trkpt>
      <trkpt lat="60.43574" lon="7.75252">
        <ele>1219.09</ele>
        <time>2019-04-02T14:23:34Z</time>
      </trkpt>
      <trkpt lat="60.43556" lon="7.75244">
        <ele>1217.65</ele>
        <time>2019-04-02T14:23:37Z</time>
      </trkpt>
      <trkpt lat="60.43544" lon="7.75238">
        <ele>1221.01</ele>
        <time>2019-04-02T14:23:39Z</time>
      </trkpt>
      <trkpt lat="60.43536" lon="7.75237">
        <ele>1217.65</ele>
        <time>2019-04-02T14:23:41Z</time>
      </trkpt>
      <trkpt lat="60.43535" lon="7.75231">
        <ele>1219.57</ele>
        <time>2019-04-02T14:23:43Z</time>
      </trkpt>
      <trkpt lat="60.43546" lon="7.75274">
        <ele>1223.42</ele>
        <time>2019-04-02T14:23:48Z</time>
      </trkpt>
      <trkpt lat="60.43549" lon="7.75318">
        <ele>1225.34</ele>
        <time>2019-04-02T14:23:52Z</time>
      </trkpt>
      <trkpt lat="60.43551" lon="7.75338">
        <ele>1226.78</ele>
        <time>2019-04-02T14:23:54Z</time>
      </trkpt>
      <trkpt lat="60.43557" lon="7.75377">
        <ele>1228.7</ele>
        <time>2019-04-02T14:23:58Z</time>
      </trkpt>
      <trkpt lat="60.43558" lon="7.75426">
        <ele>1233.99</ele>
        <time>2019-04-02T14:24:02Z</time>
      </trkpt>
      <trkpt lat="60.43557" lon="7.75471">
        <ele>1231.11</ele>
        <time>2019-04-02T14:24:06Z</time>
      </trkpt>
      <trkpt lat="60.43557" lon="7.75506">
        <ele>1232.55</ele>
        <time>2019-04-02T14:24:09Z</time>
      </trkpt>
      <trkpt lat="60.43557" lon="7.75526">
        <ele>1232.07</ele>
        <time>2019-04-02T14:24:11Z</time>
      </trkpt>
      <trkpt lat="60.4356" lon="7.75565">
        <ele>1230.62</ele>
        <time>2019-04-02T14:24:14Z</time>
      </trkpt>
      <trkpt lat="60.43562" lon="7.75594">
        <ele>1230.62</ele>
        <time>2019-04-02T14:24:16Z</time>
      </trkpt>
      <trkpt lat="60.43565" lon="7.75661">
        <ele>1229.18</ele>
        <time>2019-04-02T14:24:20Z</time>
      </trkpt>
      <trkpt lat="60.43566" lon="7.75697">
        <ele>1230.62</ele>
        <time>2019-04-02T14:24:22Z</time>
      </trkpt>
      <trkpt lat="60.43567" lon="7.75713">
        <ele>1228.7</ele>
        <time>2019-04-02T14:24:23Z</time>
      </trkpt>
      <trkpt lat="60.43567" lon="7.75744">
        <ele>1231.59</ele>
        <time>2019-04-02T14:24:25Z</time>
      </trkpt>
      <trkpt lat="60.43565" lon="7.75781">
        <ele>1226.3</ele>
        <time>2019-04-02T14:24:28Z</time>
      </trkpt>
      <trkpt lat="60.43564" lon="7.75792">
        <ele>1226.3</ele>
        <time>2019-04-02T14:24:29Z</time>
      </trkpt>
      <trkpt lat="60.43561" lon="7.75914">
        <ele>1222.45</ele>
        <time>2019-04-02T14:24:38Z</time>
      </trkpt>
      <trkpt lat="60.43562" lon="7.75931">
        <ele>1222.45</ele>
        <time>2019-04-02T14:24:39Z</time>
      </trkpt>
      <trkpt lat="60.43563" lon="7.75982">
        <ele>1219.57</ele>
        <time>2019-04-02T14:24:42Z</time>
      </trkpt>
      <trkpt lat="60.43563" lon="7.76049">
        <ele>1215.72</ele>
        <time>2019-04-02T14:24:46Z</time>
      </trkpt>
      <trkpt lat="60.43564" lon="7.76081">
        <ele>1211.4</ele>
        <time>2019-04-02T14:24:48Z</time>
      </trkpt>
      <trkpt lat="60.43564" lon="7.76097">
        <ele>1211.4</ele>
        <time>2019-04-02T14:24:49Z</time>
      </trkpt>
      <trkpt lat="60.43565" lon="7.76143">
        <ele>1209</ele>
        <time>2019-04-02T14:24:52Z</time>
      </trkpt>
      <trkpt lat="60.43566" lon="7.76173">
        <ele>1208.03</ele>
        <time>2019-04-02T14:24:54Z</time>
      </trkpt>
      <trkpt lat="60.43565" lon="7.76246">
        <ele>1204.67</ele>
        <time>2019-04-02T14:24:59Z</time>
      </trkpt>
      <trkpt lat="60.43565" lon="7.7626">
        <ele>1204.67</ele>
        <time>2019-04-02T14:25:00Z</time>
      </trkpt>
      <trkpt lat="60.43565" lon="7.76322">
        <ele>1200.34</ele>
        <time>2019-04-02T14:25:04Z</time>
      </trkpt>
      <trkpt lat="60.43565" lon="7.76338">
        <ele>1198.9</ele>
        <time>2019-04-02T14:25:05Z</time>
      </trkpt>
      <trkpt lat="60.43564" lon="7.76382">
        <ele>1197.94</ele>
        <time>2019-04-02T14:25:08Z</time>
      </trkpt>
      <trkpt lat="60.43566" lon="7.76426">
        <ele>1194.58</ele>
        <time>2019-04-02T14:25:11Z</time>
      </trkpt>
      <trkpt lat="60.43566" lon="7.7647">
        <ele>1193.13</ele>
        <time>2019-04-02T14:25:14Z</time>
      </trkpt>
      <trkpt lat="60.43567" lon="7.76597">
        <ele>1190.73</ele>
        <time>2019-04-02T14:25:24Z</time>
      </trkpt>
      <trkpt lat="60.43567" lon="7.7662">
        <ele>1189.77</ele>
        <time>2019-04-02T14:25:26Z</time>
      </trkpt>
      <trkpt lat="60.43568" lon="7.76664">
        <ele>1188.33</ele>
        <time>2019-04-02T14:25:30Z</time>
      </trkpt>
      <trkpt lat="60.43567" lon="7.7669">
        <ele>1188.33</ele>
        <time>2019-04-02T14:25:32Z</time>
      </trkpt>
      <trkpt lat="60.43567" lon="7.7674">
        <ele>1186.4</ele>
        <time>2019-04-02T14:25:36Z</time>
      </trkpt>
      <trkpt lat="60.43563" lon="7.76788">
        <ele>1183.04</ele>
        <time>2019-04-02T14:25:40Z</time>
      </trkpt>
      <trkpt lat="60.43564" lon="7.76826">
        <ele>1181.6</ele>
        <time>2019-04-02T14:25:43Z</time>
      </trkpt>
      <trkpt lat="60.43564" lon="7.76862">
        <ele>1178.23</ele>
        <time>2019-04-02T14:25:46Z</time>
      </trkpt>
      <trkpt lat="60.43565" lon="7.76888">
        <ele>1177.27</ele>
        <time>2019-04-02T14:25:48Z</time>
      </trkpt>
      <trkpt lat="60.43565" lon="7.76901">
        <ele>1176.79</ele>
        <time>2019-04-02T14:25:49Z</time>
      </trkpt>
      <trkpt lat="60.43565" lon="7.76939">
        <ele>1173.43</ele>
        <time>2019-04-02T14:25:52Z</time>
      </trkpt>
      <trkpt lat="60.43568" lon="7.7698">
        <ele>1170.54</ele>
        <time>2019-04-02T14:25:55Z</time>
      </trkpt>
      <trkpt lat="60.43569" lon="7.76994">
        <ele>1170.54</ele>
        <time>2019-04-02T14:25:56Z</time>
      </trkpt>
      <trkpt lat="60.43573" lon="7.7704">
        <ele>1167.18</ele>
        <time>2019-04-02T14:25:59Z</time>
      </trkpt>
      <trkpt lat="60.43582" lon="7.77109">
        <ele>1163.81</ele>
        <time>2019-04-02T14:26:04Z</time>
      </trkpt>
      <trkpt lat="60.43586" lon="7.77136">
        <ele>1162.85</ele>
        <time>2019-04-02T14:26:06Z</time>
      </trkpt>
      <trkpt lat="60.43592" lon="7.77164">
        <ele>1162.37</ele>
        <time>2019-04-02T14:26:08Z</time>
      </trkpt>
      <trkpt lat="60.43596" lon="7.77196">
        <ele>1162.37</ele>
        <time>2019-04-02T14:26:10Z</time>
      </trkpt>
      <trkpt lat="60.43597" lon="7.77209">
        <ele>1162.37</ele>
        <time>2019-04-02T14:26:11Z</time>
      </trkpt>
      <trkpt lat="60.43598" lon="7.77225">
        <ele>1161.41</ele>
        <time>2019-04-02T14:26:12Z</time>
      </trkpt>
      <trkpt lat="60.436" lon="7.77237">
        <ele>1160.45</ele>
        <time>2019-04-02T14:26:13Z</time>
      </trkpt>
      <trkpt lat="60.43604" lon="7.77265">
        <ele>1159.49</ele>
        <time>2019-04-02T14:26:15Z</time>
      </trkpt>
      <trkpt lat="60.43611" lon="7.77307">
        <ele>1156.12</ele>
        <time>2019-04-02T14:26:18Z</time>
      </trkpt>
      <trkpt lat="60.43616" lon="7.77333">
        <ele>1154.68</ele>
        <time>2019-04-02T14:26:20Z</time>
      </trkpt>
      <trkpt lat="60.43626" lon="7.7738">
        <ele>1151.32</ele>
        <time>2019-04-02T14:26:23Z</time>
      </trkpt>
      <trkpt lat="60.43628" lon="7.77393">
        <ele>1150.84</ele>
        <time>2019-04-02T14:26:24Z</time>
      </trkpt>
      <trkpt lat="60.43643" lon="7.77468">
        <ele>1148.43</ele>
        <time>2019-04-02T14:26:29Z</time>
      </trkpt>
      <trkpt lat="60.43651" lon="7.77503">
        <ele>1148.43</ele>
        <time>2019-04-02T14:26:32Z</time>
      </trkpt>
      <trkpt lat="60.43657" lon="7.77537">
        <ele>1148.43</ele>
        <time>2019-04-02T14:26:36Z</time>
      </trkpt>
      <trkpt lat="60.43669" lon="7.77613">
        <ele>1148.43</ele>
        <time>2019-04-02T14:26:46Z</time>
      </trkpt>
      <trkpt lat="60.43677" lon="7.77667">
        <ele>1148.43</ele>
        <time>2019-04-02T14:26:53Z</time>
      </trkpt>
      <trkpt lat="60.43703" lon="7.77755">
        <ele>1145.55</ele>
        <time>2019-04-02T14:27:01Z</time>
      </trkpt>
      <trkpt lat="60.43719" lon="7.7781">
        <ele>1145.07</ele>
        <time>2019-04-02T14:27:05Z</time>
      </trkpt>
      <trkpt lat="60.43731" lon="7.77855">
        <ele>1142.18</ele>
        <time>2019-04-02T14:27:09Z</time>
      </trkpt>
      <trkpt lat="60.43745" lon="7.77875">
        <ele>1141.22</ele>
        <time>2019-04-02T14:27:12Z</time>
      </trkpt>
      <trkpt lat="60.43761" lon="7.7791">
        <ele>1141.22</ele>
        <time>2019-04-02T14:27:17Z</time>
      </trkpt>
      <trkpt lat="60.43777" lon="7.77938">
        <ele>1142.18</ele>
        <time>2019-04-02T14:27:22Z</time>
      </trkpt>
      <trkpt lat="60.43804" lon="7.77989">
        <ele>1140.74</ele>
        <time>2019-04-02T14:27:34Z</time>
      </trkpt>
      <trkpt lat="60.43811" lon="7.78003">
        <ele>1141.22</ele>
        <time>2019-04-02T14:27:38Z</time>
      </trkpt>
      <trkpt lat="60.43839" lon="7.78035">
        <ele>1140.74</ele>
        <time>2019-04-02T14:27:47Z</time>
      </trkpt>
      <trkpt lat="60.43845" lon="7.78047">
        <ele>1141.7</ele>
        <time>2019-04-02T14:27:49Z</time>
      </trkpt>
      <trkpt lat="60.43859" lon="7.78071">
        <ele>1141.7</ele>
        <time>2019-04-02T14:27:56Z</time>
      </trkpt>
      <trkpt lat="60.43867" lon="7.78075">
        <ele>1140.74</ele>
        <time>2019-04-02T14:27:59Z</time>
      </trkpt>
      <trkpt lat="60.43881" lon="7.7809">
        <ele>1141.7</ele>
        <time>2019-04-02T14:28:03Z</time>
      </trkpt>
      <trkpt lat="60.43892" lon="7.78101">
        <ele>1141.7</ele>
        <time>2019-04-02T14:28:06Z</time>
      </trkpt>
      <trkpt lat="60.43929" lon="7.78128">
        <ele>1141.7</ele>
        <time>2019-04-02T14:28:15Z</time>
      </trkpt>
      <trkpt lat="60.43947" lon="7.78153">
        <ele>1142.18</ele>
        <time>2019-04-02T14:28:19Z</time>
      </trkpt>
      <trkpt lat="60.43953" lon="7.78167">
        <ele>1142.18</ele>
        <time>2019-04-02T14:28:21Z</time>
      </trkpt>
      <trkpt lat="60.43979" lon="7.78181">
        <ele>1142.18</ele>
        <time>2019-04-02T14:28:31Z</time>
      </trkpt>
      <trkpt lat="60.43992" lon="7.78179">
        <ele>1143.14</ele>
        <time>2019-04-02T14:28:39Z</time>
      </trkpt>
      <trkpt lat="60.44001" lon="7.78175">
        <ele>1143.63</ele>
        <time>2019-04-02T14:28:50Z</time>
      </trkpt>
      <trkpt lat="60.44006" lon="7.78168">
        <ele>1144.11</ele>
        <time>2019-04-02T14:29:04Z</time>
      </trkpt>
      <trkpt lat="60.44011" lon="7.78166">
        <ele>1144.59</ele>
        <time>2019-04-02T14:29:10Z</time>
      </trkpt>
      <trkpt lat="60.44027" lon="7.78168">
        <ele>1146.99</ele>
        <time>2019-04-02T14:29:19Z</time>
      </trkpt>
      <trkpt lat="60.44035" lon="7.78166">
        <ele>1147.95</ele>
        <time>2019-04-02T14:29:25Z</time>
      </trkpt>
      <trkpt lat="60.44041" lon="7.78166">
        <ele>1148.91</ele>
        <time>2019-04-02T14:29:30Z</time>
      </trkpt>
      <trkpt lat="60.44048" lon="7.78162">
        <ele>1149.87</ele>
        <time>2019-04-02T14:29:34Z</time>
      </trkpt>
      <trkpt lat="60.44051" lon="7.78161">
        <ele>1150.35</ele>
        <time>2019-04-02T14:29:37Z</time>
      </trkpt>
      <trkpt lat="60.44057" lon="7.7816">
        <ele>1150.35</ele>
        <time>2019-04-02T14:29:41Z</time>
      </trkpt>
      <trkpt lat="60.44073" lon="7.7817">
        <ele>1151.32</ele>
        <time>2019-04-02T14:29:47Z</time>
      </trkpt>
      <trkpt lat="60.44085" lon="7.78178">
        <ele>1151.32</ele>
        <time>2019-04-02T14:29:50Z</time>
      </trkpt>
      <trkpt lat="60.44091" lon="7.7818">
        <ele>1151.32</ele>
        <time>2019-04-02T14:29:51Z</time>
      </trkpt>
      <trkpt lat="60.44096" lon="7.78182">
        <ele>1151.32</ele>
        <time>2019-04-02T14:29:52Z</time>
      </trkpt>
      <trkpt lat="60.44101" lon="7.78185">
        <ele>1151.32</ele>
        <time>2019-04-02T14:29:53Z</time>
      </trkpt>
      <trkpt lat="60.44106" lon="7.78189">
        <ele>1151.32</ele>
        <time>2019-04-02T14:29:54Z</time>
      </trkpt>
      <trkpt lat="60.44131" lon="7.78194">
        <ele>1151.8</ele>
        <time>2019-04-02T14:30:03Z</time>
      </trkpt>
      <trkpt lat="60.44151" lon="7.78182">
        <ele>1153.24</ele>
        <time>2019-04-02T14:30:14Z</time>
      </trkpt>
      <trkpt lat="60.44158" lon="7.78175">
        <ele>1154.2</ele>
        <time>2019-04-02T14:30:26Z</time>
      </trkpt>
      <trkpt lat="60.44164" lon="7.78173">
        <ele>1155.64</ele>
        <time>2019-04-02T14:30:31Z</time>
      </trkpt>
      <trkpt lat="60.4417" lon="7.78165">
        <ele>1156.12</ele>
        <time>2019-04-02T14:30:42Z</time>
      </trkpt>
      <trkpt lat="60.44175" lon="7.78162">
        <ele>1157.08</ele>
        <time>2019-04-02T14:30:49Z</time>
      </trkpt>
      <trkpt lat="60.4419" lon="7.7815">
        <ele>1159.01</ele>
        <time>2019-04-02T14:31:01Z</time>
      </trkpt>
      <trkpt lat="60.442" lon="7.78145">
        <ele>1159.49</ele>
        <time>2019-04-02T14:31:05Z</time>
      </trkpt>
      <trkpt lat="60.44221" lon="7.78147">
        <ele>1163.33</ele>
        <time>2019-04-02T14:31:10Z</time>
      </trkpt>
      <trkpt lat="60.44226" lon="7.78149">
        <ele>1164.29</ele>
        <time>2019-04-02T14:31:12Z</time>
      </trkpt>
      <trkpt lat="60.4426" lon="7.78166">
        <ele>1166.7</ele>
        <time>2019-04-02T14:31:23Z</time>
      </trkpt>
      <trkpt lat="60.44282" lon="7.78171">
        <ele>1167.66</ele>
        <time>2019-04-02T14:31:32Z</time>
      </trkpt>
      <trkpt lat="60.44309" lon="7.78172">
        <ele>1169.58</ele>
        <time>2019-04-02T14:31:40Z</time>
      </trkpt>
      <trkpt lat="60.44339" lon="7.7816">
        <ele>1171.98</ele>
        <time>2019-04-02T14:31:51Z</time>
      </trkpt>
      <trkpt lat="60.44352" lon="7.78161">
        <ele>1174.39</ele>
        <time>2019-04-02T14:31:55Z</time>
      </trkpt>
      <trkpt lat="60.4436" lon="7.78159">
        <ele>1174.39</ele>
        <time>2019-04-02T14:31:58Z</time>
      </trkpt>
      <trkpt lat="60.44372" lon="7.78167">
        <ele>1176.31</ele>
        <time>2019-04-02T14:32:02Z</time>
      </trkpt>
      <trkpt lat="60.44399" lon="7.7818">
        <ele>1179.19</ele>
        <time>2019-04-02T14:32:11Z</time>
      </trkpt>
      <trkpt lat="60.44419" lon="7.78189">
        <ele>1182.08</ele>
        <time>2019-04-02T14:32:17Z</time>
      </trkpt>
      <trkpt lat="60.44436" lon="7.782">
        <ele>1184.96</ele>
        <time>2019-04-02T14:32:24Z</time>
      </trkpt>
      <trkpt lat="60.44443" lon="7.78207">
        <ele>1185.92</ele>
        <time>2019-04-02T14:32:26Z</time>
      </trkpt>
      <trkpt lat="60.44457" lon="7.78226">
        <ele>1187.37</ele>
        <time>2019-04-02T14:32:30Z</time>
      </trkpt>
      <trkpt lat="60.44479" lon="7.78248">
        <ele>1188.81</ele>
        <time>2019-04-02T14:32:36Z</time>
      </trkpt>
      <trkpt lat="60.44517" lon="7.78286">
        <ele>1190.73</ele>
        <time>2019-04-02T14:32:45Z</time>
      </trkpt>
      <trkpt lat="60.44541" lon="7.78314">
        <ele>1194.09</ele>
        <time>2019-04-02T14:32:55Z</time>
      </trkpt>
      <trkpt lat="60.44566" lon="7.78324">
        <ele>1195.54</ele>
        <time>2019-04-02T14:33:04Z</time>
      </trkpt>
      <trkpt lat="60.44568" lon="7.78325">
        <ele>1196.02</ele>
        <time>2019-04-02T14:33:05Z</time>
      </trkpt>
      <trkpt lat="60.44593" lon="7.78331">
        <ele>1197.46</ele>
        <time>2019-04-02T14:33:17Z</time>
      </trkpt>
      <trkpt lat="60.44608" lon="7.78335">
        <ele>1199.38</ele>
        <time>2019-04-02T14:33:27Z</time>
      </trkpt>
      <trkpt lat="60.4462" lon="7.78334">
        <ele>1200.82</ele>
        <time>2019-04-02T14:33:35Z</time>
      </trkpt>
      <trkpt lat="60.44634" lon="7.78339">
        <ele>1202.75</ele>
        <time>2019-04-02T14:33:40Z</time>
      </trkpt>
      <trkpt lat="60.44666" lon="7.78355">
        <ele>1205.15</ele>
        <time>2019-04-02T14:33:50Z</time>
      </trkpt>
      <trkpt lat="60.44679" lon="7.78356">
        <ele>1207.07</ele>
        <time>2019-04-02T14:33:55Z</time>
      </trkpt>
      <trkpt lat="60.44696" lon="7.78355">
        <ele>1210.44</ele>
        <time>2019-04-02T14:34:08Z</time>
      </trkpt>
      <trkpt lat="60.44722" lon="7.7837">
        <ele>1213.8</ele>
        <time>2019-04-02T14:34:19Z</time>
      </trkpt>
      <trkpt lat="60.44736" lon="7.78391">
        <ele>1216.21</ele>
        <time>2019-04-02T14:34:25Z</time>
      </trkpt>
      <trkpt lat="60.44749" lon="7.784">
        <ele>1217.17</ele>
        <time>2019-04-02T14:34:29Z</time>
      </trkpt>
      <trkpt lat="60.44782" lon="7.7845">
        <ele>1217.17</ele>
        <time>2019-04-02T14:34:41Z</time>
      </trkpt>
      <trkpt lat="60.44784" lon="7.78452">
        <ele>1217.17</ele>
        <time>2019-04-02T14:34:42Z</time>
      </trkpt>
      <trkpt lat="60.4481" lon="7.78471">
        <ele>1218.61</ele>
        <time>2019-04-02T14:34:51Z</time>
      </trkpt>
      <trkpt lat="60.44831" lon="7.78489">
        <ele>1220.53</ele>
        <time>2019-04-02T14:35:00Z</time>
      </trkpt>
      <trkpt lat="60.44851" lon="7.78516">
        <ele>1223.42</ele>
        <time>2019-04-02T14:35:10Z</time>
      </trkpt>
      <trkpt lat="60.44854" lon="7.78522">
        <ele>1223.42</ele>
        <time>2019-04-02T14:35:14Z</time>
      </trkpt>
      <trkpt lat="60.44871" lon="7.78535">
        <ele>1224.38</ele>
        <time>2019-04-02T14:35:23Z</time>
      </trkpt>
      <trkpt lat="60.44879" lon="7.78559">
        <ele>1226.3</ele>
        <time>2019-04-02T14:35:27Z</time>
      </trkpt>
      <trkpt lat="60.44901" lon="7.78625">
        <ele>1226.3</ele>
        <time>2019-04-02T14:35:39Z</time>
      </trkpt>
      <trkpt lat="60.44898" lon="7.78616">
        <ele>1224.86</ele>
        <time>2019-04-02T14:35:46Z</time>
      </trkpt>
      <trkpt lat="60.44895" lon="7.78611">
        <ele>1224.86</ele>
        <time>2019-04-02T14:35:49Z</time>
      </trkpt>
      <trkpt lat="60.44879" lon="7.7859">
        <ele>1226.3</ele>
        <time>2019-04-02T14:35:59Z</time>
      </trkpt>
      <trkpt lat="60.44862" lon="7.78576">
        <ele>1226.3</ele>
        <time>2019-04-02T14:36:09Z</time>
      </trkpt>
      <trkpt lat="60.44849" lon="7.78573">
        <ele>1224.86</ele>
        <time>2019-04-02T14:36:16Z</time>
      </trkpt>
      <trkpt lat="60.44859" lon="7.78589">
        <ele>1226.3</ele>
        <time>2019-04-02T14:36:23Z</time>
      </trkpt>
      <trkpt lat="60.44864" lon="7.78591">
        <ele>1226.78</ele>
        <time>2019-04-02T14:36:26Z</time>
      </trkpt>
      <trkpt lat="60.44872" lon="7.78608">
        <ele>1227.26</ele>
        <time>2019-04-02T14:36:32Z</time>
      </trkpt>
      <trkpt lat="60.44885" lon="7.7865">
        <ele>1228.7</ele>
        <time>2019-04-02T14:36:41Z</time>
      </trkpt>
      <trkpt lat="60.44896" lon="7.7868">
        <ele>1230.14</ele>
        <time>2019-04-02T14:36:46Z</time>
      </trkpt>
      <trkpt lat="60.44904" lon="7.78703">
        <ele>1230.14</ele>
        <time>2019-04-02T14:36:51Z</time>
      </trkpt>
      <trkpt lat="60.44924" lon="7.78741">
        <ele>1232.07</ele>
        <time>2019-04-02T14:37:03Z</time>
      </trkpt>
      <trkpt lat="60.44942" lon="7.78775">
        <ele>1233.03</ele>
        <time>2019-04-02T14:37:12Z</time>
      </trkpt>
      <trkpt lat="60.4496" lon="7.78822">
        <ele>1234.47</ele>
        <time>2019-04-02T14:37:23Z</time>
      </trkpt>
      <trkpt lat="60.44982" lon="7.78862">
        <ele>1234.47</ele>
        <time>2019-04-02T14:37:34Z</time>
      </trkpt>
      <trkpt lat="60.44992" lon="7.78877">
        <ele>1234.47</ele>
        <time>2019-04-02T14:37:37Z</time>
      </trkpt>
      <trkpt lat="60.45011" lon="7.78904">
        <ele>1235.43</ele>
        <time>2019-04-02T14:37:43Z</time>
      </trkpt>
      <trkpt lat="60.45032" lon="7.78916">
        <ele>1235.91</ele>
        <time>2019-04-02T14:37:50Z</time>
      </trkpt>
      <trkpt lat="60.4504" lon="7.78918">
        <ele>1235.91</ele>
        <time>2019-04-02T14:37:52Z</time>
      </trkpt>
      <trkpt lat="60.45058" lon="7.78928">
        <ele>1236.87</ele>
        <time>2019-04-02T14:37:57Z</time>
      </trkpt>
      <trkpt lat="60.45092" lon="7.78972">
        <ele>1238.8</ele>
        <time>2019-04-02T14:38:09Z</time>
      </trkpt>
      <trkpt lat="60.45118" lon="7.79007">
        <ele>1239.76</ele>
        <time>2019-04-02T14:38:22Z</time>
      </trkpt>
      <trkpt lat="60.45138" lon="7.79039">
        <ele>1238.32</ele>
        <time>2019-04-02T14:38:35Z</time>
      </trkpt>
      <trkpt lat="60.4516" lon="7.79093">
        <ele>1235.43</ele>
        <time>2019-04-02T14:38:46Z</time>
      </trkpt>
      <trkpt lat="60.4518" lon="7.79134">
        <ele>1234.47</ele>
        <time>2019-04-02T14:38:56Z</time>
      </trkpt>
      <trkpt lat="60.45185" lon="7.79138">
        <ele>1233.99</ele>
        <time>2019-04-02T14:38:59Z</time>
      </trkpt>
      <trkpt lat="60.45201" lon="7.79159">
        <ele>1233.99</ele>
        <time>2019-04-02T14:39:11Z</time>
      </trkpt>
      <trkpt lat="60.45224" lon="7.79185">
        <ele>1233.99</ele>
        <time>2019-04-02T14:39:20Z</time>
      </trkpt>
      <trkpt lat="60.45243" lon="7.79212">
        <ele>1233.99</ele>
        <time>2019-04-02T14:39:29Z</time>
      </trkpt>
      <trkpt lat="60.45251" lon="7.79222">
        <ele>1235.43</ele>
        <time>2019-04-02T14:39:34Z</time>
      </trkpt>
      <trkpt lat="60.45273" lon="7.79253">
        <ele>1235.43</ele>
        <time>2019-04-02T14:39:45Z</time>
      </trkpt>
      <trkpt lat="60.45274" lon="7.79258">
        <ele>1235.43</ele>
        <time>2019-04-02T14:39:47Z</time>
      </trkpt>
      <trkpt lat="60.45299" lon="7.7929">
        <ele>1233.99</ele>
        <time>2019-04-02T14:39:59Z</time>
      </trkpt>
      <trkpt lat="60.45335" lon="7.79342">
        <ele>1233.03</ele>
        <time>2019-04-02T14:40:10Z</time>
      </trkpt>
      <trkpt lat="60.45357" lon="7.79397">
        <ele>1233.03</ele>
        <time>2019-04-02T14:40:19Z</time>
      </trkpt>
      <trkpt lat="60.45378" lon="7.79444">
        <ele>1233.99</ele>
        <time>2019-04-02T14:40:30Z</time>
      </trkpt>
      <trkpt lat="60.45391" lon="7.79491">
        <ele>1234.95</ele>
        <time>2019-04-02T14:40:42Z</time>
      </trkpt>
      <trkpt lat="60.45393" lon="7.79505">
        <ele>1234.95</ele>
        <time>2019-04-02T14:40:44Z</time>
      </trkpt>
      <trkpt lat="60.45394" lon="7.79556">
        <ele>1235.43</ele>
        <time>2019-04-02T14:40:53Z</time>
      </trkpt>
      <trkpt lat="60.45394" lon="7.79606">
        <ele>1232.55</ele>
        <time>2019-04-02T14:41:03Z</time>
      </trkpt>
      <trkpt lat="60.45395" lon="7.79624">
        <ele>1232.07</ele>
        <time>2019-04-02T14:41:05Z</time>
      </trkpt>
      <trkpt lat="60.45395" lon="7.79632">
        <ele>1232.07</ele>
        <time>2019-04-02T14:41:06Z</time>
      </trkpt>
      <trkpt lat="60.45397" lon="7.79671">
        <ele>1230.62</ele>
        <time>2019-04-02T14:41:10Z</time>
      </trkpt>
      <trkpt lat="60.45402" lon="7.7981">
        <ele>1227.26</ele>
        <time>2019-04-02T14:41:24Z</time>
      </trkpt>
      <trkpt lat="60.45409" lon="7.79849">
        <ele>1229.18</ele>
        <time>2019-04-02T14:41:29Z</time>
      </trkpt>
      <trkpt lat="60.4541" lon="7.79856">
        <ele>1229.18</ele>
        <time>2019-04-02T14:41:30Z</time>
      </trkpt>
      <trkpt lat="60.45414" lon="7.79891">
        <ele>1230.62</ele>
        <time>2019-04-02T14:41:34Z</time>
      </trkpt>
      <trkpt lat="60.45415" lon="7.79911">
        <ele>1230.62</ele>
        <time>2019-04-02T14:41:36Z</time>
      </trkpt>
      <trkpt lat="60.45419" lon="7.79978">
        <ele>1224.38</ele>
        <time>2019-04-02T14:41:42Z</time>
      </trkpt>
      <trkpt lat="60.45427" lon="7.79981">
        <ele>1221.97</ele>
        <time>2019-04-02T14:41:44Z</time>
      </trkpt>
      <trkpt lat="60.45447" lon="7.79989">
        <ele>1220.05</ele>
        <time>2019-04-02T14:41:48Z</time>
      </trkpt>
      <trkpt lat="60.45467" lon="7.8001">
        <ele>1216.69</ele>
        <time>2019-04-02T14:41:51Z</time>
      </trkpt>
      <trkpt lat="60.45486" lon="7.80056">
        <ele>1210.92</ele>
        <time>2019-04-02T14:41:54Z</time>
      </trkpt>
      <trkpt lat="60.45493" lon="7.80089">
        <ele>1208.51</ele>
        <time>2019-04-02T14:41:56Z</time>
      </trkpt>
      <trkpt lat="60.45506" lon="7.80154">
        <ele>1204.67</ele>
        <time>2019-04-02T14:42:00Z</time>
      </trkpt>
      <trkpt lat="60.45515" lon="7.802">
        <ele>1201.79</ele>
        <time>2019-04-02T14:42:03Z</time>
      </trkpt>
      <trkpt lat="60.4552" lon="7.80241">
        <ele>1199.38</ele>
        <time>2019-04-02T14:42:06Z</time>
      </trkpt>
      <trkpt lat="60.45524" lon="7.80264">
        <ele>1200.82</ele>
        <time>2019-04-02T14:42:08Z</time>
      </trkpt>
      <trkpt lat="60.45534" lon="7.803">
        <ele>1198.42</ele>
        <time>2019-04-02T14:42:11Z</time>
      </trkpt>
      <trkpt lat="60.45554" lon="7.80353">
        <ele>1195.06</ele>
        <time>2019-04-02T14:42:15Z</time>
      </trkpt>
      <trkpt lat="60.45567" lon="7.80395">
        <ele>1191.21</ele>
        <time>2019-04-02T14:42:18Z</time>
      </trkpt>
      <trkpt lat="60.4558" lon="7.80454">
        <ele>1187.37</ele>
        <time>2019-04-02T14:42:22Z</time>
      </trkpt>
      <trkpt lat="60.45588" lon="7.80485">
        <ele>1184.48</ele>
        <time>2019-04-02T14:42:24Z</time>
      </trkpt>
      <trkpt lat="60.45602" lon="7.80537">
        <ele>1180.64</ele>
        <time>2019-04-02T14:42:27Z</time>
      </trkpt>
      <trkpt lat="60.45607" lon="7.80553">
        <ele>1179.67</ele>
        <time>2019-04-02T14:42:28Z</time>
      </trkpt>
      <trkpt lat="60.45622" lon="7.80605">
        <ele>1175.83</ele>
        <time>2019-04-02T14:42:31Z</time>
      </trkpt>
      <trkpt lat="60.45633" lon="7.80657">
        <ele>1172.47</ele>
        <time>2019-04-02T14:42:34Z</time>
      </trkpt>
      <trkpt lat="60.4565" lon="7.8072">
        <ele>1168.62</ele>
        <time>2019-04-02T14:42:38Z</time>
      </trkpt>
      <trkpt lat="60.45659" lon="7.80751">
        <ele>1166.7</ele>
        <time>2019-04-02T14:42:40Z</time>
      </trkpt>
      <trkpt lat="60.45676" lon="7.80795">
        <ele>1163.81</ele>
        <time>2019-04-02T14:42:43Z</time>
      </trkpt>
      <trkpt lat="60.45688" lon="7.80825">
        <ele>1160.45</ele>
        <time>2019-04-02T14:42:45Z</time>
      </trkpt>
      <trkpt lat="60.45708" lon="7.80886">
        <ele>1156.6</ele>
        <time>2019-04-02T14:42:49Z</time>
      </trkpt>
      <trkpt lat="60.45713" lon="7.80902">
        <ele>1156.6</ele>
        <time>2019-04-02T14:42:50Z</time>
      </trkpt>
      <trkpt lat="60.45739" lon="7.80975">
        <ele>1152.28</ele>
        <time>2019-04-02T14:42:55Z</time>
      </trkpt>
      <trkpt lat="60.45761" lon="7.81029">
        <ele>1148.43</ele>
        <time>2019-04-02T14:42:59Z</time>
      </trkpt>
      <trkpt lat="60.4578" lon="7.81081">
        <ele>1145.07</ele>
        <time>2019-04-02T14:43:03Z</time>
      </trkpt>
      <trkpt lat="60.45789" lon="7.81108">
        <ele>1144.11</ele>
        <time>2019-04-02T14:43:05Z</time>
      </trkpt>
      <trkpt lat="60.45804" lon="7.81164">
        <ele>1140.74</ele>
        <time>2019-04-02T14:43:09Z</time>
      </trkpt>
      <trkpt lat="60.45812" lon="7.8119">
        <ele>1139.78</ele>
        <time>2019-04-02T14:43:11Z</time>
      </trkpt>
      <trkpt lat="60.45817" lon="7.81204">
        <ele>1139.78</ele>
        <time>2019-04-02T14:43:12Z</time>
      </trkpt>
      <trkpt lat="60.45861" lon="7.81305">
        <ele>1136.42</ele>
        <time>2019-04-02T14:43:21Z</time>
      </trkpt>
      <trkpt lat="60.45917" lon="7.81391">
        <ele>1133.05</ele>
        <time>2019-04-02T14:43:30Z</time>
      </trkpt>
      <trkpt lat="60.45967" lon="7.81458">
        <ele>1131.13</ele>
        <time>2019-04-02T14:43:37Z</time>
      </trkpt>
      <trkpt lat="60.45982" lon="7.81478">
        <ele>1131.13</ele>
        <time>2019-04-02T14:43:39Z</time>
      </trkpt>
      <trkpt lat="60.46049" lon="7.81544">
        <ele>1130.65</ele>
        <time>2019-04-02T14:43:50Z</time>
      </trkpt>
      <trkpt lat="60.46054" lon="7.8155">
        <ele>1130.65</ele>
        <time>2019-04-02T14:43:51Z</time>
      </trkpt>
      <trkpt lat="60.46068" lon="7.8156">
        <ele>1130.65</ele>
        <time>2019-04-02T14:43:54Z</time>
      </trkpt>
      <trkpt lat="60.46084" lon="7.81573">
        <ele>1132.09</ele>
        <time>2019-04-02T14:43:58Z</time>
      </trkpt>
      <trkpt lat="60.46094" lon="7.81578">
        <ele>1132.57</ele>
        <time>2019-04-02T14:44:02Z</time>
      </trkpt>
      <trkpt lat="60.46124" lon="7.81587">
        <ele>1135.45</ele>
        <time>2019-04-02T14:44:11Z</time>
      </trkpt>
      <trkpt lat="60.46132" lon="7.8159">
        <ele>1136.42</ele>
        <time>2019-04-02T14:44:13Z</time>
      </trkpt>
      <trkpt lat="60.46149" lon="7.81615">
        <ele>1137.38</ele>
        <time>2019-04-02T14:44:25Z</time>
      </trkpt>
      <trkpt lat="60.46148" lon="7.81613">
        <ele>1137.86</ele>
        <time>2019-04-02T14:44:51Z</time>
      </trkpt>
      <trkpt lat="60.46148" lon="7.81614">
        <ele>1138.34</ele>
        <time>2019-04-02T14:45:09Z</time>
      </trkpt>
      <trkpt lat="60.46148" lon="7.81615">
        <ele>1138.34</ele>
        <time>2019-04-02T14:45:27Z</time>
      </trkpt>
      <trkpt lat="60.46148" lon="7.81615">
        <ele>1138.34</ele>
        <time>2019-04-02T14:45:46Z</time>
      </trkpt>
      <trkpt lat="60.46147" lon="7.81616">
        <ele>1138.34</ele>
        <time>2019-04-02T14:46:02Z</time>
      </trkpt>
      <trkpt lat="60.46147" lon="7.81617">
        <ele>1136.9</ele>
        <time>2019-04-02T14:46:05Z</time>
      </trkpt>
      <trkpt lat="60.46147" lon="7.81617">
        <ele>1136.9</ele>
        <time>2019-04-02T14:46:23Z</time>
      </trkpt>
      <trkpt lat="60.46149" lon="7.81615">
        <ele>1138.34</ele>
        <time>2019-04-02T14:46:37Z</time>
      </trkpt>
      <trkpt lat="60.46152" lon="7.81608">
        <ele>1138.34</ele>
        <time>2019-04-02T14:46:58Z</time>
      </trkpt>
      <trkpt lat="60.46156" lon="7.816">
        <ele>1138.34</ele>
        <time>2019-04-02T14:47:09Z</time>
      </trkpt>
      <trkpt lat="60.46159" lon="7.81595">
        <ele>1138.34</ele>
        <time>2019-04-02T14:47:25Z</time>
      </trkpt>
      <trkpt lat="60.46162" lon="7.81592">
        <ele>1138.34</ele>
        <time>2019-04-02T14:47:38Z</time>
      </trkpt>
      <trkpt lat="60.46161" lon="7.81592">
        <ele>1138.82</ele>
        <time>2019-04-02T14:47:55Z</time>
      </trkpt>
      <trkpt lat="60.46161" lon="7.81591">
        <ele>1136.9</ele>
        <time>2019-04-02T14:47:58Z</time>
      </trkpt>
      <trkpt lat="60.46161" lon="7.81593">
        <ele>1138.34</ele>
        <time>2019-04-02T14:48:03Z</time>
      </trkpt>
      <trkpt lat="60.4616" lon="7.81594">
        <ele>1136.42</ele>
        <time>2019-04-02T14:48:20Z</time>
      </trkpt>
      <trkpt lat="60.4616" lon="7.81595">
        <ele>1138.34</ele>
        <time>2019-04-02T14:48:39Z</time>
      </trkpt>
      <trkpt lat="60.46159" lon="7.81594">
        <ele>1136.9</ele>
        <time>2019-04-02T14:48:46Z</time>
      </trkpt>
      <trkpt lat="60.46161" lon="7.81592">
        <ele>1136.9</ele>
        <time>2019-04-02T14:49:08Z</time>
      </trkpt>
      <trkpt lat="60.46161" lon="7.81591">
        <ele>1136.9</ele>
        <time>2019-04-02T14:49:34Z</time>
      </trkpt>
      <trkpt lat="60.46161" lon="7.81591">
        <ele>1137.38</ele>
        <time>2019-04-02T14:50:03Z</time>
      </trkpt>
      <trkpt lat="60.46161" lon="7.81591">
        <ele>1137.38</ele>
        <time>2019-04-02T14:50:34Z</time>
      </trkpt>
      <trkpt lat="60.46161" lon="7.81592">
        <ele>1137.38</ele>
        <time>2019-04-02T14:50:48Z</time>
      </trkpt>
      <trkpt lat="60.46161" lon="7.81592">
        <ele>1137.38</ele>
        <time>2019-04-02T14:51:20Z</time>
      </trkpt>
      <trkpt lat="60.46161" lon="7.81591">
        <ele>1137.86</ele>
        <time>2019-04-02T14:51:46Z</time>
      </trkpt>
      <trkpt lat="60.46161" lon="7.81591">
        <ele>1137.86</ele>
        <time>2019-04-02T14:52:17Z</time>
      </trkpt>
      <trkpt lat="60.4616" lon="7.81592">
        <ele>1137.86</ele>
        <time>2019-04-02T14:52:49Z</time>
      </trkpt>
      <trkpt lat="60.46161" lon="7.81593">
        <ele>1138.34</ele>
        <time>2019-04-02T14:53:16Z</time>
      </trkpt>
      <trkpt lat="60.4616" lon="7.81593">
        <ele>1138.34</ele>
        <time>2019-04-02T14:53:56Z</time>
      </trkpt>
      <trkpt lat="60.4616" lon="7.81592">
        <ele>1138.34</ele>
        <time>2019-04-02T14:54:36Z</time>
      </trkpt>
      <trkpt lat="60.46159" lon="7.81592">
        <ele>1138.82</ele>
        <time>2019-04-02T14:55:17Z</time>
      </trkpt>
      <trkpt lat="60.46159" lon="7.81593">
        <ele>1138.82</ele>
        <time>2019-04-02T14:55:45Z</time>
      </trkpt>
      <trkpt lat="60.46159" lon="7.81593">
        <ele>1138.82</ele>
        <time>2019-04-02T14:56:21Z</time>
      </trkpt>
      <trkpt lat="60.4616" lon="7.81593">
        <ele>1139.3</ele>
        <time>2019-04-02T14:56:56Z</time>
      </trkpt>
      <trkpt lat="60.4616" lon="7.81592">
        <ele>1139.3</ele>
        <time>2019-04-02T14:57:29Z</time>
      </trkpt>
      <trkpt lat="60.4616" lon="7.81592">
        <ele>1139.3</ele>
        <time>2019-04-02T14:58:04Z</time>
      </trkpt>
      <trkpt lat="60.4616" lon="7.81592">
        <ele>1139.3</ele>
        <time>2019-04-02T14:58:34Z</time>
      </trkpt>
      <trkpt lat="60.4616" lon="7.81592">
        <ele>1140.74</ele>
        <time>2019-04-02T14:58:46Z</time>
      </trkpt>
      <trkpt lat="60.4616" lon="7.81592">
        <ele>1140.74</ele>
        <time>2019-04-02T14:59:17Z</time>
      </trkpt>
      <trkpt lat="60.4616" lon="7.81592">
        <ele>1140.74</ele>
        <time>2019-04-02T14:59:42Z</time>
      </trkpt>
      <trkpt lat="60.4616" lon="7.81592">
        <ele>1141.22</ele>
        <time>2019-04-02T15:00:19Z</time>
      </trkpt>
      <trkpt lat="60.4616" lon="7.81591">
        <ele>1141.22</ele>
        <time>2019-04-02T15:00:54Z</time>
      </trkpt>
      <trkpt lat="60.4616" lon="7.81591">
        <ele>1141.22</ele>
        <time>2019-04-02T15:01:31Z</time>
      </trkpt>
      <trkpt lat="60.46159" lon="7.81592">
        <ele>1141.7</ele>
        <time>2019-04-02T15:02:06Z</time>
      </trkpt>
      <trkpt lat="60.4616" lon="7.81592">
        <ele>1141.7</ele>
        <time>2019-04-02T15:02:41Z</time>
      </trkpt>
      <trkpt lat="60.4616" lon="7.81592">
        <ele>1142.18</ele>
        <time>2019-04-02T15:03:16Z</time>
      </trkpt>
      <trkpt lat="60.4616" lon="7.81592">
        <ele>1142.18</ele>
        <time>2019-04-02T15:03:51Z</time>
      </trkpt>
      <trkpt lat="60.46161" lon="7.81592">
        <ele>1142.18</ele>
        <time>2019-04-02T15:04:23Z</time>
      </trkpt>
      <trkpt lat="60.4616" lon="7.81592">
        <ele>1142.18</ele>
        <time>2019-04-02T15:04:54Z</time>
      </trkpt>
      <trkpt lat="60.46161" lon="7.81592">
        <ele>1142.66</ele>
        <time>2019-04-02T15:05:32Z</time>
      </trkpt>
      <trkpt lat="60.46161" lon="7.81593">
        <ele>1143.14</ele>
        <time>2019-04-02T15:06:05Z</time>
      </trkpt>
      <trkpt lat="60.46161" lon="7.81592">
        <ele>1143.14</ele>
        <time>2019-04-02T15:06:38Z</time>
      </trkpt>
      <trkpt lat="60.4616" lon="7.81593">
        <ele>1143.14</ele>
        <time>2019-04-02T15:07:16Z</time>
      </trkpt>
      <trkpt lat="60.4616" lon="7.81593">
        <ele>1143.14</ele>
        <time>2019-04-02T15:07:48Z</time>
      </trkpt>
      <trkpt lat="60.4616" lon="7.81593">
        <ele>1143.63</ele>
        <time>2019-04-02T15:08:26Z</time>
      </trkpt>
      <trkpt lat="60.46161" lon="7.81592">
        <ele>1143.63</ele>
        <time>2019-04-02T15:09:03Z</time>
      </trkpt>
      <trkpt lat="60.46161" lon="7.81592">
        <ele>1143.63</ele>
        <time>2019-04-02T15:09:48Z</time>
      </trkpt>
      <trkpt lat="60.4616" lon="7.81592">
        <ele>1144.11</ele>
        <time>2019-04-02T15:10:30Z</time>
      </trkpt>
      <trkpt lat="60.4616" lon="7.81593">
        <ele>1142.66</ele>
        <time>2019-04-02T15:10:54Z</time>
      </trkpt>
      <trkpt lat="60.4616" lon="7.81594">
        <ele>1142.66</ele>
        <time>2019-04-02T15:11:26Z</time>
      </trkpt>
      <trkpt lat="60.4616" lon="7.81595">
        <ele>1142.66</ele>
        <time>2019-04-02T15:11:55Z</time>
      </trkpt>
      <trkpt lat="60.4616" lon="7.81596">
        <ele>1143.14</ele>
        <time>2019-04-02T15:12:34Z</time>
      </trkpt>
      <trkpt lat="60.46159" lon="7.81595">
        <ele>1143.14</ele>
        <time>2019-04-02T15:12:56Z</time>
      </trkpt>
      <trkpt lat="60.4616" lon="7.81592">
        <ele>1145.07</ele>
        <time>2019-04-02T15:12:59Z</time>
      </trkpt>
      <trkpt lat="60.46161" lon="7.81595">
        <ele>1143.63</ele>
        <time>2019-04-02T15:13:16Z</time>
      </trkpt>
    </trkseg>
  </trk>
</gpx>